<?xml version="1.0" encoding="UTF-8" standalone="no" ?>
<gpx xmlns="http://www.topografix.com/GPX/1/1" xmlns:xsi="http://www.w3.org/2001/XMLSchema-instance" xsi:schemaLocation="http://www.topografix.com/GPX/1/1 http://www.topografix.com/GPX/1/1/gpx.xsd" version="1.1" creator="VisuGPX - https://www.visugpx.com">
  <metadata>
    <name>80 BJ</name>
  </metadata>
  <trk>
    <name><![CDATA[Sortie vélo le matin]]></name>
    <trkseg>
      <trkpt lat="46.11125" lon="4.72952">
        <ele>190.4</ele>
        <time>2025-07-16T07:11:12Z</time>
      </trkpt>
      <trkpt lat="46.11125" lon="4.72952">
        <ele>190.4</ele>
        <time>2025-07-16T07:11:23Z</time>
      </trkpt>
      <trkpt lat="46.11127" lon="4.72952">
        <ele>190.4</ele>
        <time>2025-07-16T07:11:25Z</time>
      </trkpt>
      <trkpt lat="46.11134" lon="4.7294">
        <ele>190.4</ele>
        <time>2025-07-16T07:11:27Z</time>
      </trkpt>
      <trkpt lat="46.11157" lon="4.729">
        <ele>190.3</ele>
        <time>2025-07-16T07:11:34Z</time>
      </trkpt>
      <trkpt lat="46.11173" lon="4.72909">
        <ele>190.1</ele>
        <time>2025-07-16T07:11:40Z</time>
      </trkpt>
      <trkpt lat="46.11193" lon="4.72914">
        <ele>190</ele>
        <time>2025-07-16T07:11:46Z</time>
      </trkpt>
      <trkpt lat="46.112" lon="4.72916">
        <ele>190</ele>
        <time>2025-07-16T07:11:48Z</time>
      </trkpt>
      <trkpt lat="46.112" lon="4.72948">
        <ele>190.4</ele>
        <time>2025-07-16T07:11:50Z</time>
      </trkpt>
      <trkpt lat="46.11215" lon="4.72951">
        <ele>190.3</ele>
        <time>2025-07-16T07:11:55Z</time>
      </trkpt>
      <trkpt lat="46.1123" lon="4.72955">
        <ele>190.1</ele>
        <time>2025-07-16T07:12:00Z</time>
      </trkpt>
      <trkpt lat="46.11251" lon="4.72959">
        <ele>190</ele>
        <time>2025-07-16T07:12:05Z</time>
      </trkpt>
      <trkpt lat="46.11255" lon="4.7296">
        <ele>190</ele>
        <time>2025-07-16T07:12:06Z</time>
      </trkpt>
      <trkpt lat="46.11259" lon="4.72968">
        <ele>190</ele>
        <time>2025-07-16T07:12:07Z</time>
      </trkpt>
      <trkpt lat="46.1126" lon="4.72976">
        <ele>190</ele>
        <time>2025-07-16T07:12:08Z</time>
      </trkpt>
      <trkpt lat="46.11257" lon="4.72995">
        <ele>189.9</ele>
        <time>2025-07-16T07:12:11Z</time>
      </trkpt>
      <trkpt lat="46.11255" lon="4.7301">
        <ele>189.9</ele>
        <time>2025-07-16T07:12:14Z</time>
      </trkpt>
      <trkpt lat="46.11253" lon="4.7302">
        <ele>189.9</ele>
        <time>2025-07-16T07:12:18Z</time>
      </trkpt>
      <trkpt lat="46.1131" lon="4.73034">
        <ele>191.2</ele>
        <time>2025-07-16T07:12:26Z</time>
      </trkpt>
      <trkpt lat="46.11346" lon="4.73046">
        <ele>192.8</ele>
        <time>2025-07-16T07:12:34Z</time>
      </trkpt>
      <trkpt lat="46.11353" lon="4.73045">
        <ele>193.2</ele>
        <time>2025-07-16T07:12:36Z</time>
      </trkpt>
      <trkpt lat="46.11361" lon="4.73048">
        <ele>193.3</ele>
        <time>2025-07-16T07:12:38Z</time>
      </trkpt>
      <trkpt lat="46.11367" lon="4.73024">
        <ele>193.9</ele>
        <time>2025-07-16T07:12:43Z</time>
      </trkpt>
      <trkpt lat="46.11375" lon="4.72996">
        <ele>194.6</ele>
        <time>2025-07-16T07:12:49Z</time>
      </trkpt>
      <trkpt lat="46.11381" lon="4.72955">
        <ele>195.4</ele>
        <time>2025-07-16T07:12:58Z</time>
      </trkpt>
      <trkpt lat="46.11384" lon="4.72922">
        <ele>195.6</ele>
        <time>2025-07-16T07:13:05Z</time>
      </trkpt>
      <trkpt lat="46.11388" lon="4.7288">
        <ele>195.2</ele>
        <time>2025-07-16T07:13:14Z</time>
      </trkpt>
      <trkpt lat="46.11391" lon="4.72846">
        <ele>194.7</ele>
        <time>2025-07-16T07:13:21Z</time>
      </trkpt>
      <trkpt lat="46.11391" lon="4.7284">
        <ele>194.6</ele>
        <time>2025-07-16T07:13:23Z</time>
      </trkpt>
      <trkpt lat="46.11391" lon="4.72835">
        <ele>194.5</ele>
        <time>2025-07-16T07:13:25Z</time>
      </trkpt>
      <trkpt lat="46.11392" lon="4.7283">
        <ele>194.4</ele>
        <time>2025-07-16T07:13:28Z</time>
      </trkpt>
      <trkpt lat="46.11392" lon="4.72827">
        <ele>194.4</ele>
        <time>2025-07-16T07:13:29Z</time>
      </trkpt>
      <trkpt lat="46.114" lon="4.72802">
        <ele>193.7</ele>
        <time>2025-07-16T07:13:33Z</time>
      </trkpt>
      <trkpt lat="46.11402" lon="4.72799">
        <ele>193.7</ele>
        <time>2025-07-16T07:13:34Z</time>
      </trkpt>
      <trkpt lat="46.11403" lon="4.72787">
        <ele>193.5</ele>
        <time>2025-07-16T07:13:35Z</time>
      </trkpt>
      <trkpt lat="46.11415" lon="4.72777">
        <ele>193.1</ele>
        <time>2025-07-16T07:13:38Z</time>
      </trkpt>
      <trkpt lat="46.11442" lon="4.72754">
        <ele>192.2</ele>
        <time>2025-07-16T07:13:44Z</time>
      </trkpt>
      <trkpt lat="46.11477" lon="4.72725">
        <ele>191.5</ele>
        <time>2025-07-16T07:13:51Z</time>
      </trkpt>
      <trkpt lat="46.11517" lon="4.72693">
        <ele>191</ele>
        <time>2025-07-16T07:13:58Z</time>
      </trkpt>
      <trkpt lat="46.11564" lon="4.72657">
        <ele>190.8</ele>
        <time>2025-07-16T07:14:07Z</time>
      </trkpt>
      <trkpt lat="46.11611" lon="4.72621">
        <ele>190.7</ele>
        <time>2025-07-16T07:14:17Z</time>
      </trkpt>
      <trkpt lat="46.1165" lon="4.7259">
        <ele>190.6</ele>
        <time>2025-07-16T07:14:26Z</time>
      </trkpt>
      <trkpt lat="46.11685" lon="4.72563">
        <ele>190.6</ele>
        <time>2025-07-16T07:14:34Z</time>
      </trkpt>
      <trkpt lat="46.11724" lon="4.72533">
        <ele>190.7</ele>
        <time>2025-07-16T07:14:43Z</time>
      </trkpt>
      <trkpt lat="46.11762" lon="4.72503">
        <ele>190.9</ele>
        <time>2025-07-16T07:14:52Z</time>
      </trkpt>
      <trkpt lat="46.11796" lon="4.72477">
        <ele>191.1</ele>
        <time>2025-07-16T07:15:00Z</time>
      </trkpt>
      <trkpt lat="46.11833" lon="4.72448">
        <ele>191.2</ele>
        <time>2025-07-16T07:15:09Z</time>
      </trkpt>
      <trkpt lat="46.11863" lon="4.72419">
        <ele>191.4</ele>
        <time>2025-07-16T07:15:17Z</time>
      </trkpt>
      <trkpt lat="46.11892" lon="4.72387">
        <ele>191.6</ele>
        <time>2025-07-16T07:15:25Z</time>
      </trkpt>
      <trkpt lat="46.1192" lon="4.72342">
        <ele>191.6</ele>
        <time>2025-07-16T07:15:34Z</time>
      </trkpt>
      <trkpt lat="46.11947" lon="4.72296">
        <ele>191.8</ele>
        <time>2025-07-16T07:15:44Z</time>
      </trkpt>
      <trkpt lat="46.11976" lon="4.72248">
        <ele>191.8</ele>
        <time>2025-07-16T07:15:54Z</time>
      </trkpt>
      <trkpt lat="46.12001" lon="4.72205">
        <ele>191.9</ele>
        <time>2025-07-16T07:16:03Z</time>
      </trkpt>
      <trkpt lat="46.12006" lon="4.72196">
        <ele>191.9</ele>
        <time>2025-07-16T07:16:05Z</time>
      </trkpt>
      <trkpt lat="46.12011" lon="4.72185">
        <ele>192</ele>
        <time>2025-07-16T07:16:07Z</time>
      </trkpt>
      <trkpt lat="46.12012" lon="4.7218">
        <ele>192</ele>
        <time>2025-07-16T07:16:08Z</time>
      </trkpt>
      <trkpt lat="46.12021" lon="4.72128">
        <ele>192.3</ele>
        <time>2025-07-16T07:16:17Z</time>
      </trkpt>
      <trkpt lat="46.12026" lon="4.7209">
        <ele>192.5</ele>
        <time>2025-07-16T07:16:23Z</time>
      </trkpt>
      <trkpt lat="46.12032" lon="4.72081">
        <ele>192.6</ele>
        <time>2025-07-16T07:16:25Z</time>
      </trkpt>
      <trkpt lat="46.12038" lon="4.72074">
        <ele>192.6</ele>
        <time>2025-07-16T07:16:27Z</time>
      </trkpt>
      <trkpt lat="46.12047" lon="4.72064">
        <ele>192.7</ele>
        <time>2025-07-16T07:16:30Z</time>
      </trkpt>
      <trkpt lat="46.12054" lon="4.72056">
        <ele>192.7</ele>
        <time>2025-07-16T07:16:32Z</time>
      </trkpt>
      <trkpt lat="46.12062" lon="4.72053">
        <ele>192.8</ele>
        <time>2025-07-16T07:16:34Z</time>
      </trkpt>
      <trkpt lat="46.12066" lon="4.72052">
        <ele>192.9</ele>
        <time>2025-07-16T07:16:35Z</time>
      </trkpt>
      <trkpt lat="46.12071" lon="4.72051">
        <ele>192.9</ele>
        <time>2025-07-16T07:16:36Z</time>
      </trkpt>
      <trkpt lat="46.12085" lon="4.72067">
        <ele>192.9</ele>
        <time>2025-07-16T07:16:39Z</time>
      </trkpt>
      <trkpt lat="46.12091" lon="4.72073">
        <ele>192.8</ele>
        <time>2025-07-16T07:16:41Z</time>
      </trkpt>
      <trkpt lat="46.121" lon="4.72073">
        <ele>192.8</ele>
        <time>2025-07-16T07:16:43Z</time>
      </trkpt>
      <trkpt lat="46.12109" lon="4.72058">
        <ele>192.9</ele>
        <time>2025-07-16T07:16:47Z</time>
      </trkpt>
      <trkpt lat="46.12111" lon="4.72054">
        <ele>192.9</ele>
        <time>2025-07-16T07:16:48Z</time>
      </trkpt>
      <trkpt lat="46.12117" lon="4.72056">
        <ele>192.9</ele>
        <time>2025-07-16T07:16:50Z</time>
      </trkpt>
      <trkpt lat="46.12122" lon="4.7206">
        <ele>192.9</ele>
        <time>2025-07-16T07:16:52Z</time>
      </trkpt>
      <trkpt lat="46.12126" lon="4.72064">
        <ele>192.9</ele>
        <time>2025-07-16T07:16:54Z</time>
      </trkpt>
      <trkpt lat="46.1213" lon="4.72051">
        <ele>192.9</ele>
        <time>2025-07-16T07:16:58Z</time>
      </trkpt>
      <trkpt lat="46.1214" lon="4.72016">
        <ele>192.9</ele>
        <time>2025-07-16T07:17:05Z</time>
      </trkpt>
      <trkpt lat="46.12157" lon="4.71971">
        <ele>193.1</ele>
        <time>2025-07-16T07:17:13Z</time>
      </trkpt>
      <trkpt lat="46.12171" lon="4.71934">
        <ele>193.3</ele>
        <time>2025-07-16T07:17:19Z</time>
      </trkpt>
      <trkpt lat="46.12174" lon="4.7193">
        <ele>193.3</ele>
        <time>2025-07-16T07:17:20Z</time>
      </trkpt>
      <trkpt lat="46.12199" lon="4.71893">
        <ele>193.7</ele>
        <time>2025-07-16T07:17:28Z</time>
      </trkpt>
      <trkpt lat="46.12213" lon="4.71874">
        <ele>193.8</ele>
        <time>2025-07-16T07:17:34Z</time>
      </trkpt>
      <trkpt lat="46.12202" lon="4.71854">
        <ele>193.8</ele>
        <time>2025-07-16T07:17:39Z</time>
      </trkpt>
      <trkpt lat="46.12184" lon="4.71839">
        <ele>193.7</ele>
        <time>2025-07-16T07:17:44Z</time>
      </trkpt>
      <trkpt lat="46.12151" lon="4.71828">
        <ele>193.9</ele>
        <time>2025-07-16T07:17:52Z</time>
      </trkpt>
      <trkpt lat="46.12111" lon="4.71811">
        <ele>194.1</ele>
        <time>2025-07-16T07:18:01Z</time>
      </trkpt>
      <trkpt lat="46.12093" lon="4.71804">
        <ele>194.2</ele>
        <time>2025-07-16T07:18:05Z</time>
      </trkpt>
      <trkpt lat="46.12085" lon="4.71801">
        <ele>194.3</ele>
        <time>2025-07-16T07:18:07Z</time>
      </trkpt>
      <trkpt lat="46.12084" lon="4.71789">
        <ele>194.3</ele>
        <time>2025-07-16T07:18:09Z</time>
      </trkpt>
      <trkpt lat="46.12086" lon="4.71783">
        <ele>194.3</ele>
        <time>2025-07-16T07:18:10Z</time>
      </trkpt>
      <trkpt lat="46.12097" lon="4.71743">
        <ele>194.5</ele>
        <time>2025-07-16T07:18:17Z</time>
      </trkpt>
      <trkpt lat="46.12107" lon="4.71702">
        <ele>194.8</ele>
        <time>2025-07-16T07:18:24Z</time>
      </trkpt>
      <trkpt lat="46.12119" lon="4.71658">
        <ele>195.1</ele>
        <time>2025-07-16T07:18:31Z</time>
      </trkpt>
      <trkpt lat="46.12134" lon="4.71601">
        <ele>195.5</ele>
        <time>2025-07-16T07:18:40Z</time>
      </trkpt>
      <trkpt lat="46.12146" lon="4.71556">
        <ele>195.7</ele>
        <time>2025-07-16T07:18:47Z</time>
      </trkpt>
      <trkpt lat="46.12161" lon="4.71499">
        <ele>196</ele>
        <time>2025-07-16T07:18:56Z</time>
      </trkpt>
      <trkpt lat="46.12173" lon="4.71455">
        <ele>196.3</ele>
        <time>2025-07-16T07:19:03Z</time>
      </trkpt>
      <trkpt lat="46.12183" lon="4.71433">
        <ele>196.4</ele>
        <time>2025-07-16T07:19:08Z</time>
      </trkpt>
      <trkpt lat="46.12193" lon="4.71402">
        <ele>196.5</ele>
        <time>2025-07-16T07:19:14Z</time>
      </trkpt>
      <trkpt lat="46.12207" lon="4.71356">
        <ele>196.8</ele>
        <time>2025-07-16T07:19:23Z</time>
      </trkpt>
      <trkpt lat="46.1222" lon="4.71306">
        <ele>197.2</ele>
        <time>2025-07-16T07:19:32Z</time>
      </trkpt>
      <trkpt lat="46.12232" lon="4.7126">
        <ele>197.6</ele>
        <time>2025-07-16T07:19:40Z</time>
      </trkpt>
      <trkpt lat="46.1225" lon="4.71194">
        <ele>198.3</ele>
        <time>2025-07-16T07:19:51Z</time>
      </trkpt>
      <trkpt lat="46.12255" lon="4.71175">
        <ele>198.5</ele>
        <time>2025-07-16T07:19:54Z</time>
      </trkpt>
      <trkpt lat="46.12256" lon="4.71162">
        <ele>198.6</ele>
        <time>2025-07-16T07:19:56Z</time>
      </trkpt>
      <trkpt lat="46.12256" lon="4.71156">
        <ele>198.6</ele>
        <time>2025-07-16T07:19:57Z</time>
      </trkpt>
      <trkpt lat="46.12256" lon="4.7115">
        <ele>198.7</ele>
        <time>2025-07-16T07:19:58Z</time>
      </trkpt>
      <trkpt lat="46.12257" lon="4.71136">
        <ele>198.8</ele>
        <time>2025-07-16T07:20:00Z</time>
      </trkpt>
      <trkpt lat="46.12259" lon="4.71129">
        <ele>198.8</ele>
        <time>2025-07-16T07:20:01Z</time>
      </trkpt>
      <trkpt lat="46.12271" lon="4.71082">
        <ele>199.1</ele>
        <time>2025-07-16T07:20:09Z</time>
      </trkpt>
      <trkpt lat="46.12286" lon="4.71021">
        <ele>199.2</ele>
        <time>2025-07-16T07:20:19Z</time>
      </trkpt>
      <trkpt lat="46.123" lon="4.70969">
        <ele>199.4</ele>
        <time>2025-07-16T07:20:27Z</time>
      </trkpt>
      <trkpt lat="46.12312" lon="4.70922">
        <ele>199.6</ele>
        <time>2025-07-16T07:20:34Z</time>
      </trkpt>
      <trkpt lat="46.12324" lon="4.70875">
        <ele>199.8</ele>
        <time>2025-07-16T07:20:41Z</time>
      </trkpt>
      <trkpt lat="46.12336" lon="4.70827">
        <ele>200</ele>
        <time>2025-07-16T07:20:48Z</time>
      </trkpt>
      <trkpt lat="46.12348" lon="4.70779">
        <ele>200.3</ele>
        <time>2025-07-16T07:20:55Z</time>
      </trkpt>
      <trkpt lat="46.12361" lon="4.70729">
        <ele>200.6</ele>
        <time>2025-07-16T07:21:02Z</time>
      </trkpt>
      <trkpt lat="46.12376" lon="4.70672">
        <ele>201</ele>
        <time>2025-07-16T07:21:11Z</time>
      </trkpt>
      <trkpt lat="46.12385" lon="4.70635">
        <ele>201.2</ele>
        <time>2025-07-16T07:21:17Z</time>
      </trkpt>
      <trkpt lat="46.1239" lon="4.70616">
        <ele>201.3</ele>
        <time>2025-07-16T07:21:20Z</time>
      </trkpt>
      <trkpt lat="46.12399" lon="4.70578">
        <ele>201.5</ele>
        <time>2025-07-16T07:21:26Z</time>
      </trkpt>
      <trkpt lat="46.12412" lon="4.70528">
        <ele>201.6</ele>
        <time>2025-07-16T07:21:34Z</time>
      </trkpt>
      <trkpt lat="46.12424" lon="4.7048">
        <ele>201.6</ele>
        <time>2025-07-16T07:21:42Z</time>
      </trkpt>
      <trkpt lat="46.12426" lon="4.70473">
        <ele>201.7</ele>
        <time>2025-07-16T07:21:43Z</time>
      </trkpt>
      <trkpt lat="46.12435" lon="4.70438">
        <ele>201.7</ele>
        <time>2025-07-16T07:21:48Z</time>
      </trkpt>
      <trkpt lat="46.12446" lon="4.70393">
        <ele>201.8</ele>
        <time>2025-07-16T07:21:55Z</time>
      </trkpt>
      <trkpt lat="46.12461" lon="4.70336">
        <ele>201.6</ele>
        <time>2025-07-16T07:22:03Z</time>
      </trkpt>
      <trkpt lat="46.12471" lon="4.70296">
        <ele>201.5</ele>
        <time>2025-07-16T07:22:09Z</time>
      </trkpt>
      <trkpt lat="46.12478" lon="4.7027">
        <ele>201.4</ele>
        <time>2025-07-16T07:22:13Z</time>
      </trkpt>
      <trkpt lat="46.12481" lon="4.70255">
        <ele>201.4</ele>
        <time>2025-07-16T07:22:15Z</time>
      </trkpt>
      <trkpt lat="46.12483" lon="4.70248">
        <ele>201.4</ele>
        <time>2025-07-16T07:22:16Z</time>
      </trkpt>
      <trkpt lat="46.12498" lon="4.70189">
        <ele>201.3</ele>
        <time>2025-07-16T07:22:24Z</time>
      </trkpt>
      <trkpt lat="46.1251" lon="4.70144">
        <ele>201.3</ele>
        <time>2025-07-16T07:22:30Z</time>
      </trkpt>
      <trkpt lat="46.12525" lon="4.70085">
        <ele>201.5</ele>
        <time>2025-07-16T07:22:38Z</time>
      </trkpt>
      <trkpt lat="46.12534" lon="4.70039">
        <ele>201.8</ele>
        <time>2025-07-16T07:22:45Z</time>
      </trkpt>
      <trkpt lat="46.12537" lon="4.70005">
        <ele>202.1</ele>
        <time>2025-07-16T07:22:51Z</time>
      </trkpt>
      <trkpt lat="46.1254" lon="4.69963">
        <ele>202.5</ele>
        <time>2025-07-16T07:22:58Z</time>
      </trkpt>
      <trkpt lat="46.12542" lon="4.69935">
        <ele>202.8</ele>
        <time>2025-07-16T07:23:03Z</time>
      </trkpt>
      <trkpt lat="46.12541" lon="4.69886">
        <ele>203.4</ele>
        <time>2025-07-16T07:23:10Z</time>
      </trkpt>
      <trkpt lat="46.12538" lon="4.69844">
        <ele>204</ele>
        <time>2025-07-16T07:23:16Z</time>
      </trkpt>
      <trkpt lat="46.12535" lon="4.698">
        <ele>204.4</ele>
        <time>2025-07-16T07:23:23Z</time>
      </trkpt>
      <trkpt lat="46.12529" lon="4.69752">
        <ele>204.9</ele>
        <time>2025-07-16T07:23:31Z</time>
      </trkpt>
      <trkpt lat="46.12521" lon="4.69717">
        <ele>205.1</ele>
        <time>2025-07-16T07:23:37Z</time>
      </trkpt>
      <trkpt lat="46.12508" lon="4.69672">
        <ele>205.5</ele>
        <time>2025-07-16T07:23:45Z</time>
      </trkpt>
      <trkpt lat="46.12497" lon="4.69637">
        <ele>205.7</ele>
        <time>2025-07-16T07:23:52Z</time>
      </trkpt>
      <trkpt lat="46.12485" lon="4.69601">
        <ele>205.7</ele>
        <time>2025-07-16T07:23:59Z</time>
      </trkpt>
      <trkpt lat="46.12472" lon="4.69563">
        <ele>205.7</ele>
        <time>2025-07-16T07:24:06Z</time>
      </trkpt>
      <trkpt lat="46.12459" lon="4.69524">
        <ele>206</ele>
        <time>2025-07-16T07:24:13Z</time>
      </trkpt>
      <trkpt lat="46.12447" lon="4.69487">
        <ele>206.3</ele>
        <time>2025-07-16T07:24:19Z</time>
      </trkpt>
      <trkpt lat="46.12435" lon="4.69452">
        <ele>206.6</ele>
        <time>2025-07-16T07:24:25Z</time>
      </trkpt>
      <trkpt lat="46.12429" lon="4.69435">
        <ele>206.8</ele>
        <time>2025-07-16T07:24:28Z</time>
      </trkpt>
      <trkpt lat="46.12425" lon="4.69423">
        <ele>206.9</ele>
        <time>2025-07-16T07:24:30Z</time>
      </trkpt>
      <trkpt lat="46.12424" lon="4.69417">
        <ele>207</ele>
        <time>2025-07-16T07:24:31Z</time>
      </trkpt>
      <trkpt lat="46.12415" lon="4.69392">
        <ele>207.4</ele>
        <time>2025-07-16T07:24:36Z</time>
      </trkpt>
      <trkpt lat="46.12408" lon="4.69368">
        <ele>207.7</ele>
        <time>2025-07-16T07:24:41Z</time>
      </trkpt>
      <trkpt lat="46.124" lon="4.69332">
        <ele>207.9</ele>
        <time>2025-07-16T07:24:48Z</time>
      </trkpt>
      <trkpt lat="46.12391" lon="4.69292">
        <ele>208</ele>
        <time>2025-07-16T07:24:55Z</time>
      </trkpt>
      <trkpt lat="46.12379" lon="4.69241">
        <ele>208.5</ele>
        <time>2025-07-16T07:25:04Z</time>
      </trkpt>
      <trkpt lat="46.12376" lon="4.69186">
        <ele>209</ele>
        <time>2025-07-16T07:25:13Z</time>
      </trkpt>
      <trkpt lat="46.12373" lon="4.69138">
        <ele>209.5</ele>
        <time>2025-07-16T07:25:21Z</time>
      </trkpt>
      <trkpt lat="46.12371" lon="4.69089">
        <ele>210</ele>
        <time>2025-07-16T07:25:29Z</time>
      </trkpt>
      <trkpt lat="46.12371" lon="4.69046">
        <ele>210.4</ele>
        <time>2025-07-16T07:25:36Z</time>
      </trkpt>
      <trkpt lat="46.12373" lon="4.68998">
        <ele>210.8</ele>
        <time>2025-07-16T07:25:44Z</time>
      </trkpt>
      <trkpt lat="46.12376" lon="4.68956">
        <ele>211.3</ele>
        <time>2025-07-16T07:25:52Z</time>
      </trkpt>
      <trkpt lat="46.12378" lon="4.68919">
        <ele>211.6</ele>
        <time>2025-07-16T07:25:59Z</time>
      </trkpt>
      <trkpt lat="46.1238" lon="4.68882">
        <ele>211.9</ele>
        <time>2025-07-16T07:26:06Z</time>
      </trkpt>
      <trkpt lat="46.12382" lon="4.68842">
        <ele>212.4</ele>
        <time>2025-07-16T07:26:13Z</time>
      </trkpt>
      <trkpt lat="46.12384" lon="4.6881">
        <ele>212.8</ele>
        <time>2025-07-16T07:26:19Z</time>
      </trkpt>
      <trkpt lat="46.12384" lon="4.68776">
        <ele>213.1</ele>
        <time>2025-07-16T07:26:25Z</time>
      </trkpt>
      <trkpt lat="46.12383" lon="4.68735">
        <ele>213.6</ele>
        <time>2025-07-16T07:26:32Z</time>
      </trkpt>
      <trkpt lat="46.12382" lon="4.68696">
        <ele>214</ele>
        <time>2025-07-16T07:26:38Z</time>
      </trkpt>
      <trkpt lat="46.12379" lon="4.68643">
        <ele>214.6</ele>
        <time>2025-07-16T07:26:46Z</time>
      </trkpt>
      <trkpt lat="46.12373" lon="4.68605">
        <ele>215</ele>
        <time>2025-07-16T07:26:52Z</time>
      </trkpt>
      <trkpt lat="46.12366" lon="4.68562">
        <ele>215.4</ele>
        <time>2025-07-16T07:26:59Z</time>
      </trkpt>
      <trkpt lat="46.12358" lon="4.68512">
        <ele>215.8</ele>
        <time>2025-07-16T07:27:07Z</time>
      </trkpt>
      <trkpt lat="46.12353" lon="4.68477">
        <ele>215.9</ele>
        <time>2025-07-16T07:27:13Z</time>
      </trkpt>
      <trkpt lat="46.12345" lon="4.68431">
        <ele>215.8</ele>
        <time>2025-07-16T07:27:20Z</time>
      </trkpt>
      <trkpt lat="46.12339" lon="4.6839">
        <ele>215.7</ele>
        <time>2025-07-16T07:27:26Z</time>
      </trkpt>
      <trkpt lat="46.12331" lon="4.6834">
        <ele>215.6</ele>
        <time>2025-07-16T07:27:33Z</time>
      </trkpt>
      <trkpt lat="46.12322" lon="4.68284">
        <ele>215.5</ele>
        <time>2025-07-16T07:27:40Z</time>
      </trkpt>
      <trkpt lat="46.12313" lon="4.68231">
        <ele>215.5</ele>
        <time>2025-07-16T07:27:47Z</time>
      </trkpt>
      <trkpt lat="46.12306" lon="4.68183">
        <ele>215.4</ele>
        <time>2025-07-16T07:27:54Z</time>
      </trkpt>
      <trkpt lat="46.12297" lon="4.68126">
        <ele>215.2</ele>
        <time>2025-07-16T07:28:02Z</time>
      </trkpt>
      <trkpt lat="46.12286" lon="4.68063">
        <ele>215.4</ele>
        <time>2025-07-16T07:28:11Z</time>
      </trkpt>
      <trkpt lat="46.12278" lon="4.68009">
        <ele>215.6</ele>
        <time>2025-07-16T07:28:19Z</time>
      </trkpt>
      <trkpt lat="46.12272" lon="4.67971">
        <ele>215.7</ele>
        <time>2025-07-16T07:28:26Z</time>
      </trkpt>
      <trkpt lat="46.12266" lon="4.67933">
        <ele>215.8</ele>
        <time>2025-07-16T07:28:33Z</time>
      </trkpt>
      <trkpt lat="46.12258" lon="4.67886">
        <ele>216</ele>
        <time>2025-07-16T07:28:41Z</time>
      </trkpt>
      <trkpt lat="46.12251" lon="4.6784">
        <ele>216.5</ele>
        <time>2025-07-16T07:28:49Z</time>
      </trkpt>
      <trkpt lat="46.12245" lon="4.67805">
        <ele>216.8</ele>
        <time>2025-07-16T07:28:55Z</time>
      </trkpt>
      <trkpt lat="46.12239" lon="4.67766">
        <ele>217</ele>
        <time>2025-07-16T07:29:01Z</time>
      </trkpt>
      <trkpt lat="46.12231" lon="4.67714">
        <ele>217</ele>
        <time>2025-07-16T07:29:08Z</time>
      </trkpt>
      <trkpt lat="46.12221" lon="4.67652">
        <ele>216.9</ele>
        <time>2025-07-16T07:29:17Z</time>
      </trkpt>
      <trkpt lat="46.12212" lon="4.67597">
        <ele>216.9</ele>
        <time>2025-07-16T07:29:25Z</time>
      </trkpt>
      <trkpt lat="46.12203" lon="4.67544">
        <ele>217.3</ele>
        <time>2025-07-16T07:29:33Z</time>
      </trkpt>
      <trkpt lat="46.12195" lon="4.67493">
        <ele>217.7</ele>
        <time>2025-07-16T07:29:40Z</time>
      </trkpt>
      <trkpt lat="46.12189" lon="4.67452">
        <ele>218</ele>
        <time>2025-07-16T07:29:46Z</time>
      </trkpt>
      <trkpt lat="46.12179" lon="4.6739">
        <ele>218.6</ele>
        <time>2025-07-16T07:29:55Z</time>
      </trkpt>
      <trkpt lat="46.1217" lon="4.67338">
        <ele>218.8</ele>
        <time>2025-07-16T07:30:03Z</time>
      </trkpt>
      <trkpt lat="46.12165" lon="4.67306">
        <ele>218.8</ele>
        <time>2025-07-16T07:30:08Z</time>
      </trkpt>
      <trkpt lat="46.12158" lon="4.67263">
        <ele>218.9</ele>
        <time>2025-07-16T07:30:15Z</time>
      </trkpt>
      <trkpt lat="46.12153" lon="4.67233">
        <ele>219</ele>
        <time>2025-07-16T07:30:20Z</time>
      </trkpt>
      <trkpt lat="46.12146" lon="4.67187">
        <ele>219.1</ele>
        <time>2025-07-16T07:30:27Z</time>
      </trkpt>
      <trkpt lat="46.12135" lon="4.67138">
        <ele>219.5</ele>
        <time>2025-07-16T07:30:35Z</time>
      </trkpt>
      <trkpt lat="46.12125" lon="4.67093">
        <ele>220</ele>
        <time>2025-07-16T07:30:43Z</time>
      </trkpt>
      <trkpt lat="46.12115" lon="4.67045">
        <ele>220.4</ele>
        <time>2025-07-16T07:30:52Z</time>
      </trkpt>
      <trkpt lat="46.12106" lon="4.67002">
        <ele>220.9</ele>
        <time>2025-07-16T07:31:00Z</time>
      </trkpt>
      <trkpt lat="46.12097" lon="4.66959">
        <ele>221.5</ele>
        <time>2025-07-16T07:31:08Z</time>
      </trkpt>
      <trkpt lat="46.12091" lon="4.66928">
        <ele>222</ele>
        <time>2025-07-16T07:31:14Z</time>
      </trkpt>
      <trkpt lat="46.12085" lon="4.66897">
        <ele>222.7</ele>
        <time>2025-07-16T07:31:21Z</time>
      </trkpt>
      <trkpt lat="46.1208" lon="4.66877">
        <ele>222.6</ele>
        <time>2025-07-16T07:31:26Z</time>
      </trkpt>
      <trkpt lat="46.12071" lon="4.66833">
        <ele>222.4</ele>
        <time>2025-07-16T07:31:34Z</time>
      </trkpt>
      <trkpt lat="46.12062" lon="4.66795">
        <ele>222.4</ele>
        <time>2025-07-16T07:31:41Z</time>
      </trkpt>
      <trkpt lat="46.12054" lon="4.66754">
        <ele>222.5</ele>
        <time>2025-07-16T07:31:48Z</time>
      </trkpt>
      <trkpt lat="46.12046" lon="4.66714">
        <ele>222.5</ele>
        <time>2025-07-16T07:31:55Z</time>
      </trkpt>
      <trkpt lat="46.12037" lon="4.66674">
        <ele>222.5</ele>
        <time>2025-07-16T07:32:02Z</time>
      </trkpt>
      <trkpt lat="46.1203" lon="4.66641">
        <ele>222.6</ele>
        <time>2025-07-16T07:32:08Z</time>
      </trkpt>
      <trkpt lat="46.1202" lon="4.66598">
        <ele>222.8</ele>
        <time>2025-07-16T07:32:15Z</time>
      </trkpt>
      <trkpt lat="46.12012" lon="4.66564">
        <ele>223.2</ele>
        <time>2025-07-16T07:32:21Z</time>
      </trkpt>
      <trkpt lat="46.12003" lon="4.66525">
        <ele>223.5</ele>
        <time>2025-07-16T07:32:28Z</time>
      </trkpt>
      <trkpt lat="46.11994" lon="4.66484">
        <ele>223.7</ele>
        <time>2025-07-16T07:32:35Z</time>
      </trkpt>
      <trkpt lat="46.11984" lon="4.66438">
        <ele>223.7</ele>
        <time>2025-07-16T07:32:43Z</time>
      </trkpt>
      <trkpt lat="46.11974" lon="4.66397">
        <ele>223.9</ele>
        <time>2025-07-16T07:32:50Z</time>
      </trkpt>
      <trkpt lat="46.11963" lon="4.66349">
        <ele>224.2</ele>
        <time>2025-07-16T07:32:58Z</time>
      </trkpt>
      <trkpt lat="46.11952" lon="4.66299">
        <ele>224.3</ele>
        <time>2025-07-16T07:33:06Z</time>
      </trkpt>
      <trkpt lat="46.11944" lon="4.6626">
        <ele>224.5</ele>
        <time>2025-07-16T07:33:12Z</time>
      </trkpt>
      <trkpt lat="46.11936" lon="4.66217">
        <ele>224.8</ele>
        <time>2025-07-16T07:33:19Z</time>
      </trkpt>
      <trkpt lat="46.11928" lon="4.66168">
        <ele>225.2</ele>
        <time>2025-07-16T07:33:27Z</time>
      </trkpt>
      <trkpt lat="46.11923" lon="4.66126">
        <ele>225.6</ele>
        <time>2025-07-16T07:33:34Z</time>
      </trkpt>
      <trkpt lat="46.11919" lon="4.6608">
        <ele>225.7</ele>
        <time>2025-07-16T07:33:42Z</time>
      </trkpt>
      <trkpt lat="46.11914" lon="4.66022">
        <ele>225.8</ele>
        <time>2025-07-16T07:33:51Z</time>
      </trkpt>
      <trkpt lat="46.1191" lon="4.65966">
        <ele>225.9</ele>
        <time>2025-07-16T07:34:00Z</time>
      </trkpt>
      <trkpt lat="46.11907" lon="4.65902">
        <ele>226.2</ele>
        <time>2025-07-16T07:34:10Z</time>
      </trkpt>
      <trkpt lat="46.11906" lon="4.65858">
        <ele>226.4</ele>
        <time>2025-07-16T07:34:17Z</time>
      </trkpt>
      <trkpt lat="46.11904" lon="4.65807">
        <ele>226.7</ele>
        <time>2025-07-16T07:34:25Z</time>
      </trkpt>
      <trkpt lat="46.11901" lon="4.6573">
        <ele>227</ele>
        <time>2025-07-16T07:34:37Z</time>
      </trkpt>
      <trkpt lat="46.11899" lon="4.65677">
        <ele>227.4</ele>
        <time>2025-07-16T07:34:46Z</time>
      </trkpt>
      <trkpt lat="46.11898" lon="4.65665">
        <ele>227.4</ele>
        <time>2025-07-16T07:34:48Z</time>
      </trkpt>
      <trkpt lat="46.11897" lon="4.65639">
        <ele>227.6</ele>
        <time>2025-07-16T07:34:52Z</time>
      </trkpt>
      <trkpt lat="46.11894" lon="4.6557">
        <ele>228.2</ele>
        <time>2025-07-16T07:35:03Z</time>
      </trkpt>
      <trkpt lat="46.11892" lon="4.65521">
        <ele>228.4</ele>
        <time>2025-07-16T07:35:12Z</time>
      </trkpt>
      <trkpt lat="46.1189" lon="4.65479">
        <ele>228.6</ele>
        <time>2025-07-16T07:35:19Z</time>
      </trkpt>
      <trkpt lat="46.11887" lon="4.6542">
        <ele>229.1</ele>
        <time>2025-07-16T07:35:29Z</time>
      </trkpt>
      <trkpt lat="46.11884" lon="4.65361">
        <ele>229.7</ele>
        <time>2025-07-16T07:35:39Z</time>
      </trkpt>
      <trkpt lat="46.11882" lon="4.65318">
        <ele>230</ele>
        <time>2025-07-16T07:35:47Z</time>
      </trkpt>
      <trkpt lat="46.1188" lon="4.65279">
        <ele>230.4</ele>
        <time>2025-07-16T07:35:54Z</time>
      </trkpt>
      <trkpt lat="46.11878" lon="4.65235">
        <ele>230.8</ele>
        <time>2025-07-16T07:36:02Z</time>
      </trkpt>
      <trkpt lat="46.11876" lon="4.65193">
        <ele>231.5</ele>
        <time>2025-07-16T07:36:10Z</time>
      </trkpt>
      <trkpt lat="46.11874" lon="4.65151">
        <ele>232</ele>
        <time>2025-07-16T07:36:18Z</time>
      </trkpt>
      <trkpt lat="46.11872" lon="4.6511">
        <ele>232</ele>
        <time>2025-07-16T07:36:25Z</time>
      </trkpt>
      <trkpt lat="46.11871" lon="4.65061">
        <ele>232.2</ele>
        <time>2025-07-16T07:36:33Z</time>
      </trkpt>
      <trkpt lat="46.11869" lon="4.65013">
        <ele>232.5</ele>
        <time>2025-07-16T07:36:41Z</time>
      </trkpt>
      <trkpt lat="46.11868" lon="4.64995">
        <ele>232.6</ele>
        <time>2025-07-16T07:36:44Z</time>
      </trkpt>
      <trkpt lat="46.11868" lon="4.6497">
        <ele>232.8</ele>
        <time>2025-07-16T07:36:48Z</time>
      </trkpt>
      <trkpt lat="46.11866" lon="4.64925">
        <ele>233.2</ele>
        <time>2025-07-16T07:36:56Z</time>
      </trkpt>
      <trkpt lat="46.11867" lon="4.64882">
        <ele>233.5</ele>
        <time>2025-07-16T07:37:03Z</time>
      </trkpt>
      <trkpt lat="46.1187" lon="4.64833">
        <ele>233.9</ele>
        <time>2025-07-16T07:37:11Z</time>
      </trkpt>
      <trkpt lat="46.11873" lon="4.64792">
        <ele>234.4</ele>
        <time>2025-07-16T07:37:18Z</time>
      </trkpt>
      <trkpt lat="46.1188" lon="4.64745">
        <ele>234.8</ele>
        <time>2025-07-16T07:37:26Z</time>
      </trkpt>
      <trkpt lat="46.11888" lon="4.64689">
        <ele>235.2</ele>
        <time>2025-07-16T07:37:36Z</time>
      </trkpt>
      <trkpt lat="46.11897" lon="4.6465">
        <ele>235.4</ele>
        <time>2025-07-16T07:37:44Z</time>
      </trkpt>
      <trkpt lat="46.11906" lon="4.64616">
        <ele>235.6</ele>
        <time>2025-07-16T07:37:51Z</time>
      </trkpt>
      <trkpt lat="46.11916" lon="4.64572">
        <ele>235.9</ele>
        <time>2025-07-16T07:37:59Z</time>
      </trkpt>
      <trkpt lat="46.11925" lon="4.64536">
        <ele>236.1</ele>
        <time>2025-07-16T07:38:06Z</time>
      </trkpt>
      <trkpt lat="46.11944" lon="4.64478">
        <ele>236.4</ele>
        <time>2025-07-16T07:38:17Z</time>
      </trkpt>
      <trkpt lat="46.1196" lon="4.64434">
        <ele>236.7</ele>
        <time>2025-07-16T07:38:25Z</time>
      </trkpt>
      <trkpt lat="46.11967" lon="4.64416">
        <ele>236.8</ele>
        <time>2025-07-16T07:38:29Z</time>
      </trkpt>
      <trkpt lat="46.11981" lon="4.64384">
        <ele>236.6</ele>
        <time>2025-07-16T07:38:35Z</time>
      </trkpt>
      <trkpt lat="46.12003" lon="4.64342">
        <ele>236.5</ele>
        <time>2025-07-16T07:38:43Z</time>
      </trkpt>
      <trkpt lat="46.12022" lon="4.64305">
        <ele>236.4</ele>
        <time>2025-07-16T07:38:50Z</time>
      </trkpt>
      <trkpt lat="46.12043" lon="4.64267">
        <ele>236.4</ele>
        <time>2025-07-16T07:38:58Z</time>
      </trkpt>
      <trkpt lat="46.12067" lon="4.64229">
        <ele>236.5</ele>
        <time>2025-07-16T07:39:06Z</time>
      </trkpt>
      <trkpt lat="46.12092" lon="4.64187">
        <ele>236.8</ele>
        <time>2025-07-16T07:39:15Z</time>
      </trkpt>
      <trkpt lat="46.12114" lon="4.64153">
        <ele>237</ele>
        <time>2025-07-16T07:39:25Z</time>
      </trkpt>
      <trkpt lat="46.12121" lon="4.64141">
        <ele>237.1</ele>
        <time>2025-07-16T07:39:26Z</time>
      </trkpt>
      <trkpt lat="46.1214" lon="4.64111">
        <ele>237.4</ele>
        <time>2025-07-16T07:39:33Z</time>
      </trkpt>
      <trkpt lat="46.12153" lon="4.6409">
        <ele>237.6</ele>
        <time>2025-07-16T07:39:38Z</time>
      </trkpt>
      <trkpt lat="46.12156" lon="4.64085">
        <ele>237.6</ele>
        <time>2025-07-16T07:39:39Z</time>
      </trkpt>
      <trkpt lat="46.12181" lon="4.64046">
        <ele>237.9</ele>
        <time>2025-07-16T07:39:48Z</time>
      </trkpt>
      <trkpt lat="46.12206" lon="4.64005">
        <ele>238.3</ele>
        <time>2025-07-16T07:39:57Z</time>
      </trkpt>
      <trkpt lat="46.12232" lon="4.63964">
        <ele>238.7</ele>
        <time>2025-07-16T07:40:06Z</time>
      </trkpt>
      <trkpt lat="46.12269" lon="4.63904">
        <ele>239.1</ele>
        <time>2025-07-16T07:40:19Z</time>
      </trkpt>
      <trkpt lat="46.12278" lon="4.6389">
        <ele>239.2</ele>
        <time>2025-07-16T07:40:22Z</time>
      </trkpt>
      <trkpt lat="46.12293" lon="4.63866">
        <ele>239.5</ele>
        <time>2025-07-16T07:40:27Z</time>
      </trkpt>
      <trkpt lat="46.12316" lon="4.6383">
        <ele>239.9</ele>
        <time>2025-07-16T07:40:35Z</time>
      </trkpt>
      <trkpt lat="46.12339" lon="4.63792">
        <ele>240.5</ele>
        <time>2025-07-16T07:40:44Z</time>
      </trkpt>
      <trkpt lat="46.12357" lon="4.63764">
        <ele>241</ele>
        <time>2025-07-16T07:40:51Z</time>
      </trkpt>
      <trkpt lat="46.12373" lon="4.63738">
        <ele>241.4</ele>
        <time>2025-07-16T07:40:57Z</time>
      </trkpt>
      <trkpt lat="46.12389" lon="4.63713">
        <ele>241.8</ele>
        <time>2025-07-16T07:41:03Z</time>
      </trkpt>
      <trkpt lat="46.12406" lon="4.63687">
        <ele>242.2</ele>
        <time>2025-07-16T07:41:10Z</time>
      </trkpt>
      <trkpt lat="46.12425" lon="4.63658">
        <ele>242.7</ele>
        <time>2025-07-16T07:41:17Z</time>
      </trkpt>
      <trkpt lat="46.1244" lon="4.63636">
        <ele>243</ele>
        <time>2025-07-16T07:41:23Z</time>
      </trkpt>
      <trkpt lat="46.12455" lon="4.63613">
        <ele>243.3</ele>
        <time>2025-07-16T07:41:28Z</time>
      </trkpt>
      <trkpt lat="46.12468" lon="4.63593">
        <ele>243.6</ele>
        <time>2025-07-16T07:41:32Z</time>
      </trkpt>
      <trkpt lat="46.12482" lon="4.63572">
        <ele>243.9</ele>
        <time>2025-07-16T07:41:37Z</time>
      </trkpt>
      <trkpt lat="46.12498" lon="4.63547">
        <ele>244.5</ele>
        <time>2025-07-16T07:41:43Z</time>
      </trkpt>
      <trkpt lat="46.12512" lon="4.63525">
        <ele>245.2</ele>
        <time>2025-07-16T07:41:49Z</time>
      </trkpt>
      <trkpt lat="46.1252" lon="4.63513">
        <ele>245.7</ele>
        <time>2025-07-16T07:41:53Z</time>
      </trkpt>
      <trkpt lat="46.12535" lon="4.63489">
        <ele>245.7</ele>
        <time>2025-07-16T07:41:59Z</time>
      </trkpt>
      <trkpt lat="46.12553" lon="4.63462">
        <ele>245.7</ele>
        <time>2025-07-16T07:42:05Z</time>
      </trkpt>
      <trkpt lat="46.12567" lon="4.6344">
        <ele>245.7</ele>
        <time>2025-07-16T07:42:10Z</time>
      </trkpt>
      <trkpt lat="46.12582" lon="4.63416">
        <ele>245.7</ele>
        <time>2025-07-16T07:42:16Z</time>
      </trkpt>
      <trkpt lat="46.12589" lon="4.63405">
        <ele>245.7</ele>
        <time>2025-07-16T07:42:19Z</time>
      </trkpt>
      <trkpt lat="46.12592" lon="4.63399">
        <ele>245.7</ele>
        <time>2025-07-16T07:42:20Z</time>
      </trkpt>
      <trkpt lat="46.12596" lon="4.63393">
        <ele>245.7</ele>
        <time>2025-07-16T07:42:21Z</time>
      </trkpt>
      <trkpt lat="46.12603" lon="4.63382">
        <ele>245.7</ele>
        <time>2025-07-16T07:42:23Z</time>
      </trkpt>
      <trkpt lat="46.12611" lon="4.6337">
        <ele>245.7</ele>
        <time>2025-07-16T07:42:25Z</time>
      </trkpt>
      <trkpt lat="46.1263" lon="4.6334">
        <ele>245.7</ele>
        <time>2025-07-16T07:42:31Z</time>
      </trkpt>
      <trkpt lat="46.12648" lon="4.63312">
        <ele>245.8</ele>
        <time>2025-07-16T07:42:37Z</time>
      </trkpt>
      <trkpt lat="46.12665" lon="4.63285">
        <ele>245.9</ele>
        <time>2025-07-16T07:42:43Z</time>
      </trkpt>
      <trkpt lat="46.12683" lon="4.63256">
        <ele>246.1</ele>
        <time>2025-07-16T07:42:49Z</time>
      </trkpt>
      <trkpt lat="46.12704" lon="4.63224">
        <ele>246.5</ele>
        <time>2025-07-16T07:42:55Z</time>
      </trkpt>
      <trkpt lat="46.12722" lon="4.63195">
        <ele>246.9</ele>
        <time>2025-07-16T07:43:01Z</time>
      </trkpt>
      <trkpt lat="46.12739" lon="4.63168">
        <ele>247.3</ele>
        <time>2025-07-16T07:43:07Z</time>
      </trkpt>
      <trkpt lat="46.12753" lon="4.63147">
        <ele>247.5</ele>
        <time>2025-07-16T07:43:13Z</time>
      </trkpt>
      <trkpt lat="46.12766" lon="4.63125">
        <ele>247.8</ele>
        <time>2025-07-16T07:43:18Z</time>
      </trkpt>
      <trkpt lat="46.12781" lon="4.63102">
        <ele>248.1</ele>
        <time>2025-07-16T07:43:24Z</time>
      </trkpt>
      <trkpt lat="46.12796" lon="4.63078">
        <ele>248.5</ele>
        <time>2025-07-16T07:43:29Z</time>
      </trkpt>
      <trkpt lat="46.1281" lon="4.63056">
        <ele>248.8</ele>
        <time>2025-07-16T07:43:34Z</time>
      </trkpt>
      <trkpt lat="46.12827" lon="4.63029">
        <ele>249.3</ele>
        <time>2025-07-16T07:43:40Z</time>
      </trkpt>
      <trkpt lat="46.12844" lon="4.63002">
        <ele>249.7</ele>
        <time>2025-07-16T07:43:46Z</time>
      </trkpt>
      <trkpt lat="46.12866" lon="4.62967">
        <ele>250.2</ele>
        <time>2025-07-16T07:43:54Z</time>
      </trkpt>
      <trkpt lat="46.12879" lon="4.62947">
        <ele>250.4</ele>
        <time>2025-07-16T07:43:59Z</time>
      </trkpt>
      <trkpt lat="46.12898" lon="4.62918">
        <ele>250.6</ele>
        <time>2025-07-16T07:44:06Z</time>
      </trkpt>
      <trkpt lat="46.12909" lon="4.629">
        <ele>250.7</ele>
        <time>2025-07-16T07:44:10Z</time>
      </trkpt>
      <trkpt lat="46.12918" lon="4.62887">
        <ele>250.8</ele>
        <time>2025-07-16T07:44:13Z</time>
      </trkpt>
      <trkpt lat="46.1294" lon="4.62851">
        <ele>251.1</ele>
        <time>2025-07-16T07:44:22Z</time>
      </trkpt>
      <trkpt lat="46.1296" lon="4.6282">
        <ele>251.4</ele>
        <time>2025-07-16T07:44:29Z</time>
      </trkpt>
      <trkpt lat="46.12977" lon="4.62794">
        <ele>251.6</ele>
        <time>2025-07-16T07:44:35Z</time>
      </trkpt>
      <trkpt lat="46.13001" lon="4.62755">
        <ele>252</ele>
        <time>2025-07-16T07:44:43Z</time>
      </trkpt>
      <trkpt lat="46.13022" lon="4.62722">
        <ele>252.3</ele>
        <time>2025-07-16T07:44:50Z</time>
      </trkpt>
      <trkpt lat="46.13041" lon="4.62693">
        <ele>252.5</ele>
        <time>2025-07-16T07:44:56Z</time>
      </trkpt>
      <trkpt lat="46.13065" lon="4.62654">
        <ele>252.9</ele>
        <time>2025-07-16T07:45:04Z</time>
      </trkpt>
      <trkpt lat="46.13085" lon="4.62624">
        <ele>253.4</ele>
        <time>2025-07-16T07:45:11Z</time>
      </trkpt>
      <trkpt lat="46.13103" lon="4.62595">
        <ele>254</ele>
        <time>2025-07-16T07:45:17Z</time>
      </trkpt>
      <trkpt lat="46.13115" lon="4.62575">
        <ele>254.3</ele>
        <time>2025-07-16T07:45:22Z</time>
      </trkpt>
      <trkpt lat="46.13129" lon="4.62554">
        <ele>254.6</ele>
        <time>2025-07-16T07:45:27Z</time>
      </trkpt>
      <trkpt lat="46.13147" lon="4.62526">
        <ele>254.8</ele>
        <time>2025-07-16T07:45:34Z</time>
      </trkpt>
      <trkpt lat="46.13159" lon="4.62508">
        <ele>254.9</ele>
        <time>2025-07-16T07:45:40Z</time>
      </trkpt>
      <trkpt lat="46.13174" lon="4.62485">
        <ele>255.1</ele>
        <time>2025-07-16T07:45:47Z</time>
      </trkpt>
      <trkpt lat="46.13188" lon="4.62464">
        <ele>255.3</ele>
        <time>2025-07-16T07:45:53Z</time>
      </trkpt>
      <trkpt lat="46.13202" lon="4.62443">
        <ele>255.6</ele>
        <time>2025-07-16T07:45:59Z</time>
      </trkpt>
      <trkpt lat="46.13219" lon="4.62418">
        <ele>256.1</ele>
        <time>2025-07-16T07:46:06Z</time>
      </trkpt>
      <trkpt lat="46.1323" lon="4.62402">
        <ele>256.4</ele>
        <time>2025-07-16T07:46:11Z</time>
      </trkpt>
      <trkpt lat="46.13242" lon="4.62384">
        <ele>256.6</ele>
        <time>2025-07-16T07:46:16Z</time>
      </trkpt>
      <trkpt lat="46.13257" lon="4.62361">
        <ele>256.8</ele>
        <time>2025-07-16T07:46:22Z</time>
      </trkpt>
      <trkpt lat="46.13274" lon="4.62336">
        <ele>257.2</ele>
        <time>2025-07-16T07:46:29Z</time>
      </trkpt>
      <trkpt lat="46.13291" lon="4.6231">
        <ele>257.9</ele>
        <time>2025-07-16T07:46:36Z</time>
      </trkpt>
      <trkpt lat="46.13303" lon="4.62294">
        <ele>258.1</ele>
        <time>2025-07-16T07:46:41Z</time>
      </trkpt>
      <trkpt lat="46.13319" lon="4.62271">
        <ele>258.1</ele>
        <time>2025-07-16T07:46:47Z</time>
      </trkpt>
      <trkpt lat="46.13337" lon="4.62245">
        <ele>258</ele>
        <time>2025-07-16T07:46:53Z</time>
      </trkpt>
      <trkpt lat="46.13352" lon="4.62223">
        <ele>258</ele>
        <time>2025-07-16T07:46:58Z</time>
      </trkpt>
      <trkpt lat="46.13368" lon="4.62198">
        <ele>258.2</ele>
        <time>2025-07-16T07:47:04Z</time>
      </trkpt>
      <trkpt lat="46.13388" lon="4.62169">
        <ele>258.5</ele>
        <time>2025-07-16T07:47:11Z</time>
      </trkpt>
      <trkpt lat="46.13408" lon="4.6214">
        <ele>258.8</ele>
        <time>2025-07-16T07:47:18Z</time>
      </trkpt>
      <trkpt lat="46.13426" lon="4.62112">
        <ele>259</ele>
        <time>2025-07-16T07:47:25Z</time>
      </trkpt>
      <trkpt lat="46.13448" lon="4.62081">
        <ele>259.2</ele>
        <time>2025-07-16T07:47:33Z</time>
      </trkpt>
      <trkpt lat="46.13467" lon="4.62051">
        <ele>259.5</ele>
        <time>2025-07-16T07:47:40Z</time>
      </trkpt>
      <trkpt lat="46.13489" lon="4.6202">
        <ele>259.9</ele>
        <time>2025-07-16T07:47:48Z</time>
      </trkpt>
      <trkpt lat="46.13508" lon="4.61991">
        <ele>260.2</ele>
        <time>2025-07-16T07:47:55Z</time>
      </trkpt>
      <trkpt lat="46.13531" lon="4.61957">
        <ele>260.6</ele>
        <time>2025-07-16T07:48:03Z</time>
      </trkpt>
      <trkpt lat="46.13548" lon="4.61932">
        <ele>260.9</ele>
        <time>2025-07-16T07:48:09Z</time>
      </trkpt>
      <trkpt lat="46.13565" lon="4.61907">
        <ele>261.2</ele>
        <time>2025-07-16T07:48:16Z</time>
      </trkpt>
      <trkpt lat="46.13583" lon="4.61881">
        <ele>261.6</ele>
        <time>2025-07-16T07:48:23Z</time>
      </trkpt>
      <trkpt lat="46.13603" lon="4.61851">
        <ele>261.9</ele>
        <time>2025-07-16T07:48:31Z</time>
      </trkpt>
      <trkpt lat="46.13619" lon="4.61827">
        <ele>262.2</ele>
        <time>2025-07-16T07:48:37Z</time>
      </trkpt>
      <trkpt lat="46.13636" lon="4.61801">
        <ele>262.5</ele>
        <time>2025-07-16T07:48:44Z</time>
      </trkpt>
      <trkpt lat="46.13651" lon="4.61779">
        <ele>262.9</ele>
        <time>2025-07-16T07:48:50Z</time>
      </trkpt>
      <trkpt lat="46.13669" lon="4.61752">
        <ele>263.4</ele>
        <time>2025-07-16T07:48:58Z</time>
      </trkpt>
      <trkpt lat="46.13686" lon="4.61728">
        <ele>263.9</ele>
        <time>2025-07-16T07:49:05Z</time>
      </trkpt>
      <trkpt lat="46.13702" lon="4.61704">
        <ele>264.3</ele>
        <time>2025-07-16T07:49:12Z</time>
      </trkpt>
      <trkpt lat="46.13719" lon="4.61678">
        <ele>264.7</ele>
        <time>2025-07-16T07:49:19Z</time>
      </trkpt>
      <trkpt lat="46.13735" lon="4.61656">
        <ele>265</ele>
        <time>2025-07-16T07:49:25Z</time>
      </trkpt>
      <trkpt lat="46.1375" lon="4.61633">
        <ele>265.3</ele>
        <time>2025-07-16T07:49:31Z</time>
      </trkpt>
      <trkpt lat="46.13762" lon="4.61612">
        <ele>265.6</ele>
        <time>2025-07-16T07:49:37Z</time>
      </trkpt>
      <trkpt lat="46.13776" lon="4.61588">
        <ele>266</ele>
        <time>2025-07-16T07:49:44Z</time>
      </trkpt>
      <trkpt lat="46.13788" lon="4.61567">
        <ele>266.3</ele>
        <time>2025-07-16T07:49:50Z</time>
      </trkpt>
      <trkpt lat="46.13801" lon="4.61545">
        <ele>266.6</ele>
        <time>2025-07-16T07:49:56Z</time>
      </trkpt>
      <trkpt lat="46.13819" lon="4.61513">
        <ele>266.9</ele>
        <time>2025-07-16T07:50:04Z</time>
      </trkpt>
      <trkpt lat="46.13834" lon="4.61485">
        <ele>267.3</ele>
        <time>2025-07-16T07:50:11Z</time>
      </trkpt>
      <trkpt lat="46.13851" lon="4.61453">
        <ele>267.8</ele>
        <time>2025-07-16T07:50:19Z</time>
      </trkpt>
      <trkpt lat="46.1387" lon="4.61418">
        <ele>268.3</ele>
        <time>2025-07-16T07:50:27Z</time>
      </trkpt>
      <trkpt lat="46.13883" lon="4.61391">
        <ele>268.5</ele>
        <time>2025-07-16T07:50:34Z</time>
      </trkpt>
      <trkpt lat="46.13894" lon="4.61368">
        <ele>268.7</ele>
        <time>2025-07-16T07:50:40Z</time>
      </trkpt>
      <trkpt lat="46.13906" lon="4.61342">
        <ele>268.9</ele>
        <time>2025-07-16T07:50:46Z</time>
      </trkpt>
      <trkpt lat="46.13919" lon="4.61313">
        <ele>269.2</ele>
        <time>2025-07-16T07:50:53Z</time>
      </trkpt>
      <trkpt lat="46.13933" lon="4.61285">
        <ele>269.7</ele>
        <time>2025-07-16T07:51:00Z</time>
      </trkpt>
      <trkpt lat="46.13943" lon="4.61263">
        <ele>270</ele>
        <time>2025-07-16T07:51:05Z</time>
      </trkpt>
      <trkpt lat="46.13957" lon="4.61233">
        <ele>270.4</ele>
        <time>2025-07-16T07:51:12Z</time>
      </trkpt>
      <trkpt lat="46.13967" lon="4.6121">
        <ele>270.7</ele>
        <time>2025-07-16T07:51:17Z</time>
      </trkpt>
      <trkpt lat="46.13983" lon="4.61171">
        <ele>270.9</ele>
        <time>2025-07-16T07:51:25Z</time>
      </trkpt>
      <trkpt lat="46.13995" lon="4.61143">
        <ele>271</ele>
        <time>2025-07-16T07:51:31Z</time>
      </trkpt>
      <trkpt lat="46.14011" lon="4.61105">
        <ele>271.2</ele>
        <time>2025-07-16T07:51:39Z</time>
      </trkpt>
      <trkpt lat="46.14024" lon="4.61073">
        <ele>271.6</ele>
        <time>2025-07-16T07:51:46Z</time>
      </trkpt>
      <trkpt lat="46.14039" lon="4.61038">
        <ele>272</ele>
        <time>2025-07-16T07:51:54Z</time>
      </trkpt>
      <trkpt lat="46.14052" lon="4.61005">
        <ele>272.4</ele>
        <time>2025-07-16T07:52:01Z</time>
      </trkpt>
      <trkpt lat="46.1406" lon="4.60972">
        <ele>272.9</ele>
        <time>2025-07-16T07:52:08Z</time>
      </trkpt>
      <trkpt lat="46.14065" lon="4.60952">
        <ele>273.2</ele>
        <time>2025-07-16T07:52:14Z</time>
      </trkpt>
      <trkpt lat="46.14077" lon="4.60937">
        <ele>273.3</ele>
        <time>2025-07-16T07:52:20Z</time>
      </trkpt>
      <trkpt lat="46.14089" lon="4.60908">
        <ele>273.4</ele>
        <time>2025-07-16T07:52:28Z</time>
      </trkpt>
      <trkpt lat="46.141" lon="4.60881">
        <ele>273.7</ele>
        <time>2025-07-16T07:52:35Z</time>
      </trkpt>
      <trkpt lat="46.14114" lon="4.60847">
        <ele>274.1</ele>
        <time>2025-07-16T07:52:43Z</time>
      </trkpt>
      <trkpt lat="46.14125" lon="4.6082">
        <ele>274.5</ele>
        <time>2025-07-16T07:52:50Z</time>
      </trkpt>
      <trkpt lat="46.14134" lon="4.60796">
        <ele>274.6</ele>
        <time>2025-07-16T07:52:56Z</time>
      </trkpt>
      <trkpt lat="46.14146" lon="4.60766">
        <ele>274.8</ele>
        <time>2025-07-16T07:53:03Z</time>
      </trkpt>
      <trkpt lat="46.14162" lon="4.60727">
        <ele>275.3</ele>
        <time>2025-07-16T07:53:12Z</time>
      </trkpt>
      <trkpt lat="46.14176" lon="4.60691">
        <ele>275.8</ele>
        <time>2025-07-16T07:53:21Z</time>
      </trkpt>
      <trkpt lat="46.1419" lon="4.60658">
        <ele>276.3</ele>
        <time>2025-07-16T07:53:29Z</time>
      </trkpt>
      <trkpt lat="46.14207" lon="4.60615">
        <ele>276.9</ele>
        <time>2025-07-16T07:53:39Z</time>
      </trkpt>
      <trkpt lat="46.14221" lon="4.6058">
        <ele>277.4</ele>
        <time>2025-07-16T07:53:47Z</time>
      </trkpt>
      <trkpt lat="46.14237" lon="4.6054">
        <ele>277.9</ele>
        <time>2025-07-16T07:53:56Z</time>
      </trkpt>
      <trkpt lat="46.14249" lon="4.6051">
        <ele>278.5</ele>
        <time>2025-07-16T07:54:03Z</time>
      </trkpt>
      <trkpt lat="46.14258" lon="4.60486">
        <ele>279.1</ele>
        <time>2025-07-16T07:54:10Z</time>
      </trkpt>
      <trkpt lat="46.14271" lon="4.60453">
        <ele>279.5</ele>
        <time>2025-07-16T07:54:18Z</time>
      </trkpt>
      <trkpt lat="46.14288" lon="4.60414">
        <ele>279.6</ele>
        <time>2025-07-16T07:54:27Z</time>
      </trkpt>
      <trkpt lat="46.14306" lon="4.60382">
        <ele>279.9</ele>
        <time>2025-07-16T07:54:35Z</time>
      </trkpt>
      <trkpt lat="46.14324" lon="4.60352">
        <ele>280.5</ele>
        <time>2025-07-16T07:54:42Z</time>
      </trkpt>
      <trkpt lat="46.14341" lon="4.60328">
        <ele>281</ele>
        <time>2025-07-16T07:54:49Z</time>
      </trkpt>
      <trkpt lat="46.14355" lon="4.60307">
        <ele>281.2</ele>
        <time>2025-07-16T07:54:55Z</time>
      </trkpt>
      <trkpt lat="46.14375" lon="4.60276">
        <ele>281.4</ele>
        <time>2025-07-16T07:55:03Z</time>
      </trkpt>
      <trkpt lat="46.1439" lon="4.60255">
        <ele>281.6</ele>
        <time>2025-07-16T07:55:09Z</time>
      </trkpt>
      <trkpt lat="46.14401" lon="4.6024">
        <ele>281.8</ele>
        <time>2025-07-16T07:55:14Z</time>
      </trkpt>
      <trkpt lat="46.14419" lon="4.60223">
        <ele>282.2</ele>
        <time>2025-07-16T07:55:21Z</time>
      </trkpt>
      <trkpt lat="46.14443" lon="4.602">
        <ele>282.5</ele>
        <time>2025-07-16T07:55:29Z</time>
      </trkpt>
      <trkpt lat="46.14467" lon="4.60176">
        <ele>282.5</ele>
        <time>2025-07-16T07:55:37Z</time>
      </trkpt>
      <trkpt lat="46.1449" lon="4.6016">
        <ele>282.8</ele>
        <time>2025-07-16T07:55:43Z</time>
      </trkpt>
      <trkpt lat="46.14512" lon="4.60143">
        <ele>283.3</ele>
        <time>2025-07-16T07:55:50Z</time>
      </trkpt>
      <trkpt lat="46.14525" lon="4.60133">
        <ele>283.6</ele>
        <time>2025-07-16T07:55:55Z</time>
      </trkpt>
      <trkpt lat="46.14542" lon="4.60121">
        <ele>283.9</ele>
        <time>2025-07-16T07:56:00Z</time>
      </trkpt>
      <trkpt lat="46.14561" lon="4.60108">
        <ele>284.2</ele>
        <time>2025-07-16T07:56:05Z</time>
      </trkpt>
      <trkpt lat="46.14564" lon="4.60106">
        <ele>284.3</ele>
        <time>2025-07-16T07:56:06Z</time>
      </trkpt>
      <trkpt lat="46.14571" lon="4.60103">
        <ele>284.4</ele>
        <time>2025-07-16T07:56:09Z</time>
      </trkpt>
      <trkpt lat="46.14588" lon="4.60094">
        <ele>284.7</ele>
        <time>2025-07-16T07:56:13Z</time>
      </trkpt>
      <trkpt lat="46.14611" lon="4.60081">
        <ele>285.1</ele>
        <time>2025-07-16T07:56:19Z</time>
      </trkpt>
      <trkpt lat="46.14626" lon="4.60073">
        <ele>285.4</ele>
        <time>2025-07-16T07:56:25Z</time>
      </trkpt>
      <trkpt lat="46.14648" lon="4.60061">
        <ele>285.7</ele>
        <time>2025-07-16T07:56:30Z</time>
      </trkpt>
      <trkpt lat="46.14668" lon="4.60051">
        <ele>286</ele>
        <time>2025-07-16T07:56:35Z</time>
      </trkpt>
      <trkpt lat="46.14694" lon="4.60035">
        <ele>286.6</ele>
        <time>2025-07-16T07:56:42Z</time>
      </trkpt>
      <trkpt lat="46.14708" lon="4.60025">
        <ele>287</ele>
        <time>2025-07-16T07:56:47Z</time>
      </trkpt>
      <trkpt lat="46.14726" lon="4.60011">
        <ele>287.5</ele>
        <time>2025-07-16T07:56:53Z</time>
      </trkpt>
      <trkpt lat="46.1475" lon="4.5999">
        <ele>288</ele>
        <time>2025-07-16T07:57:01Z</time>
      </trkpt>
      <trkpt lat="46.14764" lon="4.59977">
        <ele>288.2</ele>
        <time>2025-07-16T07:57:06Z</time>
      </trkpt>
      <trkpt lat="46.14779" lon="4.59959">
        <ele>288.5</ele>
        <time>2025-07-16T07:57:12Z</time>
      </trkpt>
      <trkpt lat="46.14791" lon="4.59941">
        <ele>288.7</ele>
        <time>2025-07-16T07:57:17Z</time>
      </trkpt>
      <trkpt lat="46.14803" lon="4.59923">
        <ele>288.9</ele>
        <time>2025-07-16T07:57:22Z</time>
      </trkpt>
      <trkpt lat="46.14818" lon="4.59895">
        <ele>289.1</ele>
        <time>2025-07-16T07:57:28Z</time>
      </trkpt>
      <trkpt lat="46.14834" lon="4.5986">
        <ele>289.5</ele>
        <time>2025-07-16T07:57:35Z</time>
      </trkpt>
      <trkpt lat="46.14842" lon="4.59839">
        <ele>289.8</ele>
        <time>2025-07-16T07:57:40Z</time>
      </trkpt>
      <trkpt lat="46.14851" lon="4.59806">
        <ele>290.2</ele>
        <time>2025-07-16T07:57:46Z</time>
      </trkpt>
      <trkpt lat="46.14859" lon="4.59779">
        <ele>290.5</ele>
        <time>2025-07-16T07:57:52Z</time>
      </trkpt>
      <trkpt lat="46.14867" lon="4.59755">
        <ele>290.8</ele>
        <time>2025-07-16T07:57:57Z</time>
      </trkpt>
      <trkpt lat="46.14875" lon="4.59729">
        <ele>291.2</ele>
        <time>2025-07-16T07:58:02Z</time>
      </trkpt>
      <trkpt lat="46.14886" lon="4.59705">
        <ele>291.8</ele>
        <time>2025-07-16T07:58:08Z</time>
      </trkpt>
      <trkpt lat="46.14888" lon="4.59699">
        <ele>291.9</ele>
        <time>2025-07-16T07:58:10Z</time>
      </trkpt>
      <trkpt lat="46.1489" lon="4.59696">
        <ele>292</ele>
        <time>2025-07-16T07:58:12Z</time>
      </trkpt>
      <trkpt lat="46.14891" lon="4.59692">
        <ele>292</ele>
        <time>2025-07-16T07:58:17Z</time>
      </trkpt>
      <trkpt lat="46.14891" lon="4.59692">
        <ele>292</ele>
        <time>2025-07-16T07:58:26Z</time>
      </trkpt>
      <trkpt lat="46.14891" lon="4.59692">
        <ele>292</ele>
        <time>2025-07-16T07:58:35Z</time>
      </trkpt>
      <trkpt lat="46.14891" lon="4.59692">
        <ele>292</ele>
        <time>2025-07-16T07:58:42Z</time>
      </trkpt>
      <trkpt lat="46.14891" lon="4.59692">
        <ele>292</ele>
        <time>2025-07-16T07:58:54Z</time>
      </trkpt>
      <trkpt lat="46.14891" lon="4.59692">
        <ele>292</ele>
        <time>2025-07-16T07:59:12Z</time>
      </trkpt>
      <trkpt lat="46.14891" lon="4.59692">
        <ele>292</ele>
        <time>2025-07-16T07:59:28Z</time>
      </trkpt>
      <trkpt lat="46.14891" lon="4.59692">
        <ele>292</ele>
        <time>2025-07-16T07:59:43Z</time>
      </trkpt>
      <trkpt lat="46.14891" lon="4.59692">
        <ele>292</ele>
        <time>2025-07-16T07:59:57Z</time>
      </trkpt>
      <trkpt lat="46.14891" lon="4.59692">
        <ele>292</ele>
        <time>2025-07-16T08:00:09Z</time>
      </trkpt>
      <trkpt lat="46.14894" lon="4.59685">
        <ele>292.1</ele>
        <time>2025-07-16T08:00:15Z</time>
      </trkpt>
      <trkpt lat="46.14898" lon="4.59675">
        <ele>292.3</ele>
        <time>2025-07-16T08:00:21Z</time>
      </trkpt>
      <trkpt lat="46.14903" lon="4.59662">
        <ele>292.5</ele>
        <time>2025-07-16T08:00:26Z</time>
      </trkpt>
      <trkpt lat="46.14905" lon="4.59656">
        <ele>292.6</ele>
        <time>2025-07-16T08:00:28Z</time>
      </trkpt>
      <trkpt lat="46.14908" lon="4.59649">
        <ele>292.8</ele>
        <time>2025-07-16T08:00:34Z</time>
      </trkpt>
      <trkpt lat="46.14924" lon="4.59626">
        <ele>292.9</ele>
        <time>2025-07-16T08:00:40Z</time>
      </trkpt>
      <trkpt lat="46.14927" lon="4.59618">
        <ele>292.9</ele>
        <time>2025-07-16T08:00:44Z</time>
      </trkpt>
      <trkpt lat="46.14927" lon="4.59618">
        <ele>292.9</ele>
        <time>2025-07-16T08:00:51Z</time>
      </trkpt>
      <trkpt lat="46.14927" lon="4.59618">
        <ele>292.9</ele>
        <time>2025-07-16T08:00:54Z</time>
      </trkpt>
      <trkpt lat="46.14927" lon="4.59618">
        <ele>292.9</ele>
        <time>2025-07-16T08:06:17Z</time>
      </trkpt>
      <trkpt lat="46.15054" lon="4.59391">
        <ele>294</ele>
        <time>2025-07-16T08:19:45Z</time>
      </trkpt>
      <trkpt lat="46.15051" lon="4.59389">
        <ele>293.8</ele>
        <time>2025-07-16T08:19:55Z</time>
      </trkpt>
      <trkpt lat="46.15051" lon="4.59389">
        <ele>293.8</ele>
        <time>2025-07-16T08:20:05Z</time>
      </trkpt>
      <trkpt lat="46.15052" lon="4.59387">
        <ele>293.8</ele>
        <time>2025-07-16T08:20:17Z</time>
      </trkpt>
      <trkpt lat="46.15057" lon="4.59386">
        <ele>294.1</ele>
        <time>2025-07-16T08:20:27Z</time>
      </trkpt>
      <trkpt lat="46.15059" lon="4.59384">
        <ele>294.2</ele>
        <time>2025-07-16T08:20:36Z</time>
      </trkpt>
      <trkpt lat="46.15053" lon="4.59386">
        <ele>293.9</ele>
        <time>2025-07-16T08:20:48Z</time>
      </trkpt>
      <trkpt lat="46.1505" lon="4.59391">
        <ele>293.7</ele>
        <time>2025-07-16T08:20:59Z</time>
      </trkpt>
      <trkpt lat="46.1507" lon="4.59387">
        <ele>294.7</ele>
        <time>2025-07-16T08:21:08Z</time>
      </trkpt>
      <trkpt lat="46.1507" lon="4.59385">
        <ele>294.6</ele>
        <time>2025-07-16T08:21:15Z</time>
      </trkpt>
      <trkpt lat="46.1507" lon="4.59385">
        <ele>294.8</ele>
        <time>2025-07-16T08:21:24Z</time>
      </trkpt>
      <trkpt lat="46.1507" lon="4.59385">
        <ele>294.8</ele>
        <time>2025-07-16T08:21:35Z</time>
      </trkpt>
      <trkpt lat="46.1507" lon="4.59385">
        <ele>294.8</ele>
        <time>2025-07-16T08:21:51Z</time>
      </trkpt>
      <trkpt lat="46.15071" lon="4.59385">
        <ele>294.7</ele>
        <time>2025-07-16T08:22:01Z</time>
      </trkpt>
      <trkpt lat="46.15071" lon="4.59386">
        <ele>294.7</ele>
        <time>2025-07-16T08:22:08Z</time>
      </trkpt>
      <trkpt lat="46.15071" lon="4.59386">
        <ele>294.7</ele>
        <time>2025-07-16T08:22:19Z</time>
      </trkpt>
      <trkpt lat="46.15071" lon="4.59386">
        <ele>294.7</ele>
        <time>2025-07-16T08:22:29Z</time>
      </trkpt>
      <trkpt lat="46.15071" lon="4.59386">
        <ele>294.7</ele>
        <time>2025-07-16T08:22:38Z</time>
      </trkpt>
      <trkpt lat="46.15069" lon="4.59383">
        <ele>294.5</ele>
        <time>2025-07-16T08:22:52Z</time>
      </trkpt>
      <trkpt lat="46.1507" lon="4.59384">
        <ele>294.5</ele>
        <time>2025-07-16T08:23:00Z</time>
      </trkpt>
      <trkpt lat="46.1507" lon="4.59384">
        <ele>294.5</ele>
        <time>2025-07-16T08:23:13Z</time>
      </trkpt>
      <trkpt lat="46.1507" lon="4.59384">
        <ele>294.5</ele>
        <time>2025-07-16T08:23:29Z</time>
      </trkpt>
      <trkpt lat="46.1507" lon="4.59383">
        <ele>294.5</ele>
        <time>2025-07-16T08:23:38Z</time>
      </trkpt>
      <trkpt lat="46.1507" lon="4.59383">
        <ele>294.5</ele>
        <time>2025-07-16T08:23:50Z</time>
      </trkpt>
      <trkpt lat="46.1507" lon="4.59383">
        <ele>294.4</ele>
        <time>2025-07-16T08:23:58Z</time>
      </trkpt>
      <trkpt lat="46.1507" lon="4.59383">
        <ele>294.4</ele>
        <time>2025-07-16T08:24:12Z</time>
      </trkpt>
      <trkpt lat="46.15071" lon="4.59382">
        <ele>294.6</ele>
        <time>2025-07-16T08:24:28Z</time>
      </trkpt>
      <trkpt lat="46.15071" lon="4.59382">
        <ele>294.6</ele>
        <time>2025-07-16T08:24:46Z</time>
      </trkpt>
      <trkpt lat="46.15071" lon="4.59382">
        <ele>294.5</ele>
        <time>2025-07-16T08:25:00Z</time>
      </trkpt>
      <trkpt lat="46.15071" lon="4.59382">
        <ele>294.5</ele>
        <time>2025-07-16T08:25:11Z</time>
      </trkpt>
      <trkpt lat="46.15069" lon="4.59386">
        <ele>294.4</ele>
        <time>2025-07-16T08:25:15Z</time>
      </trkpt>
      <trkpt lat="46.15067" lon="4.5939">
        <ele>294.4</ele>
        <time>2025-07-16T08:25:16Z</time>
      </trkpt>
      <trkpt lat="46.15055" lon="4.59401">
        <ele>293.5</ele>
        <time>2025-07-16T08:25:21Z</time>
      </trkpt>
      <trkpt lat="46.15042" lon="4.59416">
        <ele>292.9</ele>
        <time>2025-07-16T08:25:26Z</time>
      </trkpt>
      <trkpt lat="46.15035" lon="4.59442">
        <ele>292.8</ele>
        <time>2025-07-16T08:25:30Z</time>
      </trkpt>
      <trkpt lat="46.15033" lon="4.59442">
        <ele>292.8</ele>
        <time>2025-07-16T08:25:31Z</time>
      </trkpt>
      <trkpt lat="46.15029" lon="4.59443">
        <ele>292.8</ele>
        <time>2025-07-16T08:25:33Z</time>
      </trkpt>
      <trkpt lat="46.15029" lon="4.59443">
        <ele>292.8</ele>
        <time>2025-07-16T08:25:35Z</time>
      </trkpt>
      <trkpt lat="46.15037" lon="4.59439">
        <ele>293.3</ele>
        <time>2025-07-16T08:25:40Z</time>
      </trkpt>
      <trkpt lat="46.15043" lon="4.59459">
        <ele>293.8</ele>
        <time>2025-07-16T08:25:45Z</time>
      </trkpt>
      <trkpt lat="46.15036" lon="4.59472">
        <ele>293.9</ele>
        <time>2025-07-16T08:25:49Z</time>
      </trkpt>
      <trkpt lat="46.15022" lon="4.59499">
        <ele>293.9</ele>
        <time>2025-07-16T08:25:56Z</time>
      </trkpt>
      <trkpt lat="46.1501" lon="4.59521">
        <ele>293.9</ele>
        <time>2025-07-16T08:26:02Z</time>
      </trkpt>
      <trkpt lat="46.15019" lon="4.5955">
        <ele>294.5</ele>
        <time>2025-07-16T08:26:07Z</time>
      </trkpt>
      <trkpt lat="46.15031" lon="4.59566">
        <ele>295.2</ele>
        <time>2025-07-16T08:26:13Z</time>
      </trkpt>
      <trkpt lat="46.15039" lon="4.59576">
        <ele>295.7</ele>
        <time>2025-07-16T08:26:18Z</time>
      </trkpt>
      <trkpt lat="46.15042" lon="4.5957">
        <ele>295.8</ele>
        <time>2025-07-16T08:26:19Z</time>
      </trkpt>
      <trkpt lat="46.15051" lon="4.59554">
        <ele>296</ele>
        <time>2025-07-16T08:26:24Z</time>
      </trkpt>
      <trkpt lat="46.15066" lon="4.59528">
        <ele>296.2</ele>
        <time>2025-07-16T08:26:31Z</time>
      </trkpt>
      <trkpt lat="46.15082" lon="4.595">
        <ele>296.2</ele>
        <time>2025-07-16T08:26:38Z</time>
      </trkpt>
      <trkpt lat="46.15102" lon="4.59465">
        <ele>296.3</ele>
        <time>2025-07-16T08:26:46Z</time>
      </trkpt>
      <trkpt lat="46.1512" lon="4.59434">
        <ele>296.6</ele>
        <time>2025-07-16T08:26:53Z</time>
      </trkpt>
      <trkpt lat="46.15137" lon="4.59404">
        <ele>296.9</ele>
        <time>2025-07-16T08:27:00Z</time>
      </trkpt>
      <trkpt lat="46.15151" lon="4.59379">
        <ele>297</ele>
        <time>2025-07-16T08:27:06Z</time>
      </trkpt>
      <trkpt lat="46.15169" lon="4.59347">
        <ele>297.3</ele>
        <time>2025-07-16T08:27:14Z</time>
      </trkpt>
      <trkpt lat="46.15186" lon="4.59317">
        <ele>297.6</ele>
        <time>2025-07-16T08:27:21Z</time>
      </trkpt>
      <trkpt lat="46.15211" lon="4.59273">
        <ele>298</ele>
        <time>2025-07-16T08:27:31Z</time>
      </trkpt>
      <trkpt lat="46.15232" lon="4.59236">
        <ele>298.3</ele>
        <time>2025-07-16T08:27:39Z</time>
      </trkpt>
      <trkpt lat="46.15251" lon="4.59203">
        <ele>298.7</ele>
        <time>2025-07-16T08:27:46Z</time>
      </trkpt>
      <trkpt lat="46.15272" lon="4.59165">
        <ele>299.4</ele>
        <time>2025-07-16T08:27:54Z</time>
      </trkpt>
      <trkpt lat="46.15289" lon="4.59136">
        <ele>300</ele>
        <time>2025-07-16T08:28:00Z</time>
      </trkpt>
      <trkpt lat="46.15293" lon="4.59128">
        <ele>300.2</ele>
        <time>2025-07-16T08:28:02Z</time>
      </trkpt>
      <trkpt lat="46.1531" lon="4.59098">
        <ele>301</ele>
        <time>2025-07-16T08:28:09Z</time>
      </trkpt>
      <trkpt lat="46.15327" lon="4.59068">
        <ele>301.8</ele>
        <time>2025-07-16T08:28:16Z</time>
      </trkpt>
      <trkpt lat="46.1534" lon="4.59045">
        <ele>302.5</ele>
        <time>2025-07-16T08:28:22Z</time>
      </trkpt>
      <trkpt lat="46.15351" lon="4.59026">
        <ele>302.7</ele>
        <time>2025-07-16T08:28:27Z</time>
      </trkpt>
      <trkpt lat="46.15364" lon="4.59001">
        <ele>303.4</ele>
        <time>2025-07-16T08:28:34Z</time>
      </trkpt>
      <trkpt lat="46.15375" lon="4.58986">
        <ele>303.8</ele>
        <time>2025-07-16T08:28:39Z</time>
      </trkpt>
      <trkpt lat="46.15386" lon="4.58971">
        <ele>304.1</ele>
        <time>2025-07-16T08:28:44Z</time>
      </trkpt>
      <trkpt lat="46.15397" lon="4.58956">
        <ele>304.3</ele>
        <time>2025-07-16T08:28:48Z</time>
      </trkpt>
      <trkpt lat="46.1541" lon="4.58932">
        <ele>304.3</ele>
        <time>2025-07-16T08:28:53Z</time>
      </trkpt>
      <trkpt lat="46.15419" lon="4.58915">
        <ele>304.3</ele>
        <time>2025-07-16T08:28:56Z</time>
      </trkpt>
      <trkpt lat="46.15426" lon="4.589">
        <ele>304.3</ele>
        <time>2025-07-16T08:28:59Z</time>
      </trkpt>
      <trkpt lat="46.15431" lon="4.58889">
        <ele>304.3</ele>
        <time>2025-07-16T08:29:01Z</time>
      </trkpt>
      <trkpt lat="46.15439" lon="4.58872">
        <ele>304.4</ele>
        <time>2025-07-16T08:29:04Z</time>
      </trkpt>
      <trkpt lat="46.15446" lon="4.58858">
        <ele>304.5</ele>
        <time>2025-07-16T08:29:07Z</time>
      </trkpt>
      <trkpt lat="46.15454" lon="4.58842">
        <ele>304.7</ele>
        <time>2025-07-16T08:29:10Z</time>
      </trkpt>
      <trkpt lat="46.15461" lon="4.58827">
        <ele>304.9</ele>
        <time>2025-07-16T08:29:13Z</time>
      </trkpt>
      <trkpt lat="46.15466" lon="4.58817">
        <ele>305.1</ele>
        <time>2025-07-16T08:29:15Z</time>
      </trkpt>
      <trkpt lat="46.15477" lon="4.58793">
        <ele>305.5</ele>
        <time>2025-07-16T08:29:21Z</time>
      </trkpt>
      <trkpt lat="46.15488" lon="4.58764">
        <ele>306</ele>
        <time>2025-07-16T08:29:28Z</time>
      </trkpt>
      <trkpt lat="46.15495" lon="4.5874">
        <ele>306.4</ele>
        <time>2025-07-16T08:29:33Z</time>
      </trkpt>
      <trkpt lat="46.15505" lon="4.58699">
        <ele>306.8</ele>
        <time>2025-07-16T08:29:41Z</time>
      </trkpt>
      <trkpt lat="46.15513" lon="4.58661">
        <ele>307</ele>
        <time>2025-07-16T08:29:48Z</time>
      </trkpt>
      <trkpt lat="46.15513" lon="4.58641">
        <ele>307.2</ele>
        <time>2025-07-16T08:29:52Z</time>
      </trkpt>
      <trkpt lat="46.15513" lon="4.5861">
        <ele>307.6</ele>
        <time>2025-07-16T08:29:58Z</time>
      </trkpt>
      <trkpt lat="46.15513" lon="4.58585">
        <ele>307.7</ele>
        <time>2025-07-16T08:30:03Z</time>
      </trkpt>
      <trkpt lat="46.15515" lon="4.58555">
        <ele>307.8</ele>
        <time>2025-07-16T08:30:09Z</time>
      </trkpt>
      <trkpt lat="46.15521" lon="4.5853">
        <ele>307.8</ele>
        <time>2025-07-16T08:30:14Z</time>
      </trkpt>
      <trkpt lat="46.15534" lon="4.58512">
        <ele>308</ele>
        <time>2025-07-16T08:30:21Z</time>
      </trkpt>
      <trkpt lat="46.15545" lon="4.58498">
        <ele>308.1</ele>
        <time>2025-07-16T08:30:28Z</time>
      </trkpt>
      <trkpt lat="46.1555" lon="4.58491">
        <ele>308.2</ele>
        <time>2025-07-16T08:30:32Z</time>
      </trkpt>
      <trkpt lat="46.15551" lon="4.58489">
        <ele>308.2</ele>
        <time>2025-07-16T08:30:33Z</time>
      </trkpt>
      <trkpt lat="46.15554" lon="4.58487">
        <ele>308.2</ele>
        <time>2025-07-16T08:30:35Z</time>
      </trkpt>
      <trkpt lat="46.15559" lon="4.58483">
        <ele>308.3</ele>
        <time>2025-07-16T08:30:38Z</time>
      </trkpt>
      <trkpt lat="46.1557" lon="4.58475">
        <ele>308.5</ele>
        <time>2025-07-16T08:30:42Z</time>
      </trkpt>
      <trkpt lat="46.15594" lon="4.58467">
        <ele>308.8</ele>
        <time>2025-07-16T08:30:48Z</time>
      </trkpt>
      <trkpt lat="46.15617" lon="4.58462">
        <ele>309.1</ele>
        <time>2025-07-16T08:30:54Z</time>
      </trkpt>
      <trkpt lat="46.15638" lon="4.58455">
        <ele>309.4</ele>
        <time>2025-07-16T08:30:59Z</time>
      </trkpt>
      <trkpt lat="46.1564" lon="4.58454">
        <ele>309.4</ele>
        <time>2025-07-16T08:31:00Z</time>
      </trkpt>
      <trkpt lat="46.15645" lon="4.58449">
        <ele>309.4</ele>
        <time>2025-07-16T08:31:02Z</time>
      </trkpt>
      <trkpt lat="46.15647" lon="4.58447">
        <ele>309.5</ele>
        <time>2025-07-16T08:31:03Z</time>
      </trkpt>
      <trkpt lat="46.1566" lon="4.58431">
        <ele>309.6</ele>
        <time>2025-07-16T08:31:09Z</time>
      </trkpt>
      <trkpt lat="46.15679" lon="4.58411">
        <ele>309.6</ele>
        <time>2025-07-16T08:31:15Z</time>
      </trkpt>
      <trkpt lat="46.15697" lon="4.58392">
        <ele>309.7</ele>
        <time>2025-07-16T08:31:21Z</time>
      </trkpt>
      <trkpt lat="46.15717" lon="4.58369">
        <ele>310.1</ele>
        <time>2025-07-16T08:31:28Z</time>
      </trkpt>
      <trkpt lat="46.15731" lon="4.58351">
        <ele>310.4</ele>
        <time>2025-07-16T08:31:33Z</time>
      </trkpt>
      <trkpt lat="46.15733" lon="4.58348">
        <ele>310.4</ele>
        <time>2025-07-16T08:31:34Z</time>
      </trkpt>
      <trkpt lat="46.15745" lon="4.58334">
        <ele>310.7</ele>
        <time>2025-07-16T08:31:39Z</time>
      </trkpt>
      <trkpt lat="46.15762" lon="4.58319">
        <ele>311</ele>
        <time>2025-07-16T08:31:45Z</time>
      </trkpt>
      <trkpt lat="46.15786" lon="4.58299">
        <ele>311.4</ele>
        <time>2025-07-16T08:31:52Z</time>
      </trkpt>
      <trkpt lat="46.15802" lon="4.58273">
        <ele>311.9</ele>
        <time>2025-07-16T08:31:58Z</time>
      </trkpt>
      <trkpt lat="46.1582" lon="4.58244">
        <ele>312.2</ele>
        <time>2025-07-16T08:32:05Z</time>
      </trkpt>
      <trkpt lat="46.15837" lon="4.58219">
        <ele>312.4</ele>
        <time>2025-07-16T08:32:12Z</time>
      </trkpt>
      <trkpt lat="46.15856" lon="4.58197">
        <ele>312.7</ele>
        <time>2025-07-16T08:32:19Z</time>
      </trkpt>
      <trkpt lat="46.15881" lon="4.58172">
        <ele>312.9</ele>
        <time>2025-07-16T08:32:27Z</time>
      </trkpt>
      <trkpt lat="46.159" lon="4.58141">
        <ele>313.2</ele>
        <time>2025-07-16T08:32:34Z</time>
      </trkpt>
      <trkpt lat="46.15913" lon="4.58115">
        <ele>313.8</ele>
        <time>2025-07-16T08:32:40Z</time>
      </trkpt>
      <trkpt lat="46.15923" lon="4.58096">
        <ele>314.4</ele>
        <time>2025-07-16T08:32:45Z</time>
      </trkpt>
      <trkpt lat="46.15931" lon="4.5807">
        <ele>315.2</ele>
        <time>2025-07-16T08:32:51Z</time>
      </trkpt>
      <trkpt lat="46.15936" lon="4.58043">
        <ele>316</ele>
        <time>2025-07-16T08:32:57Z</time>
      </trkpt>
      <trkpt lat="46.15941" lon="4.58016">
        <ele>316.7</ele>
        <time>2025-07-16T08:33:04Z</time>
      </trkpt>
      <trkpt lat="46.15945" lon="4.57994">
        <ele>317.4</ele>
        <time>2025-07-16T08:33:10Z</time>
      </trkpt>
      <trkpt lat="46.15951" lon="4.57965">
        <ele>318.1</ele>
        <time>2025-07-16T08:33:17Z</time>
      </trkpt>
      <trkpt lat="46.15959" lon="4.57936">
        <ele>318.6</ele>
        <time>2025-07-16T08:33:24Z</time>
      </trkpt>
      <trkpt lat="46.15966" lon="4.57908">
        <ele>319.1</ele>
        <time>2025-07-16T08:33:31Z</time>
      </trkpt>
      <trkpt lat="46.15974" lon="4.57876">
        <ele>319.7</ele>
        <time>2025-07-16T08:33:38Z</time>
      </trkpt>
      <trkpt lat="46.15982" lon="4.57851">
        <ele>320.1</ele>
        <time>2025-07-16T08:33:44Z</time>
      </trkpt>
      <trkpt lat="46.1599" lon="4.5783">
        <ele>320.5</ele>
        <time>2025-07-16T08:33:49Z</time>
      </trkpt>
      <trkpt lat="46.16" lon="4.57803">
        <ele>321</ele>
        <time>2025-07-16T08:33:56Z</time>
      </trkpt>
      <trkpt lat="46.16012" lon="4.57773">
        <ele>321.7</ele>
        <time>2025-07-16T08:34:03Z</time>
      </trkpt>
      <trkpt lat="46.16029" lon="4.57732">
        <ele>322.6</ele>
        <time>2025-07-16T08:34:13Z</time>
      </trkpt>
      <trkpt lat="46.16036" lon="4.57716">
        <ele>323.1</ele>
        <time>2025-07-16T08:34:17Z</time>
      </trkpt>
      <trkpt lat="46.16044" lon="4.57696">
        <ele>323.7</ele>
        <time>2025-07-16T08:34:23Z</time>
      </trkpt>
      <trkpt lat="46.16052" lon="4.57675">
        <ele>324.2</ele>
        <time>2025-07-16T08:34:29Z</time>
      </trkpt>
      <trkpt lat="46.16061" lon="4.57654">
        <ele>324.7</ele>
        <time>2025-07-16T08:34:35Z</time>
      </trkpt>
      <trkpt lat="46.16064" lon="4.57646">
        <ele>324.9</ele>
        <time>2025-07-16T08:34:37Z</time>
      </trkpt>
      <trkpt lat="46.16068" lon="4.57637">
        <ele>325.1</ele>
        <time>2025-07-16T08:34:40Z</time>
      </trkpt>
      <trkpt lat="46.16077" lon="4.57615">
        <ele>325.6</ele>
        <time>2025-07-16T08:34:46Z</time>
      </trkpt>
      <trkpt lat="46.16087" lon="4.5759">
        <ele>326.2</ele>
        <time>2025-07-16T08:34:53Z</time>
      </trkpt>
      <trkpt lat="46.16097" lon="4.57566">
        <ele>326.9</ele>
        <time>2025-07-16T08:34:59Z</time>
      </trkpt>
      <trkpt lat="46.16107" lon="4.57541">
        <ele>327.6</ele>
        <time>2025-07-16T08:35:06Z</time>
      </trkpt>
      <trkpt lat="46.16114" lon="4.57525">
        <ele>328.1</ele>
        <time>2025-07-16T08:35:11Z</time>
      </trkpt>
      <trkpt lat="46.16125" lon="4.57498">
        <ele>328.8</ele>
        <time>2025-07-16T08:35:18Z</time>
      </trkpt>
      <trkpt lat="46.16136" lon="4.57471">
        <ele>329.4</ele>
        <time>2025-07-16T08:35:25Z</time>
      </trkpt>
      <trkpt lat="46.16148" lon="4.57442">
        <ele>330</ele>
        <time>2025-07-16T08:35:33Z</time>
      </trkpt>
      <trkpt lat="46.16159" lon="4.57413">
        <ele>330.6</ele>
        <time>2025-07-16T08:35:40Z</time>
      </trkpt>
      <trkpt lat="46.16167" lon="4.57395">
        <ele>331.1</ele>
        <time>2025-07-16T08:35:46Z</time>
      </trkpt>
      <trkpt lat="46.1618" lon="4.57361">
        <ele>332</ele>
        <time>2025-07-16T08:35:54Z</time>
      </trkpt>
      <trkpt lat="46.16191" lon="4.57332">
        <ele>332.8</ele>
        <time>2025-07-16T08:36:02Z</time>
      </trkpt>
      <trkpt lat="46.16197" lon="4.5731">
        <ele>333.4</ele>
        <time>2025-07-16T08:36:08Z</time>
      </trkpt>
      <trkpt lat="46.16204" lon="4.57287">
        <ele>334.1</ele>
        <time>2025-07-16T08:36:15Z</time>
      </trkpt>
      <trkpt lat="46.16208" lon="4.57272">
        <ele>334.5</ele>
        <time>2025-07-16T08:36:20Z</time>
      </trkpt>
      <trkpt lat="46.16214" lon="4.5725">
        <ele>335</ele>
        <time>2025-07-16T08:36:27Z</time>
      </trkpt>
      <trkpt lat="46.16221" lon="4.57229">
        <ele>335.6</ele>
        <time>2025-07-16T08:36:34Z</time>
      </trkpt>
      <trkpt lat="46.16222" lon="4.57223">
        <ele>335.8</ele>
        <time>2025-07-16T08:36:36Z</time>
      </trkpt>
      <trkpt lat="46.16226" lon="4.57212">
        <ele>336.1</ele>
        <time>2025-07-16T08:36:39Z</time>
      </trkpt>
      <trkpt lat="46.16232" lon="4.57189">
        <ele>336.8</ele>
        <time>2025-07-16T08:36:46Z</time>
      </trkpt>
      <trkpt lat="46.1624" lon="4.57166">
        <ele>337.6</ele>
        <time>2025-07-16T08:36:53Z</time>
      </trkpt>
      <trkpt lat="46.16248" lon="4.57147">
        <ele>338.4</ele>
        <time>2025-07-16T08:36:59Z</time>
      </trkpt>
      <trkpt lat="46.16258" lon="4.57125">
        <ele>339.2</ele>
        <time>2025-07-16T08:37:06Z</time>
      </trkpt>
      <trkpt lat="46.16267" lon="4.57102">
        <ele>340.1</ele>
        <time>2025-07-16T08:37:13Z</time>
      </trkpt>
      <trkpt lat="46.16276" lon="4.57082">
        <ele>340.7</ele>
        <time>2025-07-16T08:37:19Z</time>
      </trkpt>
      <trkpt lat="46.16287" lon="4.57058">
        <ele>341.6</ele>
        <time>2025-07-16T08:37:26Z</time>
      </trkpt>
      <trkpt lat="46.16304" lon="4.57039">
        <ele>342.5</ele>
        <time>2025-07-16T08:37:33Z</time>
      </trkpt>
      <trkpt lat="46.16319" lon="4.57023">
        <ele>343.4</ele>
        <time>2025-07-16T08:37:40Z</time>
      </trkpt>
      <trkpt lat="46.16336" lon="4.57005">
        <ele>344.3</ele>
        <time>2025-07-16T08:37:48Z</time>
      </trkpt>
      <trkpt lat="46.16349" lon="4.5699">
        <ele>345</ele>
        <time>2025-07-16T08:37:54Z</time>
      </trkpt>
      <trkpt lat="46.16363" lon="4.56973">
        <ele>345.9</ele>
        <time>2025-07-16T08:38:01Z</time>
      </trkpt>
      <trkpt lat="46.16377" lon="4.56944">
        <ele>346.9</ele>
        <time>2025-07-16T08:38:10Z</time>
      </trkpt>
      <trkpt lat="46.16389" lon="4.56917">
        <ele>347.8</ele>
        <time>2025-07-16T08:38:18Z</time>
      </trkpt>
      <trkpt lat="46.16399" lon="4.56886">
        <ele>348.5</ele>
        <time>2025-07-16T08:38:26Z</time>
      </trkpt>
      <trkpt lat="46.16403" lon="4.56855">
        <ele>348.7</ele>
        <time>2025-07-16T08:38:33Z</time>
      </trkpt>
      <trkpt lat="46.16408" lon="4.56818">
        <ele>348.7</ele>
        <time>2025-07-16T08:38:41Z</time>
      </trkpt>
      <trkpt lat="46.16413" lon="4.56782">
        <ele>348.4</ele>
        <time>2025-07-16T08:38:49Z</time>
      </trkpt>
      <trkpt lat="46.16416" lon="4.5675">
        <ele>347.9</ele>
        <time>2025-07-16T08:38:55Z</time>
      </trkpt>
      <trkpt lat="46.16421" lon="4.56707">
        <ele>347.2</ele>
        <time>2025-07-16T08:39:01Z</time>
      </trkpt>
      <trkpt lat="46.16426" lon="4.56655">
        <ele>346.3</ele>
        <time>2025-07-16T08:39:08Z</time>
      </trkpt>
      <trkpt lat="46.16435" lon="4.56599">
        <ele>345.7</ele>
        <time>2025-07-16T08:39:15Z</time>
      </trkpt>
      <trkpt lat="46.16452" lon="4.56557">
        <ele>346.3</ele>
        <time>2025-07-16T08:39:21Z</time>
      </trkpt>
      <trkpt lat="46.16455" lon="4.56551">
        <ele>346.4</ele>
        <time>2025-07-16T08:39:22Z</time>
      </trkpt>
      <trkpt lat="46.1647" lon="4.56524">
        <ele>347.4</ele>
        <time>2025-07-16T08:39:27Z</time>
      </trkpt>
      <trkpt lat="46.16485" lon="4.56499">
        <ele>348.5</ele>
        <time>2025-07-16T08:39:33Z</time>
      </trkpt>
      <trkpt lat="46.16503" lon="4.56467">
        <ele>349.4</ele>
        <time>2025-07-16T08:39:41Z</time>
      </trkpt>
      <trkpt lat="46.16514" lon="4.56442">
        <ele>350.2</ele>
        <time>2025-07-16T08:39:47Z</time>
      </trkpt>
      <trkpt lat="46.16522" lon="4.56416">
        <ele>351.4</ele>
        <time>2025-07-16T08:39:53Z</time>
      </trkpt>
      <trkpt lat="46.16532" lon="4.56388">
        <ele>352.7</ele>
        <time>2025-07-16T08:40:00Z</time>
      </trkpt>
      <trkpt lat="46.1654" lon="4.56365">
        <ele>353.6</ele>
        <time>2025-07-16T08:40:06Z</time>
      </trkpt>
      <trkpt lat="46.16545" lon="4.56348">
        <ele>354.2</ele>
        <time>2025-07-16T08:40:10Z</time>
      </trkpt>
      <trkpt lat="46.16547" lon="4.5634">
        <ele>354.3</ele>
        <time>2025-07-16T08:40:12Z</time>
      </trkpt>
      <trkpt lat="46.16557" lon="4.56307">
        <ele>355</ele>
        <time>2025-07-16T08:40:20Z</time>
      </trkpt>
      <trkpt lat="46.16565" lon="4.56282">
        <ele>355.6</ele>
        <time>2025-07-16T08:40:26Z</time>
      </trkpt>
      <trkpt lat="46.16571" lon="4.5626">
        <ele>356</ele>
        <time>2025-07-16T08:40:31Z</time>
      </trkpt>
      <trkpt lat="46.1658" lon="4.56231">
        <ele>356.6</ele>
        <time>2025-07-16T08:40:38Z</time>
      </trkpt>
      <trkpt lat="46.16589" lon="4.56203">
        <ele>357</ele>
        <time>2025-07-16T08:40:45Z</time>
      </trkpt>
      <trkpt lat="46.16596" lon="4.5618">
        <ele>357.5</ele>
        <time>2025-07-16T08:40:50Z</time>
      </trkpt>
      <trkpt lat="46.16606" lon="4.56148">
        <ele>357.9</ele>
        <time>2025-07-16T08:40:56Z</time>
      </trkpt>
      <trkpt lat="46.16618" lon="4.5611">
        <ele>358.6</ele>
        <time>2025-07-16T08:41:04Z</time>
      </trkpt>
      <trkpt lat="46.16626" lon="4.56088">
        <ele>359</ele>
        <time>2025-07-16T08:41:09Z</time>
      </trkpt>
      <trkpt lat="46.16636" lon="4.56055">
        <ele>359.7</ele>
        <time>2025-07-16T08:41:16Z</time>
      </trkpt>
      <trkpt lat="46.16645" lon="4.56026">
        <ele>360.3</ele>
        <time>2025-07-16T08:41:22Z</time>
      </trkpt>
      <trkpt lat="46.16657" lon="4.5599">
        <ele>361.2</ele>
        <time>2025-07-16T08:41:30Z</time>
      </trkpt>
      <trkpt lat="46.16668" lon="4.55964">
        <ele>361.8</ele>
        <time>2025-07-16T08:41:35Z</time>
      </trkpt>
      <trkpt lat="46.16688" lon="4.55964">
        <ele>360.5</ele>
        <time>2025-07-16T08:41:41Z</time>
      </trkpt>
      <trkpt lat="46.16706" lon="4.5596">
        <ele>359.3</ele>
        <time>2025-07-16T08:41:45Z</time>
      </trkpt>
      <trkpt lat="46.16712" lon="4.55958">
        <ele>358.9</ele>
        <time>2025-07-16T08:41:46Z</time>
      </trkpt>
      <trkpt lat="46.1675" lon="4.55947">
        <ele>356.6</ele>
        <time>2025-07-16T08:41:52Z</time>
      </trkpt>
      <trkpt lat="46.16794" lon="4.55934">
        <ele>354.3</ele>
        <time>2025-07-16T08:41:58Z</time>
      </trkpt>
      <trkpt lat="46.16851" lon="4.55918">
        <ele>352.2</ele>
        <time>2025-07-16T08:42:06Z</time>
      </trkpt>
      <trkpt lat="46.16858" lon="4.55916">
        <ele>352.1</ele>
        <time>2025-07-16T08:42:07Z</time>
      </trkpt>
      <trkpt lat="46.16895" lon="4.55906">
        <ele>352</ele>
        <time>2025-07-16T08:42:13Z</time>
      </trkpt>
      <trkpt lat="46.16927" lon="4.55896">
        <ele>351.7</ele>
        <time>2025-07-16T08:42:19Z</time>
      </trkpt>
      <trkpt lat="46.16948" lon="4.5589">
        <ele>351.5</ele>
        <time>2025-07-16T08:42:23Z</time>
      </trkpt>
      <trkpt lat="46.16964" lon="4.55886">
        <ele>351.4</ele>
        <time>2025-07-16T08:42:26Z</time>
      </trkpt>
      <trkpt lat="46.16969" lon="4.55885">
        <ele>351.4</ele>
        <time>2025-07-16T08:42:27Z</time>
      </trkpt>
      <trkpt lat="46.17003" lon="4.55876">
        <ele>351.9</ele>
        <time>2025-07-16T08:42:33Z</time>
      </trkpt>
      <trkpt lat="46.17035" lon="4.55856">
        <ele>353.1</ele>
        <time>2025-07-16T08:42:40Z</time>
      </trkpt>
      <trkpt lat="46.17056" lon="4.55842">
        <ele>353.5</ele>
        <time>2025-07-16T08:42:46Z</time>
      </trkpt>
      <trkpt lat="46.17078" lon="4.55829">
        <ele>354.5</ele>
        <time>2025-07-16T08:42:53Z</time>
      </trkpt>
      <trkpt lat="46.17101" lon="4.55813">
        <ele>355.9</ele>
        <time>2025-07-16T08:43:02Z</time>
      </trkpt>
      <trkpt lat="46.1712" lon="4.55802">
        <ele>357</ele>
        <time>2025-07-16T08:43:10Z</time>
      </trkpt>
      <trkpt lat="46.17133" lon="4.55793">
        <ele>357.9</ele>
        <time>2025-07-16T08:43:16Z</time>
      </trkpt>
      <trkpt lat="46.17151" lon="4.55782">
        <ele>359.1</ele>
        <time>2025-07-16T08:43:24Z</time>
      </trkpt>
      <trkpt lat="46.17164" lon="4.55774">
        <ele>359.9</ele>
        <time>2025-07-16T08:43:30Z</time>
      </trkpt>
      <trkpt lat="46.17183" lon="4.55762">
        <ele>361.1</ele>
        <time>2025-07-16T08:43:38Z</time>
      </trkpt>
      <trkpt lat="46.17196" lon="4.55758">
        <ele>361.9</ele>
        <time>2025-07-16T08:43:44Z</time>
      </trkpt>
      <trkpt lat="46.17222" lon="4.55752">
        <ele>363.2</ele>
        <time>2025-07-16T08:43:53Z</time>
      </trkpt>
      <trkpt lat="46.17242" lon="4.55746">
        <ele>364.4</ele>
        <time>2025-07-16T08:44:01Z</time>
      </trkpt>
      <trkpt lat="46.17258" lon="4.5574">
        <ele>365.3</ele>
        <time>2025-07-16T08:44:08Z</time>
      </trkpt>
      <trkpt lat="46.17277" lon="4.55732">
        <ele>366.4</ele>
        <time>2025-07-16T08:44:16Z</time>
      </trkpt>
      <trkpt lat="46.17297" lon="4.55724">
        <ele>367.5</ele>
        <time>2025-07-16T08:44:24Z</time>
      </trkpt>
      <trkpt lat="46.17322" lon="4.55713">
        <ele>368.8</ele>
        <time>2025-07-16T08:44:34Z</time>
      </trkpt>
      <trkpt lat="46.1735" lon="4.55702">
        <ele>370.3</ele>
        <time>2025-07-16T08:44:45Z</time>
      </trkpt>
      <trkpt lat="46.17373" lon="4.55694">
        <ele>371.5</ele>
        <time>2025-07-16T08:44:54Z</time>
      </trkpt>
      <trkpt lat="46.17396" lon="4.55694">
        <ele>372.9</ele>
        <time>2025-07-16T08:45:03Z</time>
      </trkpt>
      <trkpt lat="46.17415" lon="4.55698">
        <ele>374.1</ele>
        <time>2025-07-16T08:45:11Z</time>
      </trkpt>
      <trkpt lat="46.17432" lon="4.55703">
        <ele>375.1</ele>
        <time>2025-07-16T08:45:18Z</time>
      </trkpt>
      <trkpt lat="46.17456" lon="4.55705">
        <ele>376.4</ele>
        <time>2025-07-16T08:45:27Z</time>
      </trkpt>
      <trkpt lat="46.17476" lon="4.55696">
        <ele>377.5</ele>
        <time>2025-07-16T08:45:35Z</time>
      </trkpt>
      <trkpt lat="46.17495" lon="4.55683">
        <ele>377.8</ele>
        <time>2025-07-16T08:45:43Z</time>
      </trkpt>
      <trkpt lat="46.17513" lon="4.55668">
        <ele>378.8</ele>
        <time>2025-07-16T08:45:51Z</time>
      </trkpt>
      <trkpt lat="46.17535" lon="4.55651">
        <ele>380</ele>
        <time>2025-07-16T08:46:00Z</time>
      </trkpt>
      <trkpt lat="46.17551" lon="4.55638">
        <ele>380.9</ele>
        <time>2025-07-16T08:46:07Z</time>
      </trkpt>
      <trkpt lat="46.17569" lon="4.55624">
        <ele>381.8</ele>
        <time>2025-07-16T08:46:15Z</time>
      </trkpt>
      <trkpt lat="46.17588" lon="4.55609">
        <ele>382.8</ele>
        <time>2025-07-16T08:46:24Z</time>
      </trkpt>
      <trkpt lat="46.17609" lon="4.55596">
        <ele>383.5</ele>
        <time>2025-07-16T08:46:33Z</time>
      </trkpt>
      <trkpt lat="46.17637" lon="4.55578">
        <ele>384.3</ele>
        <time>2025-07-16T08:46:44Z</time>
      </trkpt>
      <trkpt lat="46.17659" lon="4.55567">
        <ele>384.9</ele>
        <time>2025-07-16T08:46:52Z</time>
      </trkpt>
      <trkpt lat="46.17678" lon="4.5556">
        <ele>385.4</ele>
        <time>2025-07-16T08:47:00Z</time>
      </trkpt>
      <trkpt lat="46.17709" lon="4.55551">
        <ele>386.4</ele>
        <time>2025-07-16T08:47:08Z</time>
      </trkpt>
      <trkpt lat="46.17736" lon="4.55545">
        <ele>387.3</ele>
        <time>2025-07-16T08:47:17Z</time>
      </trkpt>
      <trkpt lat="46.17765" lon="4.55539">
        <ele>388.2</ele>
        <time>2025-07-16T08:47:26Z</time>
      </trkpt>
      <trkpt lat="46.17796" lon="4.55533">
        <ele>389.2</ele>
        <time>2025-07-16T08:47:36Z</time>
      </trkpt>
      <trkpt lat="46.17817" lon="4.55529">
        <ele>389.9</ele>
        <time>2025-07-16T08:47:43Z</time>
      </trkpt>
      <trkpt lat="46.17831" lon="4.55526">
        <ele>390.3</ele>
        <time>2025-07-16T08:47:48Z</time>
      </trkpt>
      <trkpt lat="46.17845" lon="4.55517">
        <ele>390.9</ele>
        <time>2025-07-16T08:47:54Z</time>
      </trkpt>
      <trkpt lat="46.17859" lon="4.55507">
        <ele>391.4</ele>
        <time>2025-07-16T08:48:00Z</time>
      </trkpt>
      <trkpt lat="46.17872" lon="4.5549">
        <ele>391.8</ele>
        <time>2025-07-16T08:48:06Z</time>
      </trkpt>
      <trkpt lat="46.17885" lon="4.55471">
        <ele>392.1</ele>
        <time>2025-07-16T08:48:13Z</time>
      </trkpt>
      <trkpt lat="46.17898" lon="4.55452">
        <ele>392.3</ele>
        <time>2025-07-16T08:48:19Z</time>
      </trkpt>
      <trkpt lat="46.17917" lon="4.55433">
        <ele>392.6</ele>
        <time>2025-07-16T08:48:26Z</time>
      </trkpt>
      <trkpt lat="46.17936" lon="4.55419">
        <ele>392.9</ele>
        <time>2025-07-16T08:48:33Z</time>
      </trkpt>
      <trkpt lat="46.17955" lon="4.55405">
        <ele>393.2</ele>
        <time>2025-07-16T08:48:40Z</time>
      </trkpt>
      <trkpt lat="46.17968" lon="4.55391">
        <ele>393.4</ele>
        <time>2025-07-16T08:48:45Z</time>
      </trkpt>
      <trkpt lat="46.17982" lon="4.55368">
        <ele>393.7</ele>
        <time>2025-07-16T08:48:51Z</time>
      </trkpt>
      <trkpt lat="46.17993" lon="4.55339">
        <ele>394</ele>
        <time>2025-07-16T08:48:58Z</time>
      </trkpt>
      <trkpt lat="46.18008" lon="4.55302">
        <ele>394.1</ele>
        <time>2025-07-16T08:49:07Z</time>
      </trkpt>
      <trkpt lat="46.18024" lon="4.55266">
        <ele>394.3</ele>
        <time>2025-07-16T08:49:15Z</time>
      </trkpt>
      <trkpt lat="46.18042" lon="4.55237">
        <ele>394.5</ele>
        <time>2025-07-16T08:49:23Z</time>
      </trkpt>
      <trkpt lat="46.1806" lon="4.55218">
        <ele>394.7</ele>
        <time>2025-07-16T08:49:30Z</time>
      </trkpt>
      <trkpt lat="46.18087" lon="4.55198">
        <ele>395</ele>
        <time>2025-07-16T08:49:38Z</time>
      </trkpt>
      <trkpt lat="46.18107" lon="4.55183">
        <ele>395.2</ele>
        <time>2025-07-16T08:49:44Z</time>
      </trkpt>
      <trkpt lat="46.18125" lon="4.55169">
        <ele>395.3</ele>
        <time>2025-07-16T08:49:50Z</time>
      </trkpt>
      <trkpt lat="46.18146" lon="4.55154">
        <ele>395.4</ele>
        <time>2025-07-16T08:49:56Z</time>
      </trkpt>
      <trkpt lat="46.1817" lon="4.55135">
        <ele>395.6</ele>
        <time>2025-07-16T08:50:03Z</time>
      </trkpt>
      <trkpt lat="46.1819" lon="4.55121">
        <ele>395.6</ele>
        <time>2025-07-16T08:50:09Z</time>
      </trkpt>
      <trkpt lat="46.18212" lon="4.55109">
        <ele>395.7</ele>
        <time>2025-07-16T08:50:16Z</time>
      </trkpt>
      <trkpt lat="46.18233" lon="4.55103">
        <ele>395.8</ele>
        <time>2025-07-16T08:50:22Z</time>
      </trkpt>
      <trkpt lat="46.18251" lon="4.55097">
        <ele>395.8</ele>
        <time>2025-07-16T08:50:27Z</time>
      </trkpt>
      <trkpt lat="46.18279" lon="4.55099">
        <ele>396</ele>
        <time>2025-07-16T08:50:35Z</time>
      </trkpt>
      <trkpt lat="46.18299" lon="4.55105">
        <ele>396.1</ele>
        <time>2025-07-16T08:50:41Z</time>
      </trkpt>
      <trkpt lat="46.18326" lon="4.55114">
        <ele>396.1</ele>
        <time>2025-07-16T08:50:49Z</time>
      </trkpt>
      <trkpt lat="46.18358" lon="4.55124">
        <ele>396.3</ele>
        <time>2025-07-16T08:50:58Z</time>
      </trkpt>
      <trkpt lat="46.18381" lon="4.55123">
        <ele>396.4</ele>
        <time>2025-07-16T08:51:04Z</time>
      </trkpt>
      <trkpt lat="46.18419" lon="4.55114">
        <ele>396.6</ele>
        <time>2025-07-16T08:51:11Z</time>
      </trkpt>
      <trkpt lat="46.18458" lon="4.55096">
        <ele>397.4</ele>
        <time>2025-07-16T08:51:18Z</time>
      </trkpt>
      <trkpt lat="46.1848" lon="4.55086">
        <ele>398.3</ele>
        <time>2025-07-16T08:51:24Z</time>
      </trkpt>
      <trkpt lat="46.18499" lon="4.55077">
        <ele>399.5</ele>
        <time>2025-07-16T08:51:30Z</time>
      </trkpt>
      <trkpt lat="46.18523" lon="4.55066">
        <ele>400.9</ele>
        <time>2025-07-16T08:51:38Z</time>
      </trkpt>
      <trkpt lat="46.18544" lon="4.55057">
        <ele>402.1</ele>
        <time>2025-07-16T08:51:45Z</time>
      </trkpt>
      <trkpt lat="46.18565" lon="4.55047">
        <ele>403.2</ele>
        <time>2025-07-16T08:51:52Z</time>
      </trkpt>
      <trkpt lat="46.18596" lon="4.55033">
        <ele>404.7</ele>
        <time>2025-07-16T08:52:03Z</time>
      </trkpt>
      <trkpt lat="46.18623" lon="4.5502">
        <ele>405.9</ele>
        <time>2025-07-16T08:52:13Z</time>
      </trkpt>
      <trkpt lat="46.18639" lon="4.55012">
        <ele>406.7</ele>
        <time>2025-07-16T08:52:20Z</time>
      </trkpt>
      <trkpt lat="46.18663" lon="4.55">
        <ele>408</ele>
        <time>2025-07-16T08:52:30Z</time>
      </trkpt>
      <trkpt lat="46.18674" lon="4.54995">
        <ele>408.6</ele>
        <time>2025-07-16T08:52:35Z</time>
      </trkpt>
      <trkpt lat="46.18696" lon="4.5498">
        <ele>409.8</ele>
        <time>2025-07-16T08:52:45Z</time>
      </trkpt>
      <trkpt lat="46.18709" lon="4.54968">
        <ele>410.6</ele>
        <time>2025-07-16T08:52:51Z</time>
      </trkpt>
      <trkpt lat="46.18723" lon="4.54954">
        <ele>411.4</ele>
        <time>2025-07-16T08:52:58Z</time>
      </trkpt>
      <trkpt lat="46.1874" lon="4.54938">
        <ele>412.4</ele>
        <time>2025-07-16T08:53:06Z</time>
      </trkpt>
      <trkpt lat="46.18751" lon="4.54927">
        <ele>413</ele>
        <time>2025-07-16T08:53:12Z</time>
      </trkpt>
      <trkpt lat="46.18766" lon="4.54911">
        <ele>414</ele>
        <time>2025-07-16T08:53:20Z</time>
      </trkpt>
      <trkpt lat="46.18782" lon="4.54895">
        <ele>415</ele>
        <time>2025-07-16T08:53:28Z</time>
      </trkpt>
      <trkpt lat="46.18795" lon="4.54882">
        <ele>415.8</ele>
        <time>2025-07-16T08:53:35Z</time>
      </trkpt>
      <trkpt lat="46.1881" lon="4.54867">
        <ele>416.6</ele>
        <time>2025-07-16T08:53:43Z</time>
      </trkpt>
      <trkpt lat="46.18819" lon="4.54858">
        <ele>417.1</ele>
        <time>2025-07-16T08:53:48Z</time>
      </trkpt>
      <trkpt lat="46.18831" lon="4.54843">
        <ele>417.9</ele>
        <time>2025-07-16T08:53:54Z</time>
      </trkpt>
      <trkpt lat="46.18843" lon="4.54828">
        <ele>418.9</ele>
        <time>2025-07-16T08:54:01Z</time>
      </trkpt>
      <trkpt lat="46.18854" lon="4.54814">
        <ele>419.7</ele>
        <time>2025-07-16T08:54:07Z</time>
      </trkpt>
      <trkpt lat="46.18868" lon="4.54797">
        <ele>420.7</ele>
        <time>2025-07-16T08:54:15Z</time>
      </trkpt>
      <trkpt lat="46.18881" lon="4.54781">
        <ele>421.5</ele>
        <time>2025-07-16T08:54:23Z</time>
      </trkpt>
      <trkpt lat="46.18893" lon="4.54765">
        <ele>422.4</ele>
        <time>2025-07-16T08:54:31Z</time>
      </trkpt>
      <trkpt lat="46.18906" lon="4.5475">
        <ele>423.2</ele>
        <time>2025-07-16T08:54:38Z</time>
      </trkpt>
      <trkpt lat="46.18921" lon="4.54734">
        <ele>424.2</ele>
        <time>2025-07-16T08:54:45Z</time>
      </trkpt>
      <trkpt lat="46.18934" lon="4.54726">
        <ele>424.9</ele>
        <time>2025-07-16T08:54:51Z</time>
      </trkpt>
      <trkpt lat="46.18946" lon="4.54722">
        <ele>425.6</ele>
        <time>2025-07-16T08:54:57Z</time>
      </trkpt>
      <trkpt lat="46.18961" lon="4.54725">
        <ele>426.5</ele>
        <time>2025-07-16T08:55:03Z</time>
      </trkpt>
      <trkpt lat="46.18974" lon="4.5473">
        <ele>427.3</ele>
        <time>2025-07-16T08:55:08Z</time>
      </trkpt>
      <trkpt lat="46.18991" lon="4.54748">
        <ele>428.7</ele>
        <time>2025-07-16T08:55:15Z</time>
      </trkpt>
      <trkpt lat="46.19" lon="4.54766">
        <ele>429.7</ele>
        <time>2025-07-16T08:55:21Z</time>
      </trkpt>
      <trkpt lat="46.19011" lon="4.54789">
        <ele>430.8</ele>
        <time>2025-07-16T08:55:29Z</time>
      </trkpt>
      <trkpt lat="46.19023" lon="4.54813">
        <ele>432.2</ele>
        <time>2025-07-16T08:55:37Z</time>
      </trkpt>
      <trkpt lat="46.19034" lon="4.54835">
        <ele>433.4</ele>
        <time>2025-07-16T08:55:45Z</time>
      </trkpt>
      <trkpt lat="46.1904" lon="4.54844">
        <ele>434</ele>
        <time>2025-07-16T08:55:52Z</time>
      </trkpt>
      <trkpt lat="46.19047" lon="4.5485">
        <ele>434.4</ele>
        <time>2025-07-16T08:55:56Z</time>
      </trkpt>
      <trkpt lat="46.1905" lon="4.54853">
        <ele>434.7</ele>
        <time>2025-07-16T08:55:58Z</time>
      </trkpt>
      <trkpt lat="46.19059" lon="4.54862">
        <ele>435.4</ele>
        <time>2025-07-16T08:56:04Z</time>
      </trkpt>
      <trkpt lat="46.19072" lon="4.54874">
        <ele>436.3</ele>
        <time>2025-07-16T08:56:11Z</time>
      </trkpt>
      <trkpt lat="46.1909" lon="4.54891">
        <ele>437.6</ele>
        <time>2025-07-16T08:56:19Z</time>
      </trkpt>
      <trkpt lat="46.19104" lon="4.54904">
        <ele>438.6</ele>
        <time>2025-07-16T08:56:26Z</time>
      </trkpt>
      <trkpt lat="46.19118" lon="4.54912">
        <ele>439.6</ele>
        <time>2025-07-16T08:56:33Z</time>
      </trkpt>
      <trkpt lat="46.19134" lon="4.54915">
        <ele>440.7</ele>
        <time>2025-07-16T08:56:39Z</time>
      </trkpt>
      <trkpt lat="46.19151" lon="4.54914">
        <ele>441.9</ele>
        <time>2025-07-16T08:56:45Z</time>
      </trkpt>
      <trkpt lat="46.19166" lon="4.54912">
        <ele>443</ele>
        <time>2025-07-16T08:56:51Z</time>
      </trkpt>
      <trkpt lat="46.19181" lon="4.5491">
        <ele>444.3</ele>
        <time>2025-07-16T08:56:58Z</time>
      </trkpt>
      <trkpt lat="46.19192" lon="4.54906">
        <ele>445.2</ele>
        <time>2025-07-16T08:57:03Z</time>
      </trkpt>
      <trkpt lat="46.19203" lon="4.54897">
        <ele>446.3</ele>
        <time>2025-07-16T08:57:10Z</time>
      </trkpt>
      <trkpt lat="46.19205" lon="4.54891">
        <ele>446.6</ele>
        <time>2025-07-16T08:57:13Z</time>
      </trkpt>
      <trkpt lat="46.19208" lon="4.54883">
        <ele>447.1</ele>
        <time>2025-07-16T08:57:16Z</time>
      </trkpt>
      <trkpt lat="46.19209" lon="4.54862">
        <ele>448.1</ele>
        <time>2025-07-16T08:57:24Z</time>
      </trkpt>
      <trkpt lat="46.19204" lon="4.54844">
        <ele>449.1</ele>
        <time>2025-07-16T08:57:31Z</time>
      </trkpt>
      <trkpt lat="46.19195" lon="4.54829">
        <ele>450</ele>
        <time>2025-07-16T08:57:38Z</time>
      </trkpt>
      <trkpt lat="46.19188" lon="4.54815">
        <ele>450.7</ele>
        <time>2025-07-16T08:57:44Z</time>
      </trkpt>
      <trkpt lat="46.19179" lon="4.54796">
        <ele>451.6</ele>
        <time>2025-07-16T08:57:52Z</time>
      </trkpt>
      <trkpt lat="46.19173" lon="4.54772">
        <ele>452.5</ele>
        <time>2025-07-16T08:58:00Z</time>
      </trkpt>
      <trkpt lat="46.19168" lon="4.54748">
        <ele>453.2</ele>
        <time>2025-07-16T08:58:07Z</time>
      </trkpt>
      <trkpt lat="46.19164" lon="4.54726">
        <ele>454</ele>
        <time>2025-07-16T08:58:14Z</time>
      </trkpt>
      <trkpt lat="46.19157" lon="4.54708">
        <ele>454.6</ele>
        <time>2025-07-16T08:58:20Z</time>
      </trkpt>
      <trkpt lat="46.1915" lon="4.5469">
        <ele>455.2</ele>
        <time>2025-07-16T08:58:26Z</time>
      </trkpt>
      <trkpt lat="46.19138" lon="4.54677">
        <ele>455.9</ele>
        <time>2025-07-16T08:58:32Z</time>
      </trkpt>
      <trkpt lat="46.19124" lon="4.54666">
        <ele>456.6</ele>
        <time>2025-07-16T08:58:39Z</time>
      </trkpt>
      <trkpt lat="46.19107" lon="4.54656">
        <ele>457.5</ele>
        <time>2025-07-16T08:58:46Z</time>
      </trkpt>
      <trkpt lat="46.19092" lon="4.54646">
        <ele>458.3</ele>
        <time>2025-07-16T08:58:53Z</time>
      </trkpt>
      <trkpt lat="46.19079" lon="4.54638">
        <ele>459.1</ele>
        <time>2025-07-16T08:58:59Z</time>
      </trkpt>
      <trkpt lat="46.19063" lon="4.54628">
        <ele>460.1</ele>
        <time>2025-07-16T08:59:06Z</time>
      </trkpt>
      <trkpt lat="46.19049" lon="4.54617">
        <ele>461</ele>
        <time>2025-07-16T08:59:12Z</time>
      </trkpt>
      <trkpt lat="46.19039" lon="4.546">
        <ele>461.8</ele>
        <time>2025-07-16T08:59:18Z</time>
      </trkpt>
      <trkpt lat="46.19032" lon="4.54589">
        <ele>462.4</ele>
        <time>2025-07-16T08:59:23Z</time>
      </trkpt>
      <trkpt lat="46.19027" lon="4.54574">
        <ele>463</ele>
        <time>2025-07-16T08:59:28Z</time>
      </trkpt>
      <trkpt lat="46.19022" lon="4.5455">
        <ele>463.9</ele>
        <time>2025-07-16T08:59:35Z</time>
      </trkpt>
      <trkpt lat="46.19019" lon="4.54516">
        <ele>464.9</ele>
        <time>2025-07-16T08:59:43Z</time>
      </trkpt>
      <trkpt lat="46.19022" lon="4.545">
        <ele>465.4</ele>
        <time>2025-07-16T08:59:49Z</time>
      </trkpt>
      <trkpt lat="46.19027" lon="4.54478">
        <ele>466.2</ele>
        <time>2025-07-16T08:59:56Z</time>
      </trkpt>
      <trkpt lat="46.19036" lon="4.54457">
        <ele>466.9</ele>
        <time>2025-07-16T09:00:03Z</time>
      </trkpt>
      <trkpt lat="46.19047" lon="4.54439">
        <ele>467.8</ele>
        <time>2025-07-16T09:00:10Z</time>
      </trkpt>
      <trkpt lat="46.19058" lon="4.54425">
        <ele>468.5</ele>
        <time>2025-07-16T09:00:17Z</time>
      </trkpt>
      <trkpt lat="46.19074" lon="4.54407">
        <ele>469.5</ele>
        <time>2025-07-16T09:00:26Z</time>
      </trkpt>
      <trkpt lat="46.19092" lon="4.54387">
        <ele>470.7</ele>
        <time>2025-07-16T09:00:36Z</time>
      </trkpt>
      <trkpt lat="46.1911" lon="4.54367">
        <ele>471.8</ele>
        <time>2025-07-16T09:00:45Z</time>
      </trkpt>
      <trkpt lat="46.19126" lon="4.54341">
        <ele>472.9</ele>
        <time>2025-07-16T09:00:54Z</time>
      </trkpt>
      <trkpt lat="46.19137" lon="4.54314">
        <ele>473.8</ele>
        <time>2025-07-16T09:01:01Z</time>
      </trkpt>
      <trkpt lat="46.19144" lon="4.54289">
        <ele>474.5</ele>
        <time>2025-07-16T09:01:08Z</time>
      </trkpt>
      <trkpt lat="46.19151" lon="4.5426">
        <ele>475.3</ele>
        <time>2025-07-16T09:01:16Z</time>
      </trkpt>
      <trkpt lat="46.19161" lon="4.54238">
        <ele>476</ele>
        <time>2025-07-16T09:01:23Z</time>
      </trkpt>
      <trkpt lat="46.19175" lon="4.54222">
        <ele>476.8</ele>
        <time>2025-07-16T09:01:31Z</time>
      </trkpt>
      <trkpt lat="46.19194" lon="4.54209">
        <ele>477.8</ele>
        <time>2025-07-16T09:01:39Z</time>
      </trkpt>
      <trkpt lat="46.19216" lon="4.54206">
        <ele>478.9</ele>
        <time>2025-07-16T09:01:46Z</time>
      </trkpt>
      <trkpt lat="46.19238" lon="4.5421">
        <ele>479.9</ele>
        <time>2025-07-16T09:01:54Z</time>
      </trkpt>
      <trkpt lat="46.19256" lon="4.54216">
        <ele>480.7</ele>
        <time>2025-07-16T09:02:01Z</time>
      </trkpt>
      <trkpt lat="46.19275" lon="4.54227">
        <ele>481.7</ele>
        <time>2025-07-16T09:02:08Z</time>
      </trkpt>
      <trkpt lat="46.19291" lon="4.5424">
        <ele>482.6</ele>
        <time>2025-07-16T09:02:15Z</time>
      </trkpt>
      <trkpt lat="46.19304" lon="4.54251">
        <ele>483.4</ele>
        <time>2025-07-16T09:02:23Z</time>
      </trkpt>
      <trkpt lat="46.19316" lon="4.54261">
        <ele>484.1</ele>
        <time>2025-07-16T09:02:29Z</time>
      </trkpt>
      <trkpt lat="46.19327" lon="4.5427">
        <ele>484.6</ele>
        <time>2025-07-16T09:02:35Z</time>
      </trkpt>
      <trkpt lat="46.19341" lon="4.54281">
        <ele>485.3</ele>
        <time>2025-07-16T09:02:41Z</time>
      </trkpt>
      <trkpt lat="46.19363" lon="4.54293">
        <ele>486.3</ele>
        <time>2025-07-16T09:02:49Z</time>
      </trkpt>
      <trkpt lat="46.19386" lon="4.54297">
        <ele>487.3</ele>
        <time>2025-07-16T09:02:56Z</time>
      </trkpt>
      <trkpt lat="46.19404" lon="4.54292">
        <ele>488.2</ele>
        <time>2025-07-16T09:03:03Z</time>
      </trkpt>
      <trkpt lat="46.19421" lon="4.54288">
        <ele>489</ele>
        <time>2025-07-16T09:03:09Z</time>
      </trkpt>
      <trkpt lat="46.19442" lon="4.54275">
        <ele>490.2</ele>
        <time>2025-07-16T09:03:17Z</time>
      </trkpt>
      <trkpt lat="46.19454" lon="4.54268">
        <ele>490.8</ele>
        <time>2025-07-16T09:03:23Z</time>
      </trkpt>
      <trkpt lat="46.19471" lon="4.54257">
        <ele>491.7</ele>
        <time>2025-07-16T09:03:30Z</time>
      </trkpt>
      <trkpt lat="46.19489" lon="4.5426">
        <ele>492.6</ele>
        <time>2025-07-16T09:03:37Z</time>
      </trkpt>
      <trkpt lat="46.19509" lon="4.54264">
        <ele>493.7</ele>
        <time>2025-07-16T09:03:45Z</time>
      </trkpt>
      <trkpt lat="46.19521" lon="4.54269">
        <ele>494.4</ele>
        <time>2025-07-16T09:03:51Z</time>
      </trkpt>
      <trkpt lat="46.19533" lon="4.54274">
        <ele>495</ele>
        <time>2025-07-16T09:03:57Z</time>
      </trkpt>
      <trkpt lat="46.1955" lon="4.54282">
        <ele>495.7</ele>
        <time>2025-07-16T09:04:05Z</time>
      </trkpt>
      <trkpt lat="46.19565" lon="4.54287">
        <ele>496.3</ele>
        <time>2025-07-16T09:04:11Z</time>
      </trkpt>
      <trkpt lat="46.1958" lon="4.54289">
        <ele>496.9</ele>
        <time>2025-07-16T09:04:17Z</time>
      </trkpt>
      <trkpt lat="46.19594" lon="4.5429">
        <ele>497.6</ele>
        <time>2025-07-16T09:04:23Z</time>
      </trkpt>
      <trkpt lat="46.1961" lon="4.54291">
        <ele>498.4</ele>
        <time>2025-07-16T09:04:30Z</time>
      </trkpt>
      <trkpt lat="46.19621" lon="4.54292">
        <ele>499</ele>
        <time>2025-07-16T09:04:36Z</time>
      </trkpt>
      <trkpt lat="46.19638" lon="4.54294">
        <ele>499.8</ele>
        <time>2025-07-16T09:04:43Z</time>
      </trkpt>
      <trkpt lat="46.19657" lon="4.54296">
        <ele>500.8</ele>
        <time>2025-07-16T09:04:50Z</time>
      </trkpt>
      <trkpt lat="46.19675" lon="4.54297">
        <ele>501.7</ele>
        <time>2025-07-16T09:04:57Z</time>
      </trkpt>
      <trkpt lat="46.19693" lon="4.54306">
        <ele>502.7</ele>
        <time>2025-07-16T09:05:05Z</time>
      </trkpt>
      <trkpt lat="46.19706" lon="4.54315">
        <ele>503.6</ele>
        <time>2025-07-16T09:05:12Z</time>
      </trkpt>
      <trkpt lat="46.19716" lon="4.54323">
        <ele>504.3</ele>
        <time>2025-07-16T09:05:18Z</time>
      </trkpt>
      <trkpt lat="46.19726" lon="4.5433">
        <ele>505</ele>
        <time>2025-07-16T09:05:23Z</time>
      </trkpt>
      <trkpt lat="46.19745" lon="4.54344">
        <ele>506</ele>
        <time>2025-07-16T09:05:31Z</time>
      </trkpt>
      <trkpt lat="46.19759" lon="4.54355">
        <ele>506.8</ele>
        <time>2025-07-16T09:05:38Z</time>
      </trkpt>
      <trkpt lat="46.19779" lon="4.5437">
        <ele>508.1</ele>
        <time>2025-07-16T09:05:47Z</time>
      </trkpt>
      <trkpt lat="46.1979" lon="4.54379">
        <ele>508.9</ele>
        <time>2025-07-16T09:05:53Z</time>
      </trkpt>
      <trkpt lat="46.19804" lon="4.54389">
        <ele>509.8</ele>
        <time>2025-07-16T09:06:00Z</time>
      </trkpt>
      <trkpt lat="46.19819" lon="4.544">
        <ele>510.7</ele>
        <time>2025-07-16T09:06:07Z</time>
      </trkpt>
      <trkpt lat="46.19837" lon="4.54411">
        <ele>511.8</ele>
        <time>2025-07-16T09:06:15Z</time>
      </trkpt>
      <trkpt lat="46.19853" lon="4.54416">
        <ele>512.6</ele>
        <time>2025-07-16T09:06:22Z</time>
      </trkpt>
      <trkpt lat="46.19865" lon="4.5442">
        <ele>513.3</ele>
        <time>2025-07-16T09:06:27Z</time>
      </trkpt>
      <trkpt lat="46.19876" lon="4.54423">
        <ele>513.8</ele>
        <time>2025-07-16T09:06:33Z</time>
      </trkpt>
      <trkpt lat="46.19887" lon="4.54424">
        <ele>514.4</ele>
        <time>2025-07-16T09:06:39Z</time>
      </trkpt>
      <trkpt lat="46.19898" lon="4.54422">
        <ele>515</ele>
        <time>2025-07-16T09:06:44Z</time>
      </trkpt>
      <trkpt lat="46.19916" lon="4.54421">
        <ele>516</ele>
        <time>2025-07-16T09:06:51Z</time>
      </trkpt>
      <trkpt lat="46.19932" lon="4.54417">
        <ele>516.9</ele>
        <time>2025-07-16T09:06:59Z</time>
      </trkpt>
      <trkpt lat="46.1995" lon="4.54412">
        <ele>517.9</ele>
        <time>2025-07-16T09:07:07Z</time>
      </trkpt>
      <trkpt lat="46.19965" lon="4.54407">
        <ele>518.8</ele>
        <time>2025-07-16T09:07:12Z</time>
      </trkpt>
      <trkpt lat="46.19983" lon="4.54402">
        <ele>519.9</ele>
        <time>2025-07-16T09:07:18Z</time>
      </trkpt>
      <trkpt lat="46.19995" lon="4.54399">
        <ele>520.6</ele>
        <time>2025-07-16T09:07:23Z</time>
      </trkpt>
      <trkpt lat="46.20012" lon="4.54393">
        <ele>521.7</ele>
        <time>2025-07-16T09:07:30Z</time>
      </trkpt>
      <trkpt lat="46.20025" lon="4.5439">
        <ele>522.4</ele>
        <time>2025-07-16T09:07:36Z</time>
      </trkpt>
      <trkpt lat="46.20041" lon="4.54385">
        <ele>523.2</ele>
        <time>2025-07-16T09:07:42Z</time>
      </trkpt>
      <trkpt lat="46.20059" lon="4.54379">
        <ele>524.1</ele>
        <time>2025-07-16T09:07:51Z</time>
      </trkpt>
      <trkpt lat="46.20074" lon="4.54375">
        <ele>524.8</ele>
        <time>2025-07-16T09:07:58Z</time>
      </trkpt>
      <trkpt lat="46.20095" lon="4.54369">
        <ele>525.8</ele>
        <time>2025-07-16T09:08:07Z</time>
      </trkpt>
      <trkpt lat="46.20112" lon="4.54364">
        <ele>526.5</ele>
        <time>2025-07-16T09:08:14Z</time>
      </trkpt>
      <trkpt lat="46.20134" lon="4.54357">
        <ele>527.4</ele>
        <time>2025-07-16T09:08:23Z</time>
      </trkpt>
      <trkpt lat="46.20148" lon="4.54358">
        <ele>528</ele>
        <time>2025-07-16T09:08:29Z</time>
      </trkpt>
      <trkpt lat="46.20161" lon="4.54364">
        <ele>528.6</ele>
        <time>2025-07-16T09:08:35Z</time>
      </trkpt>
      <trkpt lat="46.20171" lon="4.54382">
        <ele>529.4</ele>
        <time>2025-07-16T09:08:41Z</time>
      </trkpt>
      <trkpt lat="46.20176" lon="4.544">
        <ele>530.1</ele>
        <time>2025-07-16T09:08:46Z</time>
      </trkpt>
      <trkpt lat="46.20171" lon="4.54422">
        <ele>530.8</ele>
        <time>2025-07-16T09:08:52Z</time>
      </trkpt>
      <trkpt lat="46.2016" lon="4.54441">
        <ele>531.6</ele>
        <time>2025-07-16T09:08:58Z</time>
      </trkpt>
      <trkpt lat="46.20144" lon="4.54449">
        <ele>532.3</ele>
        <time>2025-07-16T09:09:04Z</time>
      </trkpt>
      <trkpt lat="46.20123" lon="4.54449">
        <ele>533</ele>
        <time>2025-07-16T09:09:11Z</time>
      </trkpt>
      <trkpt lat="46.20109" lon="4.54448">
        <ele>533.6</ele>
        <time>2025-07-16T09:09:17Z</time>
      </trkpt>
      <trkpt lat="46.2009" lon="4.54447">
        <ele>534.5</ele>
        <time>2025-07-16T09:09:23Z</time>
      </trkpt>
      <trkpt lat="46.2007" lon="4.54448">
        <ele>535.7</ele>
        <time>2025-07-16T09:09:30Z</time>
      </trkpt>
      <trkpt lat="46.2005" lon="4.54452">
        <ele>536.7</ele>
        <time>2025-07-16T09:09:37Z</time>
      </trkpt>
      <trkpt lat="46.20031" lon="4.54462">
        <ele>537.8</ele>
        <time>2025-07-16T09:09:44Z</time>
      </trkpt>
      <trkpt lat="46.20011" lon="4.54477">
        <ele>539</ele>
        <time>2025-07-16T09:09:52Z</time>
      </trkpt>
      <trkpt lat="46.20001" lon="4.54488">
        <ele>539.7</ele>
        <time>2025-07-16T09:09:57Z</time>
      </trkpt>
      <trkpt lat="46.19985" lon="4.54503">
        <ele>540.6</ele>
        <time>2025-07-16T09:10:04Z</time>
      </trkpt>
      <trkpt lat="46.1997" lon="4.54518">
        <ele>541.5</ele>
        <time>2025-07-16T09:10:11Z</time>
      </trkpt>
      <trkpt lat="46.19956" lon="4.54533">
        <ele>542.4</ele>
        <time>2025-07-16T09:10:18Z</time>
      </trkpt>
      <trkpt lat="46.19941" lon="4.54547">
        <ele>543.4</ele>
        <time>2025-07-16T09:10:25Z</time>
      </trkpt>
      <trkpt lat="46.19927" lon="4.5456">
        <ele>544.3</ele>
        <time>2025-07-16T09:10:34Z</time>
      </trkpt>
      <trkpt lat="46.19912" lon="4.54567">
        <ele>545.2</ele>
        <time>2025-07-16T09:10:40Z</time>
      </trkpt>
      <trkpt lat="46.19894" lon="4.5457">
        <ele>546.2</ele>
        <time>2025-07-16T09:10:47Z</time>
      </trkpt>
      <trkpt lat="46.19874" lon="4.54573">
        <ele>547.2</ele>
        <time>2025-07-16T09:10:54Z</time>
      </trkpt>
      <trkpt lat="46.19858" lon="4.54576">
        <ele>548.1</ele>
        <time>2025-07-16T09:11:01Z</time>
      </trkpt>
      <trkpt lat="46.19851" lon="4.54576">
        <ele>548.4</ele>
        <time>2025-07-16T09:11:06Z</time>
      </trkpt>
      <trkpt lat="46.19837" lon="4.54575">
        <ele>549.1</ele>
        <time>2025-07-16T09:11:12Z</time>
      </trkpt>
      <trkpt lat="46.19815" lon="4.54573">
        <ele>550.2</ele>
        <time>2025-07-16T09:11:20Z</time>
      </trkpt>
      <trkpt lat="46.198" lon="4.54572">
        <ele>551.1</ele>
        <time>2025-07-16T09:11:26Z</time>
      </trkpt>
      <trkpt lat="46.19784" lon="4.54571">
        <ele>552</ele>
        <time>2025-07-16T09:11:33Z</time>
      </trkpt>
      <trkpt lat="46.19766" lon="4.54572">
        <ele>553</ele>
        <time>2025-07-16T09:11:40Z</time>
      </trkpt>
      <trkpt lat="46.19754" lon="4.54582">
        <ele>553.7</ele>
        <time>2025-07-16T09:11:46Z</time>
      </trkpt>
      <trkpt lat="46.19747" lon="4.54596">
        <ele>554.3</ele>
        <time>2025-07-16T09:11:51Z</time>
      </trkpt>
      <trkpt lat="46.19748" lon="4.54621">
        <ele>555.1</ele>
        <time>2025-07-16T09:11:57Z</time>
      </trkpt>
      <trkpt lat="46.19757" lon="4.54641">
        <ele>555.7</ele>
        <time>2025-07-16T09:12:03Z</time>
      </trkpt>
      <trkpt lat="46.19771" lon="4.54647">
        <ele>556.2</ele>
        <time>2025-07-16T09:12:09Z</time>
      </trkpt>
      <trkpt lat="46.19793" lon="4.54644">
        <ele>556.8</ele>
        <time>2025-07-16T09:12:17Z</time>
      </trkpt>
      <trkpt lat="46.19811" lon="4.54641">
        <ele>557.4</ele>
        <time>2025-07-16T09:12:23Z</time>
      </trkpt>
      <trkpt lat="46.19837" lon="4.54637">
        <ele>557.9</ele>
        <time>2025-07-16T09:12:31Z</time>
      </trkpt>
      <trkpt lat="46.19863" lon="4.54635">
        <ele>558.6</ele>
        <time>2025-07-16T09:12:39Z</time>
      </trkpt>
      <trkpt lat="46.19888" lon="4.54637">
        <ele>559.6</ele>
        <time>2025-07-16T09:12:46Z</time>
      </trkpt>
      <trkpt lat="46.19919" lon="4.54639">
        <ele>560.8</ele>
        <time>2025-07-16T09:12:55Z</time>
      </trkpt>
      <trkpt lat="46.19944" lon="4.54641">
        <ele>561.8</ele>
        <time>2025-07-16T09:13:03Z</time>
      </trkpt>
      <trkpt lat="46.19962" lon="4.54636">
        <ele>562.6</ele>
        <time>2025-07-16T09:13:09Z</time>
      </trkpt>
      <trkpt lat="46.19984" lon="4.54623">
        <ele>563.6</ele>
        <time>2025-07-16T09:13:17Z</time>
      </trkpt>
      <trkpt lat="46.19998" lon="4.54612">
        <ele>564.3</ele>
        <time>2025-07-16T09:13:23Z</time>
      </trkpt>
      <trkpt lat="46.20017" lon="4.54598">
        <ele>565.2</ele>
        <time>2025-07-16T09:13:30Z</time>
      </trkpt>
      <trkpt lat="46.20038" lon="4.54585">
        <ele>566.1</ele>
        <time>2025-07-16T09:13:38Z</time>
      </trkpt>
      <trkpt lat="46.20054" lon="4.54578">
        <ele>566.8</ele>
        <time>2025-07-16T09:13:45Z</time>
      </trkpt>
      <trkpt lat="46.20072" lon="4.54572">
        <ele>567.6</ele>
        <time>2025-07-16T09:13:52Z</time>
      </trkpt>
      <trkpt lat="46.20086" lon="4.54572">
        <ele>568.2</ele>
        <time>2025-07-16T09:13:58Z</time>
      </trkpt>
      <trkpt lat="46.20103" lon="4.54572">
        <ele>569</ele>
        <time>2025-07-16T09:14:04Z</time>
      </trkpt>
      <trkpt lat="46.20119" lon="4.54579">
        <ele>569.6</ele>
        <time>2025-07-16T09:14:11Z</time>
      </trkpt>
      <trkpt lat="46.20131" lon="4.54587">
        <ele>570.2</ele>
        <time>2025-07-16T09:14:17Z</time>
      </trkpt>
      <trkpt lat="46.20143" lon="4.54595">
        <ele>570.7</ele>
        <time>2025-07-16T09:14:23Z</time>
      </trkpt>
      <trkpt lat="46.20151" lon="4.5461">
        <ele>571.2</ele>
        <time>2025-07-16T09:14:30Z</time>
      </trkpt>
      <trkpt lat="46.20163" lon="4.5463">
        <ele>571.9</ele>
        <time>2025-07-16T09:14:39Z</time>
      </trkpt>
      <trkpt lat="46.20172" lon="4.54644">
        <ele>572.4</ele>
        <time>2025-07-16T09:14:45Z</time>
      </trkpt>
      <trkpt lat="46.20181" lon="4.5466">
        <ele>572.9</ele>
        <time>2025-07-16T09:14:51Z</time>
      </trkpt>
      <trkpt lat="46.20199" lon="4.5468">
        <ele>573.7</ele>
        <time>2025-07-16T09:15:00Z</time>
      </trkpt>
      <trkpt lat="46.2022" lon="4.54702">
        <ele>574.7</ele>
        <time>2025-07-16T09:15:10Z</time>
      </trkpt>
      <trkpt lat="46.20234" lon="4.54716">
        <ele>575.4</ele>
        <time>2025-07-16T09:15:17Z</time>
      </trkpt>
      <trkpt lat="46.20251" lon="4.54731">
        <ele>576.1</ele>
        <time>2025-07-16T09:15:25Z</time>
      </trkpt>
      <trkpt lat="46.20274" lon="4.5475">
        <ele>577.1</ele>
        <time>2025-07-16T09:15:35Z</time>
      </trkpt>
      <trkpt lat="46.20299" lon="4.54764">
        <ele>578.2</ele>
        <time>2025-07-16T09:15:45Z</time>
      </trkpt>
      <trkpt lat="46.20319" lon="4.54774">
        <ele>579</ele>
        <time>2025-07-16T09:15:53Z</time>
      </trkpt>
      <trkpt lat="46.20335" lon="4.54783">
        <ele>579.8</ele>
        <time>2025-07-16T09:16:01Z</time>
      </trkpt>
      <trkpt lat="46.20351" lon="4.54791">
        <ele>580.5</ele>
        <time>2025-07-16T09:16:09Z</time>
      </trkpt>
      <trkpt lat="46.20367" lon="4.54799">
        <ele>581.2</ele>
        <time>2025-07-16T09:16:17Z</time>
      </trkpt>
      <trkpt lat="46.20379" lon="4.54807">
        <ele>581.7</ele>
        <time>2025-07-16T09:16:23Z</time>
      </trkpt>
      <trkpt lat="46.20393" lon="4.54816">
        <ele>582.4</ele>
        <time>2025-07-16T09:16:31Z</time>
      </trkpt>
      <trkpt lat="46.20408" lon="4.54826">
        <ele>583</ele>
        <time>2025-07-16T09:16:38Z</time>
      </trkpt>
      <trkpt lat="46.20419" lon="4.54834">
        <ele>583.6</ele>
        <time>2025-07-16T09:16:44Z</time>
      </trkpt>
      <trkpt lat="46.2043" lon="4.54841">
        <ele>584.1</ele>
        <time>2025-07-16T09:16:50Z</time>
      </trkpt>
      <trkpt lat="46.20443" lon="4.54849">
        <ele>584.7</ele>
        <time>2025-07-16T09:16:57Z</time>
      </trkpt>
      <trkpt lat="46.20461" lon="4.54853">
        <ele>585.4</ele>
        <time>2025-07-16T09:17:06Z</time>
      </trkpt>
      <trkpt lat="46.20472" lon="4.54848">
        <ele>585.8</ele>
        <time>2025-07-16T09:17:12Z</time>
      </trkpt>
      <trkpt lat="46.20486" lon="4.54835">
        <ele>586.2</ele>
        <time>2025-07-16T09:17:19Z</time>
      </trkpt>
      <trkpt lat="46.20491" lon="4.54815">
        <ele>586.7</ele>
        <time>2025-07-16T09:17:25Z</time>
      </trkpt>
      <trkpt lat="46.20496" lon="4.5479">
        <ele>587.5</ele>
        <time>2025-07-16T09:17:32Z</time>
      </trkpt>
      <trkpt lat="46.205" lon="4.54767">
        <ele>588.2</ele>
        <time>2025-07-16T09:17:39Z</time>
      </trkpt>
      <trkpt lat="46.20505" lon="4.54741">
        <ele>589.1</ele>
        <time>2025-07-16T09:17:46Z</time>
      </trkpt>
      <trkpt lat="46.20509" lon="4.54716">
        <ele>590</ele>
        <time>2025-07-16T09:17:53Z</time>
      </trkpt>
      <trkpt lat="46.20514" lon="4.54689">
        <ele>590.9</ele>
        <time>2025-07-16T09:18:01Z</time>
      </trkpt>
      <trkpt lat="46.20518" lon="4.54667">
        <ele>591.8</ele>
        <time>2025-07-16T09:18:07Z</time>
      </trkpt>
      <trkpt lat="46.20524" lon="4.54637">
        <ele>592.9</ele>
        <time>2025-07-16T09:18:15Z</time>
      </trkpt>
      <trkpt lat="46.20537" lon="4.54605">
        <ele>594.5</ele>
        <time>2025-07-16T09:18:24Z</time>
      </trkpt>
      <trkpt lat="46.20546" lon="4.54583">
        <ele>595.5</ele>
        <time>2025-07-16T09:18:31Z</time>
      </trkpt>
      <trkpt lat="46.20554" lon="4.54564">
        <ele>596.3</ele>
        <time>2025-07-16T09:18:37Z</time>
      </trkpt>
      <trkpt lat="46.20564" lon="4.54539">
        <ele>597.3</ele>
        <time>2025-07-16T09:18:44Z</time>
      </trkpt>
      <trkpt lat="46.20572" lon="4.54517">
        <ele>598.3</ele>
        <time>2025-07-16T09:18:51Z</time>
      </trkpt>
      <trkpt lat="46.20582" lon="4.54494">
        <ele>599.2</ele>
        <time>2025-07-16T09:19:00Z</time>
      </trkpt>
      <trkpt lat="46.2059" lon="4.54474">
        <ele>599.9</ele>
        <time>2025-07-16T09:19:07Z</time>
      </trkpt>
      <trkpt lat="46.20595" lon="4.54464">
        <ele>600.1</ele>
        <time>2025-07-16T09:19:10Z</time>
      </trkpt>
      <trkpt lat="46.20597" lon="4.54458">
        <ele>600.3</ele>
        <time>2025-07-16T09:19:12Z</time>
      </trkpt>
      <trkpt lat="46.20605" lon="4.54436">
        <ele>601</ele>
        <time>2025-07-16T09:19:19Z</time>
      </trkpt>
      <trkpt lat="46.20611" lon="4.54412">
        <ele>601.7</ele>
        <time>2025-07-16T09:19:26Z</time>
      </trkpt>
      <trkpt lat="46.20616" lon="4.54387">
        <ele>602.5</ele>
        <time>2025-07-16T09:19:33Z</time>
      </trkpt>
      <trkpt lat="46.20619" lon="4.54359">
        <ele>603.4</ele>
        <time>2025-07-16T09:19:41Z</time>
      </trkpt>
      <trkpt lat="46.20622" lon="4.54329">
        <ele>604.3</ele>
        <time>2025-07-16T09:19:49Z</time>
      </trkpt>
      <trkpt lat="46.20625" lon="4.54303">
        <ele>605.2</ele>
        <time>2025-07-16T09:19:56Z</time>
      </trkpt>
      <trkpt lat="46.2063" lon="4.54278">
        <ele>606.2</ele>
        <time>2025-07-16T09:20:03Z</time>
      </trkpt>
      <trkpt lat="46.20634" lon="4.54258">
        <ele>606.9</ele>
        <time>2025-07-16T09:20:09Z</time>
      </trkpt>
      <trkpt lat="46.20635" lon="4.5425">
        <ele>607.2</ele>
        <time>2025-07-16T09:20:13Z</time>
      </trkpt>
      <trkpt lat="46.20636" lon="4.54248">
        <ele>607.3</ele>
        <time>2025-07-16T09:20:14Z</time>
      </trkpt>
      <trkpt lat="46.20639" lon="4.5423">
        <ele>607.9</ele>
        <time>2025-07-16T09:20:20Z</time>
      </trkpt>
      <trkpt lat="46.20643" lon="4.54213">
        <ele>608.5</ele>
        <time>2025-07-16T09:20:26Z</time>
      </trkpt>
      <trkpt lat="46.20647" lon="4.54191">
        <ele>609.2</ele>
        <time>2025-07-16T09:20:33Z</time>
      </trkpt>
      <trkpt lat="46.20653" lon="4.54161">
        <ele>610.2</ele>
        <time>2025-07-16T09:20:42Z</time>
      </trkpt>
      <trkpt lat="46.20656" lon="4.54137">
        <ele>610.9</ele>
        <time>2025-07-16T09:20:50Z</time>
      </trkpt>
      <trkpt lat="46.20658" lon="4.54118">
        <ele>611.6</ele>
        <time>2025-07-16T09:20:56Z</time>
      </trkpt>
      <trkpt lat="46.2066" lon="4.54099">
        <ele>612.2</ele>
        <time>2025-07-16T09:21:02Z</time>
      </trkpt>
      <trkpt lat="46.20663" lon="4.54073">
        <ele>613.1</ele>
        <time>2025-07-16T09:21:10Z</time>
      </trkpt>
      <trkpt lat="46.20666" lon="4.54047">
        <ele>613.9</ele>
        <time>2025-07-16T09:21:17Z</time>
      </trkpt>
      <trkpt lat="46.20668" lon="4.54027">
        <ele>614.6</ele>
        <time>2025-07-16T09:21:23Z</time>
      </trkpt>
      <trkpt lat="46.2067" lon="4.54001">
        <ele>615.4</ele>
        <time>2025-07-16T09:21:30Z</time>
      </trkpt>
      <trkpt lat="46.20672" lon="4.5397">
        <ele>616.4</ele>
        <time>2025-07-16T09:21:39Z</time>
      </trkpt>
      <trkpt lat="46.20673" lon="4.53941">
        <ele>617.2</ele>
        <time>2025-07-16T09:21:47Z</time>
      </trkpt>
      <trkpt lat="46.20672" lon="4.53909">
        <ele>618.2</ele>
        <time>2025-07-16T09:21:55Z</time>
      </trkpt>
      <trkpt lat="46.2067" lon="4.53878">
        <ele>619.2</ele>
        <time>2025-07-16T09:22:03Z</time>
      </trkpt>
      <trkpt lat="46.20669" lon="4.53851">
        <ele>620.1</ele>
        <time>2025-07-16T09:22:10Z</time>
      </trkpt>
      <trkpt lat="46.20667" lon="4.53823">
        <ele>621</ele>
        <time>2025-07-16T09:22:18Z</time>
      </trkpt>
      <trkpt lat="46.20664" lon="4.53785">
        <ele>622.3</ele>
        <time>2025-07-16T09:22:28Z</time>
      </trkpt>
      <trkpt lat="46.20663" lon="4.53756">
        <ele>623.4</ele>
        <time>2025-07-16T09:22:37Z</time>
      </trkpt>
      <trkpt lat="46.20661" lon="4.53739">
        <ele>624</ele>
        <time>2025-07-16T09:22:43Z</time>
      </trkpt>
      <trkpt lat="46.20661" lon="4.53735">
        <ele>624.1</ele>
        <time>2025-07-16T09:22:45Z</time>
      </trkpt>
      <trkpt lat="46.20661" lon="4.53734">
        <ele>624.3</ele>
        <time>2025-07-16T09:22:46Z</time>
      </trkpt>
      <trkpt lat="46.20655" lon="4.53707">
        <ele>624.6</ele>
        <time>2025-07-16T09:22:52Z</time>
      </trkpt>
      <trkpt lat="46.20652" lon="4.53706">
        <ele>624.7</ele>
        <time>2025-07-16T09:22:57Z</time>
      </trkpt>
      <trkpt lat="46.20652" lon="4.53705">
        <ele>624.7</ele>
        <time>2025-07-16T09:23:07Z</time>
      </trkpt>
      <trkpt lat="46.20651" lon="4.53705">
        <ele>624.7</ele>
        <time>2025-07-16T09:23:16Z</time>
      </trkpt>
      <trkpt lat="46.20651" lon="4.53704">
        <ele>624.8</ele>
        <time>2025-07-16T09:23:29Z</time>
      </trkpt>
      <trkpt lat="46.2065" lon="4.53704">
        <ele>624.8</ele>
        <time>2025-07-16T09:23:47Z</time>
      </trkpt>
      <trkpt lat="46.20649" lon="4.53703">
        <ele>624.8</ele>
        <time>2025-07-16T09:24:03Z</time>
      </trkpt>
      <trkpt lat="46.20649" lon="4.53702">
        <ele>624.8</ele>
        <time>2025-07-16T09:24:12Z</time>
      </trkpt>
      <trkpt lat="46.20648" lon="4.53702">
        <ele>624.8</ele>
        <time>2025-07-16T09:24:22Z</time>
      </trkpt>
      <trkpt lat="46.20648" lon="4.53701">
        <ele>624.8</ele>
        <time>2025-07-16T09:24:30Z</time>
      </trkpt>
      <trkpt lat="46.20647" lon="4.53701">
        <ele>624.8</ele>
        <time>2025-07-16T09:24:39Z</time>
      </trkpt>
      <trkpt lat="46.20647" lon="4.537">
        <ele>624.9</ele>
        <time>2025-07-16T09:24:54Z</time>
      </trkpt>
      <trkpt lat="46.20646" lon="4.537">
        <ele>624.9</ele>
        <time>2025-07-16T09:25:03Z</time>
      </trkpt>
      <trkpt lat="46.20646" lon="4.53699">
        <ele>624.9</ele>
        <time>2025-07-16T09:25:04Z</time>
      </trkpt>
      <trkpt lat="46.20645" lon="4.53698">
        <ele>624.9</ele>
        <time>2025-07-16T09:25:33Z</time>
      </trkpt>
      <trkpt lat="46.20645" lon="4.53698">
        <ele>624.9</ele>
        <time>2025-07-16T09:25:44Z</time>
      </trkpt>
      <trkpt lat="46.20644" lon="4.53697">
        <ele>624.9</ele>
        <time>2025-07-16T09:25:55Z</time>
      </trkpt>
      <trkpt lat="46.20644" lon="4.53697">
        <ele>624.9</ele>
        <time>2025-07-16T09:26:02Z</time>
      </trkpt>
      <trkpt lat="46.20643" lon="4.53696">
        <ele>625</ele>
        <time>2025-07-16T09:26:13Z</time>
      </trkpt>
      <trkpt lat="46.20643" lon="4.53696">
        <ele>625</ele>
        <time>2025-07-16T09:26:31Z</time>
      </trkpt>
      <trkpt lat="46.20642" lon="4.53695">
        <ele>625</ele>
        <time>2025-07-16T09:26:49Z</time>
      </trkpt>
      <trkpt lat="46.20642" lon="4.53694">
        <ele>625</ele>
        <time>2025-07-16T09:27:02Z</time>
      </trkpt>
      <trkpt lat="46.20641" lon="4.53694">
        <ele>625</ele>
        <time>2025-07-16T09:27:21Z</time>
      </trkpt>
      <trkpt lat="46.20641" lon="4.53693">
        <ele>625</ele>
        <time>2025-07-16T09:27:43Z</time>
      </trkpt>
      <trkpt lat="46.2064" lon="4.53693">
        <ele>625.1</ele>
        <time>2025-07-16T09:28:01Z</time>
      </trkpt>
      <trkpt lat="46.2064" lon="4.53692">
        <ele>625.1</ele>
        <time>2025-07-16T09:28:20Z</time>
      </trkpt>
      <trkpt lat="46.20639" lon="4.53692">
        <ele>625.1</ele>
        <time>2025-07-16T09:28:39Z</time>
      </trkpt>
      <trkpt lat="46.20639" lon="4.53691">
        <ele>625.2</ele>
        <time>2025-07-16T09:29:01Z</time>
      </trkpt>
      <trkpt lat="46.20638" lon="4.5369">
        <ele>625.2</ele>
        <time>2025-07-16T09:29:20Z</time>
      </trkpt>
      <trkpt lat="46.20638" lon="4.5369">
        <ele>625.2</ele>
        <time>2025-07-16T09:29:30Z</time>
      </trkpt>
      <trkpt lat="46.20637" lon="4.53689">
        <ele>625.2</ele>
        <time>2025-07-16T09:29:41Z</time>
      </trkpt>
      <trkpt lat="46.20637" lon="4.53689">
        <ele>625.3</ele>
        <time>2025-07-16T09:29:53Z</time>
      </trkpt>
      <trkpt lat="46.20636" lon="4.53688">
        <ele>625.3</ele>
        <time>2025-07-16T09:30:08Z</time>
      </trkpt>
      <trkpt lat="46.20636" lon="4.53688">
        <ele>625.3</ele>
        <time>2025-07-16T09:30:20Z</time>
      </trkpt>
      <trkpt lat="46.20635" lon="4.53687">
        <ele>625.4</ele>
        <time>2025-07-16T09:30:29Z</time>
      </trkpt>
      <trkpt lat="46.20635" lon="4.53687">
        <ele>625.4</ele>
        <time>2025-07-16T09:30:44Z</time>
      </trkpt>
      <trkpt lat="46.20634" lon="4.53686">
        <ele>625.4</ele>
        <time>2025-07-16T09:30:52Z</time>
      </trkpt>
      <trkpt lat="46.20634" lon="4.53685">
        <ele>625.5</ele>
        <time>2025-07-16T09:30:57Z</time>
      </trkpt>
      <trkpt lat="46.20633" lon="4.53685">
        <ele>625.5</ele>
        <time>2025-07-16T09:31:08Z</time>
      </trkpt>
      <trkpt lat="46.20633" lon="4.53684">
        <ele>625.5</ele>
        <time>2025-07-16T09:31:22Z</time>
      </trkpt>
      <trkpt lat="46.20632" lon="4.53684">
        <ele>625.6</ele>
        <time>2025-07-16T09:31:35Z</time>
      </trkpt>
      <trkpt lat="46.20632" lon="4.53683">
        <ele>625.6</ele>
        <time>2025-07-16T09:31:46Z</time>
      </trkpt>
      <trkpt lat="46.20631" lon="4.53683">
        <ele>625.6</ele>
        <time>2025-07-16T09:31:59Z</time>
      </trkpt>
      <trkpt lat="46.20631" lon="4.53682">
        <ele>625.6</ele>
        <time>2025-07-16T09:32:09Z</time>
      </trkpt>
      <trkpt lat="46.2063" lon="4.53681">
        <ele>625.7</ele>
        <time>2025-07-16T09:32:19Z</time>
      </trkpt>
      <trkpt lat="46.2063" lon="4.53681">
        <ele>625.7</ele>
        <time>2025-07-16T09:32:30Z</time>
      </trkpt>
      <trkpt lat="46.20629" lon="4.5368">
        <ele>625.7</ele>
        <time>2025-07-16T09:32:40Z</time>
      </trkpt>
      <trkpt lat="46.20628" lon="4.5368">
        <ele>625.8</ele>
        <time>2025-07-16T09:32:54Z</time>
      </trkpt>
      <trkpt lat="46.20628" lon="4.53679">
        <ele>625.8</ele>
        <time>2025-07-16T09:32:58Z</time>
      </trkpt>
      <trkpt lat="46.20627" lon="4.53679">
        <ele>625.8</ele>
        <time>2025-07-16T09:32:59Z</time>
      </trkpt>
      <trkpt lat="46.20627" lon="4.53678">
        <ele>625.9</ele>
        <time>2025-07-16T09:33:06Z</time>
      </trkpt>
      <trkpt lat="46.20626" lon="4.53677">
        <ele>625.9</ele>
        <time>2025-07-16T09:33:08Z</time>
      </trkpt>
      <trkpt lat="46.20654" lon="4.53673">
        <ele>625</ele>
        <time>2025-07-16T09:33:11Z</time>
      </trkpt>
      <trkpt lat="46.20654" lon="4.53673">
        <ele>625</ele>
        <time>2025-07-16T09:33:12Z</time>
      </trkpt>
      <trkpt lat="46.20651" lon="4.53675">
        <ele>625.1</ele>
        <time>2025-07-16T09:33:16Z</time>
      </trkpt>
      <trkpt lat="46.20659" lon="4.53677">
        <ele>624.7</ele>
        <time>2025-07-16T09:33:19Z</time>
      </trkpt>
      <trkpt lat="46.20659" lon="4.53677">
        <ele>624.7</ele>
        <time>2025-07-16T09:33:21Z</time>
      </trkpt>
      <trkpt lat="46.20654" lon="4.53673">
        <ele>625</ele>
        <time>2025-07-16T09:33:25Z</time>
      </trkpt>
      <trkpt lat="46.2065" lon="4.53675">
        <ele>625.1</ele>
        <time>2025-07-16T09:33:27Z</time>
      </trkpt>
      <trkpt lat="46.20633" lon="4.53681">
        <ele>625.7</ele>
        <time>2025-07-16T09:33:33Z</time>
      </trkpt>
      <trkpt lat="46.20629" lon="4.53679">
        <ele>625.8</ele>
        <time>2025-07-16T09:33:35Z</time>
      </trkpt>
      <trkpt lat="46.20626" lon="4.53667">
        <ele>626.1</ele>
        <time>2025-07-16T09:33:38Z</time>
      </trkpt>
      <trkpt lat="46.20625" lon="4.5365">
        <ele>626.5</ele>
        <time>2025-07-16T09:33:43Z</time>
      </trkpt>
      <trkpt lat="46.20623" lon="4.53632">
        <ele>627.1</ele>
        <time>2025-07-16T09:33:49Z</time>
      </trkpt>
      <trkpt lat="46.20622" lon="4.53611">
        <ele>627.9</ele>
        <time>2025-07-16T09:33:55Z</time>
      </trkpt>
      <trkpt lat="46.20621" lon="4.53606">
        <ele>628.1</ele>
        <time>2025-07-16T09:34:01Z</time>
      </trkpt>
      <trkpt lat="46.2062" lon="4.53578">
        <ele>629.1</ele>
        <time>2025-07-16T09:34:07Z</time>
      </trkpt>
      <trkpt lat="46.20618" lon="4.53557">
        <ele>629.9</ele>
        <time>2025-07-16T09:34:13Z</time>
      </trkpt>
      <trkpt lat="46.20616" lon="4.53528">
        <ele>631.3</ele>
        <time>2025-07-16T09:34:21Z</time>
      </trkpt>
      <trkpt lat="46.20615" lon="4.5351">
        <ele>632.3</ele>
        <time>2025-07-16T09:34:28Z</time>
      </trkpt>
      <trkpt lat="46.20613" lon="4.53489">
        <ele>633.6</ele>
        <time>2025-07-16T09:34:36Z</time>
      </trkpt>
      <trkpt lat="46.20613" lon="4.53479">
        <ele>634.4</ele>
        <time>2025-07-16T09:34:44Z</time>
      </trkpt>
      <trkpt lat="46.20611" lon="4.53458">
        <ele>635.7</ele>
        <time>2025-07-16T09:34:52Z</time>
      </trkpt>
      <trkpt lat="46.2061" lon="4.53443">
        <ele>636.8</ele>
        <time>2025-07-16T09:34:58Z</time>
      </trkpt>
      <trkpt lat="46.20609" lon="4.53429">
        <ele>637.7</ele>
        <time>2025-07-16T09:35:05Z</time>
      </trkpt>
      <trkpt lat="46.20608" lon="4.53418">
        <ele>638.5</ele>
        <time>2025-07-16T09:35:12Z</time>
      </trkpt>
      <trkpt lat="46.20607" lon="4.53397">
        <ele>639.8</ele>
        <time>2025-07-16T09:35:18Z</time>
      </trkpt>
      <trkpt lat="46.20606" lon="4.5338">
        <ele>640.9</ele>
        <time>2025-07-16T09:35:24Z</time>
      </trkpt>
      <trkpt lat="46.20605" lon="4.53377">
        <ele>641.1</ele>
        <time>2025-07-16T09:35:25Z</time>
      </trkpt>
      <trkpt lat="46.20604" lon="4.53358">
        <ele>642.2</ele>
        <time>2025-07-16T09:35:32Z</time>
      </trkpt>
      <trkpt lat="46.20603" lon="4.53346">
        <ele>643</ele>
        <time>2025-07-16T09:35:38Z</time>
      </trkpt>
      <trkpt lat="46.20606" lon="4.53332">
        <ele>643.9</ele>
        <time>2025-07-16T09:35:44Z</time>
      </trkpt>
      <trkpt lat="46.2061" lon="4.53317">
        <ele>644.9</ele>
        <time>2025-07-16T09:35:51Z</time>
      </trkpt>
      <trkpt lat="46.20613" lon="4.53306">
        <ele>645.7</ele>
        <time>2025-07-16T09:35:57Z</time>
      </trkpt>
      <trkpt lat="46.20617" lon="4.53292">
        <ele>646.8</ele>
        <time>2025-07-16T09:36:04Z</time>
      </trkpt>
      <trkpt lat="46.2062" lon="4.53278">
        <ele>647.8</ele>
        <time>2025-07-16T09:36:10Z</time>
      </trkpt>
      <trkpt lat="46.20621" lon="4.53272">
        <ele>648.4</ele>
        <time>2025-07-16T09:36:13Z</time>
      </trkpt>
      <trkpt lat="46.20622" lon="4.53266">
        <ele>648.7</ele>
        <time>2025-07-16T09:36:15Z</time>
      </trkpt>
      <trkpt lat="46.20623" lon="4.53264">
        <ele>648.9</ele>
        <time>2025-07-16T09:36:16Z</time>
      </trkpt>
      <trkpt lat="46.20627" lon="4.53254">
        <ele>649.7</ele>
        <time>2025-07-16T09:36:22Z</time>
      </trkpt>
      <trkpt lat="46.20633" lon="4.5324">
        <ele>650.6</ele>
        <time>2025-07-16T09:36:29Z</time>
      </trkpt>
      <trkpt lat="46.20634" lon="4.53238">
        <ele>650.8</ele>
        <time>2025-07-16T09:36:34Z</time>
      </trkpt>
      <trkpt lat="46.20636" lon="4.53232">
        <ele>651.1</ele>
        <time>2025-07-16T09:36:42Z</time>
      </trkpt>
      <trkpt lat="46.20638" lon="4.53227">
        <ele>651.3</ele>
        <time>2025-07-16T09:36:44Z</time>
      </trkpt>
      <trkpt lat="46.2064" lon="4.53222">
        <ele>651.6</ele>
        <time>2025-07-16T09:36:47Z</time>
      </trkpt>
      <trkpt lat="46.20647" lon="4.53202">
        <ele>652.3</ele>
        <time>2025-07-16T09:36:54Z</time>
      </trkpt>
      <trkpt lat="46.20648" lon="4.53194">
        <ele>652.6</ele>
        <time>2025-07-16T09:36:57Z</time>
      </trkpt>
      <trkpt lat="46.20649" lon="4.53193">
        <ele>652.6</ele>
        <time>2025-07-16T09:36:59Z</time>
      </trkpt>
      <trkpt lat="46.20654" lon="4.53172">
        <ele>653.2</ele>
        <time>2025-07-16T09:37:05Z</time>
      </trkpt>
      <trkpt lat="46.20658" lon="4.53156">
        <ele>653.6</ele>
        <time>2025-07-16T09:37:10Z</time>
      </trkpt>
      <trkpt lat="46.20671" lon="4.53134">
        <ele>654.3</ele>
        <time>2025-07-16T09:37:16Z</time>
      </trkpt>
      <trkpt lat="46.20679" lon="4.5312">
        <ele>654.9</ele>
        <time>2025-07-16T09:37:20Z</time>
      </trkpt>
      <trkpt lat="46.20688" lon="4.53107">
        <ele>655.7</ele>
        <time>2025-07-16T09:37:26Z</time>
      </trkpt>
      <trkpt lat="46.20696" lon="4.53095">
        <ele>656.5</ele>
        <time>2025-07-16T09:37:32Z</time>
      </trkpt>
      <trkpt lat="46.20698" lon="4.53091">
        <ele>656.8</ele>
        <time>2025-07-16T09:37:34Z</time>
      </trkpt>
      <trkpt lat="46.20702" lon="4.53086">
        <ele>657.3</ele>
        <time>2025-07-16T09:37:37Z</time>
      </trkpt>
      <trkpt lat="46.20707" lon="4.53078">
        <ele>657.9</ele>
        <time>2025-07-16T09:37:45Z</time>
      </trkpt>
      <trkpt lat="46.20716" lon="4.53065">
        <ele>659.1</ele>
        <time>2025-07-16T09:37:51Z</time>
      </trkpt>
      <trkpt lat="46.20717" lon="4.53063">
        <ele>659.2</ele>
        <time>2025-07-16T09:37:52Z</time>
      </trkpt>
      <trkpt lat="46.20729" lon="4.53044">
        <ele>660.5</ele>
        <time>2025-07-16T09:38:00Z</time>
      </trkpt>
      <trkpt lat="46.2073" lon="4.53042">
        <ele>660.7</ele>
        <time>2025-07-16T09:38:01Z</time>
      </trkpt>
      <trkpt lat="46.20741" lon="4.53025">
        <ele>661.8</ele>
        <time>2025-07-16T09:38:07Z</time>
      </trkpt>
      <trkpt lat="46.20746" lon="4.53019">
        <ele>662.2</ele>
        <time>2025-07-16T09:38:10Z</time>
      </trkpt>
      <trkpt lat="46.20748" lon="4.53014">
        <ele>662.5</ele>
        <time>2025-07-16T09:38:12Z</time>
      </trkpt>
      <trkpt lat="46.2075" lon="4.53012">
        <ele>662.7</ele>
        <time>2025-07-16T09:38:13Z</time>
      </trkpt>
      <trkpt lat="46.20756" lon="4.53003">
        <ele>663.2</ele>
        <time>2025-07-16T09:38:17Z</time>
      </trkpt>
      <trkpt lat="46.20767" lon="4.52992">
        <ele>664.3</ele>
        <time>2025-07-16T09:38:26Z</time>
      </trkpt>
      <trkpt lat="46.20781" lon="4.52982">
        <ele>665.7</ele>
        <time>2025-07-16T09:38:32Z</time>
      </trkpt>
      <trkpt lat="46.20798" lon="4.52969">
        <ele>667.5</ele>
        <time>2025-07-16T09:38:39Z</time>
      </trkpt>
      <trkpt lat="46.20804" lon="4.52963">
        <ele>668.2</ele>
        <time>2025-07-16T09:38:46Z</time>
      </trkpt>
      <trkpt lat="46.20814" lon="4.52951">
        <ele>669.4</ele>
        <time>2025-07-16T09:38:53Z</time>
      </trkpt>
      <trkpt lat="46.20819" lon="4.52945">
        <ele>669.9</ele>
        <time>2025-07-16T09:38:58Z</time>
      </trkpt>
      <trkpt lat="46.20823" lon="4.52941">
        <ele>670.3</ele>
        <time>2025-07-16T09:39:01Z</time>
      </trkpt>
      <trkpt lat="46.20831" lon="4.52932">
        <ele>671</ele>
        <time>2025-07-16T09:39:08Z</time>
      </trkpt>
      <trkpt lat="46.20835" lon="4.52926">
        <ele>671.4</ele>
        <time>2025-07-16T09:39:11Z</time>
      </trkpt>
      <trkpt lat="46.20838" lon="4.52918">
        <ele>671.9</ele>
        <time>2025-07-16T09:39:15Z</time>
      </trkpt>
      <trkpt lat="46.20846" lon="4.52904">
        <ele>672.9</ele>
        <time>2025-07-16T09:39:22Z</time>
      </trkpt>
      <trkpt lat="46.2085" lon="4.52894">
        <ele>673.6</ele>
        <time>2025-07-16T09:39:27Z</time>
      </trkpt>
      <trkpt lat="46.20858" lon="4.52877">
        <ele>674.8</ele>
        <time>2025-07-16T09:39:36Z</time>
      </trkpt>
      <trkpt lat="46.20864" lon="4.52867">
        <ele>675.6</ele>
        <time>2025-07-16T09:39:42Z</time>
      </trkpt>
      <trkpt lat="46.2087" lon="4.52852">
        <ele>676.6</ele>
        <time>2025-07-16T09:39:49Z</time>
      </trkpt>
      <trkpt lat="46.20872" lon="4.52838">
        <ele>677.3</ele>
        <time>2025-07-16T09:39:56Z</time>
      </trkpt>
      <trkpt lat="46.20875" lon="4.52822">
        <ele>678.2</ele>
        <time>2025-07-16T09:40:03Z</time>
      </trkpt>
      <trkpt lat="46.20877" lon="4.52808">
        <ele>679</ele>
        <time>2025-07-16T09:40:10Z</time>
      </trkpt>
      <trkpt lat="46.20878" lon="4.52792">
        <ele>679.9</ele>
        <time>2025-07-16T09:40:17Z</time>
      </trkpt>
      <trkpt lat="46.20879" lon="4.52774">
        <ele>681.1</ele>
        <time>2025-07-16T09:40:24Z</time>
      </trkpt>
      <trkpt lat="46.20879" lon="4.52765">
        <ele>681.7</ele>
        <time>2025-07-16T09:40:28Z</time>
      </trkpt>
      <trkpt lat="46.20879" lon="4.52761">
        <ele>682</ele>
        <time>2025-07-16T09:40:30Z</time>
      </trkpt>
      <trkpt lat="46.20879" lon="4.52759">
        <ele>682.1</ele>
        <time>2025-07-16T09:40:37Z</time>
      </trkpt>
      <trkpt lat="46.2088" lon="4.5274">
        <ele>683.3</ele>
        <time>2025-07-16T09:40:42Z</time>
      </trkpt>
      <trkpt lat="46.20878" lon="4.52725">
        <ele>684.2</ele>
        <time>2025-07-16T09:40:48Z</time>
      </trkpt>
      <trkpt lat="46.20877" lon="4.52711">
        <ele>685</ele>
        <time>2025-07-16T09:40:56Z</time>
      </trkpt>
      <trkpt lat="46.20876" lon="4.52696">
        <ele>685.8</ele>
        <time>2025-07-16T09:41:03Z</time>
      </trkpt>
      <trkpt lat="46.20876" lon="4.52679">
        <ele>686.7</ele>
        <time>2025-07-16T09:41:06Z</time>
      </trkpt>
      <trkpt lat="46.20876" lon="4.52672">
        <ele>687.2</ele>
        <time>2025-07-16T09:41:09Z</time>
      </trkpt>
      <trkpt lat="46.20876" lon="4.52657">
        <ele>688</ele>
        <time>2025-07-16T09:41:15Z</time>
      </trkpt>
      <trkpt lat="46.20877" lon="4.5263">
        <ele>689.5</ele>
        <time>2025-07-16T09:41:22Z</time>
      </trkpt>
      <trkpt lat="46.20878" lon="4.52615">
        <ele>690.2</ele>
        <time>2025-07-16T09:41:28Z</time>
      </trkpt>
      <trkpt lat="46.20879" lon="4.52596">
        <ele>691.1</ele>
        <time>2025-07-16T09:41:36Z</time>
      </trkpt>
      <trkpt lat="46.20879" lon="4.52579">
        <ele>691.9</ele>
        <time>2025-07-16T09:41:43Z</time>
      </trkpt>
      <trkpt lat="46.2088" lon="4.52567">
        <ele>692.5</ele>
        <time>2025-07-16T09:41:50Z</time>
      </trkpt>
      <trkpt lat="46.20879" lon="4.5255">
        <ele>693.5</ele>
        <time>2025-07-16T09:41:56Z</time>
      </trkpt>
      <trkpt lat="46.20878" lon="4.52544">
        <ele>693.8</ele>
        <time>2025-07-16T09:41:58Z</time>
      </trkpt>
      <trkpt lat="46.20877" lon="4.52533">
        <ele>694.5</ele>
        <time>2025-07-16T09:42:02Z</time>
      </trkpt>
      <trkpt lat="46.20876" lon="4.52514">
        <ele>695.6</ele>
        <time>2025-07-16T09:42:09Z</time>
      </trkpt>
      <trkpt lat="46.20874" lon="4.5249">
        <ele>697.2</ele>
        <time>2025-07-16T09:42:15Z</time>
      </trkpt>
      <trkpt lat="46.20873" lon="4.52476">
        <ele>698.1</ele>
        <time>2025-07-16T09:42:20Z</time>
      </trkpt>
      <trkpt lat="46.20872" lon="4.52464">
        <ele>699</ele>
        <time>2025-07-16T09:42:27Z</time>
      </trkpt>
      <trkpt lat="46.20869" lon="4.52432">
        <ele>700.9</ele>
        <time>2025-07-16T09:42:33Z</time>
      </trkpt>
      <trkpt lat="46.20868" lon="4.5242">
        <ele>701.4</ele>
        <time>2025-07-16T09:42:39Z</time>
      </trkpt>
      <trkpt lat="46.20867" lon="4.52405">
        <ele>702</ele>
        <time>2025-07-16T09:42:45Z</time>
      </trkpt>
      <trkpt lat="46.20865" lon="4.52376">
        <ele>703</ele>
        <time>2025-07-16T09:42:53Z</time>
      </trkpt>
      <trkpt lat="46.20863" lon="4.52348">
        <ele>703.9</ele>
        <time>2025-07-16T09:43:01Z</time>
      </trkpt>
      <trkpt lat="46.20859" lon="4.52322">
        <ele>704.6</ele>
        <time>2025-07-16T09:43:09Z</time>
      </trkpt>
      <trkpt lat="46.20855" lon="4.52298">
        <ele>705.1</ele>
        <time>2025-07-16T09:43:16Z</time>
      </trkpt>
      <trkpt lat="46.20852" lon="4.52284">
        <ele>705.3</ele>
        <time>2025-07-16T09:43:21Z</time>
      </trkpt>
      <trkpt lat="46.20846" lon="4.52263">
        <ele>705.5</ele>
        <time>2025-07-16T09:43:26Z</time>
      </trkpt>
      <trkpt lat="46.2084" lon="4.52241">
        <ele>705.6</ele>
        <time>2025-07-16T09:43:32Z</time>
      </trkpt>
      <trkpt lat="46.20829" lon="4.5222">
        <ele>705.6</ele>
        <time>2025-07-16T09:43:38Z</time>
      </trkpt>
      <trkpt lat="46.20812" lon="4.52184">
        <ele>705.5</ele>
        <time>2025-07-16T09:43:45Z</time>
      </trkpt>
      <trkpt lat="46.20805" lon="4.52165">
        <ele>705.4</ele>
        <time>2025-07-16T09:43:50Z</time>
      </trkpt>
      <trkpt lat="46.2079" lon="4.52135">
        <ele>705.3</ele>
        <time>2025-07-16T09:43:57Z</time>
      </trkpt>
      <trkpt lat="46.20781" lon="4.52117">
        <ele>705.4</ele>
        <time>2025-07-16T09:44:02Z</time>
      </trkpt>
      <trkpt lat="46.20773" lon="4.52101">
        <ele>705.6</ele>
        <time>2025-07-16T09:44:06Z</time>
      </trkpt>
      <trkpt lat="46.20756" lon="4.52065">
        <ele>706</ele>
        <time>2025-07-16T09:44:13Z</time>
      </trkpt>
      <trkpt lat="46.20745" lon="4.52048">
        <ele>706.1</ele>
        <time>2025-07-16T09:44:18Z</time>
      </trkpt>
      <trkpt lat="46.2073" lon="4.52029">
        <ele>705.9</ele>
        <time>2025-07-16T09:44:23Z</time>
      </trkpt>
      <trkpt lat="46.20717" lon="4.52013">
        <ele>705.6</ele>
        <time>2025-07-16T09:44:27Z</time>
      </trkpt>
      <trkpt lat="46.20708" lon="4.52003">
        <ele>705.4</ele>
        <time>2025-07-16T09:44:31Z</time>
      </trkpt>
      <trkpt lat="46.20707" lon="4.52001">
        <ele>705.4</ele>
        <time>2025-07-16T09:44:32Z</time>
      </trkpt>
      <trkpt lat="46.20693" lon="4.51985">
        <ele>705.1</ele>
        <time>2025-07-16T09:44:36Z</time>
      </trkpt>
      <trkpt lat="46.20671" lon="4.51957">
        <ele>704.8</ele>
        <time>2025-07-16T09:44:41Z</time>
      </trkpt>
      <trkpt lat="46.20644" lon="4.51925">
        <ele>704.3</ele>
        <time>2025-07-16T09:44:47Z</time>
      </trkpt>
      <trkpt lat="46.2062" lon="4.51896">
        <ele>704.2</ele>
        <time>2025-07-16T09:44:53Z</time>
      </trkpt>
      <trkpt lat="46.20596" lon="4.51867">
        <ele>704.1</ele>
        <time>2025-07-16T09:44:59Z</time>
      </trkpt>
      <trkpt lat="46.20572" lon="4.51838">
        <ele>704.1</ele>
        <time>2025-07-16T09:45:06Z</time>
      </trkpt>
      <trkpt lat="46.20554" lon="4.51816">
        <ele>704</ele>
        <time>2025-07-16T09:45:11Z</time>
      </trkpt>
      <trkpt lat="46.2054" lon="4.51792">
        <ele>703.9</ele>
        <time>2025-07-16T09:45:16Z</time>
      </trkpt>
      <trkpt lat="46.20528" lon="4.5177">
        <ele>703.8</ele>
        <time>2025-07-16T09:45:21Z</time>
      </trkpt>
      <trkpt lat="46.20509" lon="4.51735">
        <ele>703.9</ele>
        <time>2025-07-16T09:45:27Z</time>
      </trkpt>
      <trkpt lat="46.20503" lon="4.51725">
        <ele>703.9</ele>
        <time>2025-07-16T09:45:29Z</time>
      </trkpt>
      <trkpt lat="46.20497" lon="4.51717">
        <ele>703.9</ele>
        <time>2025-07-16T09:45:31Z</time>
      </trkpt>
      <trkpt lat="46.20482" lon="4.51699">
        <ele>703.7</ele>
        <time>2025-07-16T09:45:36Z</time>
      </trkpt>
      <trkpt lat="46.20465" lon="4.51679">
        <ele>703.5</ele>
        <time>2025-07-16T09:45:41Z</time>
      </trkpt>
      <trkpt lat="46.20441" lon="4.51651">
        <ele>703.1</ele>
        <time>2025-07-16T09:45:47Z</time>
      </trkpt>
      <trkpt lat="46.20424" lon="4.5163">
        <ele>703.3</ele>
        <time>2025-07-16T09:45:52Z</time>
      </trkpt>
      <trkpt lat="46.20414" lon="4.516">
        <ele>705.3</ele>
        <time>2025-07-16T09:45:57Z</time>
      </trkpt>
      <trkpt lat="46.2041" lon="4.51581">
        <ele>707</ele>
        <time>2025-07-16T09:46:02Z</time>
      </trkpt>
      <trkpt lat="46.20407" lon="4.51567">
        <ele>708.5</ele>
        <time>2025-07-16T09:46:08Z</time>
      </trkpt>
      <trkpt lat="46.20402" lon="4.51547">
        <ele>710.8</ele>
        <time>2025-07-16T09:46:14Z</time>
      </trkpt>
      <trkpt lat="46.20402" lon="4.51547">
        <ele>710.8</ele>
        <time>2025-07-16T09:46:20Z</time>
      </trkpt>
      <trkpt lat="46.20394" lon="4.51524">
        <ele>713.7</ele>
        <time>2025-07-16T09:46:25Z</time>
      </trkpt>
      <trkpt lat="46.20394" lon="4.51524">
        <ele>713.7</ele>
        <time>2025-07-16T09:46:32Z</time>
      </trkpt>
      <trkpt lat="46.20394" lon="4.51524">
        <ele>713.7</ele>
        <time>2025-07-16T09:46:40Z</time>
      </trkpt>
      <trkpt lat="46.20394" lon="4.51524">
        <ele>713.7</ele>
        <time>2025-07-16T09:46:49Z</time>
      </trkpt>
      <trkpt lat="46.20379" lon="4.51495">
        <ele>717.3</ele>
        <time>2025-07-16T09:46:57Z</time>
      </trkpt>
      <trkpt lat="46.20379" lon="4.51495">
        <ele>717.3</ele>
        <time>2025-07-16T09:47:06Z</time>
      </trkpt>
      <trkpt lat="46.20379" lon="4.51495">
        <ele>717.3</ele>
        <time>2025-07-16T09:47:14Z</time>
      </trkpt>
      <trkpt lat="46.20359" lon="4.51452">
        <ele>721.7</ele>
        <time>2025-07-16T09:47:22Z</time>
      </trkpt>
      <trkpt lat="46.20355" lon="4.51442">
        <ele>722.6</ele>
        <time>2025-07-16T09:47:28Z</time>
      </trkpt>
      <trkpt lat="46.20355" lon="4.51442">
        <ele>722.6</ele>
        <time>2025-07-16T09:47:37Z</time>
      </trkpt>
      <trkpt lat="46.20355" lon="4.51442">
        <ele>722.6</ele>
        <time>2025-07-16T09:47:52Z</time>
      </trkpt>
      <trkpt lat="46.20355" lon="4.51442">
        <ele>722.6</ele>
        <time>2025-07-16T09:48:06Z</time>
      </trkpt>
      <trkpt lat="46.20355" lon="4.51442">
        <ele>722.6</ele>
        <time>2025-07-16T09:48:21Z</time>
      </trkpt>
      <trkpt lat="46.20355" lon="4.51442">
        <ele>722.6</ele>
        <time>2025-07-16T09:48:36Z</time>
      </trkpt>
      <trkpt lat="46.20335" lon="4.51393">
        <ele>727.2</ele>
        <time>2025-07-16T09:48:43Z</time>
      </trkpt>
      <trkpt lat="46.20328" lon="4.51368">
        <ele>729.7</ele>
        <time>2025-07-16T09:48:51Z</time>
      </trkpt>
      <trkpt lat="46.20328" lon="4.5135">
        <ele>731.6</ele>
        <time>2025-07-16T09:48:58Z</time>
      </trkpt>
      <trkpt lat="46.20328" lon="4.51343">
        <ele>732.3</ele>
        <time>2025-07-16T09:49:04Z</time>
      </trkpt>
      <trkpt lat="46.20328" lon="4.51331">
        <ele>733.5</ele>
        <time>2025-07-16T09:49:10Z</time>
      </trkpt>
      <trkpt lat="46.20328" lon="4.51317">
        <ele>735.1</ele>
        <time>2025-07-16T09:49:17Z</time>
      </trkpt>
      <trkpt lat="46.20328" lon="4.51317">
        <ele>735.1</ele>
        <time>2025-07-16T09:49:24Z</time>
      </trkpt>
      <trkpt lat="46.20327" lon="4.51288">
        <ele>737.9</ele>
        <time>2025-07-16T09:49:32Z</time>
      </trkpt>
      <trkpt lat="46.20327" lon="4.51288">
        <ele>737.9</ele>
        <time>2025-07-16T09:49:40Z</time>
      </trkpt>
      <trkpt lat="46.20326" lon="4.51281">
        <ele>738.6</ele>
        <time>2025-07-16T09:49:48Z</time>
      </trkpt>
      <trkpt lat="46.20322" lon="4.51246">
        <ele>741.7</ele>
        <time>2025-07-16T09:49:56Z</time>
      </trkpt>
      <trkpt lat="46.20324" lon="4.51229">
        <ele>742.9</ele>
        <time>2025-07-16T09:50:03Z</time>
      </trkpt>
      <trkpt lat="46.20326" lon="4.51203">
        <ele>744.4</ele>
        <time>2025-07-16T09:50:09Z</time>
      </trkpt>
      <trkpt lat="46.20327" lon="4.51182">
        <ele>745.4</ele>
        <time>2025-07-16T09:50:17Z</time>
      </trkpt>
      <trkpt lat="46.20327" lon="4.51165">
        <ele>746</ele>
        <time>2025-07-16T09:50:24Z</time>
      </trkpt>
      <trkpt lat="46.20326" lon="4.5116">
        <ele>746.2</ele>
        <time>2025-07-16T09:50:29Z</time>
      </trkpt>
      <trkpt lat="46.20323" lon="4.51146">
        <ele>746.7</ele>
        <time>2025-07-16T09:50:34Z</time>
      </trkpt>
      <trkpt lat="46.20321" lon="4.51136">
        <ele>747</ele>
        <time>2025-07-16T09:50:40Z</time>
      </trkpt>
      <trkpt lat="46.20318" lon="4.51123">
        <ele>747.5</ele>
        <time>2025-07-16T09:50:46Z</time>
      </trkpt>
      <trkpt lat="46.20314" lon="4.51103">
        <ele>748.4</ele>
        <time>2025-07-16T09:50:53Z</time>
      </trkpt>
      <trkpt lat="46.20311" lon="4.51091">
        <ele>749.1</ele>
        <time>2025-07-16T09:50:59Z</time>
      </trkpt>
      <trkpt lat="46.20311" lon="4.51089">
        <ele>749.2</ele>
        <time>2025-07-16T09:51:05Z</time>
      </trkpt>
      <trkpt lat="46.20306" lon="4.51067">
        <ele>750.7</ele>
        <time>2025-07-16T09:51:11Z</time>
      </trkpt>
      <trkpt lat="46.20303" lon="4.51054">
        <ele>751.8</ele>
        <time>2025-07-16T09:51:16Z</time>
      </trkpt>
      <trkpt lat="46.20301" lon="4.51044">
        <ele>752.8</ele>
        <time>2025-07-16T09:51:22Z</time>
      </trkpt>
      <trkpt lat="46.20301" lon="4.51044">
        <ele>752.8</ele>
        <time>2025-07-16T09:51:37Z</time>
      </trkpt>
      <trkpt lat="46.20301" lon="4.51044">
        <ele>752.8</ele>
        <time>2025-07-16T09:51:48Z</time>
      </trkpt>
      <trkpt lat="46.20301" lon="4.51044">
        <ele>752.8</ele>
        <time>2025-07-16T09:52:01Z</time>
      </trkpt>
      <trkpt lat="46.20301" lon="4.51044">
        <ele>752.8</ele>
        <time>2025-07-16T09:52:12Z</time>
      </trkpt>
      <trkpt lat="46.20301" lon="4.51044">
        <ele>752.8</ele>
        <time>2025-07-16T09:52:19Z</time>
      </trkpt>
      <trkpt lat="46.203" lon="4.5104">
        <ele>753.2</ele>
        <time>2025-07-16T09:52:27Z</time>
      </trkpt>
      <trkpt lat="46.20295" lon="4.51027">
        <ele>754.6</ele>
        <time>2025-07-16T09:52:33Z</time>
      </trkpt>
      <trkpt lat="46.2029" lon="4.51014">
        <ele>756.2</ele>
        <time>2025-07-16T09:52:39Z</time>
      </trkpt>
      <trkpt lat="46.20286" lon="4.51004">
        <ele>757.4</ele>
        <time>2025-07-16T09:52:45Z</time>
      </trkpt>
      <trkpt lat="46.20283" lon="4.50995">
        <ele>758.5</ele>
        <time>2025-07-16T09:52:51Z</time>
      </trkpt>
      <trkpt lat="46.20283" lon="4.50995">
        <ele>758.5</ele>
        <time>2025-07-16T09:52:58Z</time>
      </trkpt>
      <trkpt lat="46.20283" lon="4.50995">
        <ele>758.5</ele>
        <time>2025-07-16T09:53:06Z</time>
      </trkpt>
      <trkpt lat="46.20283" lon="4.50995">
        <ele>758.5</ele>
        <time>2025-07-16T09:53:13Z</time>
      </trkpt>
      <trkpt lat="46.20283" lon="4.50995">
        <ele>758.5</ele>
        <time>2025-07-16T09:53:20Z</time>
      </trkpt>
      <trkpt lat="46.20276" lon="4.50977">
        <ele>760.6</ele>
        <time>2025-07-16T09:53:27Z</time>
      </trkpt>
      <trkpt lat="46.20271" lon="4.50964">
        <ele>761.9</ele>
        <time>2025-07-16T09:53:34Z</time>
      </trkpt>
      <trkpt lat="46.20269" lon="4.50959">
        <ele>762.5</ele>
        <time>2025-07-16T09:53:40Z</time>
      </trkpt>
      <trkpt lat="46.20263" lon="4.50944">
        <ele>764.1</ele>
        <time>2025-07-16T09:53:47Z</time>
      </trkpt>
      <trkpt lat="46.20259" lon="4.50932">
        <ele>765.5</ele>
        <time>2025-07-16T09:53:54Z</time>
      </trkpt>
      <trkpt lat="46.20256" lon="4.50924">
        <ele>766.4</ele>
        <time>2025-07-16T09:53:59Z</time>
      </trkpt>
      <trkpt lat="46.2025" lon="4.50909">
        <ele>768.1</ele>
        <time>2025-07-16T09:54:07Z</time>
      </trkpt>
      <trkpt lat="46.20246" lon="4.50898">
        <ele>769.2</ele>
        <time>2025-07-16T09:54:13Z</time>
      </trkpt>
      <trkpt lat="46.20242" lon="4.50887">
        <ele>770.2</ele>
        <time>2025-07-16T09:54:19Z</time>
      </trkpt>
      <trkpt lat="46.20237" lon="4.50878">
        <ele>771.2</ele>
        <time>2025-07-16T09:54:25Z</time>
      </trkpt>
      <trkpt lat="46.20232" lon="4.50871">
        <ele>772</ele>
        <time>2025-07-16T09:54:30Z</time>
      </trkpt>
      <trkpt lat="46.20228" lon="4.50866">
        <ele>772.5</ele>
        <time>2025-07-16T09:54:37Z</time>
      </trkpt>
      <trkpt lat="46.20228" lon="4.50866">
        <ele>772.5</ele>
        <time>2025-07-16T09:54:45Z</time>
      </trkpt>
      <trkpt lat="46.20228" lon="4.50866">
        <ele>772.5</ele>
        <time>2025-07-16T09:54:53Z</time>
      </trkpt>
      <trkpt lat="46.20213" lon="4.50843">
        <ele>774.7</ele>
        <time>2025-07-16T09:55:00Z</time>
      </trkpt>
      <trkpt lat="46.20202" lon="4.50824">
        <ele>775.9</ele>
        <time>2025-07-16T09:55:06Z</time>
      </trkpt>
      <trkpt lat="46.20198" lon="4.50808">
        <ele>776.6</ele>
        <time>2025-07-16T09:55:13Z</time>
      </trkpt>
      <trkpt lat="46.20194" lon="4.50797">
        <ele>777.1</ele>
        <time>2025-07-16T09:55:19Z</time>
      </trkpt>
      <trkpt lat="46.20194" lon="4.50795">
        <ele>777.2</ele>
        <time>2025-07-16T09:55:20Z</time>
      </trkpt>
      <trkpt lat="46.2019" lon="4.5078">
        <ele>777.8</ele>
        <time>2025-07-16T09:55:27Z</time>
      </trkpt>
      <trkpt lat="46.20183" lon="4.50766">
        <ele>778.4</ele>
        <time>2025-07-16T09:55:33Z</time>
      </trkpt>
      <trkpt lat="46.20171" lon="4.5075">
        <ele>779.4</ele>
        <time>2025-07-16T09:55:40Z</time>
      </trkpt>
      <trkpt lat="46.20165" lon="4.50742">
        <ele>780</ele>
        <time>2025-07-16T09:55:45Z</time>
      </trkpt>
      <trkpt lat="46.20158" lon="4.50734">
        <ele>780.8</ele>
        <time>2025-07-16T09:55:51Z</time>
      </trkpt>
      <trkpt lat="46.20148" lon="4.50721">
        <ele>782.1</ele>
        <time>2025-07-16T09:55:59Z</time>
      </trkpt>
      <trkpt lat="46.20136" lon="4.50707">
        <ele>783.8</ele>
        <time>2025-07-16T09:56:05Z</time>
      </trkpt>
      <trkpt lat="46.20128" lon="4.50696">
        <ele>785</ele>
        <time>2025-07-16T09:56:11Z</time>
      </trkpt>
      <trkpt lat="46.20124" lon="4.50691">
        <ele>785.5</ele>
        <time>2025-07-16T09:56:18Z</time>
      </trkpt>
      <trkpt lat="46.20124" lon="4.50691">
        <ele>785.5</ele>
        <time>2025-07-16T09:56:25Z</time>
      </trkpt>
      <trkpt lat="46.20117" lon="4.50682">
        <ele>786.5</ele>
        <time>2025-07-16T09:56:33Z</time>
      </trkpt>
      <trkpt lat="46.20104" lon="4.50672">
        <ele>788.1</ele>
        <time>2025-07-16T09:56:42Z</time>
      </trkpt>
      <trkpt lat="46.20104" lon="4.50672">
        <ele>788.1</ele>
        <time>2025-07-16T09:56:51Z</time>
      </trkpt>
      <trkpt lat="46.20104" lon="4.50672">
        <ele>788.1</ele>
        <time>2025-07-16T09:56:59Z</time>
      </trkpt>
      <trkpt lat="46.20075" lon="4.50656">
        <ele>791.3</ele>
        <time>2025-07-16T09:57:08Z</time>
      </trkpt>
      <trkpt lat="46.2006" lon="4.50656">
        <ele>792.4</ele>
        <time>2025-07-16T09:57:16Z</time>
      </trkpt>
      <trkpt lat="46.20042" lon="4.50656">
        <ele>793.5</ele>
        <time>2025-07-16T09:57:23Z</time>
      </trkpt>
      <trkpt lat="46.20029" lon="4.50655">
        <ele>794.4</ele>
        <time>2025-07-16T09:57:30Z</time>
      </trkpt>
      <trkpt lat="46.20026" lon="4.50655">
        <ele>794.6</ele>
        <time>2025-07-16T09:57:31Z</time>
      </trkpt>
      <trkpt lat="46.20015" lon="4.50655">
        <ele>795.4</ele>
        <time>2025-07-16T09:57:37Z</time>
      </trkpt>
      <trkpt lat="46.20001" lon="4.50642">
        <ele>796.9</ele>
        <time>2025-07-16T09:57:45Z</time>
      </trkpt>
      <trkpt lat="46.1999" lon="4.50655">
        <ele>798.3</ele>
        <time>2025-07-16T09:57:52Z</time>
      </trkpt>
      <trkpt lat="46.19978" lon="4.50654">
        <ele>799.5</ele>
        <time>2025-07-16T09:58:00Z</time>
      </trkpt>
      <trkpt lat="46.1997" lon="4.50654">
        <ele>800.2</ele>
        <time>2025-07-16T09:58:08Z</time>
      </trkpt>
      <trkpt lat="46.19957" lon="4.50654">
        <ele>801.3</ele>
        <time>2025-07-16T09:58:15Z</time>
      </trkpt>
      <trkpt lat="46.1995" lon="4.50652">
        <ele>801.8</ele>
        <time>2025-07-16T09:58:21Z</time>
      </trkpt>
      <trkpt lat="46.19947" lon="4.50652">
        <ele>801.9</ele>
        <time>2025-07-16T09:58:27Z</time>
      </trkpt>
      <trkpt lat="46.1993" lon="4.50649">
        <ele>802.8</ele>
        <time>2025-07-16T09:58:34Z</time>
      </trkpt>
      <trkpt lat="46.19919" lon="4.50647">
        <ele>803.2</ele>
        <time>2025-07-16T09:58:39Z</time>
      </trkpt>
      <trkpt lat="46.1991" lon="4.50645">
        <ele>803.5</ele>
        <time>2025-07-16T09:58:43Z</time>
      </trkpt>
      <trkpt lat="46.19904" lon="4.50644">
        <ele>803.6</ele>
        <time>2025-07-16T09:58:45Z</time>
      </trkpt>
      <trkpt lat="46.19888" lon="4.50641">
        <ele>804.1</ele>
        <time>2025-07-16T09:58:52Z</time>
      </trkpt>
      <trkpt lat="46.19871" lon="4.50638">
        <ele>804.5</ele>
        <time>2025-07-16T09:58:59Z</time>
      </trkpt>
      <trkpt lat="46.19848" lon="4.50626">
        <ele>805.2</ele>
        <time>2025-07-16T09:59:09Z</time>
      </trkpt>
      <trkpt lat="46.19836" lon="4.50617">
        <ele>805.7</ele>
        <time>2025-07-16T09:59:14Z</time>
      </trkpt>
      <trkpt lat="46.19836" lon="4.50617">
        <ele>805.7</ele>
        <time>2025-07-16T09:59:20Z</time>
      </trkpt>
      <trkpt lat="46.19836" lon="4.50617">
        <ele>805.7</ele>
        <time>2025-07-16T09:59:38Z</time>
      </trkpt>
      <trkpt lat="46.19836" lon="4.50617">
        <ele>805.7</ele>
        <time>2025-07-16T09:59:51Z</time>
      </trkpt>
      <trkpt lat="46.19836" lon="4.50617">
        <ele>805.7</ele>
        <time>2025-07-16T10:00:01Z</time>
      </trkpt>
      <trkpt lat="46.19836" lon="4.50617">
        <ele>805.7</ele>
        <time>2025-07-16T10:00:09Z</time>
      </trkpt>
      <trkpt lat="46.19836" lon="4.50617">
        <ele>805.7</ele>
        <time>2025-07-16T10:00:17Z</time>
      </trkpt>
      <trkpt lat="46.19829" lon="4.50601">
        <ele>806.3</ele>
        <time>2025-07-16T10:00:23Z</time>
      </trkpt>
      <trkpt lat="46.19834" lon="4.50593">
        <ele>809.6</ele>
        <time>2025-07-16T10:00:25Z</time>
      </trkpt>
      <trkpt lat="46.19848" lon="4.5059">
        <ele>811.2</ele>
        <time>2025-07-16T10:00:29Z</time>
      </trkpt>
      <trkpt lat="46.1984" lon="4.50592">
        <ele>812</ele>
        <time>2025-07-16T10:00:30Z</time>
      </trkpt>
      <trkpt lat="46.19846" lon="4.5059">
        <ele>812.7</ele>
        <time>2025-07-16T10:00:37Z</time>
      </trkpt>
      <trkpt lat="46.19848" lon="4.5059">
        <ele>812.9</ele>
        <time>2025-07-16T10:00:43Z</time>
      </trkpt>
      <trkpt lat="46.19861" lon="4.50591">
        <ele>814.1</ele>
        <time>2025-07-16T10:00:49Z</time>
      </trkpt>
      <trkpt lat="46.19864" lon="4.50591">
        <ele>814.4</ele>
        <time>2025-07-16T10:00:55Z</time>
      </trkpt>
      <trkpt lat="46.19864" lon="4.50591">
        <ele>814.4</ele>
        <time>2025-07-16T10:01:02Z</time>
      </trkpt>
      <trkpt lat="46.19884" lon="4.50593">
        <ele>816.4</ele>
        <time>2025-07-16T10:01:10Z</time>
      </trkpt>
      <trkpt lat="46.19899" lon="4.50594">
        <ele>818</ele>
        <time>2025-07-16T10:01:20Z</time>
      </trkpt>
      <trkpt lat="46.19917" lon="4.50596">
        <ele>819.9</ele>
        <time>2025-07-16T10:01:29Z</time>
      </trkpt>
      <trkpt lat="46.19939" lon="4.50581">
        <ele>822.7</ele>
        <time>2025-07-16T10:01:37Z</time>
      </trkpt>
      <trkpt lat="46.19947" lon="4.50574">
        <ele>823.8</ele>
        <time>2025-07-16T10:01:44Z</time>
      </trkpt>
      <trkpt lat="46.19952" lon="4.50569">
        <ele>824.5</ele>
        <time>2025-07-16T10:01:51Z</time>
      </trkpt>
      <trkpt lat="46.19952" lon="4.50569">
        <ele>824.5</ele>
        <time>2025-07-16T10:02:03Z</time>
      </trkpt>
      <trkpt lat="46.19952" lon="4.50569">
        <ele>824.5</ele>
        <time>2025-07-16T10:02:14Z</time>
      </trkpt>
      <trkpt lat="46.19952" lon="4.50569">
        <ele>824.5</ele>
        <time>2025-07-16T10:02:26Z</time>
      </trkpt>
      <trkpt lat="46.19952" lon="4.50569">
        <ele>824.5</ele>
        <time>2025-07-16T10:02:34Z</time>
      </trkpt>
      <trkpt lat="46.19956" lon="4.5054">
        <ele>826.8</ele>
        <time>2025-07-16T10:02:41Z</time>
      </trkpt>
      <trkpt lat="46.19957" lon="4.50524">
        <ele>828</ele>
        <time>2025-07-16T10:02:48Z</time>
      </trkpt>
      <trkpt lat="46.19959" lon="4.50511">
        <ele>829.1</ele>
        <time>2025-07-16T10:02:55Z</time>
      </trkpt>
      <trkpt lat="46.1996" lon="4.50502">
        <ele>829.8</ele>
        <time>2025-07-16T10:03:01Z</time>
      </trkpt>
      <trkpt lat="46.19961" lon="4.50487">
        <ele>831</ele>
        <time>2025-07-16T10:03:08Z</time>
      </trkpt>
      <trkpt lat="46.19962" lon="4.50484">
        <ele>831.2</ele>
        <time>2025-07-16T10:03:09Z</time>
      </trkpt>
      <trkpt lat="46.19963" lon="4.50474">
        <ele>832</ele>
        <time>2025-07-16T10:03:14Z</time>
      </trkpt>
      <trkpt lat="46.19965" lon="4.50455">
        <ele>833.5</ele>
        <time>2025-07-16T10:03:21Z</time>
      </trkpt>
      <trkpt lat="46.19965" lon="4.50455">
        <ele>833.5</ele>
        <time>2025-07-16T10:03:35Z</time>
      </trkpt>
      <trkpt lat="46.19965" lon="4.50455">
        <ele>833.5</ele>
        <time>2025-07-16T10:03:54Z</time>
      </trkpt>
      <trkpt lat="46.19965" lon="4.50455">
        <ele>833.5</ele>
        <time>2025-07-16T10:04:04Z</time>
      </trkpt>
      <trkpt lat="46.19966" lon="4.50444">
        <ele>834.3</ele>
        <time>2025-07-16T10:04:10Z</time>
      </trkpt>
      <trkpt lat="46.19974" lon="4.50414">
        <ele>836.7</ele>
        <time>2025-07-16T10:04:18Z</time>
      </trkpt>
      <trkpt lat="46.19985" lon="4.50397">
        <ele>838.2</ele>
        <time>2025-07-16T10:04:25Z</time>
      </trkpt>
      <trkpt lat="46.1999" lon="4.5039">
        <ele>838.9</ele>
        <time>2025-07-16T10:04:32Z</time>
      </trkpt>
      <trkpt lat="46.20001" lon="4.50372">
        <ele>840.6</ele>
        <time>2025-07-16T10:04:39Z</time>
      </trkpt>
      <trkpt lat="46.20006" lon="4.50365">
        <ele>841.2</ele>
        <time>2025-07-16T10:04:44Z</time>
      </trkpt>
      <trkpt lat="46.20006" lon="4.50365">
        <ele>841.2</ele>
        <time>2025-07-16T10:04:54Z</time>
      </trkpt>
      <trkpt lat="46.20022" lon="4.5034">
        <ele>843.2</ele>
        <time>2025-07-16T10:05:02Z</time>
      </trkpt>
      <trkpt lat="46.20028" lon="4.50331">
        <ele>843.8</ele>
        <time>2025-07-16T10:05:10Z</time>
      </trkpt>
      <trkpt lat="46.20038" lon="4.5031">
        <ele>844.9</ele>
        <time>2025-07-16T10:05:19Z</time>
      </trkpt>
      <trkpt lat="46.20046" lon="4.50291">
        <ele>845.7</ele>
        <time>2025-07-16T10:05:28Z</time>
      </trkpt>
      <trkpt lat="46.20055" lon="4.50271">
        <ele>846.5</ele>
        <time>2025-07-16T10:05:35Z</time>
      </trkpt>
      <trkpt lat="46.20056" lon="4.50236">
        <ele>847.4</ele>
        <time>2025-07-16T10:05:44Z</time>
      </trkpt>
      <trkpt lat="46.20057" lon="4.5022">
        <ele>847.9</ele>
        <time>2025-07-16T10:05:49Z</time>
      </trkpt>
      <trkpt lat="46.20057" lon="4.50214">
        <ele>848</ele>
        <time>2025-07-16T10:05:51Z</time>
      </trkpt>
      <trkpt lat="46.20057" lon="4.50192">
        <ele>848.7</ele>
        <time>2025-07-16T10:05:58Z</time>
      </trkpt>
      <trkpt lat="46.20058" lon="4.50169">
        <ele>849.5</ele>
        <time>2025-07-16T10:06:05Z</time>
      </trkpt>
      <trkpt lat="46.20058" lon="4.50153">
        <ele>850.2</ele>
        <time>2025-07-16T10:06:12Z</time>
      </trkpt>
      <trkpt lat="46.20058" lon="4.50153">
        <ele>850.2</ele>
        <time>2025-07-16T10:06:24Z</time>
      </trkpt>
      <trkpt lat="46.20058" lon="4.50153">
        <ele>850.2</ele>
        <time>2025-07-16T10:06:36Z</time>
      </trkpt>
      <trkpt lat="46.20058" lon="4.50153">
        <ele>850.2</ele>
        <time>2025-07-16T10:06:48Z</time>
      </trkpt>
      <trkpt lat="46.20058" lon="4.50153">
        <ele>850.2</ele>
        <time>2025-07-16T10:06:58Z</time>
      </trkpt>
      <trkpt lat="46.20056" lon="4.50134">
        <ele>850.7</ele>
        <time>2025-07-16T10:07:05Z</time>
      </trkpt>
      <trkpt lat="46.20054" lon="4.50117">
        <ele>851.4</ele>
        <time>2025-07-16T10:07:12Z</time>
      </trkpt>
      <trkpt lat="46.20051" lon="4.50095">
        <ele>852.4</ele>
        <time>2025-07-16T10:07:21Z</time>
      </trkpt>
      <trkpt lat="46.20049" lon="4.50071">
        <ele>853.7</ele>
        <time>2025-07-16T10:07:29Z</time>
      </trkpt>
      <trkpt lat="46.20046" lon="4.50049">
        <ele>855.3</ele>
        <time>2025-07-16T10:07:38Z</time>
      </trkpt>
      <trkpt lat="46.20044" lon="4.50034">
        <ele>856.5</ele>
        <time>2025-07-16T10:07:45Z</time>
      </trkpt>
      <trkpt lat="46.20043" lon="4.50027">
        <ele>857.1</ele>
        <time>2025-07-16T10:07:51Z</time>
      </trkpt>
      <trkpt lat="46.20043" lon="4.50027">
        <ele>857.1</ele>
        <time>2025-07-16T10:08:05Z</time>
      </trkpt>
      <trkpt lat="46.20043" lon="4.50027">
        <ele>857.1</ele>
        <time>2025-07-16T10:08:21Z</time>
      </trkpt>
      <trkpt lat="46.20043" lon="4.50027">
        <ele>857.1</ele>
        <time>2025-07-16T10:08:46Z</time>
      </trkpt>
      <trkpt lat="46.20043" lon="4.50027">
        <ele>857.1</ele>
        <time>2025-07-16T10:09:03Z</time>
      </trkpt>
      <trkpt lat="46.20043" lon="4.50027">
        <ele>857.1</ele>
        <time>2025-07-16T10:09:12Z</time>
      </trkpt>
      <trkpt lat="46.20043" lon="4.50027">
        <ele>857.1</ele>
        <time>2025-07-16T10:09:21Z</time>
      </trkpt>
      <trkpt lat="46.20043" lon="4.50027">
        <ele>857.1</ele>
        <time>2025-07-16T10:09:29Z</time>
      </trkpt>
      <trkpt lat="46.20041" lon="4.50005">
        <ele>859.1</ele>
        <time>2025-07-16T10:09:34Z</time>
      </trkpt>
      <trkpt lat="46.2004" lon="4.50001">
        <ele>859.5</ele>
        <time>2025-07-16T10:09:41Z</time>
      </trkpt>
      <trkpt lat="46.2004" lon="4.50001">
        <ele>859.5</ele>
        <time>2025-07-16T10:09:51Z</time>
      </trkpt>
      <trkpt lat="46.2004" lon="4.50001">
        <ele>859.5</ele>
        <time>2025-07-16T10:10:04Z</time>
      </trkpt>
      <trkpt lat="46.2004" lon="4.50001">
        <ele>859.5</ele>
        <time>2025-07-16T10:10:11Z</time>
      </trkpt>
      <trkpt lat="46.20037" lon="4.49977">
        <ele>861.8</ele>
        <time>2025-07-16T10:10:20Z</time>
      </trkpt>
      <trkpt lat="46.20031" lon="4.49941">
        <ele>865.2</ele>
        <time>2025-07-16T10:10:27Z</time>
      </trkpt>
      <trkpt lat="46.2003" lon="4.49937">
        <ele>865.6</ele>
        <time>2025-07-16T10:10:28Z</time>
      </trkpt>
      <trkpt lat="46.20021" lon="4.49907">
        <ele>868.3</ele>
        <time>2025-07-16T10:10:35Z</time>
      </trkpt>
      <trkpt lat="46.2002" lon="4.49904">
        <ele>868.6</ele>
        <time>2025-07-16T10:10:42Z</time>
      </trkpt>
      <trkpt lat="46.20008" lon="4.49868">
        <ele>871.5</ele>
        <time>2025-07-16T10:10:49Z</time>
      </trkpt>
      <trkpt lat="46.20004" lon="4.49854">
        <ele>872.7</ele>
        <time>2025-07-16T10:10:57Z</time>
      </trkpt>
      <trkpt lat="46.19998" lon="4.49834">
        <ele>874.4</ele>
        <time>2025-07-16T10:11:04Z</time>
      </trkpt>
      <trkpt lat="46.19991" lon="4.49813">
        <ele>876.3</ele>
        <time>2025-07-16T10:11:13Z</time>
      </trkpt>
      <trkpt lat="46.19984" lon="4.49796">
        <ele>877.8</ele>
        <time>2025-07-16T10:11:20Z</time>
      </trkpt>
      <trkpt lat="46.19974" lon="4.49784">
        <ele>878.9</ele>
        <time>2025-07-16T10:11:28Z</time>
      </trkpt>
      <trkpt lat="46.19965" lon="4.49771">
        <ele>879.6</ele>
        <time>2025-07-16T10:11:36Z</time>
      </trkpt>
      <trkpt lat="46.19954" lon="4.49757">
        <ele>880.3</ele>
        <time>2025-07-16T10:11:45Z</time>
      </trkpt>
      <trkpt lat="46.19941" lon="4.49742">
        <ele>881</ele>
        <time>2025-07-16T10:11:54Z</time>
      </trkpt>
      <trkpt lat="46.19931" lon="4.49726">
        <ele>881.8</ele>
        <time>2025-07-16T10:12:02Z</time>
      </trkpt>
      <trkpt lat="46.19924" lon="4.49712">
        <ele>882.5</ele>
        <time>2025-07-16T10:12:10Z</time>
      </trkpt>
      <trkpt lat="46.19921" lon="4.49704">
        <ele>883</ele>
        <time>2025-07-16T10:12:18Z</time>
      </trkpt>
      <trkpt lat="46.19913" lon="4.49687">
        <ele>884.6</ele>
        <time>2025-07-16T10:12:27Z</time>
      </trkpt>
      <trkpt lat="46.19904" lon="4.49667">
        <ele>886.4</ele>
        <time>2025-07-16T10:12:37Z</time>
      </trkpt>
      <trkpt lat="46.19897" lon="4.49651">
        <ele>887.8</ele>
        <time>2025-07-16T10:12:45Z</time>
      </trkpt>
      <trkpt lat="46.1989" lon="4.49636">
        <ele>889.2</ele>
        <time>2025-07-16T10:12:53Z</time>
      </trkpt>
      <trkpt lat="46.19881" lon="4.49621">
        <ele>890.5</ele>
        <time>2025-07-16T10:13:01Z</time>
      </trkpt>
      <trkpt lat="46.1987" lon="4.49603">
        <ele>892.2</ele>
        <time>2025-07-16T10:13:10Z</time>
      </trkpt>
      <trkpt lat="46.19862" lon="4.49589">
        <ele>893.4</ele>
        <time>2025-07-16T10:13:19Z</time>
      </trkpt>
      <trkpt lat="46.19851" lon="4.49572">
        <ele>894.8</ele>
        <time>2025-07-16T10:13:26Z</time>
      </trkpt>
      <trkpt lat="46.19842" lon="4.49557">
        <ele>895.6</ele>
        <time>2025-07-16T10:13:34Z</time>
      </trkpt>
      <trkpt lat="46.19835" lon="4.49546">
        <ele>896</ele>
        <time>2025-07-16T10:13:41Z</time>
      </trkpt>
      <trkpt lat="46.1983" lon="4.49537">
        <ele>896.2</ele>
        <time>2025-07-16T10:13:46Z</time>
      </trkpt>
      <trkpt lat="46.19817" lon="4.49516">
        <ele>896.3</ele>
        <time>2025-07-16T10:13:54Z</time>
      </trkpt>
      <trkpt lat="46.19801" lon="4.49493">
        <ele>895.8</ele>
        <time>2025-07-16T10:14:01Z</time>
      </trkpt>
      <trkpt lat="46.19779" lon="4.4947">
        <ele>894.8</ele>
        <time>2025-07-16T10:14:07Z</time>
      </trkpt>
      <trkpt lat="46.19768" lon="4.49448">
        <ele>894.1</ele>
        <time>2025-07-16T10:14:11Z</time>
      </trkpt>
      <trkpt lat="46.1976" lon="4.49429">
        <ele>893.7</ele>
        <time>2025-07-16T10:14:16Z</time>
      </trkpt>
      <trkpt lat="46.19749" lon="4.49405">
        <ele>893.5</ele>
        <time>2025-07-16T10:14:22Z</time>
      </trkpt>
      <trkpt lat="46.1974" lon="4.49385">
        <ele>893.7</ele>
        <time>2025-07-16T10:14:27Z</time>
      </trkpt>
      <trkpt lat="46.19734" lon="4.4937">
        <ele>893.9</ele>
        <time>2025-07-16T10:14:31Z</time>
      </trkpt>
      <trkpt lat="46.19711" lon="4.49312">
        <ele>895.6</ele>
        <time>2025-07-16T10:14:38Z</time>
      </trkpt>
      <trkpt lat="46.19703" lon="4.49288">
        <ele>896.3</ele>
        <time>2025-07-16T10:14:44Z</time>
      </trkpt>
      <trkpt lat="46.19699" lon="4.49276">
        <ele>896.5</ele>
        <time>2025-07-16T10:14:48Z</time>
      </trkpt>
      <trkpt lat="46.19698" lon="4.49273">
        <ele>896.5</ele>
        <time>2025-07-16T10:14:49Z</time>
      </trkpt>
      <trkpt lat="46.19697" lon="4.49269">
        <ele>896.6</ele>
        <time>2025-07-16T10:14:50Z</time>
      </trkpt>
      <trkpt lat="46.19693" lon="4.49257">
        <ele>896.7</ele>
        <time>2025-07-16T10:14:54Z</time>
      </trkpt>
      <trkpt lat="46.19684" lon="4.49234">
        <ele>896.6</ele>
        <time>2025-07-16T10:15:01Z</time>
      </trkpt>
      <trkpt lat="46.19673" lon="4.49209">
        <ele>896.1</ele>
        <time>2025-07-16T10:15:07Z</time>
      </trkpt>
      <trkpt lat="46.19665" lon="4.49189">
        <ele>895.3</ele>
        <time>2025-07-16T10:15:13Z</time>
      </trkpt>
      <trkpt lat="46.19659" lon="4.49177">
        <ele>894.7</ele>
        <time>2025-07-16T10:15:18Z</time>
      </trkpt>
      <trkpt lat="46.19651" lon="4.49158">
        <ele>893.5</ele>
        <time>2025-07-16T10:15:25Z</time>
      </trkpt>
      <trkpt lat="46.19645" lon="4.49143">
        <ele>892.4</ele>
        <time>2025-07-16T10:15:30Z</time>
      </trkpt>
      <trkpt lat="46.19632" lon="4.49113">
        <ele>889.9</ele>
        <time>2025-07-16T10:15:39Z</time>
      </trkpt>
      <trkpt lat="46.1962" lon="4.49086">
        <ele>887.4</ele>
        <time>2025-07-16T10:15:46Z</time>
      </trkpt>
      <trkpt lat="46.19611" lon="4.49034">
        <ele>883.2</ele>
        <time>2025-07-16T10:15:54Z</time>
      </trkpt>
      <trkpt lat="46.19605" lon="4.48991">
        <ele>880.3</ele>
        <time>2025-07-16T10:16:00Z</time>
      </trkpt>
      <trkpt lat="46.19594" lon="4.48955">
        <ele>879</ele>
        <time>2025-07-16T10:16:04Z</time>
      </trkpt>
      <trkpt lat="46.19583" lon="4.4892">
        <ele>878.9</ele>
        <time>2025-07-16T10:16:09Z</time>
      </trkpt>
      <trkpt lat="46.19579" lon="4.48907">
        <ele>878.9</ele>
        <time>2025-07-16T10:16:10Z</time>
      </trkpt>
      <trkpt lat="46.19563" lon="4.48854">
        <ele>879.6</ele>
        <time>2025-07-16T10:16:16Z</time>
      </trkpt>
      <trkpt lat="46.19561" lon="4.48824">
        <ele>880.8</ele>
        <time>2025-07-16T10:16:21Z</time>
      </trkpt>
      <trkpt lat="46.19562" lon="4.48798">
        <ele>882.4</ele>
        <time>2025-07-16T10:16:26Z</time>
      </trkpt>
      <trkpt lat="46.19562" lon="4.48794">
        <ele>882.6</ele>
        <time>2025-07-16T10:16:27Z</time>
      </trkpt>
      <trkpt lat="46.19563" lon="4.48771">
        <ele>884.1</ele>
        <time>2025-07-16T10:16:34Z</time>
      </trkpt>
      <trkpt lat="46.19564" lon="4.48739">
        <ele>886</ele>
        <time>2025-07-16T10:16:42Z</time>
      </trkpt>
      <trkpt lat="46.19562" lon="4.48724">
        <ele>886.8</ele>
        <time>2025-07-16T10:16:48Z</time>
      </trkpt>
      <trkpt lat="46.19559" lon="4.48706">
        <ele>887.5</ele>
        <time>2025-07-16T10:16:54Z</time>
      </trkpt>
      <trkpt lat="46.19559" lon="4.48704">
        <ele>887.6</ele>
        <time>2025-07-16T10:16:55Z</time>
      </trkpt>
      <trkpt lat="46.19557" lon="4.48688">
        <ele>888</ele>
        <time>2025-07-16T10:17:00Z</time>
      </trkpt>
      <trkpt lat="46.19554" lon="4.4867">
        <ele>888.3</ele>
        <time>2025-07-16T10:17:06Z</time>
      </trkpt>
      <trkpt lat="46.19551" lon="4.4865">
        <ele>888.4</ele>
        <time>2025-07-16T10:17:11Z</time>
      </trkpt>
      <trkpt lat="46.19546" lon="4.48613">
        <ele>888.6</ele>
        <time>2025-07-16T10:17:18Z</time>
      </trkpt>
      <trkpt lat="46.19541" lon="4.48578">
        <ele>889.3</ele>
        <time>2025-07-16T10:17:25Z</time>
      </trkpt>
      <trkpt lat="46.19536" lon="4.48542">
        <ele>890.2</ele>
        <time>2025-07-16T10:17:32Z</time>
      </trkpt>
      <trkpt lat="46.19534" lon="4.48524">
        <ele>890.8</ele>
        <time>2025-07-16T10:17:37Z</time>
      </trkpt>
      <trkpt lat="46.19532" lon="4.48513">
        <ele>891.2</ele>
        <time>2025-07-16T10:17:42Z</time>
      </trkpt>
      <trkpt lat="46.19531" lon="4.48506">
        <ele>891.5</ele>
        <time>2025-07-16T10:17:44Z</time>
      </trkpt>
      <trkpt lat="46.19529" lon="4.48485">
        <ele>892.7</ele>
        <time>2025-07-16T10:17:50Z</time>
      </trkpt>
      <trkpt lat="46.19528" lon="4.48466">
        <ele>894.1</ele>
        <time>2025-07-16T10:17:57Z</time>
      </trkpt>
      <trkpt lat="46.19529" lon="4.48437">
        <ele>896.2</ele>
        <time>2025-07-16T10:18:03Z</time>
      </trkpt>
      <trkpt lat="46.19529" lon="4.48425">
        <ele>896.9</ele>
        <time>2025-07-16T10:18:10Z</time>
      </trkpt>
      <trkpt lat="46.1953" lon="4.4841">
        <ele>897.7</ele>
        <time>2025-07-16T10:18:17Z</time>
      </trkpt>
      <trkpt lat="46.1953" lon="4.484">
        <ele>898</ele>
        <time>2025-07-16T10:18:23Z</time>
      </trkpt>
      <trkpt lat="46.1953" lon="4.48394">
        <ele>898.2</ele>
        <time>2025-07-16T10:18:29Z</time>
      </trkpt>
      <trkpt lat="46.19526" lon="4.48364">
        <ele>898.6</ele>
        <time>2025-07-16T10:18:36Z</time>
      </trkpt>
      <trkpt lat="46.19521" lon="4.48347">
        <ele>898.2</ele>
        <time>2025-07-16T10:18:39Z</time>
      </trkpt>
      <trkpt lat="46.19518" lon="4.48337">
        <ele>897.9</ele>
        <time>2025-07-16T10:18:42Z</time>
      </trkpt>
      <trkpt lat="46.19509" lon="4.48317">
        <ele>896.8</ele>
        <time>2025-07-16T10:18:48Z</time>
      </trkpt>
      <trkpt lat="46.19506" lon="4.48311">
        <ele>896.5</ele>
        <time>2025-07-16T10:18:53Z</time>
      </trkpt>
      <trkpt lat="46.19495" lon="4.48287">
        <ele>895</ele>
        <time>2025-07-16T10:18:59Z</time>
      </trkpt>
      <trkpt lat="46.19494" lon="4.48285">
        <ele>894.8</ele>
        <time>2025-07-16T10:19:00Z</time>
      </trkpt>
      <trkpt lat="46.19488" lon="4.48273">
        <ele>894.1</ele>
        <time>2025-07-16T10:19:04Z</time>
      </trkpt>
      <trkpt lat="46.19477" lon="4.4826">
        <ele>893</ele>
        <time>2025-07-16T10:19:11Z</time>
      </trkpt>
      <trkpt lat="46.19477" lon="4.48259">
        <ele>892.9</ele>
        <time>2025-07-16T10:19:12Z</time>
      </trkpt>
      <trkpt lat="46.19487" lon="4.48251">
        <ele>892.6</ele>
        <time>2025-07-16T10:19:15Z</time>
      </trkpt>
      <trkpt lat="46.19506" lon="4.48249">
        <ele>893</ele>
        <time>2025-07-16T10:19:21Z</time>
      </trkpt>
      <trkpt lat="46.19521" lon="4.48247">
        <ele>893.5</ele>
        <time>2025-07-16T10:19:26Z</time>
      </trkpt>
      <trkpt lat="46.19534" lon="4.48245">
        <ele>894</ele>
        <time>2025-07-16T10:19:30Z</time>
      </trkpt>
      <trkpt lat="46.19549" lon="4.48244">
        <ele>894.6</ele>
        <time>2025-07-16T10:19:35Z</time>
      </trkpt>
      <trkpt lat="46.19558" lon="4.48243">
        <ele>895</ele>
        <time>2025-07-16T10:19:38Z</time>
      </trkpt>
      <trkpt lat="46.19573" lon="4.48241">
        <ele>895.7</ele>
        <time>2025-07-16T10:19:43Z</time>
      </trkpt>
      <trkpt lat="46.19591" lon="4.48239">
        <ele>896.4</ele>
        <time>2025-07-16T10:19:50Z</time>
      </trkpt>
      <trkpt lat="46.19596" lon="4.48238">
        <ele>896.6</ele>
        <time>2025-07-16T10:19:52Z</time>
      </trkpt>
      <trkpt lat="46.19602" lon="4.48237">
        <ele>896.8</ele>
        <time>2025-07-16T10:19:54Z</time>
      </trkpt>
      <trkpt lat="46.19615" lon="4.48235">
        <ele>897.3</ele>
        <time>2025-07-16T10:19:58Z</time>
      </trkpt>
      <trkpt lat="46.19629" lon="4.4823">
        <ele>897.8</ele>
        <time>2025-07-16T10:20:03Z</time>
      </trkpt>
      <trkpt lat="46.19636" lon="4.48226">
        <ele>898.1</ele>
        <time>2025-07-16T10:20:06Z</time>
      </trkpt>
      <trkpt lat="46.19639" lon="4.48225">
        <ele>898.2</ele>
        <time>2025-07-16T10:20:07Z</time>
      </trkpt>
      <trkpt lat="46.19644" lon="4.48221">
        <ele>898.5</ele>
        <time>2025-07-16T10:20:09Z</time>
      </trkpt>
      <trkpt lat="46.19649" lon="4.48217">
        <ele>898.8</ele>
        <time>2025-07-16T10:20:11Z</time>
      </trkpt>
      <trkpt lat="46.19664" lon="4.48206">
        <ele>899.7</ele>
        <time>2025-07-16T10:20:18Z</time>
      </trkpt>
      <trkpt lat="46.19679" lon="4.48195">
        <ele>900.7</ele>
        <time>2025-07-16T10:20:25Z</time>
      </trkpt>
      <trkpt lat="46.19691" lon="4.48187">
        <ele>901.7</ele>
        <time>2025-07-16T10:20:32Z</time>
      </trkpt>
      <trkpt lat="46.19698" lon="4.48181">
        <ele>902.5</ele>
        <time>2025-07-16T10:20:37Z</time>
      </trkpt>
      <trkpt lat="46.19703" lon="4.48177">
        <ele>903.1</ele>
        <time>2025-07-16T10:20:43Z</time>
      </trkpt>
      <trkpt lat="46.19703" lon="4.48177">
        <ele>903.1</ele>
        <time>2025-07-16T10:20:51Z</time>
      </trkpt>
      <trkpt lat="46.1972" lon="4.48165">
        <ele>905.4</ele>
        <time>2025-07-16T10:20:59Z</time>
      </trkpt>
      <trkpt lat="46.1972" lon="4.48165">
        <ele>905.4</ele>
        <time>2025-07-16T10:21:08Z</time>
      </trkpt>
      <trkpt lat="46.19744" lon="4.48145">
        <ele>908.7</ele>
        <time>2025-07-16T10:21:16Z</time>
      </trkpt>
      <trkpt lat="46.1975" lon="4.48139">
        <ele>909.4</ele>
        <time>2025-07-16T10:21:22Z</time>
      </trkpt>
      <trkpt lat="46.19752" lon="4.48138">
        <ele>909.7</ele>
        <time>2025-07-16T10:21:27Z</time>
      </trkpt>
      <trkpt lat="46.19776" lon="4.48143">
        <ele>913.3</ele>
        <time>2025-07-16T10:21:32Z</time>
      </trkpt>
      <trkpt lat="46.19781" lon="4.4815">
        <ele>914</ele>
        <time>2025-07-16T10:21:37Z</time>
      </trkpt>
      <trkpt lat="46.19781" lon="4.4815">
        <ele>914</ele>
        <time>2025-07-16T10:21:43Z</time>
      </trkpt>
      <trkpt lat="46.19781" lon="4.4815">
        <ele>914</ele>
        <time>2025-07-16T10:21:49Z</time>
      </trkpt>
      <trkpt lat="46.19781" lon="4.4815">
        <ele>914</ele>
        <time>2025-07-16T10:22:02Z</time>
      </trkpt>
      <trkpt lat="46.19788" lon="4.48161">
        <ele>915.1</ele>
        <time>2025-07-16T10:22:16Z</time>
      </trkpt>
      <trkpt lat="46.19796" lon="4.48169">
        <ele>916.3</ele>
        <time>2025-07-16T10:22:23Z</time>
      </trkpt>
      <trkpt lat="46.1981" lon="4.48181">
        <ele>918.2</ele>
        <time>2025-07-16T10:22:32Z</time>
      </trkpt>
      <trkpt lat="46.19815" lon="4.48186">
        <ele>919</ele>
        <time>2025-07-16T10:22:39Z</time>
      </trkpt>
      <trkpt lat="46.19826" lon="4.48196">
        <ele>920.8</ele>
        <time>2025-07-16T10:22:47Z</time>
      </trkpt>
      <trkpt lat="46.19827" lon="4.48198">
        <ele>921</ele>
        <time>2025-07-16T10:22:48Z</time>
      </trkpt>
      <trkpt lat="46.19833" lon="4.48203">
        <ele>922</ele>
        <time>2025-07-16T10:22:54Z</time>
      </trkpt>
      <trkpt lat="46.19835" lon="4.48205">
        <ele>922.3</ele>
        <time>2025-07-16T10:23:00Z</time>
      </trkpt>
      <trkpt lat="46.1984" lon="4.48209">
        <ele>923.1</ele>
        <time>2025-07-16T10:23:07Z</time>
      </trkpt>
      <trkpt lat="46.1984" lon="4.48209">
        <ele>923.1</ele>
        <time>2025-07-16T10:23:15Z</time>
      </trkpt>
      <trkpt lat="46.19852" lon="4.4822">
        <ele>925.3</ele>
        <time>2025-07-16T10:23:21Z</time>
      </trkpt>
      <trkpt lat="46.19852" lon="4.4822">
        <ele>925.3</ele>
        <time>2025-07-16T10:23:29Z</time>
      </trkpt>
      <trkpt lat="46.19864" lon="4.48231">
        <ele>927.6</ele>
        <time>2025-07-16T10:23:37Z</time>
      </trkpt>
      <trkpt lat="46.19864" lon="4.48231">
        <ele>927.6</ele>
        <time>2025-07-16T10:23:45Z</time>
      </trkpt>
      <trkpt lat="46.1988" lon="4.48247">
        <ele>930.7</ele>
        <time>2025-07-16T10:23:53Z</time>
      </trkpt>
      <trkpt lat="46.1988" lon="4.48247">
        <ele>930.7</ele>
        <time>2025-07-16T10:24:00Z</time>
      </trkpt>
      <trkpt lat="46.1988" lon="4.48247">
        <ele>930.7</ele>
        <time>2025-07-16T10:24:08Z</time>
      </trkpt>
      <trkpt lat="46.19898" lon="4.48263">
        <ele>933.9</ele>
        <time>2025-07-16T10:24:14Z</time>
      </trkpt>
      <trkpt lat="46.19898" lon="4.48263">
        <ele>933.9</ele>
        <time>2025-07-16T10:24:22Z</time>
      </trkpt>
      <trkpt lat="46.19906" lon="4.48271">
        <ele>935.2</ele>
        <time>2025-07-16T10:24:28Z</time>
      </trkpt>
      <trkpt lat="46.19911" lon="4.48279">
        <ele>936.1</ele>
        <time>2025-07-16T10:24:34Z</time>
      </trkpt>
      <trkpt lat="46.19911" lon="4.48279">
        <ele>936.1</ele>
        <time>2025-07-16T10:24:40Z</time>
      </trkpt>
      <trkpt lat="46.19911" lon="4.48279">
        <ele>936.1</ele>
        <time>2025-07-16T10:24:51Z</time>
      </trkpt>
      <trkpt lat="46.19911" lon="4.48279">
        <ele>936.1</ele>
        <time>2025-07-16T10:24:59Z</time>
      </trkpt>
      <trkpt lat="46.19918" lon="4.48298">
        <ele>938</ele>
        <time>2025-07-16T10:25:07Z</time>
      </trkpt>
      <trkpt lat="46.19921" lon="4.48305">
        <ele>938.7</ele>
        <time>2025-07-16T10:25:10Z</time>
      </trkpt>
      <trkpt lat="46.19922" lon="4.48308">
        <ele>939</ele>
        <time>2025-07-16T10:25:13Z</time>
      </trkpt>
      <trkpt lat="46.19928" lon="4.48321">
        <ele>940.3</ele>
        <time>2025-07-16T10:25:20Z</time>
      </trkpt>
      <trkpt lat="46.19934" lon="4.48336">
        <ele>941.6</ele>
        <time>2025-07-16T10:25:28Z</time>
      </trkpt>
      <trkpt lat="46.1994" lon="4.48349">
        <ele>942.7</ele>
        <time>2025-07-16T10:25:35Z</time>
      </trkpt>
      <trkpt lat="46.19946" lon="4.48365">
        <ele>943.9</ele>
        <time>2025-07-16T10:25:42Z</time>
      </trkpt>
      <trkpt lat="46.19951" lon="4.48376">
        <ele>944.6</ele>
        <time>2025-07-16T10:25:47Z</time>
      </trkpt>
      <trkpt lat="46.19953" lon="4.48381">
        <ele>944.9</ele>
        <time>2025-07-16T10:25:49Z</time>
      </trkpt>
      <trkpt lat="46.19959" lon="4.48396">
        <ele>946</ele>
        <time>2025-07-16T10:25:57Z</time>
      </trkpt>
      <trkpt lat="46.1996" lon="4.48398">
        <ele>946.2</ele>
        <time>2025-07-16T10:25:58Z</time>
      </trkpt>
      <trkpt lat="46.19964" lon="4.48407">
        <ele>946.9</ele>
        <time>2025-07-16T10:26:04Z</time>
      </trkpt>
      <trkpt lat="46.19964" lon="4.48407">
        <ele>946.9</ele>
        <time>2025-07-16T10:26:12Z</time>
      </trkpt>
      <trkpt lat="46.1997" lon="4.48423">
        <ele>948.2</ele>
        <time>2025-07-16T10:26:20Z</time>
      </trkpt>
      <trkpt lat="46.19974" lon="4.48432">
        <ele>949.1</ele>
        <time>2025-07-16T10:26:27Z</time>
      </trkpt>
      <trkpt lat="46.19977" lon="4.48439">
        <ele>949.8</ele>
        <time>2025-07-16T10:26:34Z</time>
      </trkpt>
      <trkpt lat="46.19977" lon="4.48439">
        <ele>949.8</ele>
        <time>2025-07-16T10:26:44Z</time>
      </trkpt>
      <trkpt lat="46.19982" lon="4.48466">
        <ele>952.4</ele>
        <time>2025-07-16T10:26:51Z</time>
      </trkpt>
      <trkpt lat="46.19984" lon="4.48475">
        <ele>953.4</ele>
        <time>2025-07-16T10:26:59Z</time>
      </trkpt>
      <trkpt lat="46.19984" lon="4.48475">
        <ele>953.4</ele>
        <time>2025-07-16T10:27:06Z</time>
      </trkpt>
      <trkpt lat="46.19988" lon="4.4849">
        <ele>954.9</ele>
        <time>2025-07-16T10:27:13Z</time>
      </trkpt>
      <trkpt lat="46.19988" lon="4.4849">
        <ele>954.9</ele>
        <time>2025-07-16T10:27:23Z</time>
      </trkpt>
      <trkpt lat="46.1999" lon="4.48504">
        <ele>956.1</ele>
        <time>2025-07-16T10:27:30Z</time>
      </trkpt>
      <trkpt lat="46.19993" lon="4.48516">
        <ele>957</ele>
        <time>2025-07-16T10:27:37Z</time>
      </trkpt>
      <trkpt lat="46.19996" lon="4.48528">
        <ele>957.7</ele>
        <time>2025-07-16T10:27:45Z</time>
      </trkpt>
      <trkpt lat="46.20005" lon="4.4854">
        <ele>958.5</ele>
        <time>2025-07-16T10:27:51Z</time>
      </trkpt>
      <trkpt lat="46.20006" lon="4.48542">
        <ele>958.6</ele>
        <time>2025-07-16T10:27:52Z</time>
      </trkpt>
      <trkpt lat="46.20017" lon="4.48557">
        <ele>959.1</ele>
        <time>2025-07-16T10:28:00Z</time>
      </trkpt>
      <trkpt lat="46.20032" lon="4.48577">
        <ele>959.2</ele>
        <time>2025-07-16T10:28:07Z</time>
      </trkpt>
      <trkpt lat="46.20045" lon="4.48595">
        <ele>959.2</ele>
        <time>2025-07-16T10:28:13Z</time>
      </trkpt>
      <trkpt lat="46.20064" lon="4.48606">
        <ele>959.3</ele>
        <time>2025-07-16T10:28:18Z</time>
      </trkpt>
      <trkpt lat="46.2009" lon="4.48612">
        <ele>959.7</ele>
        <time>2025-07-16T10:28:24Z</time>
      </trkpt>
      <trkpt lat="46.20107" lon="4.48603">
        <ele>960.5</ele>
        <time>2025-07-16T10:28:29Z</time>
      </trkpt>
      <trkpt lat="46.20124" lon="4.48589">
        <ele>961.8</ele>
        <time>2025-07-16T10:28:35Z</time>
      </trkpt>
      <trkpt lat="46.20144" lon="4.48571">
        <ele>963.6</ele>
        <time>2025-07-16T10:28:42Z</time>
      </trkpt>
      <trkpt lat="46.20155" lon="4.48563">
        <ele>964.4</ele>
        <time>2025-07-16T10:28:48Z</time>
      </trkpt>
      <trkpt lat="46.20161" lon="4.48562">
        <ele>964.7</ele>
        <time>2025-07-16T10:28:55Z</time>
      </trkpt>
      <trkpt lat="46.20182" lon="4.48558">
        <ele>965.7</ele>
        <time>2025-07-16T10:29:02Z</time>
      </trkpt>
      <trkpt lat="46.2019" lon="4.48556">
        <ele>965.8</ele>
        <time>2025-07-16T10:29:07Z</time>
      </trkpt>
      <trkpt lat="46.2019" lon="4.48556">
        <ele>965.8</ele>
        <time>2025-07-16T10:29:19Z</time>
      </trkpt>
      <trkpt lat="46.2019" lon="4.48556">
        <ele>965.8</ele>
        <time>2025-07-16T10:29:35Z</time>
      </trkpt>
      <trkpt lat="46.2019" lon="4.48556">
        <ele>965.8</ele>
        <time>2025-07-16T10:29:51Z</time>
      </trkpt>
      <trkpt lat="46.2019" lon="4.48556">
        <ele>965.8</ele>
        <time>2025-07-16T10:30:01Z</time>
      </trkpt>
      <trkpt lat="46.2019" lon="4.48556">
        <ele>965.8</ele>
        <time>2025-07-16T10:30:13Z</time>
      </trkpt>
      <trkpt lat="46.2019" lon="4.48556">
        <ele>965.8</ele>
        <time>2025-07-16T10:30:28Z</time>
      </trkpt>
      <trkpt lat="46.20199" lon="4.48554">
        <ele>965.7</ele>
        <time>2025-07-16T10:30:37Z</time>
      </trkpt>
      <trkpt lat="46.20218" lon="4.4855">
        <ele>964.7</ele>
        <time>2025-07-16T10:30:43Z</time>
      </trkpt>
      <trkpt lat="46.20245" lon="4.48557">
        <ele>962.7</ele>
        <time>2025-07-16T10:30:49Z</time>
      </trkpt>
      <trkpt lat="46.2025" lon="4.48558">
        <ele>962.4</ele>
        <time>2025-07-16T10:30:50Z</time>
      </trkpt>
      <trkpt lat="46.20267" lon="4.48563">
        <ele>961.4</ele>
        <time>2025-07-16T10:30:54Z</time>
      </trkpt>
      <trkpt lat="46.20284" lon="4.4857">
        <ele>960.3</ele>
        <time>2025-07-16T10:30:58Z</time>
      </trkpt>
      <trkpt lat="46.20288" lon="4.48572">
        <ele>960.1</ele>
        <time>2025-07-16T10:30:59Z</time>
      </trkpt>
      <trkpt lat="46.20303" lon="4.4858">
        <ele>959.2</ele>
        <time>2025-07-16T10:31:03Z</time>
      </trkpt>
      <trkpt lat="46.20324" lon="4.48592">
        <ele>957.7</ele>
        <time>2025-07-16T10:31:09Z</time>
      </trkpt>
      <trkpt lat="46.20341" lon="4.48602">
        <ele>956.2</ele>
        <time>2025-07-16T10:31:14Z</time>
      </trkpt>
      <trkpt lat="46.20358" lon="4.48611">
        <ele>954.4</ele>
        <time>2025-07-16T10:31:19Z</time>
      </trkpt>
      <trkpt lat="46.20381" lon="4.48623">
        <ele>952</ele>
        <time>2025-07-16T10:31:24Z</time>
      </trkpt>
      <trkpt lat="46.20417" lon="4.4864">
        <ele>949.5</ele>
        <time>2025-07-16T10:31:31Z</time>
      </trkpt>
      <trkpt lat="46.20454" lon="4.48643">
        <ele>948.4</ele>
        <time>2025-07-16T10:31:38Z</time>
      </trkpt>
      <trkpt lat="46.20471" lon="4.48632">
        <ele>948.2</ele>
        <time>2025-07-16T10:31:41Z</time>
      </trkpt>
      <trkpt lat="46.20479" lon="4.48624">
        <ele>948.1</ele>
        <time>2025-07-16T10:31:43Z</time>
      </trkpt>
      <trkpt lat="46.20491" lon="4.4861">
        <ele>948.3</ele>
        <time>2025-07-16T10:31:47Z</time>
      </trkpt>
      <trkpt lat="46.20502" lon="4.48598">
        <ele>948.6</ele>
        <time>2025-07-16T10:31:52Z</time>
      </trkpt>
      <trkpt lat="46.20517" lon="4.48582">
        <ele>949</ele>
        <time>2025-07-16T10:31:59Z</time>
      </trkpt>
      <trkpt lat="46.20533" lon="4.48564">
        <ele>949.4</ele>
        <time>2025-07-16T10:32:05Z</time>
      </trkpt>
      <trkpt lat="46.20552" lon="4.48542">
        <ele>949.4</ele>
        <time>2025-07-16T10:32:12Z</time>
      </trkpt>
      <trkpt lat="46.20563" lon="4.48531">
        <ele>949.3</ele>
        <time>2025-07-16T10:32:17Z</time>
      </trkpt>
      <trkpt lat="46.20577" lon="4.48516">
        <ele>948.8</ele>
        <time>2025-07-16T10:32:22Z</time>
      </trkpt>
      <trkpt lat="46.20594" lon="4.48497">
        <ele>947.9</ele>
        <time>2025-07-16T10:32:27Z</time>
      </trkpt>
      <trkpt lat="46.20614" lon="4.48474">
        <ele>946.6</ele>
        <time>2025-07-16T10:32:33Z</time>
      </trkpt>
      <trkpt lat="46.20631" lon="4.48456">
        <ele>945.6</ele>
        <time>2025-07-16T10:32:38Z</time>
      </trkpt>
      <trkpt lat="46.20643" lon="4.48442">
        <ele>944.9</ele>
        <time>2025-07-16T10:32:42Z</time>
      </trkpt>
      <trkpt lat="46.20657" lon="4.48427">
        <ele>944.5</ele>
        <time>2025-07-16T10:32:47Z</time>
      </trkpt>
      <trkpt lat="46.20665" lon="4.48418">
        <ele>944.5</ele>
        <time>2025-07-16T10:32:52Z</time>
      </trkpt>
      <trkpt lat="46.20672" lon="4.48411">
        <ele>944.1</ele>
        <time>2025-07-16T10:32:57Z</time>
      </trkpt>
      <trkpt lat="46.20675" lon="4.48409">
        <ele>944</ele>
        <time>2025-07-16T10:32:59Z</time>
      </trkpt>
      <trkpt lat="46.2068" lon="4.48403">
        <ele>943.8</ele>
        <time>2025-07-16T10:33:02Z</time>
      </trkpt>
      <trkpt lat="46.20686" lon="4.48398">
        <ele>943.7</ele>
        <time>2025-07-16T10:33:04Z</time>
      </trkpt>
      <trkpt lat="46.20702" lon="4.48381">
        <ele>943.4</ele>
        <time>2025-07-16T10:33:11Z</time>
      </trkpt>
      <trkpt lat="46.20711" lon="4.48372">
        <ele>943.3</ele>
        <time>2025-07-16T10:33:17Z</time>
      </trkpt>
      <trkpt lat="46.20719" lon="4.48365">
        <ele>943.3</ele>
        <time>2025-07-16T10:33:22Z</time>
      </trkpt>
      <trkpt lat="46.20722" lon="4.48361">
        <ele>943.3</ele>
        <time>2025-07-16T10:33:25Z</time>
      </trkpt>
      <trkpt lat="46.20728" lon="4.48355">
        <ele>943.3</ele>
        <time>2025-07-16T10:33:28Z</time>
      </trkpt>
      <trkpt lat="46.20734" lon="4.4835">
        <ele>943.2</ele>
        <time>2025-07-16T10:33:33Z</time>
      </trkpt>
      <trkpt lat="46.20743" lon="4.4834">
        <ele>942.9</ele>
        <time>2025-07-16T10:33:40Z</time>
      </trkpt>
      <trkpt lat="46.20746" lon="4.48337">
        <ele>942.8</ele>
        <time>2025-07-16T10:33:45Z</time>
      </trkpt>
      <trkpt lat="46.20746" lon="4.48337">
        <ele>942.8</ele>
        <time>2025-07-16T10:33:51Z</time>
      </trkpt>
      <trkpt lat="46.20751" lon="4.48332">
        <ele>942.6</ele>
        <time>2025-07-16T10:33:53Z</time>
      </trkpt>
      <trkpt lat="46.20753" lon="4.4833">
        <ele>942.5</ele>
        <time>2025-07-16T10:33:56Z</time>
      </trkpt>
      <trkpt lat="46.20753" lon="4.4833">
        <ele>942.5</ele>
        <time>2025-07-16T10:34:01Z</time>
      </trkpt>
      <trkpt lat="46.20753" lon="4.4833">
        <ele>942.5</ele>
        <time>2025-07-16T10:34:14Z</time>
      </trkpt>
      <trkpt lat="46.20753" lon="4.4833">
        <ele>942.5</ele>
        <time>2025-07-16T10:34:21Z</time>
      </trkpt>
      <trkpt lat="46.20753" lon="4.4833">
        <ele>942.5</ele>
        <time>2025-07-16T10:34:32Z</time>
      </trkpt>
      <trkpt lat="46.20753" lon="4.4833">
        <ele>942.5</ele>
        <time>2025-07-16T10:34:43Z</time>
      </trkpt>
      <trkpt lat="46.20753" lon="4.4833">
        <ele>942.5</ele>
        <time>2025-07-16T10:35:00Z</time>
      </trkpt>
      <trkpt lat="46.20753" lon="4.4833">
        <ele>942.5</ele>
        <time>2025-07-16T10:35:13Z</time>
      </trkpt>
      <trkpt lat="46.20753" lon="4.4833">
        <ele>942.5</ele>
        <time>2025-07-16T10:35:25Z</time>
      </trkpt>
      <trkpt lat="46.20753" lon="4.4833">
        <ele>942.5</ele>
        <time>2025-07-16T10:35:31Z</time>
      </trkpt>
      <trkpt lat="46.20767" lon="4.48317">
        <ele>941.4</ele>
        <time>2025-07-16T10:35:35Z</time>
      </trkpt>
      <trkpt lat="46.2078" lon="4.48311">
        <ele>940.4</ele>
        <time>2025-07-16T10:35:40Z</time>
      </trkpt>
      <trkpt lat="46.20801" lon="4.48303">
        <ele>938.5</ele>
        <time>2025-07-16T10:35:45Z</time>
      </trkpt>
      <trkpt lat="46.20816" lon="4.48304">
        <ele>937.4</ele>
        <time>2025-07-16T10:35:50Z</time>
      </trkpt>
      <trkpt lat="46.2083" lon="4.48317">
        <ele>936.3</ele>
        <time>2025-07-16T10:35:54Z</time>
      </trkpt>
      <trkpt lat="46.20834" lon="4.48329">
        <ele>938.5</ele>
        <time>2025-07-16T10:35:58Z</time>
      </trkpt>
      <trkpt lat="46.20838" lon="4.48341">
        <ele>940.3</ele>
        <time>2025-07-16T10:35:59Z</time>
      </trkpt>
      <trkpt lat="46.20843" lon="4.48354">
        <ele>942.8</ele>
        <time>2025-07-16T10:36:02Z</time>
      </trkpt>
      <trkpt lat="46.20847" lon="4.48366">
        <ele>944.2</ele>
        <time>2025-07-16T10:36:03Z</time>
      </trkpt>
      <trkpt lat="46.20851" lon="4.48379">
        <ele>946.8</ele>
        <time>2025-07-16T10:36:09Z</time>
      </trkpt>
      <trkpt lat="46.20855" lon="4.48391">
        <ele>949</ele>
        <time>2025-07-16T10:36:17Z</time>
      </trkpt>
      <trkpt lat="46.2086" lon="4.48403">
        <ele>950.7</ele>
        <time>2025-07-16T10:36:24Z</time>
      </trkpt>
      <trkpt lat="46.20864" lon="4.48416">
        <ele>952.8</ele>
        <time>2025-07-16T10:36:31Z</time>
      </trkpt>
      <trkpt lat="46.20868" lon="4.48428">
        <ele>953.9</ele>
        <time>2025-07-16T10:36:34Z</time>
      </trkpt>
      <trkpt lat="46.2089" lon="4.48546">
        <ele>966.7</ele>
        <time>2025-07-16T10:36:37Z</time>
      </trkpt>
      <trkpt lat="46.20891" lon="4.48553">
        <ele>967.8</ele>
        <time>2025-07-16T10:36:43Z</time>
      </trkpt>
      <trkpt lat="46.20893" lon="4.48561">
        <ele>969</ele>
        <time>2025-07-16T10:36:50Z</time>
      </trkpt>
      <trkpt lat="46.20894" lon="4.48568">
        <ele>970.1</ele>
        <time>2025-07-16T10:36:56Z</time>
      </trkpt>
      <trkpt lat="46.20896" lon="4.48576">
        <ele>971.3</ele>
        <time>2025-07-16T10:37:03Z</time>
      </trkpt>
      <trkpt lat="46.20899" lon="4.48585">
        <ele>972.6</ele>
        <time>2025-07-16T10:37:09Z</time>
      </trkpt>
      <trkpt lat="46.20899" lon="4.48592">
        <ele>973.6</ele>
        <time>2025-07-16T10:37:14Z</time>
      </trkpt>
      <trkpt lat="46.209" lon="4.48599">
        <ele>974.5</ele>
        <time>2025-07-16T10:37:19Z</time>
      </trkpt>
      <trkpt lat="46.20898" lon="4.48603">
        <ele>975</ele>
        <time>2025-07-16T10:37:24Z</time>
      </trkpt>
      <trkpt lat="46.20897" lon="4.48608">
        <ele>975.8</ele>
        <time>2025-07-16T10:37:30Z</time>
      </trkpt>
      <trkpt lat="46.20897" lon="4.48615">
        <ele>976.7</ele>
        <time>2025-07-16T10:37:35Z</time>
      </trkpt>
      <trkpt lat="46.20894" lon="4.48621">
        <ele>977.6</ele>
        <time>2025-07-16T10:37:40Z</time>
      </trkpt>
      <trkpt lat="46.20893" lon="4.4863">
        <ele>978.6</ele>
        <time>2025-07-16T10:37:46Z</time>
      </trkpt>
      <trkpt lat="46.20892" lon="4.4864">
        <ele>979.5</ele>
        <time>2025-07-16T10:37:54Z</time>
      </trkpt>
      <trkpt lat="46.20894" lon="4.48644">
        <ele>980.1</ele>
        <time>2025-07-16T10:38:01Z</time>
      </trkpt>
      <trkpt lat="46.20895" lon="4.48644">
        <ele>980.2</ele>
        <time>2025-07-16T10:38:06Z</time>
      </trkpt>
      <trkpt lat="46.20895" lon="4.48644">
        <ele>980.2</ele>
        <time>2025-07-16T10:38:22Z</time>
      </trkpt>
      <trkpt lat="46.20895" lon="4.48644">
        <ele>980.2</ele>
        <time>2025-07-16T10:38:39Z</time>
      </trkpt>
      <trkpt lat="46.20895" lon="4.48643">
        <ele>980.3</ele>
        <time>2025-07-16T10:38:50Z</time>
      </trkpt>
      <trkpt lat="46.20895" lon="4.48643">
        <ele>980.3</ele>
        <time>2025-07-16T10:39:04Z</time>
      </trkpt>
      <trkpt lat="46.20895" lon="4.48646">
        <ele>980.6</ele>
        <time>2025-07-16T10:39:12Z</time>
      </trkpt>
      <trkpt lat="46.20894" lon="4.48659">
        <ele>981.8</ele>
        <time>2025-07-16T10:39:19Z</time>
      </trkpt>
      <trkpt lat="46.20895" lon="4.48668">
        <ele>982.6</ele>
        <time>2025-07-16T10:39:25Z</time>
      </trkpt>
      <trkpt lat="46.20895" lon="4.48679">
        <ele>983.7</ele>
        <time>2025-07-16T10:39:32Z</time>
      </trkpt>
      <trkpt lat="46.20896" lon="4.48681">
        <ele>983.9</ele>
        <time>2025-07-16T10:39:33Z</time>
      </trkpt>
      <trkpt lat="46.20897" lon="4.48687">
        <ele>984.6</ele>
        <time>2025-07-16T10:39:36Z</time>
      </trkpt>
      <trkpt lat="46.20896" lon="4.48694">
        <ele>985.3</ele>
        <time>2025-07-16T10:39:42Z</time>
      </trkpt>
      <trkpt lat="46.20894" lon="4.48701">
        <ele>986.2</ele>
        <time>2025-07-16T10:39:49Z</time>
      </trkpt>
      <trkpt lat="46.20893" lon="4.48709">
        <ele>987.2</ele>
        <time>2025-07-16T10:39:55Z</time>
      </trkpt>
      <trkpt lat="46.2089" lon="4.48718">
        <ele>988.4</ele>
        <time>2025-07-16T10:40:02Z</time>
      </trkpt>
      <trkpt lat="46.20887" lon="4.48724">
        <ele>989.3</ele>
        <time>2025-07-16T10:40:09Z</time>
      </trkpt>
      <trkpt lat="46.20886" lon="4.48731">
        <ele>990.1</ele>
        <time>2025-07-16T10:40:15Z</time>
      </trkpt>
      <trkpt lat="46.20882" lon="4.48735">
        <ele>991</ele>
        <time>2025-07-16T10:40:21Z</time>
      </trkpt>
      <trkpt lat="46.20882" lon="4.48735">
        <ele>991</ele>
        <time>2025-07-16T10:40:35Z</time>
      </trkpt>
      <trkpt lat="46.20882" lon="4.48735">
        <ele>991</ele>
        <time>2025-07-16T10:40:44Z</time>
      </trkpt>
      <trkpt lat="46.20878" lon="4.48742">
        <ele>992.1</ele>
        <time>2025-07-16T10:40:50Z</time>
      </trkpt>
      <trkpt lat="46.20873" lon="4.48749">
        <ele>993.3</ele>
        <time>2025-07-16T10:40:58Z</time>
      </trkpt>
      <trkpt lat="46.20869" lon="4.48755">
        <ele>994.2</ele>
        <time>2025-07-16T10:41:05Z</time>
      </trkpt>
      <trkpt lat="46.20865" lon="4.4876">
        <ele>995</ele>
        <time>2025-07-16T10:41:12Z</time>
      </trkpt>
      <trkpt lat="46.20859" lon="4.48767">
        <ele>996.1</ele>
        <time>2025-07-16T10:41:19Z</time>
      </trkpt>
      <trkpt lat="46.20855" lon="4.48775">
        <ele>997.1</ele>
        <time>2025-07-16T10:41:25Z</time>
      </trkpt>
      <trkpt lat="46.20849" lon="4.48781">
        <ele>998.2</ele>
        <time>2025-07-16T10:41:32Z</time>
      </trkpt>
      <trkpt lat="46.20842" lon="4.48784">
        <ele>999.4</ele>
        <time>2025-07-16T10:41:39Z</time>
      </trkpt>
      <trkpt lat="46.20836" lon="4.48786">
        <ele>1000.4</ele>
        <time>2025-07-16T10:41:45Z</time>
      </trkpt>
      <trkpt lat="46.2083" lon="4.48788">
        <ele>1001.2</ele>
        <time>2025-07-16T10:41:52Z</time>
      </trkpt>
      <trkpt lat="46.20823" lon="4.4878">
        <ele>1002.1</ele>
        <time>2025-07-16T10:41:59Z</time>
      </trkpt>
      <trkpt lat="46.20823" lon="4.48779">
        <ele>1002.3</ele>
        <time>2025-07-16T10:42:04Z</time>
      </trkpt>
      <trkpt lat="46.20821" lon="4.48772">
        <ele>1002.7</ele>
        <time>2025-07-16T10:42:12Z</time>
      </trkpt>
      <trkpt lat="46.20822" lon="4.48765">
        <ele>1003.2</ele>
        <time>2025-07-16T10:42:17Z</time>
      </trkpt>
      <trkpt lat="46.20825" lon="4.48757">
        <ele>1003.7</ele>
        <time>2025-07-16T10:42:23Z</time>
      </trkpt>
      <trkpt lat="46.20827" lon="4.48749">
        <ele>1004.2</ele>
        <time>2025-07-16T10:42:30Z</time>
      </trkpt>
      <trkpt lat="46.20829" lon="4.48738">
        <ele>1004.7</ele>
        <time>2025-07-16T10:42:37Z</time>
      </trkpt>
      <trkpt lat="46.20829" lon="4.48735">
        <ele>1004.8</ele>
        <time>2025-07-16T10:42:39Z</time>
      </trkpt>
      <trkpt lat="46.20828" lon="4.48729">
        <ele>1005</ele>
        <time>2025-07-16T10:42:42Z</time>
      </trkpt>
      <trkpt lat="46.20827" lon="4.48719">
        <ele>1005.3</ele>
        <time>2025-07-16T10:42:48Z</time>
      </trkpt>
      <trkpt lat="46.20805" lon="4.48686">
        <ele>1006.8</ele>
        <time>2025-07-16T10:42:55Z</time>
      </trkpt>
      <trkpt lat="46.20805" lon="4.48686">
        <ele>1006.8</ele>
        <time>2025-07-16T10:43:01Z</time>
      </trkpt>
      <trkpt lat="46.20805" lon="4.48686">
        <ele>1006.8</ele>
        <time>2025-07-16T10:43:08Z</time>
      </trkpt>
      <trkpt lat="46.20805" lon="4.48686">
        <ele>1006.8</ele>
        <time>2025-07-16T10:43:13Z</time>
      </trkpt>
      <trkpt lat="46.20805" lon="4.48686">
        <ele>1006.8</ele>
        <time>2025-07-16T10:43:19Z</time>
      </trkpt>
      <trkpt lat="46.20804" lon="4.48685">
        <ele>1006.9</ele>
        <time>2025-07-16T10:43:26Z</time>
      </trkpt>
      <trkpt lat="46.20798" lon="4.4868">
        <ele>1007.3</ele>
        <time>2025-07-16T10:43:34Z</time>
      </trkpt>
      <trkpt lat="46.20798" lon="4.4868">
        <ele>1007.3</ele>
        <time>2025-07-16T10:43:40Z</time>
      </trkpt>
      <trkpt lat="46.20798" lon="4.4868">
        <ele>1007.3</ele>
        <time>2025-07-16T10:43:46Z</time>
      </trkpt>
      <trkpt lat="46.20798" lon="4.4868">
        <ele>1007.3</ele>
        <time>2025-07-16T10:43:50Z</time>
      </trkpt>
      <trkpt lat="46.20798" lon="4.4868">
        <ele>1007.3</ele>
        <time>2025-07-16T10:43:53Z</time>
      </trkpt>
      <trkpt lat="46.20798" lon="4.4868">
        <ele>1007.3</ele>
        <time>2025-07-16T10:44:00Z</time>
      </trkpt>
      <trkpt lat="46.20798" lon="4.4868">
        <ele>1007.3</ele>
        <time>2025-07-16T10:44:12Z</time>
      </trkpt>
      <trkpt lat="46.20798" lon="4.4868">
        <ele>1007.3</ele>
        <time>2025-07-16T10:44:28Z</time>
      </trkpt>
      <trkpt lat="46.20798" lon="4.4868">
        <ele>1007.3</ele>
        <time>2025-07-16T10:44:38Z</time>
      </trkpt>
      <trkpt lat="46.20798" lon="4.4868">
        <ele>1007.3</ele>
        <time>2025-07-16T10:44:49Z</time>
      </trkpt>
      <trkpt lat="46.20798" lon="4.4868">
        <ele>1007.3</ele>
        <time>2025-07-16T10:44:57Z</time>
      </trkpt>
      <trkpt lat="46.20798" lon="4.4868">
        <ele>1007.3</ele>
        <time>2025-07-16T10:45:05Z</time>
      </trkpt>
      <trkpt lat="46.20798" lon="4.4868">
        <ele>1007.3</ele>
        <time>2025-07-16T10:45:12Z</time>
      </trkpt>
      <trkpt lat="46.20798" lon="4.4868">
        <ele>1007.3</ele>
        <time>2025-07-16T10:45:20Z</time>
      </trkpt>
      <trkpt lat="46.20798" lon="4.4868">
        <ele>1007.3</ele>
        <time>2025-07-16T10:45:30Z</time>
      </trkpt>
      <trkpt lat="46.20798" lon="4.4868">
        <ele>1007.3</ele>
        <time>2025-07-16T10:45:41Z</time>
      </trkpt>
      <trkpt lat="46.20798" lon="4.4868">
        <ele>1007.3</ele>
        <time>2025-07-16T10:45:49Z</time>
      </trkpt>
      <trkpt lat="46.20798" lon="4.4868">
        <ele>1007.3</ele>
        <time>2025-07-16T10:45:58Z</time>
      </trkpt>
      <trkpt lat="46.20783" lon="4.4869">
        <ele>1008</ele>
        <time>2025-07-16T12:02:37Z</time>
      </trkpt>
      <trkpt lat="46.20783" lon="4.4869">
        <ele>1008</ele>
        <time>2025-07-16T12:02:47Z</time>
      </trkpt>
      <trkpt lat="46.20783" lon="4.4869">
        <ele>1008</ele>
        <time>2025-07-16T12:02:53Z</time>
      </trkpt>
      <trkpt lat="46.20791" lon="4.4868">
        <ele>1007.6</ele>
        <time>2025-07-16T12:02:59Z</time>
      </trkpt>
      <trkpt lat="46.20805" lon="4.48686">
        <ele>1007</ele>
        <time>2025-07-16T12:03:06Z</time>
      </trkpt>
      <trkpt lat="46.20805" lon="4.48686">
        <ele>1007</ele>
        <time>2025-07-16T12:03:12Z</time>
      </trkpt>
      <trkpt lat="46.20803" lon="4.48685">
        <ele>1006.9</ele>
        <time>2025-07-16T12:03:18Z</time>
      </trkpt>
      <trkpt lat="46.20802" lon="4.48684">
        <ele>1006.8</ele>
        <time>2025-07-16T12:03:22Z</time>
      </trkpt>
      <trkpt lat="46.20799" lon="4.48681">
        <ele>1006.6</ele>
        <time>2025-07-16T12:03:28Z</time>
      </trkpt>
      <trkpt lat="46.208" lon="4.48682">
        <ele>1006.6</ele>
        <time>2025-07-16T12:03:34Z</time>
      </trkpt>
      <trkpt lat="46.20804" lon="4.48686">
        <ele>1006.3</ele>
        <time>2025-07-16T12:03:39Z</time>
      </trkpt>
      <trkpt lat="46.20805" lon="4.48686">
        <ele>1006.3</ele>
        <time>2025-07-16T12:03:40Z</time>
      </trkpt>
      <trkpt lat="46.20831" lon="4.4871">
        <ele>1005.1</ele>
        <time>2025-07-16T12:03:46Z</time>
      </trkpt>
      <trkpt lat="46.20836" lon="4.48729">
        <ele>1004.5</ele>
        <time>2025-07-16T12:03:51Z</time>
      </trkpt>
      <trkpt lat="46.20837" lon="4.48739">
        <ele>1004.1</ele>
        <time>2025-07-16T12:03:55Z</time>
      </trkpt>
      <trkpt lat="46.20836" lon="4.4874">
        <ele>1004.1</ele>
        <time>2025-07-16T12:03:56Z</time>
      </trkpt>
      <trkpt lat="46.20831" lon="4.48752">
        <ele>1003.4</ele>
        <time>2025-07-16T12:04:01Z</time>
      </trkpt>
      <trkpt lat="46.20827" lon="4.48775">
        <ele>1002.1</ele>
        <time>2025-07-16T12:04:07Z</time>
      </trkpt>
      <trkpt lat="46.20828" lon="4.48782">
        <ele>1001.7</ele>
        <time>2025-07-16T12:04:09Z</time>
      </trkpt>
      <trkpt lat="46.20832" lon="4.48786">
        <ele>1001.2</ele>
        <time>2025-07-16T12:04:11Z</time>
      </trkpt>
      <trkpt lat="46.2083" lon="4.48787">
        <ele>1001</ele>
        <time>2025-07-16T12:04:16Z</time>
      </trkpt>
      <trkpt lat="46.2083" lon="4.48787">
        <ele>1001</ele>
        <time>2025-07-16T12:04:22Z</time>
      </trkpt>
      <trkpt lat="46.2083" lon="4.48787">
        <ele>1001</ele>
        <time>2025-07-16T12:04:29Z</time>
      </trkpt>
      <trkpt lat="46.2083" lon="4.48787">
        <ele>1001</ele>
        <time>2025-07-16T12:04:41Z</time>
      </trkpt>
      <trkpt lat="46.2083" lon="4.48787">
        <ele>1001</ele>
        <time>2025-07-16T12:04:50Z</time>
      </trkpt>
      <trkpt lat="46.2083" lon="4.48787">
        <ele>1001</ele>
        <time>2025-07-16T12:04:55Z</time>
      </trkpt>
      <trkpt lat="46.20859" lon="4.48768">
        <ele>996.1</ele>
        <time>2025-07-16T12:05:00Z</time>
      </trkpt>
      <trkpt lat="46.20865" lon="4.48757">
        <ele>994.7</ele>
        <time>2025-07-16T12:05:04Z</time>
      </trkpt>
      <trkpt lat="46.20868" lon="4.48753">
        <ele>994.2</ele>
        <time>2025-07-16T12:05:06Z</time>
      </trkpt>
      <trkpt lat="46.20876" lon="4.48743">
        <ele>992.4</ele>
        <time>2025-07-16T12:05:12Z</time>
      </trkpt>
      <trkpt lat="46.20887" lon="4.48733">
        <ele>990</ele>
        <time>2025-07-16T12:05:18Z</time>
      </trkpt>
      <trkpt lat="46.20891" lon="4.48722">
        <ele>988.3</ele>
        <time>2025-07-16T12:05:24Z</time>
      </trkpt>
      <trkpt lat="46.20896" lon="4.4871">
        <ele>986.7</ele>
        <time>2025-07-16T12:05:30Z</time>
      </trkpt>
      <trkpt lat="46.20898" lon="4.48698">
        <ele>985.3</ele>
        <time>2025-07-16T12:05:34Z</time>
      </trkpt>
      <trkpt lat="46.20899" lon="4.48692">
        <ele>984.6</ele>
        <time>2025-07-16T12:05:36Z</time>
      </trkpt>
      <trkpt lat="46.20901" lon="4.48679">
        <ele>983.1</ele>
        <time>2025-07-16T12:05:42Z</time>
      </trkpt>
      <trkpt lat="46.20902" lon="4.48663">
        <ele>981.6</ele>
        <time>2025-07-16T12:05:49Z</time>
      </trkpt>
      <trkpt lat="46.20903" lon="4.48645">
        <ele>979.9</ele>
        <time>2025-07-16T12:05:56Z</time>
      </trkpt>
      <trkpt lat="46.20901" lon="4.48638">
        <ele>979.2</ele>
        <time>2025-07-16T12:06:02Z</time>
      </trkpt>
      <trkpt lat="46.20901" lon="4.48638">
        <ele>979.2</ele>
        <time>2025-07-16T12:06:16Z</time>
      </trkpt>
      <trkpt lat="46.20901" lon="4.48638">
        <ele>979.2</ele>
        <time>2025-07-16T12:06:23Z</time>
      </trkpt>
      <trkpt lat="46.20904" lon="4.48626">
        <ele>977.9</ele>
        <time>2025-07-16T12:06:31Z</time>
      </trkpt>
      <trkpt lat="46.20904" lon="4.48605">
        <ele>975.2</ele>
        <time>2025-07-16T12:06:38Z</time>
      </trkpt>
      <trkpt lat="46.20905" lon="4.48601">
        <ele>974.5</ele>
        <time>2025-07-16T12:06:45Z</time>
      </trkpt>
      <trkpt lat="46.20905" lon="4.48598">
        <ele>974.3</ele>
        <time>2025-07-16T12:06:52Z</time>
      </trkpt>
      <trkpt lat="46.20905" lon="4.48598">
        <ele>974.3</ele>
        <time>2025-07-16T12:07:05Z</time>
      </trkpt>
      <trkpt lat="46.20905" lon="4.48598">
        <ele>974.3</ele>
        <time>2025-07-16T12:07:21Z</time>
      </trkpt>
      <trkpt lat="46.20905" lon="4.48598">
        <ele>974.2</ele>
        <time>2025-07-16T12:07:32Z</time>
      </trkpt>
      <trkpt lat="46.20905" lon="4.48594">
        <ele>973.7</ele>
        <time>2025-07-16T12:07:39Z</time>
      </trkpt>
      <trkpt lat="46.20903" lon="4.48575">
        <ele>971.4</ele>
        <time>2025-07-16T12:07:45Z</time>
      </trkpt>
      <trkpt lat="46.20902" lon="4.48562">
        <ele>969.8</ele>
        <time>2025-07-16T12:07:52Z</time>
      </trkpt>
      <trkpt lat="46.20899" lon="4.48544">
        <ele>967.2</ele>
        <time>2025-07-16T12:07:59Z</time>
      </trkpt>
      <trkpt lat="46.20894" lon="4.48529">
        <ele>965</ele>
        <time>2025-07-16T12:08:05Z</time>
      </trkpt>
      <trkpt lat="46.20892" lon="4.48525">
        <ele>964.5</ele>
        <time>2025-07-16T12:08:06Z</time>
      </trkpt>
      <trkpt lat="46.2089" lon="4.48511">
        <ele>962.8</ele>
        <time>2025-07-16T12:08:11Z</time>
      </trkpt>
      <trkpt lat="46.20889" lon="4.48509">
        <ele>962.6</ele>
        <time>2025-07-16T12:08:12Z</time>
      </trkpt>
      <trkpt lat="46.20886" lon="4.48479">
        <ele>959.3</ele>
        <time>2025-07-16T12:08:20Z</time>
      </trkpt>
      <trkpt lat="46.20882" lon="4.4848">
        <ele>959</ele>
        <time>2025-07-16T12:08:27Z</time>
      </trkpt>
      <trkpt lat="46.2088" lon="4.48481">
        <ele>958.8</ele>
        <time>2025-07-16T12:08:37Z</time>
      </trkpt>
      <trkpt lat="46.20876" lon="4.48482">
        <ele>958.5</ele>
        <time>2025-07-16T12:08:43Z</time>
      </trkpt>
      <trkpt lat="46.20873" lon="4.48483">
        <ele>958.3</ele>
        <time>2025-07-16T12:08:49Z</time>
      </trkpt>
      <trkpt lat="46.20873" lon="4.48483">
        <ele>958.3</ele>
        <time>2025-07-16T12:08:56Z</time>
      </trkpt>
      <trkpt lat="46.20841" lon="4.48445">
        <ele>958.8</ele>
        <time>2025-07-16T12:09:03Z</time>
      </trkpt>
      <trkpt lat="46.20833" lon="4.48438">
        <ele>959.2</ele>
        <time>2025-07-16T12:09:11Z</time>
      </trkpt>
      <trkpt lat="46.20828" lon="4.48436">
        <ele>959.5</ele>
        <time>2025-07-16T12:09:18Z</time>
      </trkpt>
      <trkpt lat="46.20815" lon="4.48431">
        <ele>960.1</ele>
        <time>2025-07-16T12:09:26Z</time>
      </trkpt>
      <trkpt lat="46.20803" lon="4.48424">
        <ele>960.3</ele>
        <time>2025-07-16T12:09:34Z</time>
      </trkpt>
      <trkpt lat="46.20789" lon="4.48417">
        <ele>959.9</ele>
        <time>2025-07-16T12:09:39Z</time>
      </trkpt>
      <trkpt lat="46.20775" lon="4.48419">
        <ele>958.9</ele>
        <time>2025-07-16T12:09:44Z</time>
      </trkpt>
      <trkpt lat="46.20768" lon="4.48424">
        <ele>958.1</ele>
        <time>2025-07-16T12:09:49Z</time>
      </trkpt>
      <trkpt lat="46.20765" lon="4.48427">
        <ele>957.7</ele>
        <time>2025-07-16T12:09:55Z</time>
      </trkpt>
      <trkpt lat="46.20749" lon="4.48421">
        <ele>955.5</ele>
        <time>2025-07-16T12:10:02Z</time>
      </trkpt>
      <trkpt lat="46.20735" lon="4.48419">
        <ele>953.5</ele>
        <time>2025-07-16T12:10:09Z</time>
      </trkpt>
      <trkpt lat="46.20731" lon="4.48419">
        <ele>952.9</ele>
        <time>2025-07-16T12:10:17Z</time>
      </trkpt>
      <trkpt lat="46.20725" lon="4.48427">
        <ele>951.8</ele>
        <time>2025-07-16T12:10:22Z</time>
      </trkpt>
      <trkpt lat="46.20705" lon="4.48439">
        <ele>949.5</ele>
        <time>2025-07-16T12:10:28Z</time>
      </trkpt>
      <trkpt lat="46.2069" lon="4.48442">
        <ele>947.8</ele>
        <time>2025-07-16T12:10:33Z</time>
      </trkpt>
      <trkpt lat="46.20673" lon="4.48433">
        <ele>945.9</ele>
        <time>2025-07-16T12:10:38Z</time>
      </trkpt>
      <trkpt lat="46.2067" lon="4.48428">
        <ele>945.4</ele>
        <time>2025-07-16T12:10:40Z</time>
      </trkpt>
      <trkpt lat="46.20666" lon="4.48417">
        <ele>944.5</ele>
        <time>2025-07-16T12:10:42Z</time>
      </trkpt>
      <trkpt lat="46.20676" lon="4.48407">
        <ele>944</ele>
        <time>2025-07-16T12:10:46Z</time>
      </trkpt>
      <trkpt lat="46.20679" lon="4.48404">
        <ele>943.8</ele>
        <time>2025-07-16T12:10:47Z</time>
      </trkpt>
      <trkpt lat="46.20693" lon="4.48391">
        <ele>943.5</ele>
        <time>2025-07-16T12:10:51Z</time>
      </trkpt>
      <trkpt lat="46.20718" lon="4.48365">
        <ele>943.3</ele>
        <time>2025-07-16T12:10:58Z</time>
      </trkpt>
      <trkpt lat="46.20748" lon="4.48335">
        <ele>942.7</ele>
        <time>2025-07-16T12:11:06Z</time>
      </trkpt>
      <trkpt lat="46.20767" lon="4.48318">
        <ele>941.3</ele>
        <time>2025-07-16T12:11:11Z</time>
      </trkpt>
      <trkpt lat="46.20777" lon="4.48312">
        <ele>940.5</ele>
        <time>2025-07-16T12:11:13Z</time>
      </trkpt>
      <trkpt lat="46.20798" lon="4.48303">
        <ele>938.5</ele>
        <time>2025-07-16T12:11:17Z</time>
      </trkpt>
      <trkpt lat="46.2083" lon="4.48304">
        <ele>936.4</ele>
        <time>2025-07-16T12:11:22Z</time>
      </trkpt>
      <trkpt lat="46.20837" lon="4.48307">
        <ele>935.9</ele>
        <time>2025-07-16T12:11:23Z</time>
      </trkpt>
      <trkpt lat="46.20857" lon="4.48315">
        <ele>934.6</ele>
        <time>2025-07-16T12:11:27Z</time>
      </trkpt>
      <trkpt lat="46.20881" lon="4.48325">
        <ele>933.2</ele>
        <time>2025-07-16T12:11:33Z</time>
      </trkpt>
      <trkpt lat="46.209" lon="4.48332">
        <ele>931.9</ele>
        <time>2025-07-16T12:11:38Z</time>
      </trkpt>
      <trkpt lat="46.20927" lon="4.48343">
        <ele>929.8</ele>
        <time>2025-07-16T12:11:45Z</time>
      </trkpt>
      <trkpt lat="46.20956" lon="4.48355">
        <ele>927.1</ele>
        <time>2025-07-16T12:11:52Z</time>
      </trkpt>
      <trkpt lat="46.20979" lon="4.4837">
        <ele>925</ele>
        <time>2025-07-16T12:11:57Z</time>
      </trkpt>
      <trkpt lat="46.21" lon="4.48385">
        <ele>923.3</ele>
        <time>2025-07-16T12:12:02Z</time>
      </trkpt>
      <trkpt lat="46.21005" lon="4.48389">
        <ele>923</ele>
        <time>2025-07-16T12:12:03Z</time>
      </trkpt>
      <trkpt lat="46.21029" lon="4.48406">
        <ele>921.1</ele>
        <time>2025-07-16T12:12:09Z</time>
      </trkpt>
      <trkpt lat="46.21049" lon="4.48412">
        <ele>919.1</ele>
        <time>2025-07-16T12:12:14Z</time>
      </trkpt>
      <trkpt lat="46.21071" lon="4.48416">
        <ele>916.4</ele>
        <time>2025-07-16T12:12:20Z</time>
      </trkpt>
      <trkpt lat="46.21082" lon="4.4841">
        <ele>914.5</ele>
        <time>2025-07-16T12:12:23Z</time>
      </trkpt>
      <trkpt lat="46.21092" lon="4.48405">
        <ele>913</ele>
        <time>2025-07-16T12:12:25Z</time>
      </trkpt>
      <trkpt lat="46.21103" lon="4.48399">
        <ele>911.4</ele>
        <time>2025-07-16T12:12:27Z</time>
      </trkpt>
      <trkpt lat="46.21117" lon="4.48386">
        <ele>909.5</ele>
        <time>2025-07-16T12:12:30Z</time>
      </trkpt>
      <trkpt lat="46.21144" lon="4.48368">
        <ele>906.5</ele>
        <time>2025-07-16T12:12:35Z</time>
      </trkpt>
      <trkpt lat="46.2115" lon="4.48365">
        <ele>906</ele>
        <time>2025-07-16T12:12:36Z</time>
      </trkpt>
      <trkpt lat="46.21194" lon="4.48349">
        <ele>904.1</ele>
        <time>2025-07-16T12:12:42Z</time>
      </trkpt>
      <trkpt lat="46.21208" lon="4.48344">
        <ele>903.6</ele>
        <time>2025-07-16T12:12:44Z</time>
      </trkpt>
      <trkpt lat="46.21222" lon="4.48339">
        <ele>903.3</ele>
        <time>2025-07-16T12:12:46Z</time>
      </trkpt>
      <trkpt lat="46.21229" lon="4.48336">
        <ele>903.2</ele>
        <time>2025-07-16T12:12:47Z</time>
      </trkpt>
      <trkpt lat="46.21246" lon="4.48329">
        <ele>903.1</ele>
        <time>2025-07-16T12:12:50Z</time>
      </trkpt>
      <trkpt lat="46.21265" lon="4.48314">
        <ele>903.2</ele>
        <time>2025-07-16T12:12:54Z</time>
      </trkpt>
      <trkpt lat="46.2127" lon="4.4831">
        <ele>903.2</ele>
        <time>2025-07-16T12:12:55Z</time>
      </trkpt>
      <trkpt lat="46.21298" lon="4.48289">
        <ele>903.8</ele>
        <time>2025-07-16T12:13:01Z</time>
      </trkpt>
      <trkpt lat="46.21316" lon="4.48275">
        <ele>904.5</ele>
        <time>2025-07-16T12:13:06Z</time>
      </trkpt>
      <trkpt lat="46.21338" lon="4.48258">
        <ele>904.3</ele>
        <time>2025-07-16T12:13:12Z</time>
      </trkpt>
      <trkpt lat="46.21371" lon="4.48219">
        <ele>902.8</ele>
        <time>2025-07-16T12:13:20Z</time>
      </trkpt>
      <trkpt lat="46.21387" lon="4.482">
        <ele>901.4</ele>
        <time>2025-07-16T12:13:25Z</time>
      </trkpt>
      <trkpt lat="46.2141" lon="4.48173">
        <ele>898</ele>
        <time>2025-07-16T12:13:33Z</time>
      </trkpt>
      <trkpt lat="46.21417" lon="4.48165">
        <ele>897.8</ele>
        <time>2025-07-16T12:13:35Z</time>
      </trkpt>
      <trkpt lat="46.21429" lon="4.48157">
        <ele>896.5</ele>
        <time>2025-07-16T12:13:38Z</time>
      </trkpt>
      <trkpt lat="46.21451" lon="4.48146">
        <ele>894</ele>
        <time>2025-07-16T12:13:43Z</time>
      </trkpt>
      <trkpt lat="46.21491" lon="4.48129">
        <ele>890.1</ele>
        <time>2025-07-16T12:13:49Z</time>
      </trkpt>
      <trkpt lat="46.21503" lon="4.48128">
        <ele>889.5</ele>
        <time>2025-07-16T12:13:51Z</time>
      </trkpt>
      <trkpt lat="46.21519" lon="4.48126">
        <ele>889.2</ele>
        <time>2025-07-16T12:13:54Z</time>
      </trkpt>
      <trkpt lat="46.21548" lon="4.48123">
        <ele>889.9</ele>
        <time>2025-07-16T12:13:59Z</time>
      </trkpt>
      <trkpt lat="46.2157" lon="4.4812">
        <ele>891</ele>
        <time>2025-07-16T12:14:04Z</time>
      </trkpt>
      <trkpt lat="46.21596" lon="4.48117">
        <ele>891.9</ele>
        <time>2025-07-16T12:14:10Z</time>
      </trkpt>
      <trkpt lat="46.21622" lon="4.48114">
        <ele>891.9</ele>
        <time>2025-07-16T12:14:16Z</time>
      </trkpt>
      <trkpt lat="46.21651" lon="4.48101">
        <ele>891</ele>
        <time>2025-07-16T12:14:23Z</time>
      </trkpt>
      <trkpt lat="46.21674" lon="4.48088">
        <ele>889.6</ele>
        <time>2025-07-16T12:14:30Z</time>
      </trkpt>
      <trkpt lat="46.21698" lon="4.48084">
        <ele>887.1</ele>
        <time>2025-07-16T12:14:36Z</time>
      </trkpt>
      <trkpt lat="46.21733" lon="4.48084">
        <ele>883.1</ele>
        <time>2025-07-16T12:14:42Z</time>
      </trkpt>
      <trkpt lat="46.21762" lon="4.48085">
        <ele>879.8</ele>
        <time>2025-07-16T12:14:47Z</time>
      </trkpt>
      <trkpt lat="46.21767" lon="4.48085">
        <ele>879.3</ele>
        <time>2025-07-16T12:14:48Z</time>
      </trkpt>
      <trkpt lat="46.21789" lon="4.48086">
        <ele>876.8</ele>
        <time>2025-07-16T12:14:52Z</time>
      </trkpt>
      <trkpt lat="46.21821" lon="4.48086">
        <ele>873.7</ele>
        <time>2025-07-16T12:14:58Z</time>
      </trkpt>
      <trkpt lat="46.2184" lon="4.48087">
        <ele>871.9</ele>
        <time>2025-07-16T12:15:02Z</time>
      </trkpt>
      <trkpt lat="46.2185" lon="4.48087">
        <ele>870.8</ele>
        <time>2025-07-16T12:15:04Z</time>
      </trkpt>
      <trkpt lat="46.21866" lon="4.48087">
        <ele>869.4</ele>
        <time>2025-07-16T12:15:07Z</time>
      </trkpt>
      <trkpt lat="46.21876" lon="4.48087">
        <ele>868.5</ele>
        <time>2025-07-16T12:15:09Z</time>
      </trkpt>
      <trkpt lat="46.21903" lon="4.48089">
        <ele>866.2</ele>
        <time>2025-07-16T12:15:14Z</time>
      </trkpt>
      <trkpt lat="46.21947" lon="4.48102">
        <ele>862.2</ele>
        <time>2025-07-16T12:15:22Z</time>
      </trkpt>
      <trkpt lat="46.21982" lon="4.48111">
        <ele>859.2</ele>
        <time>2025-07-16T12:15:28Z</time>
      </trkpt>
      <trkpt lat="46.22002" lon="4.48114">
        <ele>857.5</ele>
        <time>2025-07-16T12:15:32Z</time>
      </trkpt>
      <trkpt lat="46.22007" lon="4.48113">
        <ele>857</ele>
        <time>2025-07-16T12:15:33Z</time>
      </trkpt>
      <trkpt lat="46.22017" lon="4.48109">
        <ele>855.7</ele>
        <time>2025-07-16T12:15:35Z</time>
      </trkpt>
      <trkpt lat="46.22035" lon="4.48103">
        <ele>853.3</ele>
        <time>2025-07-16T12:15:38Z</time>
      </trkpt>
      <trkpt lat="46.22073" lon="4.48107">
        <ele>849.1</ele>
        <time>2025-07-16T12:15:44Z</time>
      </trkpt>
      <trkpt lat="46.22113" lon="4.48101">
        <ele>845.7</ele>
        <time>2025-07-16T12:15:50Z</time>
      </trkpt>
      <trkpt lat="46.22146" lon="4.48089">
        <ele>842.6</ele>
        <time>2025-07-16T12:15:56Z</time>
      </trkpt>
      <trkpt lat="46.2218" lon="4.48089">
        <ele>838.9</ele>
        <time>2025-07-16T12:16:02Z</time>
      </trkpt>
      <trkpt lat="46.22216" lon="4.48091">
        <ele>834.7</ele>
        <time>2025-07-16T12:16:08Z</time>
      </trkpt>
      <trkpt lat="46.22246" lon="4.48089">
        <ele>831.5</ele>
        <time>2025-07-16T12:16:13Z</time>
      </trkpt>
      <trkpt lat="46.22293" lon="4.48102">
        <ele>828.4</ele>
        <time>2025-07-16T12:16:20Z</time>
      </trkpt>
      <trkpt lat="46.22337" lon="4.4813">
        <ele>827.8</ele>
        <time>2025-07-16T12:16:27Z</time>
      </trkpt>
      <trkpt lat="46.22374" lon="4.4817">
        <ele>830.6</ele>
        <time>2025-07-16T12:16:34Z</time>
      </trkpt>
      <trkpt lat="46.22397" lon="4.48207">
        <ele>833.1</ele>
        <time>2025-07-16T12:16:40Z</time>
      </trkpt>
      <trkpt lat="46.2242" lon="4.48243">
        <ele>834</ele>
        <time>2025-07-16T12:16:47Z</time>
      </trkpt>
      <trkpt lat="46.22445" lon="4.48282">
        <ele>833.3</ele>
        <time>2025-07-16T12:16:55Z</time>
      </trkpt>
      <trkpt lat="46.22461" lon="4.48306">
        <ele>832.2</ele>
        <time>2025-07-16T12:17:00Z</time>
      </trkpt>
      <trkpt lat="46.22471" lon="4.48323">
        <ele>831.2</ele>
        <time>2025-07-16T12:17:04Z</time>
      </trkpt>
      <trkpt lat="46.22475" lon="4.48326">
        <ele>830.8</ele>
        <time>2025-07-16T12:17:05Z</time>
      </trkpt>
      <trkpt lat="46.22494" lon="4.48341">
        <ele>829.1</ele>
        <time>2025-07-16T12:17:10Z</time>
      </trkpt>
      <trkpt lat="46.22499" lon="4.48344">
        <ele>828.6</ele>
        <time>2025-07-16T12:17:11Z</time>
      </trkpt>
      <trkpt lat="46.22518" lon="4.48359">
        <ele>826.9</ele>
        <time>2025-07-16T12:17:15Z</time>
      </trkpt>
      <trkpt lat="46.22521" lon="4.48363">
        <ele>826.6</ele>
        <time>2025-07-16T12:17:16Z</time>
      </trkpt>
      <trkpt lat="46.22542" lon="4.48386">
        <ele>824.4</ele>
        <time>2025-07-16T12:17:22Z</time>
      </trkpt>
      <trkpt lat="46.22553" lon="4.48399">
        <ele>823.1</ele>
        <time>2025-07-16T12:17:27Z</time>
      </trkpt>
      <trkpt lat="46.22559" lon="4.48416">
        <ele>822</ele>
        <time>2025-07-16T12:17:31Z</time>
      </trkpt>
      <trkpt lat="46.22559" lon="4.48416">
        <ele>822</ele>
        <time>2025-07-16T12:17:41Z</time>
      </trkpt>
      <trkpt lat="46.22559" lon="4.48416">
        <ele>822</ele>
        <time>2025-07-16T12:18:01Z</time>
      </trkpt>
      <trkpt lat="46.22559" lon="4.48416">
        <ele>822</ele>
        <time>2025-07-16T12:18:10Z</time>
      </trkpt>
      <trkpt lat="46.22561" lon="4.48414">
        <ele>821.8</ele>
        <time>2025-07-16T12:18:14Z</time>
      </trkpt>
      <trkpt lat="46.22562" lon="4.48401">
        <ele>821.2</ele>
        <time>2025-07-16T12:18:16Z</time>
      </trkpt>
      <trkpt lat="46.22574" lon="4.48402">
        <ele>820.3</ele>
        <time>2025-07-16T12:18:21Z</time>
      </trkpt>
      <trkpt lat="46.22597" lon="4.48395">
        <ele>818.7</ele>
        <time>2025-07-16T12:18:27Z</time>
      </trkpt>
      <trkpt lat="46.22633" lon="4.48384">
        <ele>815.8</ele>
        <time>2025-07-16T12:18:35Z</time>
      </trkpt>
      <trkpt lat="46.22661" lon="4.48377">
        <ele>813</ele>
        <time>2025-07-16T12:18:41Z</time>
      </trkpt>
      <trkpt lat="46.22682" lon="4.48374">
        <ele>810.7</ele>
        <time>2025-07-16T12:18:47Z</time>
      </trkpt>
      <trkpt lat="46.22706" lon="4.48372">
        <ele>808.2</ele>
        <time>2025-07-16T12:18:52Z</time>
      </trkpt>
      <trkpt lat="46.22716" lon="4.48371">
        <ele>807.3</ele>
        <time>2025-07-16T12:18:54Z</time>
      </trkpt>
      <trkpt lat="46.22741" lon="4.48368">
        <ele>804.8</ele>
        <time>2025-07-16T12:18:58Z</time>
      </trkpt>
      <trkpt lat="46.22752" lon="4.48367">
        <ele>803.8</ele>
        <time>2025-07-16T12:19:00Z</time>
      </trkpt>
      <trkpt lat="46.22756" lon="4.48366">
        <ele>803.5</ele>
        <time>2025-07-16T12:19:01Z</time>
      </trkpt>
      <trkpt lat="46.22783" lon="4.48347">
        <ele>800.3</ele>
        <time>2025-07-16T12:19:09Z</time>
      </trkpt>
      <trkpt lat="46.228" lon="4.48336">
        <ele>798.2</ele>
        <time>2025-07-16T12:19:15Z</time>
      </trkpt>
      <trkpt lat="46.22817" lon="4.48324">
        <ele>795.5</ele>
        <time>2025-07-16T12:19:21Z</time>
      </trkpt>
      <trkpt lat="46.22851" lon="4.48308">
        <ele>789.8</ele>
        <time>2025-07-16T12:19:29Z</time>
      </trkpt>
      <trkpt lat="46.22876" lon="4.48307">
        <ele>785.8</ele>
        <time>2025-07-16T12:19:34Z</time>
      </trkpt>
      <trkpt lat="46.22911" lon="4.48318">
        <ele>780.7</ele>
        <time>2025-07-16T12:19:40Z</time>
      </trkpt>
      <trkpt lat="46.22944" lon="4.48329">
        <ele>776.4</ele>
        <time>2025-07-16T12:19:45Z</time>
      </trkpt>
      <trkpt lat="46.22979" lon="4.48344">
        <ele>773.5</ele>
        <time>2025-07-16T12:19:51Z</time>
      </trkpt>
      <trkpt lat="46.23001" lon="4.48353">
        <ele>772.2</ele>
        <time>2025-07-16T12:19:55Z</time>
      </trkpt>
      <trkpt lat="46.23038" lon="4.48363">
        <ele>769.8</ele>
        <time>2025-07-16T12:20:01Z</time>
      </trkpt>
      <trkpt lat="46.23044" lon="4.48364">
        <ele>769.4</ele>
        <time>2025-07-16T12:20:02Z</time>
      </trkpt>
      <trkpt lat="46.23062" lon="4.48367">
        <ele>768</ele>
        <time>2025-07-16T12:20:05Z</time>
      </trkpt>
      <trkpt lat="46.23098" lon="4.48373">
        <ele>765.6</ele>
        <time>2025-07-16T12:20:11Z</time>
      </trkpt>
      <trkpt lat="46.2311" lon="4.48374">
        <ele>764.9</ele>
        <time>2025-07-16T12:20:13Z</time>
      </trkpt>
      <trkpt lat="46.2312" lon="4.48382">
        <ele>764.2</ele>
        <time>2025-07-16T12:20:15Z</time>
      </trkpt>
      <trkpt lat="46.23124" lon="4.48388">
        <ele>763.8</ele>
        <time>2025-07-16T12:20:16Z</time>
      </trkpt>
      <trkpt lat="46.23132" lon="4.48399">
        <ele>762.9</ele>
        <time>2025-07-16T12:20:18Z</time>
      </trkpt>
      <trkpt lat="46.23143" lon="4.48414">
        <ele>761.4</ele>
        <time>2025-07-16T12:20:21Z</time>
      </trkpt>
      <trkpt lat="46.23166" lon="4.48447">
        <ele>757.6</ele>
        <time>2025-07-16T12:20:27Z</time>
      </trkpt>
      <trkpt lat="46.2317" lon="4.48452">
        <ele>757.1</ele>
        <time>2025-07-16T12:20:28Z</time>
      </trkpt>
      <trkpt lat="46.23177" lon="4.48463">
        <ele>755.9</ele>
        <time>2025-07-16T12:20:30Z</time>
      </trkpt>
      <trkpt lat="46.2318" lon="4.4847">
        <ele>755.2</ele>
        <time>2025-07-16T12:20:31Z</time>
      </trkpt>
      <trkpt lat="46.23182" lon="4.48476">
        <ele>754.7</ele>
        <time>2025-07-16T12:20:32Z</time>
      </trkpt>
      <trkpt lat="46.23187" lon="4.48498">
        <ele>752.7</ele>
        <time>2025-07-16T12:20:35Z</time>
      </trkpt>
      <trkpt lat="46.2319" lon="4.48539">
        <ele>749.5</ele>
        <time>2025-07-16T12:20:40Z</time>
      </trkpt>
      <trkpt lat="46.23191" lon="4.48594">
        <ele>745.7</ele>
        <time>2025-07-16T12:20:47Z</time>
      </trkpt>
      <trkpt lat="46.23188" lon="4.48613">
        <ele>744.2</ele>
        <time>2025-07-16T12:20:50Z</time>
      </trkpt>
      <trkpt lat="46.23187" lon="4.48625">
        <ele>743</ele>
        <time>2025-07-16T12:20:52Z</time>
      </trkpt>
      <trkpt lat="46.23198" lon="4.48653">
        <ele>740</ele>
        <time>2025-07-16T12:20:56Z</time>
      </trkpt>
      <trkpt lat="46.23217" lon="4.48696">
        <ele>737.2</ele>
        <time>2025-07-16T12:21:02Z</time>
      </trkpt>
      <trkpt lat="46.23227" lon="4.48739">
        <ele>732.7</ele>
        <time>2025-07-16T12:21:08Z</time>
      </trkpt>
      <trkpt lat="46.23233" lon="4.48781">
        <ele>728.1</ele>
        <time>2025-07-16T12:21:14Z</time>
      </trkpt>
      <trkpt lat="46.23234" lon="4.48787">
        <ele>727.4</ele>
        <time>2025-07-16T12:21:15Z</time>
      </trkpt>
      <trkpt lat="46.23233" lon="4.48802">
        <ele>725.8</ele>
        <time>2025-07-16T12:21:17Z</time>
      </trkpt>
      <trkpt lat="46.23231" lon="4.48804">
        <ele>725.4</ele>
        <time>2025-07-16T12:21:18Z</time>
      </trkpt>
      <trkpt lat="46.23231" lon="4.48804">
        <ele>725.4</ele>
        <time>2025-07-16T12:21:25Z</time>
      </trkpt>
      <trkpt lat="46.23231" lon="4.48804">
        <ele>725.4</ele>
        <time>2025-07-16T12:21:40Z</time>
      </trkpt>
      <trkpt lat="46.23231" lon="4.48804">
        <ele>725.4</ele>
        <time>2025-07-16T12:21:50Z</time>
      </trkpt>
      <trkpt lat="46.23231" lon="4.48804">
        <ele>725.4</ele>
        <time>2025-07-16T12:22:00Z</time>
      </trkpt>
      <trkpt lat="46.23231" lon="4.48804">
        <ele>725.4</ele>
        <time>2025-07-16T12:22:09Z</time>
      </trkpt>
      <trkpt lat="46.23231" lon="4.48804">
        <ele>725.4</ele>
        <time>2025-07-16T12:22:25Z</time>
      </trkpt>
      <trkpt lat="46.23231" lon="4.48804">
        <ele>725.4</ele>
        <time>2025-07-16T12:22:38Z</time>
      </trkpt>
      <trkpt lat="46.23231" lon="4.48804">
        <ele>725.4</ele>
        <time>2025-07-16T12:22:55Z</time>
      </trkpt>
      <trkpt lat="46.23231" lon="4.48804">
        <ele>725.4</ele>
        <time>2025-07-16T12:23:08Z</time>
      </trkpt>
      <trkpt lat="46.23231" lon="4.48804">
        <ele>725.4</ele>
        <time>2025-07-16T12:23:17Z</time>
      </trkpt>
      <trkpt lat="46.23231" lon="4.48804">
        <ele>725.4</ele>
        <time>2025-07-16T12:23:26Z</time>
      </trkpt>
      <trkpt lat="46.23231" lon="4.48804">
        <ele>725.4</ele>
        <time>2025-07-16T12:23:40Z</time>
      </trkpt>
      <trkpt lat="46.23229" lon="4.48807">
        <ele>725.1</ele>
        <time>2025-07-16T12:23:41Z</time>
      </trkpt>
      <trkpt lat="46.23236" lon="4.48798">
        <ele>725.6</ele>
        <time>2025-07-16T12:23:44Z</time>
      </trkpt>
      <trkpt lat="46.23251" lon="4.48794">
        <ele>726.5</ele>
        <time>2025-07-16T12:23:51Z</time>
      </trkpt>
      <trkpt lat="46.23272" lon="4.48788">
        <ele>727.6</ele>
        <time>2025-07-16T12:23:57Z</time>
      </trkpt>
      <trkpt lat="46.23298" lon="4.48781">
        <ele>728.9</ele>
        <time>2025-07-16T12:24:05Z</time>
      </trkpt>
      <trkpt lat="46.23316" lon="4.48776">
        <ele>729.8</ele>
        <time>2025-07-16T12:24:12Z</time>
      </trkpt>
      <trkpt lat="46.2332" lon="4.48775">
        <ele>730</ele>
        <time>2025-07-16T12:24:14Z</time>
      </trkpt>
      <trkpt lat="46.23323" lon="4.48771">
        <ele>730.1</ele>
        <time>2025-07-16T12:24:16Z</time>
      </trkpt>
      <trkpt lat="46.23321" lon="4.48775">
        <ele>730</ele>
        <time>2025-07-16T12:24:18Z</time>
      </trkpt>
      <trkpt lat="46.23319" lon="4.48776">
        <ele>729.9</ele>
        <time>2025-07-16T12:24:19Z</time>
      </trkpt>
      <trkpt lat="46.23298" lon="4.48781">
        <ele>728.9</ele>
        <time>2025-07-16T12:24:25Z</time>
      </trkpt>
      <trkpt lat="46.23265" lon="4.4879">
        <ele>727.1</ele>
        <time>2025-07-16T12:24:32Z</time>
      </trkpt>
      <trkpt lat="46.23229" lon="4.48807">
        <ele>724.9</ele>
        <time>2025-07-16T12:24:40Z</time>
      </trkpt>
      <trkpt lat="46.2322" lon="4.48819">
        <ele>724</ele>
        <time>2025-07-16T12:24:43Z</time>
      </trkpt>
      <trkpt lat="46.23214" lon="4.48826">
        <ele>723.4</ele>
        <time>2025-07-16T12:24:45Z</time>
      </trkpt>
      <trkpt lat="46.23214" lon="4.4884">
        <ele>722.4</ele>
        <time>2025-07-16T12:24:49Z</time>
      </trkpt>
      <trkpt lat="46.23214" lon="4.48854">
        <ele>721.4</ele>
        <time>2025-07-16T12:24:52Z</time>
      </trkpt>
      <trkpt lat="46.23215" lon="4.48854">
        <ele>721.3</ele>
        <time>2025-07-16T12:24:53Z</time>
      </trkpt>
      <trkpt lat="46.23234" lon="4.48885">
        <ele>718.7</ele>
        <time>2025-07-16T12:24:59Z</time>
      </trkpt>
      <trkpt lat="46.23252" lon="4.48907">
        <ele>716.6</ele>
        <time>2025-07-16T12:25:04Z</time>
      </trkpt>
      <trkpt lat="46.23257" lon="4.4891">
        <ele>716.2</ele>
        <time>2025-07-16T12:25:05Z</time>
      </trkpt>
      <trkpt lat="46.23263" lon="4.48914">
        <ele>715.6</ele>
        <time>2025-07-16T12:25:06Z</time>
      </trkpt>
      <trkpt lat="46.23273" lon="4.48922">
        <ele>714.6</ele>
        <time>2025-07-16T12:25:08Z</time>
      </trkpt>
      <trkpt lat="46.23283" lon="4.48929">
        <ele>713.7</ele>
        <time>2025-07-16T12:25:10Z</time>
      </trkpt>
      <trkpt lat="46.23311" lon="4.48937">
        <ele>711.8</ele>
        <time>2025-07-16T12:25:15Z</time>
      </trkpt>
      <trkpt lat="46.23316" lon="4.48938">
        <ele>711.5</ele>
        <time>2025-07-16T12:25:16Z</time>
      </trkpt>
      <trkpt lat="46.23322" lon="4.4894">
        <ele>711.2</ele>
        <time>2025-07-16T12:25:17Z</time>
      </trkpt>
      <trkpt lat="46.23328" lon="4.48949">
        <ele>710.7</ele>
        <time>2025-07-16T12:25:19Z</time>
      </trkpt>
      <trkpt lat="46.23332" lon="4.48955">
        <ele>710.5</ele>
        <time>2025-07-16T12:25:20Z</time>
      </trkpt>
      <trkpt lat="46.23336" lon="4.48961">
        <ele>710.1</ele>
        <time>2025-07-16T12:25:21Z</time>
      </trkpt>
      <trkpt lat="46.23342" lon="4.48974">
        <ele>709.5</ele>
        <time>2025-07-16T12:25:23Z</time>
      </trkpt>
      <trkpt lat="46.23344" lon="4.48982">
        <ele>709.2</ele>
        <time>2025-07-16T12:25:24Z</time>
      </trkpt>
      <trkpt lat="46.23347" lon="4.49015">
        <ele>707.9</ele>
        <time>2025-07-16T12:25:28Z</time>
      </trkpt>
      <trkpt lat="46.23345" lon="4.49031">
        <ele>707.3</ele>
        <time>2025-07-16T12:25:30Z</time>
      </trkpt>
      <trkpt lat="46.23342" lon="4.49041">
        <ele>706.9</ele>
        <time>2025-07-16T12:25:31Z</time>
      </trkpt>
      <trkpt lat="46.23319" lon="4.49104">
        <ele>704.1</ele>
        <time>2025-07-16T12:25:38Z</time>
      </trkpt>
      <trkpt lat="46.23293" lon="4.49157">
        <ele>701.6</ele>
        <time>2025-07-16T12:25:45Z</time>
      </trkpt>
      <trkpt lat="46.23258" lon="4.49227">
        <ele>698.4</ele>
        <time>2025-07-16T12:25:54Z</time>
      </trkpt>
      <trkpt lat="46.23228" lon="4.49288">
        <ele>695.8</ele>
        <time>2025-07-16T12:26:02Z</time>
      </trkpt>
      <trkpt lat="46.23207" lon="4.49332">
        <ele>694</ele>
        <time>2025-07-16T12:26:08Z</time>
      </trkpt>
      <trkpt lat="46.23187" lon="4.49372">
        <ele>692.1</ele>
        <time>2025-07-16T12:26:14Z</time>
      </trkpt>
      <trkpt lat="46.23169" lon="4.49423">
        <ele>689.9</ele>
        <time>2025-07-16T12:26:21Z</time>
      </trkpt>
      <trkpt lat="46.23166" lon="4.49431">
        <ele>689.6</ele>
        <time>2025-07-16T12:26:22Z</time>
      </trkpt>
      <trkpt lat="46.23157" lon="4.49458">
        <ele>688.5</ele>
        <time>2025-07-16T12:26:26Z</time>
      </trkpt>
      <trkpt lat="46.2314" lon="4.49509">
        <ele>686.3</ele>
        <time>2025-07-16T12:26:33Z</time>
      </trkpt>
      <trkpt lat="46.23127" lon="4.49558">
        <ele>684.3</ele>
        <time>2025-07-16T12:26:40Z</time>
      </trkpt>
      <trkpt lat="46.2312" lon="4.49597">
        <ele>682.8</ele>
        <time>2025-07-16T12:26:45Z</time>
      </trkpt>
      <trkpt lat="46.23121" lon="4.49605">
        <ele>682.5</ele>
        <time>2025-07-16T12:26:46Z</time>
      </trkpt>
      <trkpt lat="46.23122" lon="4.4962">
        <ele>681.9</ele>
        <time>2025-07-16T12:26:48Z</time>
      </trkpt>
      <trkpt lat="46.23121" lon="4.49625">
        <ele>681.7</ele>
        <time>2025-07-16T12:26:49Z</time>
      </trkpt>
      <trkpt lat="46.23116" lon="4.49632">
        <ele>681.1</ele>
        <time>2025-07-16T12:26:51Z</time>
      </trkpt>
      <trkpt lat="46.23112" lon="4.49636">
        <ele>680.8</ele>
        <time>2025-07-16T12:26:52Z</time>
      </trkpt>
      <trkpt lat="46.23109" lon="4.4964">
        <ele>680.5</ele>
        <time>2025-07-16T12:26:53Z</time>
      </trkpt>
      <trkpt lat="46.23098" lon="4.49644">
        <ele>679.4</ele>
        <time>2025-07-16T12:26:55Z</time>
      </trkpt>
      <trkpt lat="46.23082" lon="4.4961">
        <ele>676.9</ele>
        <time>2025-07-16T12:26:59Z</time>
      </trkpt>
      <trkpt lat="46.23081" lon="4.49594">
        <ele>676</ele>
        <time>2025-07-16T12:27:01Z</time>
      </trkpt>
      <trkpt lat="46.2308" lon="4.49566">
        <ele>674.7</ele>
        <time>2025-07-16T12:27:04Z</time>
      </trkpt>
      <trkpt lat="46.23088" lon="4.49514">
        <ele>672.6</ele>
        <time>2025-07-16T12:27:10Z</time>
      </trkpt>
      <trkpt lat="46.23097" lon="4.4945">
        <ele>669.8</ele>
        <time>2025-07-16T12:27:17Z</time>
      </trkpt>
      <trkpt lat="46.23107" lon="4.49392">
        <ele>667.4</ele>
        <time>2025-07-16T12:27:23Z</time>
      </trkpt>
      <trkpt lat="46.23118" lon="4.49335">
        <ele>665.3</ele>
        <time>2025-07-16T12:27:29Z</time>
      </trkpt>
      <trkpt lat="46.23123" lon="4.49306">
        <ele>664.4</ele>
        <time>2025-07-16T12:27:32Z</time>
      </trkpt>
      <trkpt lat="46.23123" lon="4.49298">
        <ele>664.2</ele>
        <time>2025-07-16T12:27:33Z</time>
      </trkpt>
      <trkpt lat="46.2312" lon="4.49292">
        <ele>664</ele>
        <time>2025-07-16T12:27:34Z</time>
      </trkpt>
      <trkpt lat="46.23114" lon="4.49277">
        <ele>663.5</ele>
        <time>2025-07-16T12:27:36Z</time>
      </trkpt>
      <trkpt lat="46.23107" lon="4.49268">
        <ele>663.2</ele>
        <time>2025-07-16T12:27:38Z</time>
      </trkpt>
      <trkpt lat="46.23101" lon="4.49266">
        <ele>662.9</ele>
        <time>2025-07-16T12:27:39Z</time>
      </trkpt>
      <trkpt lat="46.23095" lon="4.49264">
        <ele>662.7</ele>
        <time>2025-07-16T12:27:40Z</time>
      </trkpt>
      <trkpt lat="46.23084" lon="4.49271">
        <ele>662.2</ele>
        <time>2025-07-16T12:27:42Z</time>
      </trkpt>
      <trkpt lat="46.23044" lon="4.49307">
        <ele>660.1</ele>
        <time>2025-07-16T12:27:49Z</time>
      </trkpt>
      <trkpt lat="46.23006" lon="4.49349">
        <ele>658</ele>
        <time>2025-07-16T12:27:56Z</time>
      </trkpt>
      <trkpt lat="46.22974" lon="4.49382">
        <ele>656</ele>
        <time>2025-07-16T12:28:02Z</time>
      </trkpt>
      <trkpt lat="46.22936" lon="4.49411">
        <ele>653.9</ele>
        <time>2025-07-16T12:28:08Z</time>
      </trkpt>
      <trkpt lat="46.22906" lon="4.49454">
        <ele>651.8</ele>
        <time>2025-07-16T12:28:14Z</time>
      </trkpt>
      <trkpt lat="46.22886" lon="4.49498">
        <ele>649.9</ele>
        <time>2025-07-16T12:28:20Z</time>
      </trkpt>
      <trkpt lat="46.22871" lon="4.49555">
        <ele>647.9</ele>
        <time>2025-07-16T12:28:27Z</time>
      </trkpt>
      <trkpt lat="46.22858" lon="4.49606">
        <ele>646.1</ele>
        <time>2025-07-16T12:28:33Z</time>
      </trkpt>
      <trkpt lat="46.22856" lon="4.49614">
        <ele>645.8</ele>
        <time>2025-07-16T12:28:34Z</time>
      </trkpt>
      <trkpt lat="46.22853" lon="4.49622">
        <ele>645.5</ele>
        <time>2025-07-16T12:28:35Z</time>
      </trkpt>
      <trkpt lat="46.22839" lon="4.49653">
        <ele>644.2</ele>
        <time>2025-07-16T12:28:39Z</time>
      </trkpt>
      <trkpt lat="46.22815" lon="4.49697">
        <ele>642.5</ele>
        <time>2025-07-16T12:28:45Z</time>
      </trkpt>
      <trkpt lat="46.22782" lon="4.4972">
        <ele>640.8</ele>
        <time>2025-07-16T12:28:50Z</time>
      </trkpt>
      <trkpt lat="46.22758" lon="4.4972">
        <ele>639.9</ele>
        <time>2025-07-16T12:28:54Z</time>
      </trkpt>
      <trkpt lat="46.22752" lon="4.49719">
        <ele>639.7</ele>
        <time>2025-07-16T12:28:55Z</time>
      </trkpt>
      <trkpt lat="46.22736" lon="4.49719">
        <ele>639.1</ele>
        <time>2025-07-16T12:28:58Z</time>
      </trkpt>
      <trkpt lat="46.22728" lon="4.49718">
        <ele>638.7</ele>
        <time>2025-07-16T12:28:59Z</time>
      </trkpt>
      <trkpt lat="46.22724" lon="4.49712">
        <ele>638.3</ele>
        <time>2025-07-16T12:29:00Z</time>
      </trkpt>
      <trkpt lat="46.22713" lon="4.49701">
        <ele>637.6</ele>
        <time>2025-07-16T12:29:02Z</time>
      </trkpt>
      <trkpt lat="46.22707" lon="4.49695">
        <ele>637.1</ele>
        <time>2025-07-16T12:29:03Z</time>
      </trkpt>
      <trkpt lat="46.22702" lon="4.49689">
        <ele>636.7</ele>
        <time>2025-07-16T12:29:04Z</time>
      </trkpt>
      <trkpt lat="46.22687" lon="4.49655">
        <ele>634.9</ele>
        <time>2025-07-16T12:29:08Z</time>
      </trkpt>
      <trkpt lat="46.22681" lon="4.49641">
        <ele>634.2</ele>
        <time>2025-07-16T12:29:10Z</time>
      </trkpt>
      <trkpt lat="46.22675" lon="4.49627">
        <ele>633.5</ele>
        <time>2025-07-16T12:29:12Z</time>
      </trkpt>
      <trkpt lat="46.22661" lon="4.4962">
        <ele>632.7</ele>
        <time>2025-07-16T12:29:14Z</time>
      </trkpt>
      <trkpt lat="46.22649" lon="4.49626">
        <ele>632.1</ele>
        <time>2025-07-16T12:29:16Z</time>
      </trkpt>
      <trkpt lat="46.22637" lon="4.49632">
        <ele>631.5</ele>
        <time>2025-07-16T12:29:18Z</time>
      </trkpt>
      <trkpt lat="46.22625" lon="4.49638">
        <ele>630.9</ele>
        <time>2025-07-16T12:29:20Z</time>
      </trkpt>
      <trkpt lat="46.22593" lon="4.49676">
        <ele>628.9</ele>
        <time>2025-07-16T12:29:26Z</time>
      </trkpt>
      <trkpt lat="46.2256" lon="4.49722">
        <ele>626.5</ele>
        <time>2025-07-16T12:29:32Z</time>
      </trkpt>
      <trkpt lat="46.22556" lon="4.49731">
        <ele>626.1</ele>
        <time>2025-07-16T12:29:33Z</time>
      </trkpt>
      <trkpt lat="46.22546" lon="4.49766">
        <ele>624.4</ele>
        <time>2025-07-16T12:29:37Z</time>
      </trkpt>
      <trkpt lat="46.22531" lon="4.49832">
        <ele>621.6</ele>
        <time>2025-07-16T12:29:44Z</time>
      </trkpt>
      <trkpt lat="46.22532" lon="4.49853">
        <ele>620.9</ele>
        <time>2025-07-16T12:29:46Z</time>
      </trkpt>
      <trkpt lat="46.22535" lon="4.49873">
        <ele>620.3</ele>
        <time>2025-07-16T12:29:48Z</time>
      </trkpt>
      <trkpt lat="46.22543" lon="4.49942">
        <ele>618.2</ele>
        <time>2025-07-16T12:29:55Z</time>
      </trkpt>
      <trkpt lat="46.22544" lon="4.49953">
        <ele>617.9</ele>
        <time>2025-07-16T12:29:56Z</time>
      </trkpt>
      <trkpt lat="46.22544" lon="4.49963">
        <ele>617.6</ele>
        <time>2025-07-16T12:29:57Z</time>
      </trkpt>
      <trkpt lat="46.2254" lon="4.49992">
        <ele>616.6</ele>
        <time>2025-07-16T12:30:00Z</time>
      </trkpt>
      <trkpt lat="46.22522" lon="4.50048">
        <ele>615</ele>
        <time>2025-07-16T12:30:06Z</time>
      </trkpt>
      <trkpt lat="46.22496" lon="4.50108">
        <ele>612.5</ele>
        <time>2025-07-16T12:30:13Z</time>
      </trkpt>
      <trkpt lat="46.22469" lon="4.50159">
        <ele>609.9</ele>
        <time>2025-07-16T12:30:20Z</time>
      </trkpt>
      <trkpt lat="46.22465" lon="4.50168">
        <ele>609.5</ele>
        <time>2025-07-16T12:30:21Z</time>
      </trkpt>
      <trkpt lat="46.22462" lon="4.50185">
        <ele>608.8</ele>
        <time>2025-07-16T12:30:23Z</time>
      </trkpt>
      <trkpt lat="46.2246" lon="4.50194">
        <ele>608.4</ele>
        <time>2025-07-16T12:30:24Z</time>
      </trkpt>
      <trkpt lat="46.2246" lon="4.50203">
        <ele>608.1</ele>
        <time>2025-07-16T12:30:25Z</time>
      </trkpt>
      <trkpt lat="46.22463" lon="4.50219">
        <ele>607.4</ele>
        <time>2025-07-16T12:30:27Z</time>
      </trkpt>
      <trkpt lat="46.22475" lon="4.50242">
        <ele>606.4</ele>
        <time>2025-07-16T12:30:30Z</time>
      </trkpt>
      <trkpt lat="46.22483" lon="4.50258">
        <ele>605.6</ele>
        <time>2025-07-16T12:30:32Z</time>
      </trkpt>
      <trkpt lat="46.22494" lon="4.50281">
        <ele>604.5</ele>
        <time>2025-07-16T12:30:35Z</time>
      </trkpt>
      <trkpt lat="46.22498" lon="4.50299">
        <ele>603.8</ele>
        <time>2025-07-16T12:30:37Z</time>
      </trkpt>
      <trkpt lat="46.22502" lon="4.50318">
        <ele>603</ele>
        <time>2025-07-16T12:30:39Z</time>
      </trkpt>
      <trkpt lat="46.22506" lon="4.50337">
        <ele>602.2</ele>
        <time>2025-07-16T12:30:41Z</time>
      </trkpt>
      <trkpt lat="46.22502" lon="4.50389">
        <ele>600.2</ele>
        <time>2025-07-16T12:30:46Z</time>
      </trkpt>
      <trkpt lat="46.22491" lon="4.50456">
        <ele>597.6</ele>
        <time>2025-07-16T12:30:53Z</time>
      </trkpt>
      <trkpt lat="46.22473" lon="4.50509">
        <ele>595.6</ele>
        <time>2025-07-16T12:30:59Z</time>
      </trkpt>
      <trkpt lat="46.22445" lon="4.50574">
        <ele>593.3</ele>
        <time>2025-07-16T12:31:07Z</time>
      </trkpt>
      <trkpt lat="46.22441" lon="4.50581">
        <ele>593</ele>
        <time>2025-07-16T12:31:08Z</time>
      </trkpt>
      <trkpt lat="46.22431" lon="4.50593">
        <ele>592.2</ele>
        <time>2025-07-16T12:31:10Z</time>
      </trkpt>
      <trkpt lat="46.22426" lon="4.50597">
        <ele>591.8</ele>
        <time>2025-07-16T12:31:11Z</time>
      </trkpt>
      <trkpt lat="46.2242" lon="4.50602">
        <ele>591.4</ele>
        <time>2025-07-16T12:31:12Z</time>
      </trkpt>
      <trkpt lat="46.22407" lon="4.50603">
        <ele>590.5</ele>
        <time>2025-07-16T12:31:14Z</time>
      </trkpt>
      <trkpt lat="46.22394" lon="4.50596">
        <ele>589.7</ele>
        <time>2025-07-16T12:31:16Z</time>
      </trkpt>
      <trkpt lat="46.22383" lon="4.50584">
        <ele>588.8</ele>
        <time>2025-07-16T12:31:18Z</time>
      </trkpt>
      <trkpt lat="46.22343" lon="4.50541">
        <ele>586</ele>
        <time>2025-07-16T12:31:25Z</time>
      </trkpt>
      <trkpt lat="46.22304" lon="4.50498">
        <ele>583.4</ele>
        <time>2025-07-16T12:31:32Z</time>
      </trkpt>
      <trkpt lat="46.22292" lon="4.50488">
        <ele>582.6</ele>
        <time>2025-07-16T12:31:34Z</time>
      </trkpt>
      <trkpt lat="46.22279" lon="4.5048">
        <ele>581.9</ele>
        <time>2025-07-16T12:31:36Z</time>
      </trkpt>
      <trkpt lat="46.22273" lon="4.5048">
        <ele>581.6</ele>
        <time>2025-07-16T12:31:37Z</time>
      </trkpt>
      <trkpt lat="46.22266" lon="4.50479">
        <ele>581.3</ele>
        <time>2025-07-16T12:31:38Z</time>
      </trkpt>
      <trkpt lat="46.22252" lon="4.50478">
        <ele>580.7</ele>
        <time>2025-07-16T12:31:40Z</time>
      </trkpt>
      <trkpt lat="46.22246" lon="4.5048">
        <ele>580.4</ele>
        <time>2025-07-16T12:31:41Z</time>
      </trkpt>
      <trkpt lat="46.22212" lon="4.50499">
        <ele>578.6</ele>
        <time>2025-07-16T12:31:46Z</time>
      </trkpt>
      <trkpt lat="46.22165" lon="4.50533">
        <ele>576.2</ele>
        <time>2025-07-16T12:31:54Z</time>
      </trkpt>
      <trkpt lat="46.2216" lon="4.50539">
        <ele>575.8</ele>
        <time>2025-07-16T12:31:55Z</time>
      </trkpt>
      <trkpt lat="46.2215" lon="4.50552">
        <ele>575.2</ele>
        <time>2025-07-16T12:31:57Z</time>
      </trkpt>
      <trkpt lat="46.22147" lon="4.50561">
        <ele>574.9</ele>
        <time>2025-07-16T12:31:58Z</time>
      </trkpt>
      <trkpt lat="46.22123" lon="4.50614">
        <ele>573</ele>
        <time>2025-07-16T12:32:04Z</time>
      </trkpt>
      <trkpt lat="46.22099" lon="4.5065">
        <ele>571.3</ele>
        <time>2025-07-16T12:32:09Z</time>
      </trkpt>
      <trkpt lat="46.22062" lon="4.50695">
        <ele>568.9</ele>
        <time>2025-07-16T12:32:16Z</time>
      </trkpt>
      <trkpt lat="46.22033" lon="4.5073">
        <ele>566.9</ele>
        <time>2025-07-16T12:32:21Z</time>
      </trkpt>
      <trkpt lat="46.2201" lon="4.50769">
        <ele>564.9</ele>
        <time>2025-07-16T12:32:26Z</time>
      </trkpt>
      <trkpt lat="46.21987" lon="4.50813">
        <ele>563.1</ele>
        <time>2025-07-16T12:32:32Z</time>
      </trkpt>
      <trkpt lat="46.21966" lon="4.50862">
        <ele>561.5</ele>
        <time>2025-07-16T12:32:38Z</time>
      </trkpt>
      <trkpt lat="46.21946" lon="4.50901">
        <ele>559.9</ele>
        <time>2025-07-16T12:32:43Z</time>
      </trkpt>
      <trkpt lat="46.21911" lon="4.50949">
        <ele>557.6</ele>
        <time>2025-07-16T12:32:50Z</time>
      </trkpt>
      <trkpt lat="46.21902" lon="4.50962">
        <ele>557</ele>
        <time>2025-07-16T12:32:52Z</time>
      </trkpt>
      <trkpt lat="46.21884" lon="4.50974">
        <ele>555.9</ele>
        <time>2025-07-16T12:32:55Z</time>
      </trkpt>
      <trkpt lat="46.21871" lon="4.50982">
        <ele>555.2</ele>
        <time>2025-07-16T12:32:57Z</time>
      </trkpt>
      <trkpt lat="46.2185" lon="4.50986">
        <ele>554.1</ele>
        <time>2025-07-16T12:33:00Z</time>
      </trkpt>
      <trkpt lat="46.21814" lon="4.50983">
        <ele>552.2</ele>
        <time>2025-07-16T12:33:05Z</time>
      </trkpt>
      <trkpt lat="46.21769" lon="4.50977">
        <ele>550.3</ele>
        <time>2025-07-16T12:33:11Z</time>
      </trkpt>
      <trkpt lat="46.21718" lon="4.50968">
        <ele>548.2</ele>
        <time>2025-07-16T12:33:18Z</time>
      </trkpt>
      <trkpt lat="46.21698" lon="4.50972">
        <ele>547.5</ele>
        <time>2025-07-16T12:33:21Z</time>
      </trkpt>
      <trkpt lat="46.21686" lon="4.50975">
        <ele>547.2</ele>
        <time>2025-07-16T12:33:23Z</time>
      </trkpt>
      <trkpt lat="46.21669" lon="4.50987">
        <ele>546.8</ele>
        <time>2025-07-16T12:33:26Z</time>
      </trkpt>
      <trkpt lat="46.21665" lon="4.50993">
        <ele>546.7</ele>
        <time>2025-07-16T12:33:27Z</time>
      </trkpt>
      <trkpt lat="46.21661" lon="4.50999">
        <ele>546.7</ele>
        <time>2025-07-16T12:33:28Z</time>
      </trkpt>
      <trkpt lat="46.21652" lon="4.51011">
        <ele>546.6</ele>
        <time>2025-07-16T12:33:30Z</time>
      </trkpt>
      <trkpt lat="46.2165" lon="4.51019">
        <ele>546.6</ele>
        <time>2025-07-16T12:33:31Z</time>
      </trkpt>
      <trkpt lat="46.21648" lon="4.51027">
        <ele>546.6</ele>
        <time>2025-07-16T12:33:32Z</time>
      </trkpt>
      <trkpt lat="46.21644" lon="4.51049">
        <ele>546.5</ele>
        <time>2025-07-16T12:33:35Z</time>
      </trkpt>
      <trkpt lat="46.21646" lon="4.51075">
        <ele>546.3</ele>
        <time>2025-07-16T12:33:38Z</time>
      </trkpt>
      <trkpt lat="46.21648" lon="4.51091">
        <ele>546.1</ele>
        <time>2025-07-16T12:33:40Z</time>
      </trkpt>
      <trkpt lat="46.21664" lon="4.51118">
        <ele>545.8</ele>
        <time>2025-07-16T12:33:44Z</time>
      </trkpt>
      <trkpt lat="46.21668" lon="4.51125">
        <ele>545.8</ele>
        <time>2025-07-16T12:33:45Z</time>
      </trkpt>
      <trkpt lat="46.21685" lon="4.51134">
        <ele>545.7</ele>
        <time>2025-07-16T12:33:48Z</time>
      </trkpt>
      <trkpt lat="46.21702" lon="4.51143">
        <ele>545.7</ele>
        <time>2025-07-16T12:33:51Z</time>
      </trkpt>
      <trkpt lat="46.21712" lon="4.51143">
        <ele>545.6</ele>
        <time>2025-07-16T12:33:53Z</time>
      </trkpt>
      <trkpt lat="46.21741" lon="4.51143">
        <ele>545.4</ele>
        <time>2025-07-16T12:33:58Z</time>
      </trkpt>
      <trkpt lat="46.21764" lon="4.51151">
        <ele>545.3</ele>
        <time>2025-07-16T12:34:00Z</time>
      </trkpt>
      <trkpt lat="46.21788" lon="4.51159">
        <ele>545</ele>
        <time>2025-07-16T12:34:07Z</time>
      </trkpt>
      <trkpt lat="46.21812" lon="4.51167">
        <ele>544.7</ele>
        <time>2025-07-16T12:34:10Z</time>
      </trkpt>
      <trkpt lat="46.21822" lon="4.51177">
        <ele>544.6</ele>
        <time>2025-07-16T12:34:13Z</time>
      </trkpt>
      <trkpt lat="46.2185" lon="4.51212">
        <ele>544.2</ele>
        <time>2025-07-16T12:34:19Z</time>
      </trkpt>
      <trkpt lat="46.2188" lon="4.51258">
        <ele>543.7</ele>
        <time>2025-07-16T12:34:26Z</time>
      </trkpt>
      <trkpt lat="46.21909" lon="4.51304">
        <ele>543.1</ele>
        <time>2025-07-16T12:34:33Z</time>
      </trkpt>
      <trkpt lat="46.21913" lon="4.51311">
        <ele>543.1</ele>
        <time>2025-07-16T12:34:34Z</time>
      </trkpt>
      <trkpt lat="46.2194" lon="4.51353">
        <ele>542.8</ele>
        <time>2025-07-16T12:34:40Z</time>
      </trkpt>
      <trkpt lat="46.21968" lon="4.51399">
        <ele>542.4</ele>
        <time>2025-07-16T12:34:47Z</time>
      </trkpt>
      <trkpt lat="46.21993" lon="4.51435">
        <ele>541.9</ele>
        <time>2025-07-16T12:34:53Z</time>
      </trkpt>
      <trkpt lat="46.22008" lon="4.5145">
        <ele>541.7</ele>
        <time>2025-07-16T12:34:56Z</time>
      </trkpt>
      <trkpt lat="46.22019" lon="4.51457">
        <ele>541.5</ele>
        <time>2025-07-16T12:34:58Z</time>
      </trkpt>
      <trkpt lat="46.2207" lon="4.51481">
        <ele>541</ele>
        <time>2025-07-16T12:35:07Z</time>
      </trkpt>
      <trkpt lat="46.22076" lon="4.51484">
        <ele>541</ele>
        <time>2025-07-16T12:35:08Z</time>
      </trkpt>
      <trkpt lat="46.22097" lon="4.51494">
        <ele>540.7</ele>
        <time>2025-07-16T12:35:12Z</time>
      </trkpt>
      <trkpt lat="46.22113" lon="4.51501">
        <ele>540.4</ele>
        <time>2025-07-16T12:35:15Z</time>
      </trkpt>
      <trkpt lat="46.22158" lon="4.51522">
        <ele>539.8</ele>
        <time>2025-07-16T12:35:23Z</time>
      </trkpt>
      <trkpt lat="46.22196" lon="4.51542">
        <ele>539.4</ele>
        <time>2025-07-16T12:35:30Z</time>
      </trkpt>
      <trkpt lat="46.22207" lon="4.51549">
        <ele>539.2</ele>
        <time>2025-07-16T12:35:32Z</time>
      </trkpt>
      <trkpt lat="46.22218" lon="4.51559">
        <ele>539.1</ele>
        <time>2025-07-16T12:35:34Z</time>
      </trkpt>
      <trkpt lat="46.22221" lon="4.51565">
        <ele>539</ele>
        <time>2025-07-16T12:35:35Z</time>
      </trkpt>
      <trkpt lat="46.22243" lon="4.51606">
        <ele>538.6</ele>
        <time>2025-07-16T12:35:41Z</time>
      </trkpt>
      <trkpt lat="46.22252" lon="4.51653">
        <ele>538.2</ele>
        <time>2025-07-16T12:35:47Z</time>
      </trkpt>
      <trkpt lat="46.22255" lon="4.51686">
        <ele>538.1</ele>
        <time>2025-07-16T12:35:51Z</time>
      </trkpt>
      <trkpt lat="46.22253" lon="4.51701">
        <ele>538.1</ele>
        <time>2025-07-16T12:35:53Z</time>
      </trkpt>
      <trkpt lat="46.22251" lon="4.51716">
        <ele>538</ele>
        <time>2025-07-16T12:35:55Z</time>
      </trkpt>
      <trkpt lat="46.2225" lon="4.51729">
        <ele>537.9</ele>
        <time>2025-07-16T12:35:57Z</time>
      </trkpt>
      <trkpt lat="46.22249" lon="4.51734">
        <ele>537.9</ele>
        <time>2025-07-16T12:35:58Z</time>
      </trkpt>
      <trkpt lat="46.22235" lon="4.51747">
        <ele>538.1</ele>
        <time>2025-07-16T12:36:01Z</time>
      </trkpt>
      <trkpt lat="46.22235" lon="4.51752">
        <ele>538</ele>
        <time>2025-07-16T12:36:02Z</time>
      </trkpt>
      <trkpt lat="46.22234" lon="4.51759">
        <ele>537.8</ele>
        <time>2025-07-16T12:36:04Z</time>
      </trkpt>
      <trkpt lat="46.22235" lon="4.51781">
        <ele>537.5</ele>
        <time>2025-07-16T12:36:06Z</time>
      </trkpt>
      <trkpt lat="46.22228" lon="4.51795">
        <ele>537.3</ele>
        <time>2025-07-16T12:36:08Z</time>
      </trkpt>
      <trkpt lat="46.22216" lon="4.51804">
        <ele>537.1</ele>
        <time>2025-07-16T12:36:10Z</time>
      </trkpt>
      <trkpt lat="46.22174" lon="4.51829">
        <ele>536.6</ele>
        <time>2025-07-16T12:36:17Z</time>
      </trkpt>
      <trkpt lat="46.22128" lon="4.51857">
        <ele>536.3</ele>
        <time>2025-07-16T12:36:24Z</time>
      </trkpt>
      <trkpt lat="46.22103" lon="4.51871">
        <ele>536.1</ele>
        <time>2025-07-16T12:36:28Z</time>
      </trkpt>
      <trkpt lat="46.22087" lon="4.51885">
        <ele>535.9</ele>
        <time>2025-07-16T12:36:31Z</time>
      </trkpt>
      <trkpt lat="46.22065" lon="4.51913">
        <ele>535.7</ele>
        <time>2025-07-16T12:36:36Z</time>
      </trkpt>
      <trkpt lat="46.22046" lon="4.51947">
        <ele>535.6</ele>
        <time>2025-07-16T12:36:41Z</time>
      </trkpt>
      <trkpt lat="46.2204" lon="4.51964">
        <ele>535.7</ele>
        <time>2025-07-16T12:36:43Z</time>
      </trkpt>
      <trkpt lat="46.22038" lon="4.51981">
        <ele>535.7</ele>
        <time>2025-07-16T12:36:45Z</time>
      </trkpt>
      <trkpt lat="46.22031" lon="4.52026">
        <ele>535.8</ele>
        <time>2025-07-16T12:36:50Z</time>
      </trkpt>
      <trkpt lat="46.2203" lon="4.52035">
        <ele>535.9</ele>
        <time>2025-07-16T12:36:51Z</time>
      </trkpt>
      <trkpt lat="46.22027" lon="4.5204">
        <ele>535.9</ele>
        <time>2025-07-16T12:36:52Z</time>
      </trkpt>
      <trkpt lat="46.2202" lon="4.52052">
        <ele>536</ele>
        <time>2025-07-16T12:36:54Z</time>
      </trkpt>
      <trkpt lat="46.2199" lon="4.52079">
        <ele>536.4</ele>
        <time>2025-07-16T12:37:01Z</time>
      </trkpt>
      <trkpt lat="46.21964" lon="4.52095">
        <ele>536.8</ele>
        <time>2025-07-16T12:37:06Z</time>
      </trkpt>
      <trkpt lat="46.21926" lon="4.52106">
        <ele>537.7</ele>
        <time>2025-07-16T12:37:12Z</time>
      </trkpt>
      <trkpt lat="46.21889" lon="4.52117">
        <ele>539.3</ele>
        <time>2025-07-16T12:37:19Z</time>
      </trkpt>
      <trkpt lat="46.21869" lon="4.5212">
        <ele>540.2</ele>
        <time>2025-07-16T12:37:23Z</time>
      </trkpt>
      <trkpt lat="46.2186" lon="4.5212">
        <ele>540.6</ele>
        <time>2025-07-16T12:37:25Z</time>
      </trkpt>
      <trkpt lat="46.21851" lon="4.52116">
        <ele>541</ele>
        <time>2025-07-16T12:37:27Z</time>
      </trkpt>
      <trkpt lat="46.21842" lon="4.52111">
        <ele>541.3</ele>
        <time>2025-07-16T12:37:29Z</time>
      </trkpt>
      <trkpt lat="46.21837" lon="4.52109">
        <ele>541.5</ele>
        <time>2025-07-16T12:37:30Z</time>
      </trkpt>
      <trkpt lat="46.21813" lon="4.5209">
        <ele>542.3</ele>
        <time>2025-07-16T12:37:36Z</time>
      </trkpt>
      <trkpt lat="46.2181" lon="4.52087">
        <ele>542.4</ele>
        <time>2025-07-16T12:37:37Z</time>
      </trkpt>
      <trkpt lat="46.21802" lon="4.52081">
        <ele>542.6</ele>
        <time>2025-07-16T12:37:39Z</time>
      </trkpt>
      <trkpt lat="46.21795" lon="4.52074">
        <ele>542.8</ele>
        <time>2025-07-16T12:37:41Z</time>
      </trkpt>
      <trkpt lat="46.21775" lon="4.52057">
        <ele>543.3</ele>
        <time>2025-07-16T12:37:46Z</time>
      </trkpt>
      <trkpt lat="46.21767" lon="4.5205">
        <ele>543.5</ele>
        <time>2025-07-16T12:37:48Z</time>
      </trkpt>
      <trkpt lat="46.21747" lon="4.52028">
        <ele>544.1</ele>
        <time>2025-07-16T12:37:54Z</time>
      </trkpt>
      <trkpt lat="46.21743" lon="4.52024">
        <ele>544.2</ele>
        <time>2025-07-16T12:37:55Z</time>
      </trkpt>
      <trkpt lat="46.21725" lon="4.51993">
        <ele>544.5</ele>
        <time>2025-07-16T12:38:01Z</time>
      </trkpt>
      <trkpt lat="46.21709" lon="4.51958">
        <ele>544.9</ele>
        <time>2025-07-16T12:38:07Z</time>
      </trkpt>
      <trkpt lat="46.21707" lon="4.51952">
        <ele>545</ele>
        <time>2025-07-16T12:38:08Z</time>
      </trkpt>
      <trkpt lat="46.21693" lon="4.51935">
        <ele>545.1</ele>
        <time>2025-07-16T12:38:12Z</time>
      </trkpt>
      <trkpt lat="46.21679" lon="4.5192">
        <ele>545.3</ele>
        <time>2025-07-16T12:38:16Z</time>
      </trkpt>
      <trkpt lat="46.21672" lon="4.51913">
        <ele>545.4</ele>
        <time>2025-07-16T12:38:18Z</time>
      </trkpt>
      <trkpt lat="46.21654" lon="4.51909">
        <ele>546.2</ele>
        <time>2025-07-16T12:38:23Z</time>
      </trkpt>
      <trkpt lat="46.2163" lon="4.51916">
        <ele>547.6</ele>
        <time>2025-07-16T12:38:30Z</time>
      </trkpt>
      <trkpt lat="46.21603" lon="4.51932">
        <ele>549.3</ele>
        <time>2025-07-16T12:38:38Z</time>
      </trkpt>
      <trkpt lat="46.2159" lon="4.51947">
        <ele>549.7</ele>
        <time>2025-07-16T12:38:43Z</time>
      </trkpt>
      <trkpt lat="46.21578" lon="4.51972">
        <ele>550.7</ele>
        <time>2025-07-16T12:38:50Z</time>
      </trkpt>
      <trkpt lat="46.21568" lon="4.51993">
        <ele>551.5</ele>
        <time>2025-07-16T12:38:57Z</time>
      </trkpt>
      <trkpt lat="46.21559" lon="4.52012">
        <ele>552.2</ele>
        <time>2025-07-16T12:39:03Z</time>
      </trkpt>
      <trkpt lat="46.21547" lon="4.52036">
        <ele>553.2</ele>
        <time>2025-07-16T12:39:10Z</time>
      </trkpt>
      <trkpt lat="46.21535" lon="4.52062">
        <ele>554.2</ele>
        <time>2025-07-16T12:39:17Z</time>
      </trkpt>
      <trkpt lat="46.21525" lon="4.52083">
        <ele>555.1</ele>
        <time>2025-07-16T12:39:23Z</time>
      </trkpt>
      <trkpt lat="46.21515" lon="4.52106">
        <ele>556</ele>
        <time>2025-07-16T12:39:29Z</time>
      </trkpt>
      <trkpt lat="46.21501" lon="4.52134">
        <ele>557.3</ele>
        <time>2025-07-16T12:39:36Z</time>
      </trkpt>
      <trkpt lat="46.21488" lon="4.52162">
        <ele>558.5</ele>
        <time>2025-07-16T12:39:43Z</time>
      </trkpt>
      <trkpt lat="46.21475" lon="4.52189">
        <ele>559.7</ele>
        <time>2025-07-16T12:39:50Z</time>
      </trkpt>
      <trkpt lat="46.21465" lon="4.52215">
        <ele>560.8</ele>
        <time>2025-07-16T12:39:56Z</time>
      </trkpt>
      <trkpt lat="46.21459" lon="4.52242">
        <ele>561.8</ele>
        <time>2025-07-16T12:40:02Z</time>
      </trkpt>
      <trkpt lat="46.21454" lon="4.5227">
        <ele>562.9</ele>
        <time>2025-07-16T12:40:09Z</time>
      </trkpt>
      <trkpt lat="46.21451" lon="4.52294">
        <ele>563.8</ele>
        <time>2025-07-16T12:40:15Z</time>
      </trkpt>
      <trkpt lat="46.21447" lon="4.52319">
        <ele>564.7</ele>
        <time>2025-07-16T12:40:21Z</time>
      </trkpt>
      <trkpt lat="46.21443" lon="4.52348">
        <ele>565.8</ele>
        <time>2025-07-16T12:40:28Z</time>
      </trkpt>
      <trkpt lat="46.2144" lon="4.52372">
        <ele>566.7</ele>
        <time>2025-07-16T12:40:34Z</time>
      </trkpt>
      <trkpt lat="46.21436" lon="4.52397">
        <ele>567.7</ele>
        <time>2025-07-16T12:40:40Z</time>
      </trkpt>
      <trkpt lat="46.21433" lon="4.5242">
        <ele>568.6</ele>
        <time>2025-07-16T12:40:46Z</time>
      </trkpt>
      <trkpt lat="46.21428" lon="4.52443">
        <ele>569.6</ele>
        <time>2025-07-16T12:40:52Z</time>
      </trkpt>
      <trkpt lat="46.21419" lon="4.5248">
        <ele>571</ele>
        <time>2025-07-16T12:41:01Z</time>
      </trkpt>
      <trkpt lat="46.21412" lon="4.52507">
        <ele>572</ele>
        <time>2025-07-16T12:41:07Z</time>
      </trkpt>
      <trkpt lat="46.21403" lon="4.52538">
        <ele>573.1</ele>
        <time>2025-07-16T12:41:14Z</time>
      </trkpt>
      <trkpt lat="46.21395" lon="4.52563">
        <ele>574.1</ele>
        <time>2025-07-16T12:41:20Z</time>
      </trkpt>
      <trkpt lat="46.21385" lon="4.52582">
        <ele>575</ele>
        <time>2025-07-16T12:41:25Z</time>
      </trkpt>
      <trkpt lat="46.21373" lon="4.52603">
        <ele>576</ele>
        <time>2025-07-16T12:41:32Z</time>
      </trkpt>
      <trkpt lat="46.21359" lon="4.52629">
        <ele>577.2</ele>
        <time>2025-07-16T12:41:41Z</time>
      </trkpt>
      <trkpt lat="46.21348" lon="4.52649">
        <ele>578</ele>
        <time>2025-07-16T12:41:47Z</time>
      </trkpt>
      <trkpt lat="46.21335" lon="4.52675">
        <ele>579.1</ele>
        <time>2025-07-16T12:41:54Z</time>
      </trkpt>
      <trkpt lat="46.21318" lon="4.52705">
        <ele>580.4</ele>
        <time>2025-07-16T12:42:02Z</time>
      </trkpt>
      <trkpt lat="46.21307" lon="4.52726">
        <ele>581.3</ele>
        <time>2025-07-16T12:42:08Z</time>
      </trkpt>
      <trkpt lat="46.21294" lon="4.5275">
        <ele>582.4</ele>
        <time>2025-07-16T12:42:15Z</time>
      </trkpt>
      <trkpt lat="46.21283" lon="4.5277">
        <ele>583.3</ele>
        <time>2025-07-16T12:42:21Z</time>
      </trkpt>
      <trkpt lat="46.21275" lon="4.52784">
        <ele>584</ele>
        <time>2025-07-16T12:42:26Z</time>
      </trkpt>
      <trkpt lat="46.21275" lon="4.52786">
        <ele>584</ele>
        <time>2025-07-16T12:42:31Z</time>
      </trkpt>
      <trkpt lat="46.21275" lon="4.52786">
        <ele>584</ele>
        <time>2025-07-16T12:42:46Z</time>
      </trkpt>
      <trkpt lat="46.21275" lon="4.52786">
        <ele>584</ele>
        <time>2025-07-16T12:43:05Z</time>
      </trkpt>
      <trkpt lat="46.21275" lon="4.52786">
        <ele>584</ele>
        <time>2025-07-16T12:43:18Z</time>
      </trkpt>
      <trkpt lat="46.21275" lon="4.52786">
        <ele>584</ele>
        <time>2025-07-16T12:43:34Z</time>
      </trkpt>
      <trkpt lat="46.21275" lon="4.52786">
        <ele>584</ele>
        <time>2025-07-16T12:43:48Z</time>
      </trkpt>
      <trkpt lat="46.21275" lon="4.52786">
        <ele>584</ele>
        <time>2025-07-16T12:44:05Z</time>
      </trkpt>
      <trkpt lat="46.21275" lon="4.52786">
        <ele>584</ele>
        <time>2025-07-16T12:44:23Z</time>
      </trkpt>
      <trkpt lat="46.21275" lon="4.52786">
        <ele>584</ele>
        <time>2025-07-16T12:44:39Z</time>
      </trkpt>
      <trkpt lat="46.21275" lon="4.52786">
        <ele>584</ele>
        <time>2025-07-16T12:44:52Z</time>
      </trkpt>
      <trkpt lat="46.21275" lon="4.52786">
        <ele>584</ele>
        <time>2025-07-16T12:45:04Z</time>
      </trkpt>
      <trkpt lat="46.21275" lon="4.52786">
        <ele>584</ele>
        <time>2025-07-16T12:45:19Z</time>
      </trkpt>
      <trkpt lat="46.21275" lon="4.52786">
        <ele>584</ele>
        <time>2025-07-16T12:45:41Z</time>
      </trkpt>
      <trkpt lat="46.21275" lon="4.52786">
        <ele>584</ele>
        <time>2025-07-16T12:46:01Z</time>
      </trkpt>
      <trkpt lat="46.21273" lon="4.52789">
        <ele>584.2</ele>
        <time>2025-07-16T12:46:06Z</time>
      </trkpt>
      <trkpt lat="46.21271" lon="4.52792">
        <ele>584.3</ele>
        <time>2025-07-16T12:46:08Z</time>
      </trkpt>
      <trkpt lat="46.21262" lon="4.52819">
        <ele>585.3</ele>
        <time>2025-07-16T12:46:15Z</time>
      </trkpt>
      <trkpt lat="46.21256" lon="4.52841">
        <ele>586.2</ele>
        <time>2025-07-16T12:46:21Z</time>
      </trkpt>
      <trkpt lat="46.21248" lon="4.52867">
        <ele>587.1</ele>
        <time>2025-07-16T12:46:27Z</time>
      </trkpt>
      <trkpt lat="46.21239" lon="4.529">
        <ele>588.2</ele>
        <time>2025-07-16T12:46:33Z</time>
      </trkpt>
      <trkpt lat="46.21232" lon="4.52925">
        <ele>589</ele>
        <time>2025-07-16T12:46:38Z</time>
      </trkpt>
      <trkpt lat="46.21218" lon="4.52968">
        <ele>590.2</ele>
        <time>2025-07-16T12:46:46Z</time>
      </trkpt>
      <trkpt lat="46.21206" lon="4.52995">
        <ele>591.2</ele>
        <time>2025-07-16T12:46:52Z</time>
      </trkpt>
      <trkpt lat="46.21192" lon="4.53026">
        <ele>592.4</ele>
        <time>2025-07-16T12:46:59Z</time>
      </trkpt>
      <trkpt lat="46.2118" lon="4.53048">
        <ele>593.4</ele>
        <time>2025-07-16T12:47:06Z</time>
      </trkpt>
      <trkpt lat="46.21166" lon="4.53072">
        <ele>594.6</ele>
        <time>2025-07-16T12:47:13Z</time>
      </trkpt>
      <trkpt lat="46.21149" lon="4.53094">
        <ele>595.8</ele>
        <time>2025-07-16T12:47:20Z</time>
      </trkpt>
      <trkpt lat="46.21136" lon="4.5311">
        <ele>596.6</ele>
        <time>2025-07-16T12:47:25Z</time>
      </trkpt>
      <trkpt lat="46.21118" lon="4.53129">
        <ele>597.6</ele>
        <time>2025-07-16T12:47:31Z</time>
      </trkpt>
      <trkpt lat="46.21102" lon="4.53142">
        <ele>598.5</ele>
        <time>2025-07-16T12:47:37Z</time>
      </trkpt>
      <trkpt lat="46.21089" lon="4.53154">
        <ele>599.1</ele>
        <time>2025-07-16T12:47:42Z</time>
      </trkpt>
      <trkpt lat="46.21068" lon="4.53168">
        <ele>600.1</ele>
        <time>2025-07-16T12:47:49Z</time>
      </trkpt>
      <trkpt lat="46.21051" lon="4.53179">
        <ele>600.9</ele>
        <time>2025-07-16T12:47:55Z</time>
      </trkpt>
      <trkpt lat="46.21027" lon="4.53193">
        <ele>601.9</ele>
        <time>2025-07-16T12:48:03Z</time>
      </trkpt>
      <trkpt lat="46.21008" lon="4.53204">
        <ele>602.8</ele>
        <time>2025-07-16T12:48:10Z</time>
      </trkpt>
      <trkpt lat="46.20984" lon="4.53219">
        <ele>603.9</ele>
        <time>2025-07-16T12:48:18Z</time>
      </trkpt>
      <trkpt lat="46.20961" lon="4.53233">
        <ele>605.1</ele>
        <time>2025-07-16T12:48:26Z</time>
      </trkpt>
      <trkpt lat="46.20942" lon="4.53244">
        <ele>606.1</ele>
        <time>2025-07-16T12:48:33Z</time>
      </trkpt>
      <trkpt lat="46.20925" lon="4.53259">
        <ele>607.2</ele>
        <time>2025-07-16T12:48:40Z</time>
      </trkpt>
      <trkpt lat="46.20912" lon="4.53274">
        <ele>608.2</ele>
        <time>2025-07-16T12:48:46Z</time>
      </trkpt>
      <trkpt lat="46.20901" lon="4.53291">
        <ele>609.1</ele>
        <time>2025-07-16T12:48:53Z</time>
      </trkpt>
      <trkpt lat="46.2089" lon="4.53307">
        <ele>609.9</ele>
        <time>2025-07-16T12:48:59Z</time>
      </trkpt>
      <trkpt lat="46.20875" lon="4.53328">
        <ele>611</ele>
        <time>2025-07-16T12:49:06Z</time>
      </trkpt>
      <trkpt lat="46.20863" lon="4.53344">
        <ele>611.9</ele>
        <time>2025-07-16T12:49:12Z</time>
      </trkpt>
      <trkpt lat="46.20851" lon="4.53362">
        <ele>612.9</ele>
        <time>2025-07-16T12:49:18Z</time>
      </trkpt>
      <trkpt lat="46.20838" lon="4.5338">
        <ele>614</ele>
        <time>2025-07-16T12:49:24Z</time>
      </trkpt>
      <trkpt lat="46.20827" lon="4.53397">
        <ele>614.9</ele>
        <time>2025-07-16T12:49:30Z</time>
      </trkpt>
      <trkpt lat="46.20815" lon="4.53415">
        <ele>615.9</ele>
        <time>2025-07-16T12:49:35Z</time>
      </trkpt>
      <trkpt lat="46.20805" lon="4.53433">
        <ele>616.9</ele>
        <time>2025-07-16T12:49:42Z</time>
      </trkpt>
      <trkpt lat="46.20792" lon="4.53454">
        <ele>618</ele>
        <time>2025-07-16T12:49:49Z</time>
      </trkpt>
      <trkpt lat="46.2078" lon="4.53477">
        <ele>619.2</ele>
        <time>2025-07-16T12:49:57Z</time>
      </trkpt>
      <trkpt lat="46.20772" lon="4.53494">
        <ele>619.9</ele>
        <time>2025-07-16T12:50:04Z</time>
      </trkpt>
      <trkpt lat="46.20764" lon="4.53511">
        <ele>620.6</ele>
        <time>2025-07-16T12:50:11Z</time>
      </trkpt>
      <trkpt lat="46.2075" lon="4.53541">
        <ele>621.8</ele>
        <time>2025-07-16T12:50:20Z</time>
      </trkpt>
      <trkpt lat="46.20741" lon="4.53561">
        <ele>622.6</ele>
        <time>2025-07-16T12:50:27Z</time>
      </trkpt>
      <trkpt lat="46.2074" lon="4.53565">
        <ele>622.8</ele>
        <time>2025-07-16T12:50:29Z</time>
      </trkpt>
      <trkpt lat="46.20733" lon="4.53559">
        <ele>623.2</ele>
        <time>2025-07-16T12:50:31Z</time>
      </trkpt>
      <trkpt lat="46.20732" lon="4.53551">
        <ele>623.4</ele>
        <time>2025-07-16T12:50:36Z</time>
      </trkpt>
      <trkpt lat="46.20732" lon="4.53551">
        <ele>623.4</ele>
        <time>2025-07-16T12:50:40Z</time>
      </trkpt>
      <trkpt lat="46.20733" lon="4.5355">
        <ele>623.4</ele>
        <time>2025-07-16T12:50:47Z</time>
      </trkpt>
      <trkpt lat="46.2073" lon="4.53559">
        <ele>623.8</ele>
        <time>2025-07-16T12:50:55Z</time>
      </trkpt>
      <trkpt lat="46.20729" lon="4.53559">
        <ele>623.8</ele>
        <time>2025-07-16T12:51:05Z</time>
      </trkpt>
      <trkpt lat="46.20705" lon="4.53553">
        <ele>624.5</ele>
        <time>2025-07-16T12:51:11Z</time>
      </trkpt>
      <trkpt lat="46.20705" lon="4.53553">
        <ele>624.5</ele>
        <time>2025-07-16T12:51:20Z</time>
      </trkpt>
      <trkpt lat="46.20706" lon="4.53554">
        <ele>624.5</ele>
        <time>2025-07-16T12:51:29Z</time>
      </trkpt>
      <trkpt lat="46.20706" lon="4.53554">
        <ele>624.5</ele>
        <time>2025-07-16T12:51:34Z</time>
      </trkpt>
      <trkpt lat="46.20707" lon="4.53554">
        <ele>624.5</ele>
        <time>2025-07-16T12:51:40Z</time>
      </trkpt>
      <trkpt lat="46.20707" lon="4.53555">
        <ele>624.5</ele>
        <time>2025-07-16T12:51:47Z</time>
      </trkpt>
      <trkpt lat="46.20708" lon="4.53555">
        <ele>624.5</ele>
        <time>2025-07-16T12:51:54Z</time>
      </trkpt>
      <trkpt lat="46.20708" lon="4.53556">
        <ele>624.5</ele>
        <time>2025-07-16T12:52:10Z</time>
      </trkpt>
      <trkpt lat="46.20708" lon="4.53556">
        <ele>624.5</ele>
        <time>2025-07-16T12:52:17Z</time>
      </trkpt>
      <trkpt lat="46.20709" lon="4.53557">
        <ele>624.4</ele>
        <time>2025-07-16T12:52:24Z</time>
      </trkpt>
      <trkpt lat="46.20709" lon="4.53557">
        <ele>624.4</ele>
        <time>2025-07-16T12:52:33Z</time>
      </trkpt>
      <trkpt lat="46.2071" lon="4.53557">
        <ele>624.4</ele>
        <time>2025-07-16T12:52:39Z</time>
      </trkpt>
      <trkpt lat="46.2071" lon="4.53558">
        <ele>624.4</ele>
        <time>2025-07-16T12:52:45Z</time>
      </trkpt>
      <trkpt lat="46.20711" lon="4.53558">
        <ele>624.4</ele>
        <time>2025-07-16T12:52:55Z</time>
      </trkpt>
      <trkpt lat="46.20711" lon="4.53559">
        <ele>624.4</ele>
        <time>2025-07-16T12:53:07Z</time>
      </trkpt>
      <trkpt lat="46.20711" lon="4.53559">
        <ele>624.4</ele>
        <time>2025-07-16T12:53:18Z</time>
      </trkpt>
      <trkpt lat="46.20712" lon="4.53559">
        <ele>624.4</ele>
        <time>2025-07-16T12:53:29Z</time>
      </trkpt>
      <trkpt lat="46.20712" lon="4.5356">
        <ele>624.4</ele>
        <time>2025-07-16T12:53:41Z</time>
      </trkpt>
      <trkpt lat="46.20713" lon="4.5356">
        <ele>624.3</ele>
        <time>2025-07-16T12:53:53Z</time>
      </trkpt>
      <trkpt lat="46.20713" lon="4.53561">
        <ele>624.3</ele>
        <time>2025-07-16T12:54:04Z</time>
      </trkpt>
      <trkpt lat="46.20714" lon="4.53561">
        <ele>624.3</ele>
        <time>2025-07-16T12:54:12Z</time>
      </trkpt>
      <trkpt lat="46.20714" lon="4.53562">
        <ele>624.3</ele>
        <time>2025-07-16T12:54:21Z</time>
      </trkpt>
      <trkpt lat="46.20714" lon="4.53562">
        <ele>624.3</ele>
        <time>2025-07-16T12:54:31Z</time>
      </trkpt>
      <trkpt lat="46.20715" lon="4.53562">
        <ele>624.3</ele>
        <time>2025-07-16T12:54:43Z</time>
      </trkpt>
      <trkpt lat="46.20715" lon="4.53563">
        <ele>624.3</ele>
        <time>2025-07-16T12:54:52Z</time>
      </trkpt>
      <trkpt lat="46.20716" lon="4.53563">
        <ele>624.3</ele>
        <time>2025-07-16T12:55:00Z</time>
      </trkpt>
      <trkpt lat="46.20716" lon="4.53564">
        <ele>624.2</ele>
        <time>2025-07-16T12:55:15Z</time>
      </trkpt>
      <trkpt lat="46.20717" lon="4.53564">
        <ele>624.2</ele>
        <time>2025-07-16T12:55:28Z</time>
      </trkpt>
      <trkpt lat="46.20717" lon="4.53564">
        <ele>624.2</ele>
        <time>2025-07-16T12:55:36Z</time>
      </trkpt>
      <trkpt lat="46.20717" lon="4.53565">
        <ele>624.2</ele>
        <time>2025-07-16T12:55:43Z</time>
      </trkpt>
      <trkpt lat="46.20718" lon="4.53565">
        <ele>624.1</ele>
        <time>2025-07-16T12:55:50Z</time>
      </trkpt>
      <trkpt lat="46.20718" lon="4.53566">
        <ele>624.1</ele>
        <time>2025-07-16T12:56:01Z</time>
      </trkpt>
      <trkpt lat="46.20719" lon="4.53566">
        <ele>624.1</ele>
        <time>2025-07-16T12:56:08Z</time>
      </trkpt>
      <trkpt lat="46.20719" lon="4.53567">
        <ele>624.1</ele>
        <time>2025-07-16T12:56:16Z</time>
      </trkpt>
      <trkpt lat="46.2072" lon="4.53567">
        <ele>624.1</ele>
        <time>2025-07-16T12:56:28Z</time>
      </trkpt>
      <trkpt lat="46.2072" lon="4.53567">
        <ele>624</ele>
        <time>2025-07-16T12:56:40Z</time>
      </trkpt>
      <trkpt lat="46.2072" lon="4.53568">
        <ele>624</ele>
        <time>2025-07-16T12:56:52Z</time>
      </trkpt>
      <trkpt lat="46.20721" lon="4.53568">
        <ele>624</ele>
        <time>2025-07-16T12:57:06Z</time>
      </trkpt>
      <trkpt lat="46.20721" lon="4.53569">
        <ele>624</ele>
        <time>2025-07-16T12:57:17Z</time>
      </trkpt>
      <trkpt lat="46.20722" lon="4.53569">
        <ele>623.9</ele>
        <time>2025-07-16T12:57:28Z</time>
      </trkpt>
      <trkpt lat="46.20722" lon="4.53569">
        <ele>623.9</ele>
        <time>2025-07-16T12:57:35Z</time>
      </trkpt>
      <trkpt lat="46.20723" lon="4.5357">
        <ele>623.9</ele>
        <time>2025-07-16T12:57:45Z</time>
      </trkpt>
      <trkpt lat="46.20723" lon="4.5357">
        <ele>623.9</ele>
        <time>2025-07-16T12:57:52Z</time>
      </trkpt>
      <trkpt lat="46.20724" lon="4.53571">
        <ele>623.8</ele>
        <time>2025-07-16T12:58:00Z</time>
      </trkpt>
      <trkpt lat="46.20724" lon="4.53571">
        <ele>623.8</ele>
        <time>2025-07-16T12:58:03Z</time>
      </trkpt>
      <trkpt lat="46.20724" lon="4.53572">
        <ele>623.8</ele>
        <time>2025-07-16T12:58:04Z</time>
      </trkpt>
      <trkpt lat="46.20725" lon="4.53572">
        <ele>623.8</ele>
        <time>2025-07-16T12:58:10Z</time>
      </trkpt>
      <trkpt lat="46.20725" lon="4.53572">
        <ele>623.8</ele>
        <time>2025-07-16T12:58:12Z</time>
      </trkpt>
      <trkpt lat="46.20729" lon="4.53562">
        <ele>623.8</ele>
        <time>2025-07-16T12:58:15Z</time>
      </trkpt>
      <trkpt lat="46.20728" lon="4.53565">
        <ele>623.8</ele>
        <time>2025-07-16T12:58:18Z</time>
      </trkpt>
      <trkpt lat="46.20712" lon="4.53557">
        <ele>624.4</ele>
        <time>2025-07-16T12:58:22Z</time>
      </trkpt>
      <trkpt lat="46.20706" lon="4.53553">
        <ele>624.5</ele>
        <time>2025-07-16T12:58:29Z</time>
      </trkpt>
      <trkpt lat="46.20704" lon="4.53552">
        <ele>624.5</ele>
        <time>2025-07-16T12:58:38Z</time>
      </trkpt>
      <trkpt lat="46.20704" lon="4.53552">
        <ele>624.5</ele>
        <time>2025-07-16T12:58:51Z</time>
      </trkpt>
      <trkpt lat="46.20704" lon="4.53552">
        <ele>624.5</ele>
        <time>2025-07-16T12:59:03Z</time>
      </trkpt>
      <trkpt lat="46.20704" lon="4.53551">
        <ele>624.5</ele>
        <time>2025-07-16T12:59:22Z</time>
      </trkpt>
      <trkpt lat="46.20704" lon="4.53551">
        <ele>624.5</ele>
        <time>2025-07-16T12:59:41Z</time>
      </trkpt>
      <trkpt lat="46.20704" lon="4.53551">
        <ele>624.5</ele>
        <time>2025-07-16T12:59:49Z</time>
      </trkpt>
      <trkpt lat="46.20704" lon="4.53551">
        <ele>624.5</ele>
        <time>2025-07-16T13:00:05Z</time>
      </trkpt>
      <trkpt lat="46.20704" lon="4.53551">
        <ele>624.5</ele>
        <time>2025-07-16T13:00:19Z</time>
      </trkpt>
      <trkpt lat="46.20704" lon="4.53551">
        <ele>624.5</ele>
        <time>2025-07-16T13:00:36Z</time>
      </trkpt>
      <trkpt lat="46.20704" lon="4.53551">
        <ele>624.5</ele>
        <time>2025-07-16T13:00:49Z</time>
      </trkpt>
      <trkpt lat="46.20705" lon="4.53555">
        <ele>624.4</ele>
        <time>2025-07-16T13:00:55Z</time>
      </trkpt>
      <trkpt lat="46.20705" lon="4.5356">
        <ele>624.3</ele>
        <time>2025-07-16T13:00:57Z</time>
      </trkpt>
      <trkpt lat="46.20709" lon="4.53568">
        <ele>624.2</ele>
        <time>2025-07-16T13:01:00Z</time>
      </trkpt>
      <trkpt lat="46.2072" lon="4.53581">
        <ele>623.9</ele>
        <time>2025-07-16T13:01:06Z</time>
      </trkpt>
      <trkpt lat="46.20727" lon="4.53573">
        <ele>623.8</ele>
        <time>2025-07-16T13:01:10Z</time>
      </trkpt>
      <trkpt lat="46.20729" lon="4.53573">
        <ele>623.8</ele>
        <time>2025-07-16T13:01:18Z</time>
      </trkpt>
      <trkpt lat="46.2073" lon="4.53573">
        <ele>623.8</ele>
        <time>2025-07-16T13:01:20Z</time>
      </trkpt>
      <trkpt lat="46.20732" lon="4.53572">
        <ele>623.8</ele>
        <time>2025-07-16T13:01:22Z</time>
      </trkpt>
      <trkpt lat="46.20733" lon="4.53572">
        <ele>623.8</ele>
        <time>2025-07-16T13:01:27Z</time>
      </trkpt>
      <trkpt lat="46.20735" lon="4.53572">
        <ele>623.8</ele>
        <time>2025-07-16T13:01:33Z</time>
      </trkpt>
      <trkpt lat="46.20736" lon="4.53572">
        <ele>623.8</ele>
        <time>2025-07-16T13:01:34Z</time>
      </trkpt>
      <trkpt lat="46.20721" lon="4.53602">
        <ele>624.3</ele>
        <time>2025-07-16T13:01:42Z</time>
      </trkpt>
      <trkpt lat="46.20705" lon="4.53633">
        <ele>624.7</ele>
        <time>2025-07-16T13:01:52Z</time>
      </trkpt>
      <trkpt lat="46.20693" lon="4.53657">
        <ele>624.7</ele>
        <time>2025-07-16T13:01:59Z</time>
      </trkpt>
      <trkpt lat="46.20681" lon="4.53681">
        <ele>624.6</ele>
        <time>2025-07-16T13:02:06Z</time>
      </trkpt>
      <trkpt lat="46.20672" lon="4.53699">
        <ele>624.6</ele>
        <time>2025-07-16T13:02:12Z</time>
      </trkpt>
      <trkpt lat="46.20691" lon="4.53731">
        <ele>624.3</ele>
        <time>2025-07-16T13:02:16Z</time>
      </trkpt>
      <trkpt lat="46.20698" lon="4.53737">
        <ele>624.4</ele>
        <time>2025-07-16T13:02:18Z</time>
      </trkpt>
      <trkpt lat="46.20705" lon="4.53747">
        <ele>624.4</ele>
        <time>2025-07-16T13:02:20Z</time>
      </trkpt>
      <trkpt lat="46.20707" lon="4.53753">
        <ele>624.5</ele>
        <time>2025-07-16T13:02:21Z</time>
      </trkpt>
      <trkpt lat="46.20708" lon="4.53759">
        <ele>624.5</ele>
        <time>2025-07-16T13:02:22Z</time>
      </trkpt>
      <trkpt lat="46.2071" lon="4.53773">
        <ele>624.5</ele>
        <time>2025-07-16T13:02:24Z</time>
      </trkpt>
      <trkpt lat="46.20709" lon="4.53786">
        <ele>624.6</ele>
        <time>2025-07-16T13:02:26Z</time>
      </trkpt>
      <trkpt lat="46.20705" lon="4.5384">
        <ele>625</ele>
        <time>2025-07-16T13:02:34Z</time>
      </trkpt>
      <trkpt lat="46.20709" lon="4.53875">
        <ele>625.6</ele>
        <time>2025-07-16T13:02:39Z</time>
      </trkpt>
      <trkpt lat="46.20724" lon="4.53917">
        <ele>626.2</ele>
        <time>2025-07-16T13:02:46Z</time>
      </trkpt>
      <trkpt lat="46.20744" lon="4.53961">
        <ele>627</ele>
        <time>2025-07-16T13:02:54Z</time>
      </trkpt>
      <trkpt lat="46.20748" lon="4.53965">
        <ele>627</ele>
        <time>2025-07-16T13:02:55Z</time>
      </trkpt>
      <trkpt lat="46.20751" lon="4.53969">
        <ele>627.1</ele>
        <time>2025-07-16T13:02:56Z</time>
      </trkpt>
      <trkpt lat="46.20751" lon="4.53994">
        <ele>627.2</ele>
        <time>2025-07-16T13:02:59Z</time>
      </trkpt>
      <trkpt lat="46.20751" lon="4.54">
        <ele>627.3</ele>
        <time>2025-07-16T13:03:00Z</time>
      </trkpt>
      <trkpt lat="46.20749" lon="4.54034">
        <ele>627.9</ele>
        <time>2025-07-16T13:03:05Z</time>
      </trkpt>
      <trkpt lat="46.20749" lon="4.54048">
        <ele>628.2</ele>
        <time>2025-07-16T13:03:07Z</time>
      </trkpt>
      <trkpt lat="46.20748" lon="4.54077">
        <ele>628.9</ele>
        <time>2025-07-16T13:03:11Z</time>
      </trkpt>
      <trkpt lat="46.20747" lon="4.54091">
        <ele>629.3</ele>
        <time>2025-07-16T13:03:13Z</time>
      </trkpt>
      <trkpt lat="46.20745" lon="4.54137">
        <ele>630.5</ele>
        <time>2025-07-16T13:03:20Z</time>
      </trkpt>
      <trkpt lat="46.20744" lon="4.54179">
        <ele>631.7</ele>
        <time>2025-07-16T13:03:27Z</time>
      </trkpt>
      <trkpt lat="46.20742" lon="4.54216">
        <ele>632.8</ele>
        <time>2025-07-16T13:03:34Z</time>
      </trkpt>
      <trkpt lat="46.20741" lon="4.54253">
        <ele>633.8</ele>
        <time>2025-07-16T13:03:41Z</time>
      </trkpt>
      <trkpt lat="46.2074" lon="4.54276">
        <ele>634.5</ele>
        <time>2025-07-16T13:03:46Z</time>
      </trkpt>
      <trkpt lat="46.20739" lon="4.54303">
        <ele>635.3</ele>
        <time>2025-07-16T13:03:52Z</time>
      </trkpt>
      <trkpt lat="46.20737" lon="4.54336">
        <ele>636.3</ele>
        <time>2025-07-16T13:03:59Z</time>
      </trkpt>
      <trkpt lat="46.20736" lon="4.54363">
        <ele>637.1</ele>
        <time>2025-07-16T13:04:06Z</time>
      </trkpt>
      <trkpt lat="46.20736" lon="4.54363">
        <ele>637.1</ele>
        <time>2025-07-16T13:04:10Z</time>
      </trkpt>
      <trkpt lat="46.20736" lon="4.54363">
        <ele>637.1</ele>
        <time>2025-07-16T13:04:22Z</time>
      </trkpt>
      <trkpt lat="46.20736" lon="4.54363">
        <ele>637.1</ele>
        <time>2025-07-16T13:04:35Z</time>
      </trkpt>
      <trkpt lat="46.20736" lon="4.54368">
        <ele>637.3</ele>
        <time>2025-07-16T13:04:40Z</time>
      </trkpt>
      <trkpt lat="46.20737" lon="4.54384">
        <ele>637.7</ele>
        <time>2025-07-16T13:04:46Z</time>
      </trkpt>
      <trkpt lat="46.20742" lon="4.54414">
        <ele>638.6</ele>
        <time>2025-07-16T13:04:53Z</time>
      </trkpt>
      <trkpt lat="46.20748" lon="4.54455">
        <ele>639.7</ele>
        <time>2025-07-16T13:05:02Z</time>
      </trkpt>
      <trkpt lat="46.20754" lon="4.54492">
        <ele>640.7</ele>
        <time>2025-07-16T13:05:09Z</time>
      </trkpt>
      <trkpt lat="46.20754" lon="4.54538">
        <ele>642</ele>
        <time>2025-07-16T13:05:17Z</time>
      </trkpt>
      <trkpt lat="46.2075" lon="4.54571">
        <ele>643.1</ele>
        <time>2025-07-16T13:05:23Z</time>
      </trkpt>
      <trkpt lat="46.20746" lon="4.54603">
        <ele>644.1</ele>
        <time>2025-07-16T13:05:30Z</time>
      </trkpt>
      <trkpt lat="46.20744" lon="4.54625">
        <ele>644.8</ele>
        <time>2025-07-16T13:05:35Z</time>
      </trkpt>
      <trkpt lat="46.20742" lon="4.54657">
        <ele>645.7</ele>
        <time>2025-07-16T13:05:42Z</time>
      </trkpt>
      <trkpt lat="46.20742" lon="4.54686">
        <ele>646.6</ele>
        <time>2025-07-16T13:05:49Z</time>
      </trkpt>
      <trkpt lat="46.20744" lon="4.54718">
        <ele>647.6</ele>
        <time>2025-07-16T13:05:57Z</time>
      </trkpt>
      <trkpt lat="46.20745" lon="4.54743">
        <ele>648.3</ele>
        <time>2025-07-16T13:06:04Z</time>
      </trkpt>
      <trkpt lat="46.20745" lon="4.54743">
        <ele>648.3</ele>
        <time>2025-07-16T13:06:09Z</time>
      </trkpt>
      <trkpt lat="46.20745" lon="4.54743">
        <ele>648.3</ele>
        <time>2025-07-16T13:06:18Z</time>
      </trkpt>
      <trkpt lat="46.20745" lon="4.54746">
        <ele>648.4</ele>
        <time>2025-07-16T13:06:29Z</time>
      </trkpt>
      <trkpt lat="46.20745" lon="4.54762">
        <ele>648.9</ele>
        <time>2025-07-16T13:06:35Z</time>
      </trkpt>
      <trkpt lat="46.20747" lon="4.54791">
        <ele>649.9</ele>
        <time>2025-07-16T13:06:43Z</time>
      </trkpt>
      <trkpt lat="46.20751" lon="4.54821">
        <ele>650.9</ele>
        <time>2025-07-16T13:06:52Z</time>
      </trkpt>
      <trkpt lat="46.20757" lon="4.54863">
        <ele>652.3</ele>
        <time>2025-07-16T13:07:01Z</time>
      </trkpt>
      <trkpt lat="46.20763" lon="4.54901">
        <ele>653.6</ele>
        <time>2025-07-16T13:07:09Z</time>
      </trkpt>
      <trkpt lat="46.20777" lon="4.54942">
        <ele>655</ele>
        <time>2025-07-16T13:07:18Z</time>
      </trkpt>
      <trkpt lat="46.20794" lon="4.54971">
        <ele>656.2</ele>
        <time>2025-07-16T13:07:26Z</time>
      </trkpt>
      <trkpt lat="46.20811" lon="4.54981">
        <ele>657.2</ele>
        <time>2025-07-16T13:07:33Z</time>
      </trkpt>
      <trkpt lat="46.20824" lon="4.54983">
        <ele>657.8</ele>
        <time>2025-07-16T13:07:39Z</time>
      </trkpt>
      <trkpt lat="46.20841" lon="4.54979">
        <ele>658.5</ele>
        <time>2025-07-16T13:07:45Z</time>
      </trkpt>
      <trkpt lat="46.20856" lon="4.54966">
        <ele>659.1</ele>
        <time>2025-07-16T13:07:51Z</time>
      </trkpt>
      <trkpt lat="46.20879" lon="4.54934">
        <ele>660</ele>
        <time>2025-07-16T13:08:00Z</time>
      </trkpt>
      <trkpt lat="46.20896" lon="4.54925">
        <ele>660.6</ele>
        <time>2025-07-16T13:08:06Z</time>
      </trkpt>
      <trkpt lat="46.20911" lon="4.54926">
        <ele>661.1</ele>
        <time>2025-07-16T13:08:11Z</time>
      </trkpt>
      <trkpt lat="46.20925" lon="4.54935">
        <ele>661.7</ele>
        <time>2025-07-16T13:08:17Z</time>
      </trkpt>
      <trkpt lat="46.20938" lon="4.54947">
        <ele>662.3</ele>
        <time>2025-07-16T13:08:23Z</time>
      </trkpt>
      <trkpt lat="46.20956" lon="4.54966">
        <ele>663</ele>
        <time>2025-07-16T13:08:31Z</time>
      </trkpt>
      <trkpt lat="46.20973" lon="4.5499">
        <ele>663.6</ele>
        <time>2025-07-16T13:08:38Z</time>
      </trkpt>
      <trkpt lat="46.20978" lon="4.55017">
        <ele>664.2</ele>
        <time>2025-07-16T13:08:44Z</time>
      </trkpt>
      <trkpt lat="46.20982" lon="4.55047">
        <ele>664.8</ele>
        <time>2025-07-16T13:08:51Z</time>
      </trkpt>
      <trkpt lat="46.20978" lon="4.55081">
        <ele>665.4</ele>
        <time>2025-07-16T13:08:58Z</time>
      </trkpt>
      <trkpt lat="46.20971" lon="4.5511">
        <ele>666.2</ele>
        <time>2025-07-16T13:09:04Z</time>
      </trkpt>
      <trkpt lat="46.20955" lon="4.55126">
        <ele>666.9</ele>
        <time>2025-07-16T13:09:10Z</time>
      </trkpt>
      <trkpt lat="46.20935" lon="4.55146">
        <ele>667.8</ele>
        <time>2025-07-16T13:09:18Z</time>
      </trkpt>
      <trkpt lat="46.20918" lon="4.55176">
        <ele>669.1</ele>
        <time>2025-07-16T13:09:26Z</time>
      </trkpt>
      <trkpt lat="46.20908" lon="4.55204">
        <ele>670</ele>
        <time>2025-07-16T13:09:32Z</time>
      </trkpt>
      <trkpt lat="46.20901" lon="4.55241">
        <ele>671.1</ele>
        <time>2025-07-16T13:09:40Z</time>
      </trkpt>
      <trkpt lat="46.20901" lon="4.55275">
        <ele>672.3</ele>
        <time>2025-07-16T13:09:49Z</time>
      </trkpt>
      <trkpt lat="46.20901" lon="4.55305">
        <ele>673.1</ele>
        <time>2025-07-16T13:09:57Z</time>
      </trkpt>
      <trkpt lat="46.20896" lon="4.55332">
        <ele>673.8</ele>
        <time>2025-07-16T13:10:02Z</time>
      </trkpt>
      <trkpt lat="46.20891" lon="4.55346">
        <ele>674.2</ele>
        <time>2025-07-16T13:10:07Z</time>
      </trkpt>
      <trkpt lat="46.20886" lon="4.55354">
        <ele>674.5</ele>
        <time>2025-07-16T13:10:12Z</time>
      </trkpt>
      <trkpt lat="46.20875" lon="4.55364">
        <ele>675</ele>
        <time>2025-07-16T13:10:19Z</time>
      </trkpt>
      <trkpt lat="46.20859" lon="4.55379">
        <ele>675.8</ele>
        <time>2025-07-16T13:10:27Z</time>
      </trkpt>
      <trkpt lat="46.20846" lon="4.55392">
        <ele>676.4</ele>
        <time>2025-07-16T13:10:33Z</time>
      </trkpt>
      <trkpt lat="46.20829" lon="4.55408">
        <ele>677.2</ele>
        <time>2025-07-16T13:10:39Z</time>
      </trkpt>
      <trkpt lat="46.20808" lon="4.55428">
        <ele>678.3</ele>
        <time>2025-07-16T13:10:46Z</time>
      </trkpt>
      <trkpt lat="46.20794" lon="4.55442">
        <ele>679</ele>
        <time>2025-07-16T13:10:52Z</time>
      </trkpt>
      <trkpt lat="46.20781" lon="4.55455">
        <ele>679.7</ele>
        <time>2025-07-16T13:10:58Z</time>
      </trkpt>
      <trkpt lat="46.20769" lon="4.55478">
        <ele>680.4</ele>
        <time>2025-07-16T13:11:04Z</time>
      </trkpt>
      <trkpt lat="46.20756" lon="4.55507">
        <ele>681.3</ele>
        <time>2025-07-16T13:11:11Z</time>
      </trkpt>
      <trkpt lat="46.20748" lon="4.55534">
        <ele>682</ele>
        <time>2025-07-16T13:11:18Z</time>
      </trkpt>
      <trkpt lat="46.2074" lon="4.55566">
        <ele>682.9</ele>
        <time>2025-07-16T13:11:26Z</time>
      </trkpt>
      <trkpt lat="46.20734" lon="4.55597">
        <ele>683.9</ele>
        <time>2025-07-16T13:11:33Z</time>
      </trkpt>
      <trkpt lat="46.20731" lon="4.55622">
        <ele>684.6</ele>
        <time>2025-07-16T13:11:39Z</time>
      </trkpt>
      <trkpt lat="46.20729" lon="4.55644">
        <ele>685.2</ele>
        <time>2025-07-16T13:11:44Z</time>
      </trkpt>
      <trkpt lat="46.20726" lon="4.55683">
        <ele>686.3</ele>
        <time>2025-07-16T13:11:52Z</time>
      </trkpt>
      <trkpt lat="46.20723" lon="4.55721">
        <ele>687.3</ele>
        <time>2025-07-16T13:12:00Z</time>
      </trkpt>
      <trkpt lat="46.20718" lon="4.55755">
        <ele>688.2</ele>
        <time>2025-07-16T13:12:08Z</time>
      </trkpt>
      <trkpt lat="46.20712" lon="4.55779">
        <ele>689</ele>
        <time>2025-07-16T13:12:14Z</time>
      </trkpt>
      <trkpt lat="46.20704" lon="4.55809">
        <ele>689.9</ele>
        <time>2025-07-16T13:12:21Z</time>
      </trkpt>
      <trkpt lat="46.20696" lon="4.55841">
        <ele>690.9</ele>
        <time>2025-07-16T13:12:28Z</time>
      </trkpt>
      <trkpt lat="46.2069" lon="4.55867">
        <ele>691.7</ele>
        <time>2025-07-16T13:12:34Z</time>
      </trkpt>
      <trkpt lat="46.20681" lon="4.55897">
        <ele>692.5</ele>
        <time>2025-07-16T13:12:42Z</time>
      </trkpt>
      <trkpt lat="46.20675" lon="4.55919">
        <ele>693.2</ele>
        <time>2025-07-16T13:12:47Z</time>
      </trkpt>
      <trkpt lat="46.20667" lon="4.55942">
        <ele>693.9</ele>
        <time>2025-07-16T13:12:52Z</time>
      </trkpt>
      <trkpt lat="46.20656" lon="4.55962">
        <ele>694.6</ele>
        <time>2025-07-16T13:12:58Z</time>
      </trkpt>
      <trkpt lat="46.20645" lon="4.55985">
        <ele>695.5</ele>
        <time>2025-07-16T13:13:04Z</time>
      </trkpt>
      <trkpt lat="46.20634" lon="4.56006">
        <ele>696.5</ele>
        <time>2025-07-16T13:13:11Z</time>
      </trkpt>
      <trkpt lat="46.20625" lon="4.56023">
        <ele>697.2</ele>
        <time>2025-07-16T13:13:16Z</time>
      </trkpt>
      <trkpt lat="46.2062" lon="4.56047">
        <ele>697.9</ele>
        <time>2025-07-16T13:13:22Z</time>
      </trkpt>
      <trkpt lat="46.20617" lon="4.56064">
        <ele>698.5</ele>
        <time>2025-07-16T13:13:27Z</time>
      </trkpt>
      <trkpt lat="46.20612" lon="4.56092">
        <ele>699.3</ele>
        <time>2025-07-16T13:13:34Z</time>
      </trkpt>
      <trkpt lat="46.20611" lon="4.56128">
        <ele>700.5</ele>
        <time>2025-07-16T13:13:42Z</time>
      </trkpt>
      <trkpt lat="46.20612" lon="4.5616">
        <ele>701.5</ele>
        <time>2025-07-16T13:13:48Z</time>
      </trkpt>
      <trkpt lat="46.20617" lon="4.56197">
        <ele>702.7</ele>
        <time>2025-07-16T13:13:56Z</time>
      </trkpt>
      <trkpt lat="46.20628" lon="4.56222">
        <ele>703.6</ele>
        <time>2025-07-16T13:14:03Z</time>
      </trkpt>
      <trkpt lat="46.20643" lon="4.56249">
        <ele>704.4</ele>
        <time>2025-07-16T13:14:10Z</time>
      </trkpt>
      <trkpt lat="46.20657" lon="4.56277">
        <ele>705.1</ele>
        <time>2025-07-16T13:14:17Z</time>
      </trkpt>
      <trkpt lat="46.20661" lon="4.56307">
        <ele>705.7</ele>
        <time>2025-07-16T13:14:23Z</time>
      </trkpt>
      <trkpt lat="46.20661" lon="4.56342">
        <ele>706.2</ele>
        <time>2025-07-16T13:14:29Z</time>
      </trkpt>
      <trkpt lat="46.20646" lon="4.56375">
        <ele>706.8</ele>
        <time>2025-07-16T13:14:35Z</time>
      </trkpt>
      <trkpt lat="46.20621" lon="4.56406">
        <ele>707.6</ele>
        <time>2025-07-16T13:14:43Z</time>
      </trkpt>
      <trkpt lat="46.20597" lon="4.56435">
        <ele>708.9</ele>
        <time>2025-07-16T13:14:51Z</time>
      </trkpt>
      <trkpt lat="46.20579" lon="4.56458">
        <ele>710.3</ele>
        <time>2025-07-16T13:14:58Z</time>
      </trkpt>
      <trkpt lat="46.20563" lon="4.56477">
        <ele>711.5</ele>
        <time>2025-07-16T13:15:05Z</time>
      </trkpt>
      <trkpt lat="46.20548" lon="4.56495">
        <ele>712.7</ele>
        <time>2025-07-16T13:15:12Z</time>
      </trkpt>
      <trkpt lat="46.20534" lon="4.56523">
        <ele>714</ele>
        <time>2025-07-16T13:15:19Z</time>
      </trkpt>
      <trkpt lat="46.20522" lon="4.56548">
        <ele>715.3</ele>
        <time>2025-07-16T13:15:26Z</time>
      </trkpt>
      <trkpt lat="46.20511" lon="4.56574">
        <ele>716.6</ele>
        <time>2025-07-16T13:15:33Z</time>
      </trkpt>
      <trkpt lat="46.20508" lon="4.56582">
        <ele>717</ele>
        <time>2025-07-16T13:15:38Z</time>
      </trkpt>
      <trkpt lat="46.20508" lon="4.56582">
        <ele>717</ele>
        <time>2025-07-16T13:15:47Z</time>
      </trkpt>
      <trkpt lat="46.20508" lon="4.56582">
        <ele>717</ele>
        <time>2025-07-16T13:15:59Z</time>
      </trkpt>
      <trkpt lat="46.20505" lon="4.5659">
        <ele>717.3</ele>
        <time>2025-07-16T13:16:05Z</time>
      </trkpt>
      <trkpt lat="46.20496" lon="4.56616">
        <ele>718.6</ele>
        <time>2025-07-16T13:16:14Z</time>
      </trkpt>
      <trkpt lat="46.20488" lon="4.56639">
        <ele>719.6</ele>
        <time>2025-07-16T13:16:21Z</time>
      </trkpt>
      <trkpt lat="46.20485" lon="4.56663">
        <ele>720.6</ele>
        <time>2025-07-16T13:16:27Z</time>
      </trkpt>
      <trkpt lat="46.20483" lon="4.56692">
        <ele>721.9</ele>
        <time>2025-07-16T13:16:35Z</time>
      </trkpt>
      <trkpt lat="46.20484" lon="4.5672">
        <ele>723</ele>
        <time>2025-07-16T13:16:42Z</time>
      </trkpt>
      <trkpt lat="46.20485" lon="4.5675">
        <ele>724.3</ele>
        <time>2025-07-16T13:16:49Z</time>
      </trkpt>
      <trkpt lat="46.20486" lon="4.5677">
        <ele>725.1</ele>
        <time>2025-07-16T13:16:55Z</time>
      </trkpt>
      <trkpt lat="46.20487" lon="4.5679">
        <ele>726</ele>
        <time>2025-07-16T13:17:01Z</time>
      </trkpt>
      <trkpt lat="46.20489" lon="4.56823">
        <ele>727.3</ele>
        <time>2025-07-16T13:17:10Z</time>
      </trkpt>
      <trkpt lat="46.2049" lon="4.56848">
        <ele>728.4</ele>
        <time>2025-07-16T13:17:17Z</time>
      </trkpt>
      <trkpt lat="46.20491" lon="4.5687">
        <ele>729.4</ele>
        <time>2025-07-16T13:17:24Z</time>
      </trkpt>
      <trkpt lat="46.20491" lon="4.56893">
        <ele>730.4</ele>
        <time>2025-07-16T13:17:31Z</time>
      </trkpt>
      <trkpt lat="46.20491" lon="4.56918">
        <ele>731.5</ele>
        <time>2025-07-16T13:17:40Z</time>
      </trkpt>
      <trkpt lat="46.20491" lon="4.56937">
        <ele>732.4</ele>
        <time>2025-07-16T13:17:47Z</time>
      </trkpt>
      <trkpt lat="46.20491" lon="4.5696">
        <ele>733.4</ele>
        <time>2025-07-16T13:17:55Z</time>
      </trkpt>
      <trkpt lat="46.20491" lon="4.56983">
        <ele>734.5</ele>
        <time>2025-07-16T13:18:02Z</time>
      </trkpt>
      <trkpt lat="46.20491" lon="4.57">
        <ele>735.3</ele>
        <time>2025-07-16T13:18:08Z</time>
      </trkpt>
      <trkpt lat="46.2049" lon="4.57029">
        <ele>736.5</ele>
        <time>2025-07-16T13:18:17Z</time>
      </trkpt>
      <trkpt lat="46.2049" lon="4.57045">
        <ele>737.3</ele>
        <time>2025-07-16T13:18:23Z</time>
      </trkpt>
      <trkpt lat="46.2049" lon="4.57075">
        <ele>738.6</ele>
        <time>2025-07-16T13:18:32Z</time>
      </trkpt>
      <trkpt lat="46.2049" lon="4.57108">
        <ele>740.1</ele>
        <time>2025-07-16T13:18:42Z</time>
      </trkpt>
      <trkpt lat="46.2049" lon="4.57132">
        <ele>741.2</ele>
        <time>2025-07-16T13:18:50Z</time>
      </trkpt>
      <trkpt lat="46.20489" lon="4.57168">
        <ele>742.8</ele>
        <time>2025-07-16T13:19:01Z</time>
      </trkpt>
      <trkpt lat="46.20489" lon="4.57192">
        <ele>743.9</ele>
        <time>2025-07-16T13:19:09Z</time>
      </trkpt>
      <trkpt lat="46.20487" lon="4.57222">
        <ele>745.3</ele>
        <time>2025-07-16T13:19:18Z</time>
      </trkpt>
      <trkpt lat="46.20483" lon="4.57248">
        <ele>746.4</ele>
        <time>2025-07-16T13:19:26Z</time>
      </trkpt>
      <trkpt lat="46.20479" lon="4.57269">
        <ele>747.3</ele>
        <time>2025-07-16T13:19:32Z</time>
      </trkpt>
      <trkpt lat="46.20464" lon="4.57295">
        <ele>748.9</ele>
        <time>2025-07-16T13:19:40Z</time>
      </trkpt>
      <trkpt lat="46.20454" lon="4.57311">
        <ele>749.7</ele>
        <time>2025-07-16T13:19:45Z</time>
      </trkpt>
      <trkpt lat="46.20438" lon="4.57326">
        <ele>750.4</ele>
        <time>2025-07-16T13:19:52Z</time>
      </trkpt>
      <trkpt lat="46.20421" lon="4.57342">
        <ele>750.4</ele>
        <time>2025-07-16T13:20:00Z</time>
      </trkpt>
      <trkpt lat="46.20401" lon="4.57342">
        <ele>749.4</ele>
        <time>2025-07-16T13:20:06Z</time>
      </trkpt>
      <trkpt lat="46.2038" lon="4.57341">
        <ele>748.1</ele>
        <time>2025-07-16T13:20:10Z</time>
      </trkpt>
      <trkpt lat="46.20344" lon="4.57338">
        <ele>745.8</ele>
        <time>2025-07-16T13:20:17Z</time>
      </trkpt>
      <trkpt lat="46.20319" lon="4.5733">
        <ele>743.6</ele>
        <time>2025-07-16T13:20:22Z</time>
      </trkpt>
      <trkpt lat="46.20313" lon="4.57331">
        <ele>743.1</ele>
        <time>2025-07-16T13:20:23Z</time>
      </trkpt>
      <trkpt lat="46.20301" lon="4.57332">
        <ele>742.1</ele>
        <time>2025-07-16T13:20:25Z</time>
      </trkpt>
      <trkpt lat="46.20281" lon="4.5734">
        <ele>740.5</ele>
        <time>2025-07-16T13:20:28Z</time>
      </trkpt>
      <trkpt lat="46.20268" lon="4.57346">
        <ele>739.5</ele>
        <time>2025-07-16T13:20:30Z</time>
      </trkpt>
      <trkpt lat="46.20257" lon="4.57357">
        <ele>738.6</ele>
        <time>2025-07-16T13:20:32Z</time>
      </trkpt>
      <trkpt lat="46.20248" lon="4.57372">
        <ele>737.6</ele>
        <time>2025-07-16T13:20:34Z</time>
      </trkpt>
      <trkpt lat="46.20241" lon="4.57391">
        <ele>736.7</ele>
        <time>2025-07-16T13:20:36Z</time>
      </trkpt>
      <trkpt lat="46.20235" lon="4.57418">
        <ele>735.6</ele>
        <time>2025-07-16T13:20:39Z</time>
      </trkpt>
      <trkpt lat="46.20235" lon="4.57427">
        <ele>735.2</ele>
        <time>2025-07-16T13:20:40Z</time>
      </trkpt>
      <trkpt lat="46.2023" lon="4.57481">
        <ele>733</ele>
        <time>2025-07-16T13:20:46Z</time>
      </trkpt>
      <trkpt lat="46.20217" lon="4.57529">
        <ele>730.9</ele>
        <time>2025-07-16T13:20:52Z</time>
      </trkpt>
      <trkpt lat="46.20205" lon="4.57568">
        <ele>729.2</ele>
        <time>2025-07-16T13:20:57Z</time>
      </trkpt>
      <trkpt lat="46.20185" lon="4.57608">
        <ele>727.2</ele>
        <time>2025-07-16T13:21:03Z</time>
      </trkpt>
      <trkpt lat="46.20181" lon="4.57614">
        <ele>726.9</ele>
        <time>2025-07-16T13:21:04Z</time>
      </trkpt>
      <trkpt lat="46.20157" lon="4.57649">
        <ele>724.5</ele>
        <time>2025-07-16T13:21:10Z</time>
      </trkpt>
      <trkpt lat="46.20148" lon="4.57659">
        <ele>723.7</ele>
        <time>2025-07-16T13:21:12Z</time>
      </trkpt>
      <trkpt lat="46.20134" lon="4.57674">
        <ele>722.5</ele>
        <time>2025-07-16T13:21:15Z</time>
      </trkpt>
      <trkpt lat="46.20115" lon="4.57719">
        <ele>720.4</ele>
        <time>2025-07-16T13:21:21Z</time>
      </trkpt>
      <trkpt lat="46.20099" lon="4.57761">
        <ele>718.7</ele>
        <time>2025-07-16T13:21:27Z</time>
      </trkpt>
      <trkpt lat="46.20095" lon="4.57768">
        <ele>718.5</ele>
        <time>2025-07-16T13:21:28Z</time>
      </trkpt>
      <trkpt lat="46.20087" lon="4.57777">
        <ele>718</ele>
        <time>2025-07-16T13:21:30Z</time>
      </trkpt>
      <trkpt lat="46.20078" lon="4.57785">
        <ele>717.5</ele>
        <time>2025-07-16T13:21:32Z</time>
      </trkpt>
      <trkpt lat="46.20051" lon="4.57811">
        <ele>716.2</ele>
        <time>2025-07-16T13:21:38Z</time>
      </trkpt>
      <trkpt lat="46.20035" lon="4.57826">
        <ele>715.3</ele>
        <time>2025-07-16T13:21:42Z</time>
      </trkpt>
      <trkpt lat="46.20032" lon="4.57831">
        <ele>715.1</ele>
        <time>2025-07-16T13:21:43Z</time>
      </trkpt>
      <trkpt lat="46.20028" lon="4.57837">
        <ele>714.9</ele>
        <time>2025-07-16T13:21:44Z</time>
      </trkpt>
      <trkpt lat="46.20023" lon="4.57854">
        <ele>714.5</ele>
        <time>2025-07-16T13:21:46Z</time>
      </trkpt>
      <trkpt lat="46.20022" lon="4.57863">
        <ele>714.3</ele>
        <time>2025-07-16T13:21:47Z</time>
      </trkpt>
      <trkpt lat="46.20018" lon="4.57912">
        <ele>712.6</ele>
        <time>2025-07-16T13:21:53Z</time>
      </trkpt>
      <trkpt lat="46.20016" lon="4.57963">
        <ele>710.6</ele>
        <time>2025-07-16T13:21:59Z</time>
      </trkpt>
      <trkpt lat="46.20006" lon="4.58021">
        <ele>707.8</ele>
        <time>2025-07-16T13:22:06Z</time>
      </trkpt>
      <trkpt lat="46.20003" lon="4.58036">
        <ele>707.1</ele>
        <time>2025-07-16T13:22:08Z</time>
      </trkpt>
      <trkpt lat="46.19997" lon="4.58055">
        <ele>706.2</ele>
        <time>2025-07-16T13:22:11Z</time>
      </trkpt>
      <trkpt lat="46.19978" lon="4.58101">
        <ele>703.7</ele>
        <time>2025-07-16T13:22:18Z</time>
      </trkpt>
      <trkpt lat="46.19972" lon="4.58116">
        <ele>702.9</ele>
        <time>2025-07-16T13:22:20Z</time>
      </trkpt>
      <trkpt lat="46.1996" lon="4.58146">
        <ele>701.2</ele>
        <time>2025-07-16T13:22:24Z</time>
      </trkpt>
      <trkpt lat="46.19945" lon="4.58181">
        <ele>699.4</ele>
        <time>2025-07-16T13:22:29Z</time>
      </trkpt>
      <trkpt lat="46.19939" lon="4.58195">
        <ele>698.7</ele>
        <time>2025-07-16T13:22:31Z</time>
      </trkpt>
      <trkpt lat="46.1992" lon="4.58236">
        <ele>696.5</ele>
        <time>2025-07-16T13:22:37Z</time>
      </trkpt>
      <trkpt lat="46.19891" lon="4.58301">
        <ele>693.2</ele>
        <time>2025-07-16T13:22:46Z</time>
      </trkpt>
      <trkpt lat="46.19873" lon="4.58341">
        <ele>691.3</ele>
        <time>2025-07-16T13:22:52Z</time>
      </trkpt>
      <trkpt lat="46.1986" lon="4.58365">
        <ele>690.1</ele>
        <time>2025-07-16T13:22:58Z</time>
      </trkpt>
      <trkpt lat="46.19839" lon="4.58403">
        <ele>688.1</ele>
        <time>2025-07-16T13:23:05Z</time>
      </trkpt>
      <trkpt lat="46.19836" lon="4.58408">
        <ele>687.9</ele>
        <time>2025-07-16T13:23:06Z</time>
      </trkpt>
      <trkpt lat="46.19825" lon="4.58428">
        <ele>686.9</ele>
        <time>2025-07-16T13:23:10Z</time>
      </trkpt>
      <trkpt lat="46.19823" lon="4.58433">
        <ele>686.6</ele>
        <time>2025-07-16T13:23:11Z</time>
      </trkpt>
      <trkpt lat="46.19811" lon="4.58441">
        <ele>685.9</ele>
        <time>2025-07-16T13:23:14Z</time>
      </trkpt>
      <trkpt lat="46.19802" lon="4.58444">
        <ele>685.3</ele>
        <time>2025-07-16T13:23:16Z</time>
      </trkpt>
      <trkpt lat="46.19792" lon="4.58443">
        <ele>684.7</ele>
        <time>2025-07-16T13:23:18Z</time>
      </trkpt>
      <trkpt lat="46.19776" lon="4.58433">
        <ele>683.7</ele>
        <time>2025-07-16T13:23:21Z</time>
      </trkpt>
      <trkpt lat="46.19748" lon="4.58411">
        <ele>681.8</ele>
        <time>2025-07-16T13:23:27Z</time>
      </trkpt>
      <trkpt lat="46.19726" lon="4.58383">
        <ele>680.1</ele>
        <time>2025-07-16T13:23:33Z</time>
      </trkpt>
      <trkpt lat="46.19719" lon="4.58374">
        <ele>679.5</ele>
        <time>2025-07-16T13:23:35Z</time>
      </trkpt>
      <trkpt lat="46.19712" lon="4.58366">
        <ele>679</ele>
        <time>2025-07-16T13:23:37Z</time>
      </trkpt>
      <trkpt lat="46.19707" lon="4.58365">
        <ele>678.7</ele>
        <time>2025-07-16T13:23:38Z</time>
      </trkpt>
      <trkpt lat="46.19699" lon="4.58364">
        <ele>678.2</ele>
        <time>2025-07-16T13:23:40Z</time>
      </trkpt>
      <trkpt lat="46.19691" lon="4.58364">
        <ele>677.8</ele>
        <time>2025-07-16T13:23:42Z</time>
      </trkpt>
      <trkpt lat="46.19661" lon="4.58365">
        <ele>675.9</ele>
        <time>2025-07-16T13:23:48Z</time>
      </trkpt>
      <trkpt lat="46.19636" lon="4.58365">
        <ele>674.3</ele>
        <time>2025-07-16T13:23:53Z</time>
      </trkpt>
      <trkpt lat="46.19625" lon="4.58366">
        <ele>673.7</ele>
        <time>2025-07-16T13:23:55Z</time>
      </trkpt>
      <trkpt lat="46.19611" lon="4.58366">
        <ele>672.8</ele>
        <time>2025-07-16T13:23:58Z</time>
      </trkpt>
      <trkpt lat="46.19576" lon="4.58367">
        <ele>670.6</ele>
        <time>2025-07-16T13:24:04Z</time>
      </trkpt>
      <trkpt lat="46.19526" lon="4.58369">
        <ele>667.5</ele>
        <time>2025-07-16T13:24:12Z</time>
      </trkpt>
      <trkpt lat="46.19492" lon="4.58369">
        <ele>665.8</ele>
        <time>2025-07-16T13:24:18Z</time>
      </trkpt>
      <trkpt lat="46.19464" lon="4.5837">
        <ele>664.5</ele>
        <time>2025-07-16T13:24:24Z</time>
      </trkpt>
      <trkpt lat="46.19454" lon="4.58372">
        <ele>664.1</ele>
        <time>2025-07-16T13:24:26Z</time>
      </trkpt>
      <trkpt lat="46.19444" lon="4.58383">
        <ele>663.5</ele>
        <time>2025-07-16T13:24:29Z</time>
      </trkpt>
      <trkpt lat="46.19443" lon="4.58394">
        <ele>663</ele>
        <time>2025-07-16T13:24:31Z</time>
      </trkpt>
      <trkpt lat="46.19443" lon="4.58399">
        <ele>662.8</ele>
        <time>2025-07-16T13:24:32Z</time>
      </trkpt>
      <trkpt lat="46.19442" lon="4.58405">
        <ele>662.5</ele>
        <time>2025-07-16T13:24:33Z</time>
      </trkpt>
      <trkpt lat="46.19445" lon="4.58416">
        <ele>661.9</ele>
        <time>2025-07-16T13:24:35Z</time>
      </trkpt>
      <trkpt lat="46.19448" lon="4.58421">
        <ele>661.6</ele>
        <time>2025-07-16T13:24:36Z</time>
      </trkpt>
      <trkpt lat="46.19452" lon="4.58424">
        <ele>661.3</ele>
        <time>2025-07-16T13:24:37Z</time>
      </trkpt>
      <trkpt lat="46.19469" lon="4.58435">
        <ele>660.1</ele>
        <time>2025-07-16T13:24:41Z</time>
      </trkpt>
      <trkpt lat="46.19498" lon="4.58455">
        <ele>658</ele>
        <time>2025-07-16T13:24:48Z</time>
      </trkpt>
      <trkpt lat="46.19528" lon="4.58478">
        <ele>655.9</ele>
        <time>2025-07-16T13:24:55Z</time>
      </trkpt>
      <trkpt lat="46.19548" lon="4.58507">
        <ele>654.1</ele>
        <time>2025-07-16T13:25:00Z</time>
      </trkpt>
      <trkpt lat="46.19567" lon="4.58542">
        <ele>652.1</ele>
        <time>2025-07-16T13:25:05Z</time>
      </trkpt>
      <trkpt lat="46.19571" lon="4.58548">
        <ele>651.8</ele>
        <time>2025-07-16T13:25:06Z</time>
      </trkpt>
      <trkpt lat="46.19574" lon="4.58554">
        <ele>651.5</ele>
        <time>2025-07-16T13:25:07Z</time>
      </trkpt>
      <trkpt lat="46.19581" lon="4.58566">
        <ele>650.9</ele>
        <time>2025-07-16T13:25:09Z</time>
      </trkpt>
      <trkpt lat="46.19587" lon="4.58578">
        <ele>650.3</ele>
        <time>2025-07-16T13:25:11Z</time>
      </trkpt>
      <trkpt lat="46.1961" lon="4.58619">
        <ele>648.3</ele>
        <time>2025-07-16T13:25:18Z</time>
      </trkpt>
      <trkpt lat="46.19629" lon="4.58655">
        <ele>646.5</ele>
        <time>2025-07-16T13:25:24Z</time>
      </trkpt>
      <trkpt lat="46.19648" lon="4.58694">
        <ele>644.6</ele>
        <time>2025-07-16T13:25:30Z</time>
      </trkpt>
      <trkpt lat="46.19664" lon="4.58746">
        <ele>642.5</ele>
        <time>2025-07-16T13:25:37Z</time>
      </trkpt>
      <trkpt lat="46.19671" lon="4.58791">
        <ele>640.9</ele>
        <time>2025-07-16T13:25:43Z</time>
      </trkpt>
      <trkpt lat="46.19673" lon="4.58798">
        <ele>640.6</ele>
        <time>2025-07-16T13:25:44Z</time>
      </trkpt>
      <trkpt lat="46.19674" lon="4.5883">
        <ele>639.5</ele>
        <time>2025-07-16T13:25:48Z</time>
      </trkpt>
      <trkpt lat="46.19666" lon="4.58877">
        <ele>637.6</ele>
        <time>2025-07-16T13:25:54Z</time>
      </trkpt>
      <trkpt lat="46.19653" lon="4.58918">
        <ele>635.9</ele>
        <time>2025-07-16T13:26:00Z</time>
      </trkpt>
      <trkpt lat="46.19644" lon="4.58934">
        <ele>635.1</ele>
        <time>2025-07-16T13:26:03Z</time>
      </trkpt>
      <trkpt lat="46.19638" lon="4.58946">
        <ele>634.7</ele>
        <time>2025-07-16T13:26:05Z</time>
      </trkpt>
      <trkpt lat="46.19634" lon="4.5895">
        <ele>634.4</ele>
        <time>2025-07-16T13:26:06Z</time>
      </trkpt>
      <trkpt lat="46.1963" lon="4.58954">
        <ele>634.2</ele>
        <time>2025-07-16T13:26:07Z</time>
      </trkpt>
      <trkpt lat="46.19614" lon="4.58962">
        <ele>633.6</ele>
        <time>2025-07-16T13:26:10Z</time>
      </trkpt>
      <trkpt lat="46.19598" lon="4.58964">
        <ele>633</ele>
        <time>2025-07-16T13:26:13Z</time>
      </trkpt>
      <trkpt lat="46.19583" lon="4.58967">
        <ele>632.4</ele>
        <time>2025-07-16T13:26:16Z</time>
      </trkpt>
      <trkpt lat="46.19563" lon="4.58971">
        <ele>631.7</ele>
        <time>2025-07-16T13:26:20Z</time>
      </trkpt>
      <trkpt lat="46.19552" lon="4.58976">
        <ele>631.3</ele>
        <time>2025-07-16T13:26:22Z</time>
      </trkpt>
      <trkpt lat="46.19543" lon="4.58983">
        <ele>630.9</ele>
        <time>2025-07-16T13:26:24Z</time>
      </trkpt>
      <trkpt lat="46.19536" lon="4.58992">
        <ele>630.5</ele>
        <time>2025-07-16T13:26:26Z</time>
      </trkpt>
      <trkpt lat="46.19522" lon="4.59036">
        <ele>629.2</ele>
        <time>2025-07-16T13:26:32Z</time>
      </trkpt>
      <trkpt lat="46.19516" lon="4.59058">
        <ele>628.5</ele>
        <time>2025-07-16T13:26:35Z</time>
      </trkpt>
      <trkpt lat="46.19506" lon="4.59076">
        <ele>627.8</ele>
        <time>2025-07-16T13:26:38Z</time>
      </trkpt>
      <trkpt lat="46.19502" lon="4.59082">
        <ele>627.6</ele>
        <time>2025-07-16T13:26:39Z</time>
      </trkpt>
      <trkpt lat="46.19498" lon="4.59087">
        <ele>627.4</ele>
        <time>2025-07-16T13:26:40Z</time>
      </trkpt>
      <trkpt lat="46.19491" lon="4.59098">
        <ele>626.9</ele>
        <time>2025-07-16T13:26:42Z</time>
      </trkpt>
      <trkpt lat="46.19482" lon="4.59104">
        <ele>626.4</ele>
        <time>2025-07-16T13:26:44Z</time>
      </trkpt>
      <trkpt lat="46.19476" lon="4.59107">
        <ele>626.1</ele>
        <time>2025-07-16T13:26:45Z</time>
      </trkpt>
      <trkpt lat="46.19459" lon="4.59109">
        <ele>625.3</ele>
        <time>2025-07-16T13:26:48Z</time>
      </trkpt>
      <trkpt lat="46.19417" lon="4.59112">
        <ele>623.9</ele>
        <time>2025-07-16T13:26:55Z</time>
      </trkpt>
      <trkpt lat="46.19399" lon="4.59113">
        <ele>623.4</ele>
        <time>2025-07-16T13:26:58Z</time>
      </trkpt>
      <trkpt lat="46.19389" lon="4.59118">
        <ele>623.3</ele>
        <time>2025-07-16T13:27:00Z</time>
      </trkpt>
      <trkpt lat="46.19376" lon="4.59132">
        <ele>623.2</ele>
        <time>2025-07-16T13:27:03Z</time>
      </trkpt>
      <trkpt lat="46.19373" lon="4.59136">
        <ele>623.2</ele>
        <time>2025-07-16T13:27:04Z</time>
      </trkpt>
      <trkpt lat="46.19371" lon="4.59142">
        <ele>623.1</ele>
        <time>2025-07-16T13:27:05Z</time>
      </trkpt>
      <trkpt lat="46.19366" lon="4.59154">
        <ele>623</ele>
        <time>2025-07-16T13:27:07Z</time>
      </trkpt>
      <trkpt lat="46.19366" lon="4.59167">
        <ele>623</ele>
        <time>2025-07-16T13:27:09Z</time>
      </trkpt>
      <trkpt lat="46.19368" lon="4.59188">
        <ele>623.1</ele>
        <time>2025-07-16T13:27:12Z</time>
      </trkpt>
      <trkpt lat="46.19373" lon="4.59201">
        <ele>623.3</ele>
        <time>2025-07-16T13:27:14Z</time>
      </trkpt>
      <trkpt lat="46.19381" lon="4.59213">
        <ele>623.7</ele>
        <time>2025-07-16T13:27:16Z</time>
      </trkpt>
      <trkpt lat="46.19392" lon="4.59221">
        <ele>624.2</ele>
        <time>2025-07-16T13:27:18Z</time>
      </trkpt>
      <trkpt lat="46.19425" lon="4.59233">
        <ele>625.8</ele>
        <time>2025-07-16T13:27:24Z</time>
      </trkpt>
      <trkpt lat="46.19434" lon="4.59236">
        <ele>626.3</ele>
        <time>2025-07-16T13:27:26Z</time>
      </trkpt>
      <trkpt lat="46.19449" lon="4.59242">
        <ele>627.1</ele>
        <time>2025-07-16T13:27:29Z</time>
      </trkpt>
      <trkpt lat="46.19475" lon="4.59256">
        <ele>628.8</ele>
        <time>2025-07-16T13:27:35Z</time>
      </trkpt>
      <trkpt lat="46.195" lon="4.5927">
        <ele>630.1</ele>
        <time>2025-07-16T13:27:42Z</time>
      </trkpt>
      <trkpt lat="46.19514" lon="4.59276">
        <ele>630.6</ele>
        <time>2025-07-16T13:27:46Z</time>
      </trkpt>
      <trkpt lat="46.19518" lon="4.59277">
        <ele>630.8</ele>
        <time>2025-07-16T13:27:47Z</time>
      </trkpt>
      <trkpt lat="46.19522" lon="4.59278">
        <ele>631</ele>
        <time>2025-07-16T13:27:48Z</time>
      </trkpt>
      <trkpt lat="46.19539" lon="4.59283">
        <ele>631.6</ele>
        <time>2025-07-16T13:27:52Z</time>
      </trkpt>
      <trkpt lat="46.19564" lon="4.59289">
        <ele>632.7</ele>
        <time>2025-07-16T13:27:58Z</time>
      </trkpt>
      <trkpt lat="46.19581" lon="4.59294">
        <ele>633.4</ele>
        <time>2025-07-16T13:28:04Z</time>
      </trkpt>
      <trkpt lat="46.19599" lon="4.59302">
        <ele>634</ele>
        <time>2025-07-16T13:28:09Z</time>
      </trkpt>
      <trkpt lat="46.19614" lon="4.59322">
        <ele>634.6</ele>
        <time>2025-07-16T13:28:15Z</time>
      </trkpt>
      <trkpt lat="46.19624" lon="4.5934">
        <ele>635.1</ele>
        <time>2025-07-16T13:28:21Z</time>
      </trkpt>
      <trkpt lat="46.1964" lon="4.59359">
        <ele>635.5</ele>
        <time>2025-07-16T13:28:27Z</time>
      </trkpt>
      <trkpt lat="46.1966" lon="4.59384">
        <ele>635.8</ele>
        <time>2025-07-16T13:28:33Z</time>
      </trkpt>
      <trkpt lat="46.19685" lon="4.59413">
        <ele>636.2</ele>
        <time>2025-07-16T13:28:40Z</time>
      </trkpt>
      <trkpt lat="46.19688" lon="4.59417">
        <ele>636.2</ele>
        <time>2025-07-16T13:28:41Z</time>
      </trkpt>
      <trkpt lat="46.19703" lon="4.5944">
        <ele>636.7</ele>
        <time>2025-07-16T13:28:46Z</time>
      </trkpt>
      <trkpt lat="46.19716" lon="4.59471">
        <ele>637.5</ele>
        <time>2025-07-16T13:28:52Z</time>
      </trkpt>
      <trkpt lat="46.19729" lon="4.595">
        <ele>638.5</ele>
        <time>2025-07-16T13:28:58Z</time>
      </trkpt>
      <trkpt lat="46.19738" lon="4.59521">
        <ele>639.2</ele>
        <time>2025-07-16T13:29:04Z</time>
      </trkpt>
      <trkpt lat="46.19747" lon="4.59542">
        <ele>640</ele>
        <time>2025-07-16T13:29:10Z</time>
      </trkpt>
      <trkpt lat="46.19757" lon="4.59564">
        <ele>640.7</ele>
        <time>2025-07-16T13:29:16Z</time>
      </trkpt>
      <trkpt lat="46.19768" lon="4.59588">
        <ele>641.5</ele>
        <time>2025-07-16T13:29:22Z</time>
      </trkpt>
      <trkpt lat="46.19779" lon="4.59616">
        <ele>642.3</ele>
        <time>2025-07-16T13:29:28Z</time>
      </trkpt>
      <trkpt lat="46.19787" lon="4.59639">
        <ele>643</ele>
        <time>2025-07-16T13:29:33Z</time>
      </trkpt>
      <trkpt lat="46.19797" lon="4.59668">
        <ele>643.8</ele>
        <time>2025-07-16T13:29:39Z</time>
      </trkpt>
      <trkpt lat="46.19799" lon="4.59699">
        <ele>644.7</ele>
        <time>2025-07-16T13:29:46Z</time>
      </trkpt>
      <trkpt lat="46.19801" lon="4.59726">
        <ele>645.4</ele>
        <time>2025-07-16T13:29:52Z</time>
      </trkpt>
      <trkpt lat="46.19804" lon="4.59763">
        <ele>646.4</ele>
        <time>2025-07-16T13:30:00Z</time>
      </trkpt>
      <trkpt lat="46.19807" lon="4.59799">
        <ele>647.3</ele>
        <time>2025-07-16T13:30:07Z</time>
      </trkpt>
      <trkpt lat="46.19805" lon="4.5983">
        <ele>648.1</ele>
        <time>2025-07-16T13:30:13Z</time>
      </trkpt>
      <trkpt lat="46.19797" lon="4.59857">
        <ele>648.9</ele>
        <time>2025-07-16T13:30:20Z</time>
      </trkpt>
      <trkpt lat="46.19784" lon="4.5988">
        <ele>649.8</ele>
        <time>2025-07-16T13:30:26Z</time>
      </trkpt>
      <trkpt lat="46.19771" lon="4.59895">
        <ele>650.5</ele>
        <time>2025-07-16T13:30:32Z</time>
      </trkpt>
      <trkpt lat="46.19759" lon="4.59908">
        <ele>651.2</ele>
        <time>2025-07-16T13:30:39Z</time>
      </trkpt>
      <trkpt lat="46.19743" lon="4.59926">
        <ele>652</ele>
        <time>2025-07-16T13:30:45Z</time>
      </trkpt>
      <trkpt lat="46.19727" lon="4.59943">
        <ele>652.8</ele>
        <time>2025-07-16T13:30:51Z</time>
      </trkpt>
      <trkpt lat="46.19719" lon="4.59967">
        <ele>653.4</ele>
        <time>2025-07-16T13:30:57Z</time>
      </trkpt>
      <trkpt lat="46.19724" lon="4.6">
        <ele>654.1</ele>
        <time>2025-07-16T13:31:03Z</time>
      </trkpt>
      <trkpt lat="46.19733" lon="4.60022">
        <ele>654.7</ele>
        <time>2025-07-16T13:31:08Z</time>
      </trkpt>
      <trkpt lat="46.19754" lon="4.6005">
        <ele>655.6</ele>
        <time>2025-07-16T13:31:16Z</time>
      </trkpt>
      <trkpt lat="46.1976" lon="4.60075">
        <ele>656.4</ele>
        <time>2025-07-16T13:31:21Z</time>
      </trkpt>
      <trkpt lat="46.19759" lon="4.60101">
        <ele>657.1</ele>
        <time>2025-07-16T13:31:27Z</time>
      </trkpt>
      <trkpt lat="46.1975" lon="4.60133">
        <ele>658</ele>
        <time>2025-07-16T13:31:35Z</time>
      </trkpt>
      <trkpt lat="46.19742" lon="4.60161">
        <ele>658.9</ele>
        <time>2025-07-16T13:31:42Z</time>
      </trkpt>
      <trkpt lat="46.19728" lon="4.60207">
        <ele>660.4</ele>
        <time>2025-07-16T13:31:52Z</time>
      </trkpt>
      <trkpt lat="46.19717" lon="4.6024">
        <ele>661.6</ele>
        <time>2025-07-16T13:31:59Z</time>
      </trkpt>
      <trkpt lat="46.19709" lon="4.6026">
        <ele>662.4</ele>
        <time>2025-07-16T13:32:05Z</time>
      </trkpt>
      <trkpt lat="46.19695" lon="4.60279">
        <ele>663.3</ele>
        <time>2025-07-16T13:32:12Z</time>
      </trkpt>
      <trkpt lat="46.19683" lon="4.60293">
        <ele>664.3</ele>
        <time>2025-07-16T13:32:18Z</time>
      </trkpt>
      <trkpt lat="46.19662" lon="4.60312">
        <ele>665.7</ele>
        <time>2025-07-16T13:32:27Z</time>
      </trkpt>
      <trkpt lat="46.19643" lon="4.6032">
        <ele>666.9</ele>
        <time>2025-07-16T13:32:34Z</time>
      </trkpt>
      <trkpt lat="46.19629" lon="4.60325">
        <ele>667.7</ele>
        <time>2025-07-16T13:32:40Z</time>
      </trkpt>
      <trkpt lat="46.19616" lon="4.60326">
        <ele>668.5</ele>
        <time>2025-07-16T13:32:47Z</time>
      </trkpt>
      <trkpt lat="46.19597" lon="4.60328">
        <ele>669.6</ele>
        <time>2025-07-16T13:32:55Z</time>
      </trkpt>
      <trkpt lat="46.19583" lon="4.60329">
        <ele>670.4</ele>
        <time>2025-07-16T13:33:01Z</time>
      </trkpt>
      <trkpt lat="46.19572" lon="4.60331">
        <ele>670.7</ele>
        <time>2025-07-16T13:33:07Z</time>
      </trkpt>
      <trkpt lat="46.19572" lon="4.60331">
        <ele>670.7</ele>
        <time>2025-07-16T13:33:15Z</time>
      </trkpt>
      <trkpt lat="46.19572" lon="4.60331">
        <ele>670.7</ele>
        <time>2025-07-16T13:33:37Z</time>
      </trkpt>
      <trkpt lat="46.19572" lon="4.60331">
        <ele>670.7</ele>
        <time>2025-07-16T13:33:53Z</time>
      </trkpt>
      <trkpt lat="46.19572" lon="4.60331">
        <ele>670.7</ele>
        <time>2025-07-16T13:33:56Z</time>
      </trkpt>
      <trkpt lat="46.19572" lon="4.60331">
        <ele>670.7</ele>
        <time>2025-07-16T13:33:59Z</time>
      </trkpt>
      <trkpt lat="46.19572" lon="4.60331">
        <ele>670.7</ele>
        <time>2025-07-16T13:34:07Z</time>
      </trkpt>
      <trkpt lat="46.19572" lon="4.60331">
        <ele>670.7</ele>
        <time>2025-07-16T13:34:20Z</time>
      </trkpt>
      <trkpt lat="46.19566" lon="4.60332">
        <ele>670.7</ele>
        <time>2025-07-16T13:34:29Z</time>
      </trkpt>
      <trkpt lat="46.19553" lon="4.60336">
        <ele>671.4</ele>
        <time>2025-07-16T13:34:35Z</time>
      </trkpt>
      <trkpt lat="46.19536" lon="4.60341">
        <ele>672.4</ele>
        <time>2025-07-16T13:34:43Z</time>
      </trkpt>
      <trkpt lat="46.1952" lon="4.60351">
        <ele>673.3</ele>
        <time>2025-07-16T13:34:49Z</time>
      </trkpt>
      <trkpt lat="46.19503" lon="4.60367">
        <ele>674.4</ele>
        <time>2025-07-16T13:34:57Z</time>
      </trkpt>
      <trkpt lat="46.19491" lon="4.60384">
        <ele>675.3</ele>
        <time>2025-07-16T13:35:04Z</time>
      </trkpt>
      <trkpt lat="46.19481" lon="4.60404">
        <ele>676.4</ele>
        <time>2025-07-16T13:35:11Z</time>
      </trkpt>
      <trkpt lat="46.19472" lon="4.60425">
        <ele>677.4</ele>
        <time>2025-07-16T13:35:18Z</time>
      </trkpt>
      <trkpt lat="46.19469" lon="4.6045">
        <ele>678.4</ele>
        <time>2025-07-16T13:35:25Z</time>
      </trkpt>
      <trkpt lat="46.19465" lon="4.60477">
        <ele>679.1</ele>
        <time>2025-07-16T13:35:33Z</time>
      </trkpt>
      <trkpt lat="46.19462" lon="4.60502">
        <ele>679.6</ele>
        <time>2025-07-16T13:35:40Z</time>
      </trkpt>
      <trkpt lat="46.19459" lon="4.6053">
        <ele>680.2</ele>
        <time>2025-07-16T13:35:47Z</time>
      </trkpt>
      <trkpt lat="46.19455" lon="4.60563">
        <ele>680.9</ele>
        <time>2025-07-16T13:35:55Z</time>
      </trkpt>
      <trkpt lat="46.1945" lon="4.60599">
        <ele>681.8</ele>
        <time>2025-07-16T13:36:04Z</time>
      </trkpt>
      <trkpt lat="46.19445" lon="4.60627">
        <ele>682.2</ele>
        <time>2025-07-16T13:36:11Z</time>
      </trkpt>
      <trkpt lat="46.1944" lon="4.60653">
        <ele>682.7</ele>
        <time>2025-07-16T13:36:18Z</time>
      </trkpt>
      <trkpt lat="46.19435" lon="4.60677">
        <ele>683.2</ele>
        <time>2025-07-16T13:36:25Z</time>
      </trkpt>
      <trkpt lat="46.19431" lon="4.60698">
        <ele>683.8</ele>
        <time>2025-07-16T13:36:31Z</time>
      </trkpt>
      <trkpt lat="46.19426" lon="4.60722">
        <ele>685.1</ele>
        <time>2025-07-16T13:36:38Z</time>
      </trkpt>
      <trkpt lat="46.1942" lon="4.60752">
        <ele>686.8</ele>
        <time>2025-07-16T13:36:47Z</time>
      </trkpt>
      <trkpt lat="46.19415" lon="4.60778">
        <ele>688.2</ele>
        <time>2025-07-16T13:36:54Z</time>
      </trkpt>
      <trkpt lat="46.19412" lon="4.60794">
        <ele>689</ele>
        <time>2025-07-16T13:37:00Z</time>
      </trkpt>
      <trkpt lat="46.19408" lon="4.60815">
        <ele>689.4</ele>
        <time>2025-07-16T13:37:07Z</time>
      </trkpt>
      <trkpt lat="46.19403" lon="4.60838">
        <ele>690.4</ele>
        <time>2025-07-16T13:37:15Z</time>
      </trkpt>
      <trkpt lat="46.19398" lon="4.60862">
        <ele>691.5</ele>
        <time>2025-07-16T13:37:22Z</time>
      </trkpt>
      <trkpt lat="46.19393" lon="4.60883">
        <ele>692.6</ele>
        <time>2025-07-16T13:37:29Z</time>
      </trkpt>
      <trkpt lat="46.19389" lon="4.60901">
        <ele>693.4</ele>
        <time>2025-07-16T13:37:35Z</time>
      </trkpt>
      <trkpt lat="46.19385" lon="4.60923">
        <ele>694.6</ele>
        <time>2025-07-16T13:37:42Z</time>
      </trkpt>
      <trkpt lat="46.19379" lon="4.60947">
        <ele>695.8</ele>
        <time>2025-07-16T13:37:49Z</time>
      </trkpt>
      <trkpt lat="46.19375" lon="4.60969">
        <ele>696.9</ele>
        <time>2025-07-16T13:37:55Z</time>
      </trkpt>
      <trkpt lat="46.19363" lon="4.60995">
        <ele>697.6</ele>
        <time>2025-07-16T13:38:03Z</time>
      </trkpt>
      <trkpt lat="46.19352" lon="4.61018">
        <ele>699</ele>
        <time>2025-07-16T13:38:10Z</time>
      </trkpt>
      <trkpt lat="46.19345" lon="4.61032">
        <ele>699.8</ele>
        <time>2025-07-16T13:38:16Z</time>
      </trkpt>
      <trkpt lat="46.19338" lon="4.61045">
        <ele>700.5</ele>
        <time>2025-07-16T13:38:22Z</time>
      </trkpt>
      <trkpt lat="46.19329" lon="4.61064">
        <ele>701.5</ele>
        <time>2025-07-16T13:38:29Z</time>
      </trkpt>
      <trkpt lat="46.1932" lon="4.61081">
        <ele>702.4</ele>
        <time>2025-07-16T13:38:36Z</time>
      </trkpt>
      <trkpt lat="46.19312" lon="4.61095">
        <ele>703.1</ele>
        <time>2025-07-16T13:38:41Z</time>
      </trkpt>
      <trkpt lat="46.19301" lon="4.61112">
        <ele>704.2</ele>
        <time>2025-07-16T13:38:49Z</time>
      </trkpt>
      <trkpt lat="46.19288" lon="4.61132">
        <ele>705.5</ele>
        <time>2025-07-16T13:38:57Z</time>
      </trkpt>
      <trkpt lat="46.19276" lon="4.61148">
        <ele>706.6</ele>
        <time>2025-07-16T13:39:05Z</time>
      </trkpt>
      <trkpt lat="46.1926" lon="4.61167">
        <ele>707.9</ele>
        <time>2025-07-16T13:39:14Z</time>
      </trkpt>
      <trkpt lat="46.19248" lon="4.61183">
        <ele>709</ele>
        <time>2025-07-16T13:39:22Z</time>
      </trkpt>
      <trkpt lat="46.19237" lon="4.61204">
        <ele>710.2</ele>
        <time>2025-07-16T13:39:30Z</time>
      </trkpt>
      <trkpt lat="46.19231" lon="4.61221">
        <ele>711</ele>
        <time>2025-07-16T13:39:36Z</time>
      </trkpt>
      <trkpt lat="46.19228" lon="4.6124">
        <ele>711.9</ele>
        <time>2025-07-16T13:39:42Z</time>
      </trkpt>
      <trkpt lat="46.19225" lon="4.61271">
        <ele>713.3</ele>
        <time>2025-07-16T13:39:50Z</time>
      </trkpt>
      <trkpt lat="46.19223" lon="4.61289">
        <ele>714.1</ele>
        <time>2025-07-16T13:39:56Z</time>
      </trkpt>
      <trkpt lat="46.19221" lon="4.61326">
        <ele>715.8</ele>
        <time>2025-07-16T13:40:06Z</time>
      </trkpt>
      <trkpt lat="46.1922" lon="4.61352">
        <ele>717</ele>
        <time>2025-07-16T13:40:14Z</time>
      </trkpt>
      <trkpt lat="46.19219" lon="4.61373">
        <ele>718</ele>
        <time>2025-07-16T13:40:21Z</time>
      </trkpt>
      <trkpt lat="46.19219" lon="4.61389">
        <ele>718.7</ele>
        <time>2025-07-16T13:40:27Z</time>
      </trkpt>
      <trkpt lat="46.19219" lon="4.61407">
        <ele>719.5</ele>
        <time>2025-07-16T13:40:34Z</time>
      </trkpt>
      <trkpt lat="46.1922" lon="4.61427">
        <ele>720.4</ele>
        <time>2025-07-16T13:40:41Z</time>
      </trkpt>
      <trkpt lat="46.19222" lon="4.61451">
        <ele>721.5</ele>
        <time>2025-07-16T13:40:48Z</time>
      </trkpt>
      <trkpt lat="46.19223" lon="4.61471">
        <ele>722.4</ele>
        <time>2025-07-16T13:40:54Z</time>
      </trkpt>
      <trkpt lat="46.19224" lon="4.61494">
        <ele>723.4</ele>
        <time>2025-07-16T13:41:01Z</time>
      </trkpt>
      <trkpt lat="46.19225" lon="4.61517">
        <ele>724.5</ele>
        <time>2025-07-16T13:41:08Z</time>
      </trkpt>
      <trkpt lat="46.19226" lon="4.61534">
        <ele>725.2</ele>
        <time>2025-07-16T13:41:13Z</time>
      </trkpt>
      <trkpt lat="46.19227" lon="4.61558">
        <ele>726.4</ele>
        <time>2025-07-16T13:41:20Z</time>
      </trkpt>
      <trkpt lat="46.19228" lon="4.6159">
        <ele>727.9</ele>
        <time>2025-07-16T13:41:29Z</time>
      </trkpt>
      <trkpt lat="46.19229" lon="4.61607">
        <ele>728.7</ele>
        <time>2025-07-16T13:41:34Z</time>
      </trkpt>
      <trkpt lat="46.1923" lon="4.6163">
        <ele>729.7</ele>
        <time>2025-07-16T13:41:41Z</time>
      </trkpt>
      <trkpt lat="46.19232" lon="4.61652">
        <ele>730.7</ele>
        <time>2025-07-16T13:41:49Z</time>
      </trkpt>
      <trkpt lat="46.19233" lon="4.61681">
        <ele>732.1</ele>
        <time>2025-07-16T13:41:58Z</time>
      </trkpt>
      <trkpt lat="46.19234" lon="4.61707">
        <ele>733.4</ele>
        <time>2025-07-16T13:42:06Z</time>
      </trkpt>
      <trkpt lat="46.19235" lon="4.61729">
        <ele>734.4</ele>
        <time>2025-07-16T13:42:13Z</time>
      </trkpt>
      <trkpt lat="46.19236" lon="4.61746">
        <ele>735.2</ele>
        <time>2025-07-16T13:42:19Z</time>
      </trkpt>
      <trkpt lat="46.19237" lon="4.61772">
        <ele>736.2</ele>
        <time>2025-07-16T13:42:27Z</time>
      </trkpt>
      <trkpt lat="46.19239" lon="4.61807">
        <ele>737.7</ele>
        <time>2025-07-16T13:42:38Z</time>
      </trkpt>
      <trkpt lat="46.1924" lon="4.61838">
        <ele>739.3</ele>
        <time>2025-07-16T13:42:47Z</time>
      </trkpt>
      <trkpt lat="46.19242" lon="4.61863">
        <ele>740.1</ele>
        <time>2025-07-16T13:42:55Z</time>
      </trkpt>
      <trkpt lat="46.19243" lon="4.61888">
        <ele>740.7</ele>
        <time>2025-07-16T13:43:03Z</time>
      </trkpt>
      <trkpt lat="46.19245" lon="4.6192">
        <ele>741.3</ele>
        <time>2025-07-16T13:43:12Z</time>
      </trkpt>
      <trkpt lat="46.19246" lon="4.6195">
        <ele>741.6</ele>
        <time>2025-07-16T13:43:21Z</time>
      </trkpt>
      <trkpt lat="46.19247" lon="4.61952">
        <ele>741.6</ele>
        <time>2025-07-16T13:43:26Z</time>
      </trkpt>
      <trkpt lat="46.19247" lon="4.61952">
        <ele>741.6</ele>
        <time>2025-07-16T13:43:41Z</time>
      </trkpt>
      <trkpt lat="46.19247" lon="4.61952">
        <ele>741.6</ele>
        <time>2025-07-16T13:44:01Z</time>
      </trkpt>
      <trkpt lat="46.19247" lon="4.61952">
        <ele>741.6</ele>
        <time>2025-07-16T13:44:24Z</time>
      </trkpt>
      <trkpt lat="46.19247" lon="4.61952">
        <ele>741.6</ele>
        <time>2025-07-16T13:44:43Z</time>
      </trkpt>
      <trkpt lat="46.19247" lon="4.61952">
        <ele>741.6</ele>
        <time>2025-07-16T13:44:58Z</time>
      </trkpt>
      <trkpt lat="46.19247" lon="4.61952">
        <ele>741.6</ele>
        <time>2025-07-16T13:45:17Z</time>
      </trkpt>
      <trkpt lat="46.19247" lon="4.61959">
        <ele>741.5</ele>
        <time>2025-07-16T13:45:26Z</time>
      </trkpt>
      <trkpt lat="46.19248" lon="4.61961">
        <ele>741.5</ele>
        <time>2025-07-16T13:45:27Z</time>
      </trkpt>
      <trkpt lat="46.19251" lon="4.61976">
        <ele>741.2</ele>
        <time>2025-07-16T13:45:32Z</time>
      </trkpt>
      <trkpt lat="46.1926" lon="4.62013">
        <ele>740.2</ele>
        <time>2025-07-16T13:45:41Z</time>
      </trkpt>
      <trkpt lat="46.19268" lon="4.62051">
        <ele>738.6</ele>
        <time>2025-07-16T13:45:48Z</time>
      </trkpt>
      <trkpt lat="46.19279" lon="4.62102">
        <ele>736.4</ele>
        <time>2025-07-16T13:45:56Z</time>
      </trkpt>
      <trkpt lat="46.19292" lon="4.62161">
        <ele>734</ele>
        <time>2025-07-16T13:46:05Z</time>
      </trkpt>
      <trkpt lat="46.1931" lon="4.62214">
        <ele>731.9</ele>
        <time>2025-07-16T13:46:14Z</time>
      </trkpt>
      <trkpt lat="46.19328" lon="4.6225">
        <ele>730.1</ele>
        <time>2025-07-16T13:46:21Z</time>
      </trkpt>
      <trkpt lat="46.19347" lon="4.62292">
        <ele>728.2</ele>
        <time>2025-07-16T13:46:28Z</time>
      </trkpt>
      <trkpt lat="46.19349" lon="4.62298">
        <ele>728</ele>
        <time>2025-07-16T13:46:29Z</time>
      </trkpt>
      <trkpt lat="46.19351" lon="4.62318">
        <ele>727.1</ele>
        <time>2025-07-16T13:46:32Z</time>
      </trkpt>
      <trkpt lat="46.19351" lon="4.62325">
        <ele>726.8</ele>
        <time>2025-07-16T13:46:33Z</time>
      </trkpt>
      <trkpt lat="46.1935" lon="4.62332">
        <ele>726.5</ele>
        <time>2025-07-16T13:46:34Z</time>
      </trkpt>
      <trkpt lat="46.19346" lon="4.62344">
        <ele>726</ele>
        <time>2025-07-16T13:46:36Z</time>
      </trkpt>
      <trkpt lat="46.19341" lon="4.62356">
        <ele>725.3</ele>
        <time>2025-07-16T13:46:38Z</time>
      </trkpt>
      <trkpt lat="46.19335" lon="4.62367">
        <ele>724.7</ele>
        <time>2025-07-16T13:46:40Z</time>
      </trkpt>
      <trkpt lat="46.19328" lon="4.62373">
        <ele>724.1</ele>
        <time>2025-07-16T13:46:42Z</time>
      </trkpt>
      <trkpt lat="46.19299" lon="4.62397">
        <ele>721.8</ele>
        <time>2025-07-16T13:46:50Z</time>
      </trkpt>
      <trkpt lat="46.19267" lon="4.62424">
        <ele>719.5</ele>
        <time>2025-07-16T13:46:58Z</time>
      </trkpt>
      <trkpt lat="46.19235" lon="4.62451">
        <ele>717.3</ele>
        <time>2025-07-16T13:47:06Z</time>
      </trkpt>
      <trkpt lat="46.19206" lon="4.62477">
        <ele>715.3</ele>
        <time>2025-07-16T13:47:14Z</time>
      </trkpt>
      <trkpt lat="46.192" lon="4.62487">
        <ele>714.7</ele>
        <time>2025-07-16T13:47:16Z</time>
      </trkpt>
      <trkpt lat="46.19192" lon="4.62504">
        <ele>713.8</ele>
        <time>2025-07-16T13:47:19Z</time>
      </trkpt>
      <trkpt lat="46.19172" lon="4.6255">
        <ele>711.6</ele>
        <time>2025-07-16T13:47:28Z</time>
      </trkpt>
      <trkpt lat="46.19154" lon="4.62587">
        <ele>709.7</ele>
        <time>2025-07-16T13:47:35Z</time>
      </trkpt>
      <trkpt lat="46.19132" lon="4.62617">
        <ele>707.9</ele>
        <time>2025-07-16T13:47:42Z</time>
      </trkpt>
      <trkpt lat="46.1911" lon="4.62647">
        <ele>706</ele>
        <time>2025-07-16T13:47:49Z</time>
      </trkpt>
      <trkpt lat="46.19083" lon="4.62683">
        <ele>703.6</ele>
        <time>2025-07-16T13:47:58Z</time>
      </trkpt>
      <trkpt lat="46.19067" lon="4.62707">
        <ele>702.2</ele>
        <time>2025-07-16T13:48:04Z</time>
      </trkpt>
      <trkpt lat="46.19046" lon="4.62744">
        <ele>700.2</ele>
        <time>2025-07-16T13:48:12Z</time>
      </trkpt>
      <trkpt lat="46.19029" lon="4.62773">
        <ele>698.6</ele>
        <time>2025-07-16T13:48:19Z</time>
      </trkpt>
      <trkpt lat="46.1901" lon="4.62806">
        <ele>696.9</ele>
        <time>2025-07-16T13:48:26Z</time>
      </trkpt>
      <trkpt lat="46.18992" lon="4.62838">
        <ele>695</ele>
        <time>2025-07-16T13:48:33Z</time>
      </trkpt>
      <trkpt lat="46.18974" lon="4.6287">
        <ele>693.2</ele>
        <time>2025-07-16T13:48:41Z</time>
      </trkpt>
      <trkpt lat="46.18966" lon="4.62885">
        <ele>692.5</ele>
        <time>2025-07-16T13:48:47Z</time>
      </trkpt>
      <trkpt lat="46.18954" lon="4.62895">
        <ele>691.7</ele>
        <time>2025-07-16T13:48:53Z</time>
      </trkpt>
      <trkpt lat="46.18949" lon="4.62899">
        <ele>691.3</ele>
        <time>2025-07-16T13:49:00Z</time>
      </trkpt>
      <trkpt lat="46.18946" lon="4.62901">
        <ele>691.2</ele>
        <time>2025-07-16T13:49:08Z</time>
      </trkpt>
      <trkpt lat="46.18946" lon="4.62901">
        <ele>691.2</ele>
        <time>2025-07-16T13:49:23Z</time>
      </trkpt>
      <trkpt lat="46.18946" lon="4.62901">
        <ele>691.2</ele>
        <time>2025-07-16T13:49:43Z</time>
      </trkpt>
      <trkpt lat="46.18946" lon="4.62901">
        <ele>691.2</ele>
        <time>2025-07-16T13:49:57Z</time>
      </trkpt>
      <trkpt lat="46.18946" lon="4.62901">
        <ele>691.2</ele>
        <time>2025-07-16T13:50:13Z</time>
      </trkpt>
      <trkpt lat="46.18946" lon="4.62901">
        <ele>691.2</ele>
        <time>2025-07-16T13:50:22Z</time>
      </trkpt>
      <trkpt lat="46.18947" lon="4.629">
        <ele>691.2</ele>
        <time>2025-07-16T13:50:30Z</time>
      </trkpt>
      <trkpt lat="46.18949" lon="4.62898">
        <ele>691.2</ele>
        <time>2025-07-16T13:50:33Z</time>
      </trkpt>
      <trkpt lat="46.18942" lon="4.62904">
        <ele>691.1</ele>
        <time>2025-07-16T13:50:35Z</time>
      </trkpt>
      <trkpt lat="46.18942" lon="4.62904">
        <ele>691.1</ele>
        <time>2025-07-16T13:50:37Z</time>
      </trkpt>
      <trkpt lat="46.1894" lon="4.62904">
        <ele>691</ele>
        <time>2025-07-16T13:50:39Z</time>
      </trkpt>
      <trkpt lat="46.18918" lon="4.62898">
        <ele>689.4</ele>
        <time>2025-07-16T13:50:45Z</time>
      </trkpt>
      <trkpt lat="46.189" lon="4.62877">
        <ele>687.7</ele>
        <time>2025-07-16T13:50:51Z</time>
      </trkpt>
      <trkpt lat="46.18888" lon="4.62848">
        <ele>686</ele>
        <time>2025-07-16T13:50:57Z</time>
      </trkpt>
      <trkpt lat="46.18887" lon="4.6283">
        <ele>685.1</ele>
        <time>2025-07-16T13:51:00Z</time>
      </trkpt>
      <trkpt lat="46.18888" lon="4.62818">
        <ele>684.5</ele>
        <time>2025-07-16T13:51:02Z</time>
      </trkpt>
      <trkpt lat="46.18895" lon="4.62787">
        <ele>683</ele>
        <time>2025-07-16T13:51:08Z</time>
      </trkpt>
      <trkpt lat="46.18896" lon="4.62782">
        <ele>682.7</ele>
        <time>2025-07-16T13:51:09Z</time>
      </trkpt>
      <trkpt lat="46.18916" lon="4.62754">
        <ele>680.8</ele>
        <time>2025-07-16T13:51:15Z</time>
      </trkpt>
      <trkpt lat="46.18936" lon="4.62722">
        <ele>678.9</ele>
        <time>2025-07-16T13:51:22Z</time>
      </trkpt>
      <trkpt lat="46.18959" lon="4.62686">
        <ele>676.8</ele>
        <time>2025-07-16T13:51:30Z</time>
      </trkpt>
      <trkpt lat="46.18977" lon="4.62658">
        <ele>675.1</ele>
        <time>2025-07-16T13:51:36Z</time>
      </trkpt>
      <trkpt lat="46.18999" lon="4.62624">
        <ele>673.2</ele>
        <time>2025-07-16T13:51:43Z</time>
      </trkpt>
      <trkpt lat="46.19017" lon="4.62589">
        <ele>671.3</ele>
        <time>2025-07-16T13:51:50Z</time>
      </trkpt>
      <trkpt lat="46.19018" lon="4.62565">
        <ele>670.1</ele>
        <time>2025-07-16T13:51:55Z</time>
      </trkpt>
      <trkpt lat="46.19015" lon="4.62556">
        <ele>669.5</ele>
        <time>2025-07-16T13:51:57Z</time>
      </trkpt>
      <trkpt lat="46.1901" lon="4.62545">
        <ele>668.8</ele>
        <time>2025-07-16T13:51:59Z</time>
      </trkpt>
      <trkpt lat="46.19003" lon="4.6254">
        <ele>668.2</ele>
        <time>2025-07-16T13:52:01Z</time>
      </trkpt>
      <trkpt lat="46.18994" lon="4.62535">
        <ele>667.5</ele>
        <time>2025-07-16T13:52:03Z</time>
      </trkpt>
      <trkpt lat="46.18985" lon="4.62535">
        <ele>666.8</ele>
        <time>2025-07-16T13:52:05Z</time>
      </trkpt>
      <trkpt lat="46.18976" lon="4.6254">
        <ele>666.1</ele>
        <time>2025-07-16T13:52:07Z</time>
      </trkpt>
      <trkpt lat="46.1895" lon="4.62566">
        <ele>663.7</ele>
        <time>2025-07-16T13:52:14Z</time>
      </trkpt>
      <trkpt lat="46.18914" lon="4.62608">
        <ele>660.7</ele>
        <time>2025-07-16T13:52:24Z</time>
      </trkpt>
      <trkpt lat="46.18885" lon="4.62641">
        <ele>658.3</ele>
        <time>2025-07-16T13:52:32Z</time>
      </trkpt>
      <trkpt lat="46.18863" lon="4.62665">
        <ele>656.7</ele>
        <time>2025-07-16T13:52:38Z</time>
      </trkpt>
      <trkpt lat="46.18842" lon="4.62701">
        <ele>654.5</ele>
        <time>2025-07-16T13:52:45Z</time>
      </trkpt>
      <trkpt lat="46.18823" lon="4.62735">
        <ele>652.5</ele>
        <time>2025-07-16T13:52:52Z</time>
      </trkpt>
      <trkpt lat="46.18802" lon="4.62777">
        <ele>649.9</ele>
        <time>2025-07-16T13:53:00Z</time>
      </trkpt>
      <trkpt lat="46.18792" lon="4.62796">
        <ele>648.7</ele>
        <time>2025-07-16T13:53:04Z</time>
      </trkpt>
      <trkpt lat="46.18787" lon="4.62806">
        <ele>648.1</ele>
        <time>2025-07-16T13:53:06Z</time>
      </trkpt>
      <trkpt lat="46.18775" lon="4.62842">
        <ele>646</ele>
        <time>2025-07-16T13:53:13Z</time>
      </trkpt>
      <trkpt lat="46.1877" lon="4.6288">
        <ele>644</ele>
        <time>2025-07-16T13:53:20Z</time>
      </trkpt>
      <trkpt lat="46.1877" lon="4.6292">
        <ele>642.1</ele>
        <time>2025-07-16T13:53:27Z</time>
      </trkpt>
      <trkpt lat="46.1878" lon="4.62953">
        <ele>640.4</ele>
        <time>2025-07-16T13:53:33Z</time>
      </trkpt>
      <trkpt lat="46.18782" lon="4.62959">
        <ele>640.1</ele>
        <time>2025-07-16T13:53:34Z</time>
      </trkpt>
      <trkpt lat="46.18799" lon="4.62997">
        <ele>637.9</ele>
        <time>2025-07-16T13:53:41Z</time>
      </trkpt>
      <trkpt lat="46.18817" lon="4.6303">
        <ele>635.5</ele>
        <time>2025-07-16T13:53:48Z</time>
      </trkpt>
      <trkpt lat="46.1882" lon="4.63035">
        <ele>635.2</ele>
        <time>2025-07-16T13:53:49Z</time>
      </trkpt>
      <trkpt lat="46.18823" lon="4.63039">
        <ele>634.9</ele>
        <time>2025-07-16T13:53:50Z</time>
      </trkpt>
      <trkpt lat="46.18839" lon="4.63061">
        <ele>633.3</ele>
        <time>2025-07-16T13:53:55Z</time>
      </trkpt>
      <trkpt lat="46.1886" lon="4.63075">
        <ele>631.6</ele>
        <time>2025-07-16T13:54:01Z</time>
      </trkpt>
      <trkpt lat="46.18883" lon="4.6309">
        <ele>629.9</ele>
        <time>2025-07-16T13:54:07Z</time>
      </trkpt>
      <trkpt lat="46.18906" lon="4.63117">
        <ele>627.8</ele>
        <time>2025-07-16T13:54:14Z</time>
      </trkpt>
      <trkpt lat="46.18911" lon="4.63129">
        <ele>627.1</ele>
        <time>2025-07-16T13:54:16Z</time>
      </trkpt>
      <trkpt lat="46.18917" lon="4.63148">
        <ele>626</ele>
        <time>2025-07-16T13:54:19Z</time>
      </trkpt>
      <trkpt lat="46.18932" lon="4.63191">
        <ele>623.6</ele>
        <time>2025-07-16T13:54:27Z</time>
      </trkpt>
      <trkpt lat="46.18941" lon="4.63233">
        <ele>621.6</ele>
        <time>2025-07-16T13:54:35Z</time>
      </trkpt>
      <trkpt lat="46.1894" lon="4.63245">
        <ele>621</ele>
        <time>2025-07-16T13:54:37Z</time>
      </trkpt>
      <trkpt lat="46.18936" lon="4.63256">
        <ele>620.4</ele>
        <time>2025-07-16T13:54:39Z</time>
      </trkpt>
      <trkpt lat="46.18927" lon="4.63267">
        <ele>619.5</ele>
        <time>2025-07-16T13:54:42Z</time>
      </trkpt>
      <trkpt lat="46.18924" lon="4.6327">
        <ele>619.2</ele>
        <time>2025-07-16T13:54:43Z</time>
      </trkpt>
      <trkpt lat="46.1892" lon="4.63272">
        <ele>618.9</ele>
        <time>2025-07-16T13:54:44Z</time>
      </trkpt>
      <trkpt lat="46.18907" lon="4.63274">
        <ele>617.9</ele>
        <time>2025-07-16T13:54:47Z</time>
      </trkpt>
      <trkpt lat="46.1888" lon="4.63279">
        <ele>615.8</ele>
        <time>2025-07-16T13:54:54Z</time>
      </trkpt>
      <trkpt lat="46.18851" lon="4.63287">
        <ele>613.6</ele>
        <time>2025-07-16T13:55:02Z</time>
      </trkpt>
      <trkpt lat="46.1882" lon="4.63306">
        <ele>611.1</ele>
        <time>2025-07-16T13:55:11Z</time>
      </trkpt>
      <trkpt lat="46.18785" lon="4.63332">
        <ele>608.2</ele>
        <time>2025-07-16T13:55:21Z</time>
      </trkpt>
      <trkpt lat="46.18753" lon="4.63355">
        <ele>605.6</ele>
        <time>2025-07-16T13:55:30Z</time>
      </trkpt>
      <trkpt lat="46.18731" lon="4.63371">
        <ele>604.3</ele>
        <time>2025-07-16T13:55:37Z</time>
      </trkpt>
      <trkpt lat="46.18721" lon="4.63394">
        <ele>603.8</ele>
        <time>2025-07-16T13:55:41Z</time>
      </trkpt>
      <trkpt lat="46.18727" lon="4.63422">
        <ele>603.4</ele>
        <time>2025-07-16T13:55:46Z</time>
      </trkpt>
      <trkpt lat="46.18742" lon="4.63456">
        <ele>602.9</ele>
        <time>2025-07-16T13:55:52Z</time>
      </trkpt>
      <trkpt lat="46.18763" lon="4.63505">
        <ele>602.1</ele>
        <time>2025-07-16T13:56:01Z</time>
      </trkpt>
      <trkpt lat="46.18785" lon="4.63554">
        <ele>601.1</ele>
        <time>2025-07-16T13:56:10Z</time>
      </trkpt>
      <trkpt lat="46.18812" lon="4.63611">
        <ele>599.7</ele>
        <time>2025-07-16T13:56:20Z</time>
      </trkpt>
      <trkpt lat="46.18834" lon="4.63663">
        <ele>598.2</ele>
        <time>2025-07-16T13:56:29Z</time>
      </trkpt>
      <trkpt lat="46.18847" lon="4.63711">
        <ele>596.8</ele>
        <time>2025-07-16T13:56:37Z</time>
      </trkpt>
      <trkpt lat="46.18861" lon="4.63763">
        <ele>595.2</ele>
        <time>2025-07-16T13:56:46Z</time>
      </trkpt>
      <trkpt lat="46.18875" lon="4.63808">
        <ele>593.7</ele>
        <time>2025-07-16T13:56:54Z</time>
      </trkpt>
      <trkpt lat="46.18894" lon="4.63849">
        <ele>592.1</ele>
        <time>2025-07-16T13:57:02Z</time>
      </trkpt>
      <trkpt lat="46.18921" lon="4.63894">
        <ele>590.1</ele>
        <time>2025-07-16T13:57:11Z</time>
      </trkpt>
      <trkpt lat="46.18937" lon="4.63915">
        <ele>589</ele>
        <time>2025-07-16T13:57:16Z</time>
      </trkpt>
      <trkpt lat="46.18946" lon="4.63922">
        <ele>588.5</ele>
        <time>2025-07-16T13:57:18Z</time>
      </trkpt>
      <trkpt lat="46.1898" lon="4.63947">
        <ele>586.5</ele>
        <time>2025-07-16T13:57:26Z</time>
      </trkpt>
      <trkpt lat="46.18984" lon="4.6395">
        <ele>586.3</ele>
        <time>2025-07-16T13:57:27Z</time>
      </trkpt>
      <trkpt lat="46.18998" lon="4.63967">
        <ele>585.4</ele>
        <time>2025-07-16T13:57:31Z</time>
      </trkpt>
      <trkpt lat="46.1901" lon="4.64003">
        <ele>584</ele>
        <time>2025-07-16T13:57:37Z</time>
      </trkpt>
      <trkpt lat="46.19026" lon="4.6405">
        <ele>582.6</ele>
        <time>2025-07-16T13:57:45Z</time>
      </trkpt>
      <trkpt lat="46.19042" lon="4.641">
        <ele>581.1</ele>
        <time>2025-07-16T13:57:53Z</time>
      </trkpt>
      <trkpt lat="46.19049" lon="4.64116">
        <ele>580.5</ele>
        <time>2025-07-16T13:57:56Z</time>
      </trkpt>
      <trkpt lat="46.19057" lon="4.64122">
        <ele>580.2</ele>
        <time>2025-07-16T13:57:58Z</time>
      </trkpt>
      <trkpt lat="46.19065" lon="4.64128">
        <ele>579.8</ele>
        <time>2025-07-16T13:58:00Z</time>
      </trkpt>
      <trkpt lat="46.19078" lon="4.64137">
        <ele>579.2</ele>
        <time>2025-07-16T13:58:03Z</time>
      </trkpt>
      <trkpt lat="46.19093" lon="4.64154">
        <ele>578.4</ele>
        <time>2025-07-16T13:58:07Z</time>
      </trkpt>
      <trkpt lat="46.19096" lon="4.6416">
        <ele>578.2</ele>
        <time>2025-07-16T13:58:08Z</time>
      </trkpt>
      <trkpt lat="46.19114" lon="4.64193">
        <ele>576.9</ele>
        <time>2025-07-16T13:58:14Z</time>
      </trkpt>
      <trkpt lat="46.19117" lon="4.64198">
        <ele>576.7</ele>
        <time>2025-07-16T13:58:15Z</time>
      </trkpt>
      <trkpt lat="46.1912" lon="4.64203">
        <ele>576.4</ele>
        <time>2025-07-16T13:58:16Z</time>
      </trkpt>
      <trkpt lat="46.19119" lon="4.64215">
        <ele>576</ele>
        <time>2025-07-16T13:58:18Z</time>
      </trkpt>
      <trkpt lat="46.19119" lon="4.64222">
        <ele>575.7</ele>
        <time>2025-07-16T13:58:19Z</time>
      </trkpt>
      <trkpt lat="46.19118" lon="4.64228">
        <ele>575.4</ele>
        <time>2025-07-16T13:58:20Z</time>
      </trkpt>
      <trkpt lat="46.19116" lon="4.64241">
        <ele>574.7</ele>
        <time>2025-07-16T13:58:22Z</time>
      </trkpt>
      <trkpt lat="46.19112" lon="4.64253">
        <ele>574.1</ele>
        <time>2025-07-16T13:58:24Z</time>
      </trkpt>
      <trkpt lat="46.19097" lon="4.64299">
        <ele>571.7</ele>
        <time>2025-07-16T13:58:32Z</time>
      </trkpt>
      <trkpt lat="46.19084" lon="4.64338">
        <ele>569.7</ele>
        <time>2025-07-16T13:58:39Z</time>
      </trkpt>
      <trkpt lat="46.19073" lon="4.64376">
        <ele>567.8</ele>
        <time>2025-07-16T13:58:46Z</time>
      </trkpt>
      <trkpt lat="46.19074" lon="4.64382">
        <ele>567.5</ele>
        <time>2025-07-16T13:58:47Z</time>
      </trkpt>
      <trkpt lat="46.19076" lon="4.64393">
        <ele>566.9</ele>
        <time>2025-07-16T13:58:49Z</time>
      </trkpt>
      <trkpt lat="46.19082" lon="4.64404">
        <ele>566.2</ele>
        <time>2025-07-16T13:58:51Z</time>
      </trkpt>
      <trkpt lat="46.19097" lon="4.64426">
        <ele>564.5</ele>
        <time>2025-07-16T13:58:56Z</time>
      </trkpt>
      <trkpt lat="46.19121" lon="4.64454">
        <ele>562.4</ele>
        <time>2025-07-16T13:59:03Z</time>
      </trkpt>
      <trkpt lat="46.19149" lon="4.64486">
        <ele>559.8</ele>
        <time>2025-07-16T13:59:11Z</time>
      </trkpt>
      <trkpt lat="46.19158" lon="4.64499">
        <ele>558.9</ele>
        <time>2025-07-16T13:59:14Z</time>
      </trkpt>
      <trkpt lat="46.19169" lon="4.64518">
        <ele>557.7</ele>
        <time>2025-07-16T13:59:18Z</time>
      </trkpt>
      <trkpt lat="46.19177" lon="4.64535">
        <ele>556.7</ele>
        <time>2025-07-16T13:59:21Z</time>
      </trkpt>
      <trkpt lat="46.19188" lon="4.64562">
        <ele>555</ele>
        <time>2025-07-16T13:59:26Z</time>
      </trkpt>
      <trkpt lat="46.19198" lon="4.64602">
        <ele>552.8</ele>
        <time>2025-07-16T13:59:33Z</time>
      </trkpt>
      <trkpt lat="46.192" lon="4.64622">
        <ele>551.7</ele>
        <time>2025-07-16T13:59:38Z</time>
      </trkpt>
      <trkpt lat="46.19202" lon="4.64655">
        <ele>550.1</ele>
        <time>2025-07-16T13:59:44Z</time>
      </trkpt>
      <trkpt lat="46.19206" lon="4.64693">
        <ele>548.3</ele>
        <time>2025-07-16T13:59:51Z</time>
      </trkpt>
      <trkpt lat="46.19209" lon="4.64698">
        <ele>548</ele>
        <time>2025-07-16T13:59:52Z</time>
      </trkpt>
      <trkpt lat="46.19223" lon="4.64719">
        <ele>546.6</ele>
        <time>2025-07-16T13:59:57Z</time>
      </trkpt>
      <trkpt lat="46.19252" lon="4.64766">
        <ele>543.6</ele>
        <time>2025-07-16T14:00:08Z</time>
      </trkpt>
      <trkpt lat="46.19264" lon="4.64796">
        <ele>542.3</ele>
        <time>2025-07-16T14:00:15Z</time>
      </trkpt>
      <trkpt lat="46.19271" lon="4.64812">
        <ele>541.4</ele>
        <time>2025-07-16T14:00:21Z</time>
      </trkpt>
      <trkpt lat="46.1927" lon="4.64819">
        <ele>541.2</ele>
        <time>2025-07-16T14:00:22Z</time>
      </trkpt>
      <trkpt lat="46.19269" lon="4.6482">
        <ele>541.2</ele>
        <time>2025-07-16T14:00:25Z</time>
      </trkpt>
      <trkpt lat="46.19269" lon="4.6482">
        <ele>541.2</ele>
        <time>2025-07-16T14:00:35Z</time>
      </trkpt>
      <trkpt lat="46.19269" lon="4.6482">
        <ele>541.2</ele>
        <time>2025-07-16T14:00:49Z</time>
      </trkpt>
      <trkpt lat="46.19269" lon="4.6482">
        <ele>541.2</ele>
        <time>2025-07-16T14:00:56Z</time>
      </trkpt>
      <trkpt lat="46.19269" lon="4.6482">
        <ele>541.2</ele>
        <time>2025-07-16T14:01:08Z</time>
      </trkpt>
      <trkpt lat="46.19269" lon="4.6482">
        <ele>541.2</ele>
        <time>2025-07-16T14:01:26Z</time>
      </trkpt>
      <trkpt lat="46.19269" lon="4.6482">
        <ele>541.2</ele>
        <time>2025-07-16T14:01:41Z</time>
      </trkpt>
      <trkpt lat="46.19269" lon="4.6482">
        <ele>541.2</ele>
        <time>2025-07-16T14:02:00Z</time>
      </trkpt>
      <trkpt lat="46.19269" lon="4.6482">
        <ele>541.2</ele>
        <time>2025-07-16T14:02:11Z</time>
      </trkpt>
      <trkpt lat="46.19269" lon="4.6482">
        <ele>541.2</ele>
        <time>2025-07-16T14:02:22Z</time>
      </trkpt>
      <trkpt lat="46.19269" lon="4.6482">
        <ele>541.2</ele>
        <time>2025-07-16T14:02:41Z</time>
      </trkpt>
      <trkpt lat="46.19269" lon="4.6482">
        <ele>541.2</ele>
        <time>2025-07-16T14:02:54Z</time>
      </trkpt>
      <trkpt lat="46.19269" lon="4.6482">
        <ele>541.2</ele>
        <time>2025-07-16T14:03:01Z</time>
      </trkpt>
      <trkpt lat="46.19269" lon="4.6482">
        <ele>541.2</ele>
        <time>2025-07-16T14:03:20Z</time>
      </trkpt>
      <trkpt lat="46.19269" lon="4.6482">
        <ele>541.2</ele>
        <time>2025-07-16T14:03:46Z</time>
      </trkpt>
      <trkpt lat="46.19269" lon="4.6482">
        <ele>541.2</ele>
        <time>2025-07-16T14:04:03Z</time>
      </trkpt>
      <trkpt lat="46.19269" lon="4.6482">
        <ele>541.2</ele>
        <time>2025-07-16T14:04:26Z</time>
      </trkpt>
      <trkpt lat="46.19269" lon="4.6482">
        <ele>541.2</ele>
        <time>2025-07-16T14:04:50Z</time>
      </trkpt>
      <trkpt lat="46.19269" lon="4.6482">
        <ele>541.2</ele>
        <time>2025-07-16T14:05:10Z</time>
      </trkpt>
      <trkpt lat="46.19269" lon="4.6482">
        <ele>541.2</ele>
        <time>2025-07-16T14:05:23Z</time>
      </trkpt>
      <trkpt lat="46.19269" lon="4.6482">
        <ele>541.2</ele>
        <time>2025-07-16T14:05:42Z</time>
      </trkpt>
      <trkpt lat="46.19269" lon="4.6482">
        <ele>541.2</ele>
        <time>2025-07-16T14:05:50Z</time>
      </trkpt>
      <trkpt lat="46.19269" lon="4.6482">
        <ele>541.2</ele>
        <time>2025-07-16T14:05:59Z</time>
      </trkpt>
      <trkpt lat="46.19269" lon="4.6482">
        <ele>541.2</ele>
        <time>2025-07-16T14:06:09Z</time>
      </trkpt>
      <trkpt lat="46.19269" lon="4.6482">
        <ele>541.2</ele>
        <time>2025-07-16T14:06:20Z</time>
      </trkpt>
      <trkpt lat="46.19269" lon="4.6482">
        <ele>541.2</ele>
        <time>2025-07-16T14:06:30Z</time>
      </trkpt>
      <trkpt lat="46.19269" lon="4.6482">
        <ele>541.2</ele>
        <time>2025-07-16T14:06:42Z</time>
      </trkpt>
      <trkpt lat="46.19264" lon="4.64825">
        <ele>541</ele>
        <time>2025-07-16T14:06:51Z</time>
      </trkpt>
      <trkpt lat="46.19255" lon="4.6484">
        <ele>540.6</ele>
        <time>2025-07-16T14:06:58Z</time>
      </trkpt>
      <trkpt lat="46.19263" lon="4.64856">
        <ele>539.6</ele>
        <time>2025-07-16T14:07:03Z</time>
      </trkpt>
      <trkpt lat="46.1928" lon="4.64883">
        <ele>537.8</ele>
        <time>2025-07-16T14:07:11Z</time>
      </trkpt>
      <trkpt lat="46.19302" lon="4.64904">
        <ele>536.2</ele>
        <time>2025-07-16T14:07:18Z</time>
      </trkpt>
      <trkpt lat="46.19324" lon="4.64918">
        <ele>534.9</ele>
        <time>2025-07-16T14:07:25Z</time>
      </trkpt>
      <trkpt lat="46.19344" lon="4.64931">
        <ele>533.7</ele>
        <time>2025-07-16T14:07:31Z</time>
      </trkpt>
      <trkpt lat="46.19373" lon="4.64952">
        <ele>531.8</ele>
        <time>2025-07-16T14:07:39Z</time>
      </trkpt>
      <trkpt lat="46.19392" lon="4.64969">
        <ele>530.3</ele>
        <time>2025-07-16T14:07:45Z</time>
      </trkpt>
      <trkpt lat="46.19409" lon="4.64983">
        <ele>529.1</ele>
        <time>2025-07-16T14:07:50Z</time>
      </trkpt>
      <trkpt lat="46.19418" lon="4.64992">
        <ele>528.4</ele>
        <time>2025-07-16T14:07:53Z</time>
      </trkpt>
      <trkpt lat="46.19424" lon="4.64999">
        <ele>527.9</ele>
        <time>2025-07-16T14:07:55Z</time>
      </trkpt>
      <trkpt lat="46.19437" lon="4.65014">
        <ele>526.9</ele>
        <time>2025-07-16T14:08:00Z</time>
      </trkpt>
      <trkpt lat="46.19454" lon="4.65033">
        <ele>525.5</ele>
        <time>2025-07-16T14:08:07Z</time>
      </trkpt>
      <trkpt lat="46.19467" lon="4.65048">
        <ele>524.4</ele>
        <time>2025-07-16T14:08:12Z</time>
      </trkpt>
      <trkpt lat="46.19487" lon="4.65072">
        <ele>522.8</ele>
        <time>2025-07-16T14:08:19Z</time>
      </trkpt>
      <trkpt lat="46.19504" lon="4.65091">
        <ele>521.5</ele>
        <time>2025-07-16T14:08:24Z</time>
      </trkpt>
      <trkpt lat="46.19524" lon="4.65113">
        <ele>520.2</ele>
        <time>2025-07-16T14:08:30Z</time>
      </trkpt>
      <trkpt lat="46.19541" lon="4.65134">
        <ele>519</ele>
        <time>2025-07-16T14:08:36Z</time>
      </trkpt>
      <trkpt lat="46.19562" lon="4.65158">
        <ele>517.6</ele>
        <time>2025-07-16T14:08:42Z</time>
      </trkpt>
      <trkpt lat="46.19583" lon="4.65181">
        <ele>516.3</ele>
        <time>2025-07-16T14:08:48Z</time>
      </trkpt>
      <trkpt lat="46.19596" lon="4.65204">
        <ele>515.2</ele>
        <time>2025-07-16T14:08:54Z</time>
      </trkpt>
      <trkpt lat="46.196" lon="4.6523">
        <ele>514.2</ele>
        <time>2025-07-16T14:08:59Z</time>
      </trkpt>
      <trkpt lat="46.19595" lon="4.65256">
        <ele>513.1</ele>
        <time>2025-07-16T14:09:04Z</time>
      </trkpt>
      <trkpt lat="46.19568" lon="4.65285">
        <ele>511.2</ele>
        <time>2025-07-16T14:09:11Z</time>
      </trkpt>
      <trkpt lat="46.19547" lon="4.65302">
        <ele>510</ele>
        <time>2025-07-16T14:09:16Z</time>
      </trkpt>
      <trkpt lat="46.19545" lon="4.65304">
        <ele>509.8</ele>
        <time>2025-07-16T14:09:17Z</time>
      </trkpt>
      <trkpt lat="46.19539" lon="4.65329">
        <ele>508.8</ele>
        <time>2025-07-16T14:09:20Z</time>
      </trkpt>
      <trkpt lat="46.1955" lon="4.65392">
        <ele>505.9</ele>
        <time>2025-07-16T14:09:26Z</time>
      </trkpt>
      <trkpt lat="46.19561" lon="4.65425">
        <ele>504.5</ele>
        <time>2025-07-16T14:09:31Z</time>
      </trkpt>
      <trkpt lat="46.19563" lon="4.65431">
        <ele>504.2</ele>
        <time>2025-07-16T14:09:32Z</time>
      </trkpt>
      <trkpt lat="46.19571" lon="4.65457">
        <ele>503.1</ele>
        <time>2025-07-16T14:09:37Z</time>
      </trkpt>
      <trkpt lat="46.19578" lon="4.65497">
        <ele>501.5</ele>
        <time>2025-07-16T14:09:44Z</time>
      </trkpt>
      <trkpt lat="46.19577" lon="4.65527">
        <ele>500.3</ele>
        <time>2025-07-16T14:09:49Z</time>
      </trkpt>
      <trkpt lat="46.19572" lon="4.65561">
        <ele>499</ele>
        <time>2025-07-16T14:09:54Z</time>
      </trkpt>
      <trkpt lat="46.19572" lon="4.65588">
        <ele>498</ele>
        <time>2025-07-16T14:09:58Z</time>
      </trkpt>
      <trkpt lat="46.19573" lon="4.65598">
        <ele>497.7</ele>
        <time>2025-07-16T14:09:59Z</time>
      </trkpt>
      <trkpt lat="46.19582" lon="4.65615">
        <ele>496.7</ele>
        <time>2025-07-16T14:10:01Z</time>
      </trkpt>
      <trkpt lat="46.19593" lon="4.65625">
        <ele>495.7</ele>
        <time>2025-07-16T14:10:03Z</time>
      </trkpt>
      <trkpt lat="46.19603" lon="4.65626">
        <ele>494.9</ele>
        <time>2025-07-16T14:10:05Z</time>
      </trkpt>
      <trkpt lat="46.19626" lon="4.65627">
        <ele>493.3</ele>
        <time>2025-07-16T14:10:09Z</time>
      </trkpt>
      <trkpt lat="46.19662" lon="4.65624">
        <ele>491.1</ele>
        <time>2025-07-16T14:10:15Z</time>
      </trkpt>
      <trkpt lat="46.19693" lon="4.65621">
        <ele>489.4</ele>
        <time>2025-07-16T14:10:21Z</time>
      </trkpt>
      <trkpt lat="46.19702" lon="4.65621">
        <ele>488.9</ele>
        <time>2025-07-16T14:10:23Z</time>
      </trkpt>
      <trkpt lat="46.19721" lon="4.65621">
        <ele>487.9</ele>
        <time>2025-07-16T14:10:27Z</time>
      </trkpt>
      <trkpt lat="46.19749" lon="4.65627">
        <ele>487.2</ele>
        <time>2025-07-16T14:10:33Z</time>
      </trkpt>
      <trkpt lat="46.19771" lon="4.65638">
        <ele>486.2</ele>
        <time>2025-07-16T14:10:39Z</time>
      </trkpt>
      <trkpt lat="46.19782" lon="4.65648">
        <ele>485.4</ele>
        <time>2025-07-16T14:10:43Z</time>
      </trkpt>
      <trkpt lat="46.19799" lon="4.65663">
        <ele>484.2</ele>
        <time>2025-07-16T14:10:48Z</time>
      </trkpt>
      <trkpt lat="46.19803" lon="4.65666">
        <ele>484</ele>
        <time>2025-07-16T14:10:49Z</time>
      </trkpt>
      <trkpt lat="46.19816" lon="4.65678">
        <ele>483.2</ele>
        <time>2025-07-16T14:10:52Z</time>
      </trkpt>
      <trkpt lat="46.19823" lon="4.6568">
        <ele>482.8</ele>
        <time>2025-07-16T14:10:53Z</time>
      </trkpt>
      <trkpt lat="46.19845" lon="4.65683">
        <ele>481.7</ele>
        <time>2025-07-16T14:10:57Z</time>
      </trkpt>
      <trkpt lat="46.19863" lon="4.65686">
        <ele>480.8</ele>
        <time>2025-07-16T14:11:00Z</time>
      </trkpt>
      <trkpt lat="46.19886" lon="4.6569">
        <ele>479.5</ele>
        <time>2025-07-16T14:11:05Z</time>
      </trkpt>
      <trkpt lat="46.19919" lon="4.65695">
        <ele>477.8</ele>
        <time>2025-07-16T14:11:12Z</time>
      </trkpt>
      <trkpt lat="46.19941" lon="4.65699">
        <ele>476.7</ele>
        <time>2025-07-16T14:11:17Z</time>
      </trkpt>
      <trkpt lat="46.19971" lon="4.65703">
        <ele>475</ele>
        <time>2025-07-16T14:11:24Z</time>
      </trkpt>
      <trkpt lat="46.19997" lon="4.6571">
        <ele>473.6</ele>
        <time>2025-07-16T14:11:30Z</time>
      </trkpt>
      <trkpt lat="46.20022" lon="4.65723">
        <ele>472.2</ele>
        <time>2025-07-16T14:11:36Z</time>
      </trkpt>
      <trkpt lat="46.20046" lon="4.65736">
        <ele>470.6</ele>
        <time>2025-07-16T14:11:42Z</time>
      </trkpt>
      <trkpt lat="46.2006" lon="4.65743">
        <ele>469.8</ele>
        <time>2025-07-16T14:11:45Z</time>
      </trkpt>
      <trkpt lat="46.20072" lon="4.65751">
        <ele>469</ele>
        <time>2025-07-16T14:11:48Z</time>
      </trkpt>
      <trkpt lat="46.20094" lon="4.65769">
        <ele>467.5</ele>
        <time>2025-07-16T14:11:54Z</time>
      </trkpt>
      <trkpt lat="46.20123" lon="4.65791">
        <ele>465.6</ele>
        <time>2025-07-16T14:12:01Z</time>
      </trkpt>
      <trkpt lat="46.20148" lon="4.65816">
        <ele>463.8</ele>
        <time>2025-07-16T14:12:08Z</time>
      </trkpt>
      <trkpt lat="46.20178" lon="4.65845">
        <ele>461.8</ele>
        <time>2025-07-16T14:12:15Z</time>
      </trkpt>
      <trkpt lat="46.20209" lon="4.65875">
        <ele>459.7</ele>
        <time>2025-07-16T14:12:22Z</time>
      </trkpt>
      <trkpt lat="46.20234" lon="4.65901">
        <ele>458.7</ele>
        <time>2025-07-16T14:12:28Z</time>
      </trkpt>
      <trkpt lat="46.20258" lon="4.65927">
        <ele>457.3</ele>
        <time>2025-07-16T14:12:34Z</time>
      </trkpt>
      <trkpt lat="46.20296" lon="4.65968">
        <ele>454.6</ele>
        <time>2025-07-16T14:12:43Z</time>
      </trkpt>
      <trkpt lat="46.20314" lon="4.65999">
        <ele>453.1</ele>
        <time>2025-07-16T14:12:49Z</time>
      </trkpt>
      <trkpt lat="46.20318" lon="4.66008">
        <ele>452.7</ele>
        <time>2025-07-16T14:12:51Z</time>
      </trkpt>
      <trkpt lat="46.20319" lon="4.66022">
        <ele>452.2</ele>
        <time>2025-07-16T14:12:53Z</time>
      </trkpt>
      <trkpt lat="46.20319" lon="4.66028">
        <ele>452</ele>
        <time>2025-07-16T14:12:54Z</time>
      </trkpt>
      <trkpt lat="46.20316" lon="4.66045">
        <ele>451.3</ele>
        <time>2025-07-16T14:12:58Z</time>
      </trkpt>
      <trkpt lat="46.20313" lon="4.66051">
        <ele>451</ele>
        <time>2025-07-16T14:12:59Z</time>
      </trkpt>
      <trkpt lat="46.20293" lon="4.66079">
        <ele>449.2</ele>
        <time>2025-07-16T14:13:05Z</time>
      </trkpt>
      <trkpt lat="46.20267" lon="4.66106">
        <ele>447.3</ele>
        <time>2025-07-16T14:13:12Z</time>
      </trkpt>
      <trkpt lat="46.20262" lon="4.66121">
        <ele>446.7</ele>
        <time>2025-07-16T14:13:15Z</time>
      </trkpt>
      <trkpt lat="46.20263" lon="4.66128">
        <ele>446.4</ele>
        <time>2025-07-16T14:13:16Z</time>
      </trkpt>
      <trkpt lat="46.20268" lon="4.66143">
        <ele>445.7</ele>
        <time>2025-07-16T14:13:20Z</time>
      </trkpt>
      <trkpt lat="46.20276" lon="4.6615">
        <ele>445.2</ele>
        <time>2025-07-16T14:13:22Z</time>
      </trkpt>
      <trkpt lat="46.20285" lon="4.66157">
        <ele>444.6</ele>
        <time>2025-07-16T14:13:24Z</time>
      </trkpt>
      <trkpt lat="46.20311" lon="4.66159">
        <ele>442.9</ele>
        <time>2025-07-16T14:13:30Z</time>
      </trkpt>
      <trkpt lat="46.20338" lon="4.66161">
        <ele>441.3</ele>
        <time>2025-07-16T14:13:36Z</time>
      </trkpt>
      <trkpt lat="46.20375" lon="4.66163">
        <ele>439.1</ele>
        <time>2025-07-16T14:13:44Z</time>
      </trkpt>
      <trkpt lat="46.20415" lon="4.66166">
        <ele>436.8</ele>
        <time>2025-07-16T14:13:52Z</time>
      </trkpt>
      <trkpt lat="46.20445" lon="4.66172">
        <ele>435.1</ele>
        <time>2025-07-16T14:13:59Z</time>
      </trkpt>
      <trkpt lat="46.20473" lon="4.66193">
        <ele>433.3</ele>
        <time>2025-07-16T14:14:06Z</time>
      </trkpt>
      <trkpt lat="46.20505" lon="4.66228">
        <ele>430.9</ele>
        <time>2025-07-16T14:14:14Z</time>
      </trkpt>
      <trkpt lat="46.20522" lon="4.66262">
        <ele>429.3</ele>
        <time>2025-07-16T14:14:20Z</time>
      </trkpt>
      <trkpt lat="46.20539" lon="4.66301">
        <ele>427.5</ele>
        <time>2025-07-16T14:14:27Z</time>
      </trkpt>
      <trkpt lat="46.20543" lon="4.66317">
        <ele>426.7</ele>
        <time>2025-07-16T14:14:30Z</time>
      </trkpt>
      <trkpt lat="46.20545" lon="4.6633">
        <ele>426.2</ele>
        <time>2025-07-16T14:14:32Z</time>
      </trkpt>
      <trkpt lat="46.20545" lon="4.66374">
        <ele>424.5</ele>
        <time>2025-07-16T14:14:39Z</time>
      </trkpt>
      <trkpt lat="46.20541" lon="4.66414">
        <ele>423.4</ele>
        <time>2025-07-16T14:14:45Z</time>
      </trkpt>
      <trkpt lat="46.20535" lon="4.66425">
        <ele>423.1</ele>
        <time>2025-07-16T14:14:47Z</time>
      </trkpt>
      <trkpt lat="46.20529" lon="4.66436">
        <ele>422.8</ele>
        <time>2025-07-16T14:14:49Z</time>
      </trkpt>
      <trkpt lat="46.20525" lon="4.6644">
        <ele>422.7</ele>
        <time>2025-07-16T14:14:50Z</time>
      </trkpt>
      <trkpt lat="46.20521" lon="4.66442">
        <ele>422.5</ele>
        <time>2025-07-16T14:14:51Z</time>
      </trkpt>
      <trkpt lat="46.20513" lon="4.66447">
        <ele>422.2</ele>
        <time>2025-07-16T14:14:53Z</time>
      </trkpt>
      <trkpt lat="46.20505" lon="4.66452">
        <ele>421.8</ele>
        <time>2025-07-16T14:14:55Z</time>
      </trkpt>
      <trkpt lat="46.20474" lon="4.66457">
        <ele>420.1</ele>
        <time>2025-07-16T14:15:02Z</time>
      </trkpt>
      <trkpt lat="46.20434" lon="4.66456">
        <ele>417.8</ele>
        <time>2025-07-16T14:15:10Z</time>
      </trkpt>
      <trkpt lat="46.20429" lon="4.66456">
        <ele>417.5</ele>
        <time>2025-07-16T14:15:11Z</time>
      </trkpt>
      <trkpt lat="46.20419" lon="4.66458">
        <ele>416.9</ele>
        <time>2025-07-16T14:15:13Z</time>
      </trkpt>
      <trkpt lat="46.20415" lon="4.66462">
        <ele>416.7</ele>
        <time>2025-07-16T14:15:14Z</time>
      </trkpt>
      <trkpt lat="46.20408" lon="4.66476">
        <ele>416.1</ele>
        <time>2025-07-16T14:15:17Z</time>
      </trkpt>
      <trkpt lat="46.20406" lon="4.66481">
        <ele>415.9</ele>
        <time>2025-07-16T14:15:18Z</time>
      </trkpt>
      <trkpt lat="46.20395" lon="4.66503">
        <ele>415</ele>
        <time>2025-07-16T14:15:23Z</time>
      </trkpt>
      <trkpt lat="46.20385" lon="4.66523">
        <ele>414.1</ele>
        <time>2025-07-16T14:15:28Z</time>
      </trkpt>
      <trkpt lat="46.20365" lon="4.66536">
        <ele>412.8</ele>
        <time>2025-07-16T14:15:34Z</time>
      </trkpt>
      <trkpt lat="46.20338" lon="4.66546">
        <ele>410.8</ele>
        <time>2025-07-16T14:15:40Z</time>
      </trkpt>
      <trkpt lat="46.20333" lon="4.66548">
        <ele>410.4</ele>
        <time>2025-07-16T14:15:41Z</time>
      </trkpt>
      <trkpt lat="46.20315" lon="4.66559">
        <ele>409.3</ele>
        <time>2025-07-16T14:15:45Z</time>
      </trkpt>
      <trkpt lat="46.20296" lon="4.66587">
        <ele>408</ele>
        <time>2025-07-16T14:15:50Z</time>
      </trkpt>
      <trkpt lat="46.20274" lon="4.6662">
        <ele>406.6</ele>
        <time>2025-07-16T14:15:56Z</time>
      </trkpt>
      <trkpt lat="46.20269" lon="4.66633">
        <ele>406.3</ele>
        <time>2025-07-16T14:15:58Z</time>
      </trkpt>
      <trkpt lat="46.20266" lon="4.66648">
        <ele>406.2</ele>
        <time>2025-07-16T14:16:00Z</time>
      </trkpt>
      <trkpt lat="46.20268" lon="4.66662">
        <ele>406.2</ele>
        <time>2025-07-16T14:16:02Z</time>
      </trkpt>
      <trkpt lat="46.2027" lon="4.66675">
        <ele>406.2</ele>
        <time>2025-07-16T14:16:04Z</time>
      </trkpt>
      <trkpt lat="46.20277" lon="4.66684">
        <ele>406.3</ele>
        <time>2025-07-16T14:16:06Z</time>
      </trkpt>
      <trkpt lat="46.20285" lon="4.66689">
        <ele>406.3</ele>
        <time>2025-07-16T14:16:08Z</time>
      </trkpt>
      <trkpt lat="46.20294" lon="4.66692">
        <ele>406.4</ele>
        <time>2025-07-16T14:16:10Z</time>
      </trkpt>
      <trkpt lat="46.20302" lon="4.66692">
        <ele>406.5</ele>
        <time>2025-07-16T14:16:12Z</time>
      </trkpt>
      <trkpt lat="46.2032" lon="4.66692">
        <ele>406.6</ele>
        <time>2025-07-16T14:16:16Z</time>
      </trkpt>
      <trkpt lat="46.20329" lon="4.66692">
        <ele>406.6</ele>
        <time>2025-07-16T14:16:18Z</time>
      </trkpt>
      <trkpt lat="46.20372" lon="4.66693">
        <ele>405.8</ele>
        <time>2025-07-16T14:16:27Z</time>
      </trkpt>
      <trkpt lat="46.20418" lon="4.66702">
        <ele>403.6</ele>
        <time>2025-07-16T14:16:37Z</time>
      </trkpt>
      <trkpt lat="46.20461" lon="4.6671">
        <ele>401.4</ele>
        <time>2025-07-16T14:16:47Z</time>
      </trkpt>
      <trkpt lat="46.20502" lon="4.66725">
        <ele>399.5</ele>
        <time>2025-07-16T14:16:58Z</time>
      </trkpt>
      <trkpt lat="46.20517" lon="4.66746">
        <ele>398.1</ele>
        <time>2025-07-16T14:17:04Z</time>
      </trkpt>
      <trkpt lat="46.20521" lon="4.66768">
        <ele>397</ele>
        <time>2025-07-16T14:17:08Z</time>
      </trkpt>
      <trkpt lat="46.20521" lon="4.66773">
        <ele>396.7</ele>
        <time>2025-07-16T14:17:09Z</time>
      </trkpt>
      <trkpt lat="46.20521" lon="4.6678">
        <ele>396.4</ele>
        <time>2025-07-16T14:17:10Z</time>
      </trkpt>
      <trkpt lat="46.20517" lon="4.66809">
        <ele>394.8</ele>
        <time>2025-07-16T14:17:15Z</time>
      </trkpt>
      <trkpt lat="46.205" lon="4.66867">
        <ele>391.7</ele>
        <time>2025-07-16T14:17:25Z</time>
      </trkpt>
      <trkpt lat="46.20491" lon="4.66917">
        <ele>389.5</ele>
        <time>2025-07-16T14:17:34Z</time>
      </trkpt>
      <trkpt lat="46.20498" lon="4.66945">
        <ele>388.4</ele>
        <time>2025-07-16T14:17:40Z</time>
      </trkpt>
      <trkpt lat="46.20508" lon="4.66978">
        <ele>386.8</ele>
        <time>2025-07-16T14:17:47Z</time>
      </trkpt>
      <trkpt lat="46.2052" lon="4.67017">
        <ele>384.7</ele>
        <time>2025-07-16T14:17:53Z</time>
      </trkpt>
      <trkpt lat="46.20525" lon="4.67028">
        <ele>383.9</ele>
        <time>2025-07-16T14:17:55Z</time>
      </trkpt>
      <trkpt lat="46.20531" lon="4.67038">
        <ele>383.3</ele>
        <time>2025-07-16T14:17:57Z</time>
      </trkpt>
      <trkpt lat="46.20535" lon="4.6704">
        <ele>383</ele>
        <time>2025-07-16T14:17:58Z</time>
      </trkpt>
      <trkpt lat="46.20539" lon="4.67042">
        <ele>382.6</ele>
        <time>2025-07-16T14:17:59Z</time>
      </trkpt>
      <trkpt lat="46.20549" lon="4.67045">
        <ele>382</ele>
        <time>2025-07-16T14:18:01Z</time>
      </trkpt>
      <trkpt lat="46.20552" lon="4.67044">
        <ele>381.8</ele>
        <time>2025-07-16T14:18:02Z</time>
      </trkpt>
      <trkpt lat="46.20556" lon="4.67042">
        <ele>381.5</ele>
        <time>2025-07-16T14:18:03Z</time>
      </trkpt>
      <trkpt lat="46.20565" lon="4.67038">
        <ele>381</ele>
        <time>2025-07-16T14:18:05Z</time>
      </trkpt>
      <trkpt lat="46.20568" lon="4.67035">
        <ele>380.7</ele>
        <time>2025-07-16T14:18:06Z</time>
      </trkpt>
      <trkpt lat="46.2057" lon="4.6703">
        <ele>380.5</ele>
        <time>2025-07-16T14:18:07Z</time>
      </trkpt>
      <trkpt lat="46.20576" lon="4.6702">
        <ele>380</ele>
        <time>2025-07-16T14:18:09Z</time>
      </trkpt>
      <trkpt lat="46.2058" lon="4.67009">
        <ele>379.4</ele>
        <time>2025-07-16T14:18:11Z</time>
      </trkpt>
      <trkpt lat="46.20596" lon="4.66972">
        <ele>377.4</ele>
        <time>2025-07-16T14:18:18Z</time>
      </trkpt>
      <trkpt lat="46.20606" lon="4.66957">
        <ele>376.4</ele>
        <time>2025-07-16T14:18:21Z</time>
      </trkpt>
      <trkpt lat="46.20613" lon="4.66949">
        <ele>375.8</ele>
        <time>2025-07-16T14:18:23Z</time>
      </trkpt>
      <trkpt lat="46.20617" lon="4.66945">
        <ele>375.4</ele>
        <time>2025-07-16T14:18:24Z</time>
      </trkpt>
      <trkpt lat="46.2064" lon="4.66926">
        <ele>373.7</ele>
        <time>2025-07-16T14:18:30Z</time>
      </trkpt>
      <trkpt lat="46.20667" lon="4.66906">
        <ele>371.9</ele>
        <time>2025-07-16T14:18:37Z</time>
      </trkpt>
      <trkpt lat="46.20699" lon="4.66883">
        <ele>369.7</ele>
        <time>2025-07-16T14:18:45Z</time>
      </trkpt>
      <trkpt lat="46.20732" lon="4.66868">
        <ele>367.6</ele>
        <time>2025-07-16T14:18:52Z</time>
      </trkpt>
      <trkpt lat="46.20741" lon="4.66864">
        <ele>367</ele>
        <time>2025-07-16T14:18:54Z</time>
      </trkpt>
      <trkpt lat="46.20755" lon="4.6686">
        <ele>366</ele>
        <time>2025-07-16T14:18:57Z</time>
      </trkpt>
      <trkpt lat="46.20768" lon="4.66859">
        <ele>365.1</ele>
        <time>2025-07-16T14:19:00Z</time>
      </trkpt>
      <trkpt lat="46.20776" lon="4.66858">
        <ele>364.5</ele>
        <time>2025-07-16T14:19:02Z</time>
      </trkpt>
      <trkpt lat="46.20802" lon="4.66855">
        <ele>362.7</ele>
        <time>2025-07-16T14:19:08Z</time>
      </trkpt>
      <trkpt lat="46.20834" lon="4.66852">
        <ele>360.6</ele>
        <time>2025-07-16T14:19:15Z</time>
      </trkpt>
      <trkpt lat="46.20861" lon="4.66849">
        <ele>359</ele>
        <time>2025-07-16T14:19:22Z</time>
      </trkpt>
      <trkpt lat="46.20877" lon="4.66849">
        <ele>358</ele>
        <time>2025-07-16T14:19:27Z</time>
      </trkpt>
      <trkpt lat="46.20891" lon="4.66855">
        <ele>356.8</ele>
        <time>2025-07-16T14:19:31Z</time>
      </trkpt>
      <trkpt lat="46.20905" lon="4.66887">
        <ele>354.8</ele>
        <time>2025-07-16T14:19:36Z</time>
      </trkpt>
      <trkpt lat="46.20906" lon="4.66892">
        <ele>354.6</ele>
        <time>2025-07-16T14:19:37Z</time>
      </trkpt>
      <trkpt lat="46.20923" lon="4.66896">
        <ele>353.3</ele>
        <time>2025-07-16T14:19:39Z</time>
      </trkpt>
      <trkpt lat="46.20928" lon="4.66888">
        <ele>352.7</ele>
        <time>2025-07-16T14:19:40Z</time>
      </trkpt>
      <trkpt lat="46.20933" lon="4.66876">
        <ele>351.9</ele>
        <time>2025-07-16T14:19:42Z</time>
      </trkpt>
      <trkpt lat="46.20936" lon="4.6687">
        <ele>351.5</ele>
        <time>2025-07-16T14:19:43Z</time>
      </trkpt>
      <trkpt lat="46.20949" lon="4.66844">
        <ele>349.9</ele>
        <time>2025-07-16T14:19:48Z</time>
      </trkpt>
      <trkpt lat="46.20957" lon="4.66837">
        <ele>349.2</ele>
        <time>2025-07-16T14:19:50Z</time>
      </trkpt>
      <trkpt lat="46.20965" lon="4.66832">
        <ele>348.5</ele>
        <time>2025-07-16T14:19:52Z</time>
      </trkpt>
      <trkpt lat="46.20978" lon="4.66825">
        <ele>347.6</ele>
        <time>2025-07-16T14:19:55Z</time>
      </trkpt>
      <trkpt lat="46.21006" lon="4.66812">
        <ele>345.4</ele>
        <time>2025-07-16T14:20:02Z</time>
      </trkpt>
      <trkpt lat="46.2101" lon="4.66811">
        <ele>345.1</ele>
        <time>2025-07-16T14:20:03Z</time>
      </trkpt>
      <trkpt lat="46.21028" lon="4.66808">
        <ele>343.8</ele>
        <time>2025-07-16T14:20:07Z</time>
      </trkpt>
      <trkpt lat="46.2104" lon="4.66808">
        <ele>343</ele>
        <time>2025-07-16T14:20:10Z</time>
      </trkpt>
      <trkpt lat="46.21051" lon="4.66809">
        <ele>342.2</ele>
        <time>2025-07-16T14:20:12Z</time>
      </trkpt>
      <trkpt lat="46.21061" lon="4.6681">
        <ele>341.5</ele>
        <time>2025-07-16T14:20:14Z</time>
      </trkpt>
      <trkpt lat="46.21081" lon="4.66811">
        <ele>340.1</ele>
        <time>2025-07-16T14:20:18Z</time>
      </trkpt>
      <trkpt lat="46.21112" lon="4.66806">
        <ele>337.9</ele>
        <time>2025-07-16T14:20:24Z</time>
      </trkpt>
      <trkpt lat="46.21145" lon="4.66806">
        <ele>335.6</ele>
        <time>2025-07-16T14:20:31Z</time>
      </trkpt>
      <trkpt lat="46.21167" lon="4.66809">
        <ele>334.2</ele>
        <time>2025-07-16T14:20:36Z</time>
      </trkpt>
      <trkpt lat="46.2119" lon="4.66814">
        <ele>332.5</ele>
        <time>2025-07-16T14:20:42Z</time>
      </trkpt>
      <trkpt lat="46.21209" lon="4.66821">
        <ele>331.2</ele>
        <time>2025-07-16T14:20:47Z</time>
      </trkpt>
      <trkpt lat="46.21224" lon="4.66827">
        <ele>330.2</ele>
        <time>2025-07-16T14:20:50Z</time>
      </trkpt>
      <trkpt lat="46.21234" lon="4.66831">
        <ele>329.4</ele>
        <time>2025-07-16T14:20:52Z</time>
      </trkpt>
      <trkpt lat="46.21263" lon="4.66842">
        <ele>327.4</ele>
        <time>2025-07-16T14:20:58Z</time>
      </trkpt>
      <trkpt lat="46.21282" lon="4.66849">
        <ele>325.9</ele>
        <time>2025-07-16T14:21:03Z</time>
      </trkpt>
      <trkpt lat="46.21301" lon="4.66856">
        <ele>324.7</ele>
        <time>2025-07-16T14:21:08Z</time>
      </trkpt>
      <trkpt lat="46.21324" lon="4.66865">
        <ele>323.3</ele>
        <time>2025-07-16T14:21:13Z</time>
      </trkpt>
      <trkpt lat="46.21354" lon="4.66876">
        <ele>321.6</ele>
        <time>2025-07-16T14:21:18Z</time>
      </trkpt>
      <trkpt lat="46.2136" lon="4.66878">
        <ele>321.4</ele>
        <time>2025-07-16T14:21:19Z</time>
      </trkpt>
      <trkpt lat="46.21384" lon="4.66886">
        <ele>320.4</ele>
        <time>2025-07-16T14:21:23Z</time>
      </trkpt>
      <trkpt lat="46.21407" lon="4.66893">
        <ele>319.6</ele>
        <time>2025-07-16T14:21:28Z</time>
      </trkpt>
      <trkpt lat="46.21435" lon="4.66902">
        <ele>318.5</ele>
        <time>2025-07-16T14:21:34Z</time>
      </trkpt>
      <trkpt lat="46.21465" lon="4.66912">
        <ele>317.4</ele>
        <time>2025-07-16T14:21:40Z</time>
      </trkpt>
      <trkpt lat="46.21486" lon="4.66924">
        <ele>316.6</ele>
        <time>2025-07-16T14:21:45Z</time>
      </trkpt>
      <trkpt lat="46.21498" lon="4.66933">
        <ele>316</ele>
        <time>2025-07-16T14:21:48Z</time>
      </trkpt>
      <trkpt lat="46.21502" lon="4.66937">
        <ele>315.7</ele>
        <time>2025-07-16T14:21:49Z</time>
      </trkpt>
      <trkpt lat="46.21513" lon="4.6696">
        <ele>315</ele>
        <time>2025-07-16T14:21:52Z</time>
      </trkpt>
      <trkpt lat="46.21514" lon="4.66975">
        <ele>314.6</ele>
        <time>2025-07-16T14:21:54Z</time>
      </trkpt>
      <trkpt lat="46.21518" lon="4.67028">
        <ele>313.4</ele>
        <time>2025-07-16T14:22:01Z</time>
      </trkpt>
      <trkpt lat="46.21522" lon="4.67087">
        <ele>311.8</ele>
        <time>2025-07-16T14:22:09Z</time>
      </trkpt>
      <trkpt lat="46.21524" lon="4.67108">
        <ele>311.2</ele>
        <time>2025-07-16T14:22:12Z</time>
      </trkpt>
      <trkpt lat="46.21525" lon="4.67114">
        <ele>311</ele>
        <time>2025-07-16T14:22:13Z</time>
      </trkpt>
      <trkpt lat="46.21526" lon="4.6712">
        <ele>310.8</ele>
        <time>2025-07-16T14:22:14Z</time>
      </trkpt>
      <trkpt lat="46.21528" lon="4.67133">
        <ele>310.5</ele>
        <time>2025-07-16T14:22:16Z</time>
      </trkpt>
      <trkpt lat="46.2153" lon="4.67147">
        <ele>310</ele>
        <time>2025-07-16T14:22:18Z</time>
      </trkpt>
      <trkpt lat="46.21531" lon="4.67161">
        <ele>309.6</ele>
        <time>2025-07-16T14:22:20Z</time>
      </trkpt>
      <trkpt lat="46.21533" lon="4.67173">
        <ele>309.2</ele>
        <time>2025-07-16T14:22:22Z</time>
      </trkpt>
      <trkpt lat="46.21538" lon="4.67204">
        <ele>308.2</ele>
        <time>2025-07-16T14:22:27Z</time>
      </trkpt>
      <trkpt lat="46.21541" lon="4.67215">
        <ele>307.9</ele>
        <time>2025-07-16T14:22:29Z</time>
      </trkpt>
      <trkpt lat="46.21544" lon="4.67226">
        <ele>307.6</ele>
        <time>2025-07-16T14:22:31Z</time>
      </trkpt>
      <trkpt lat="46.21546" lon="4.67234">
        <ele>307.3</ele>
        <time>2025-07-16T14:22:32Z</time>
      </trkpt>
      <trkpt lat="46.21548" lon="4.67241">
        <ele>307.1</ele>
        <time>2025-07-16T14:22:33Z</time>
      </trkpt>
      <trkpt lat="46.21553" lon="4.67261">
        <ele>306.6</ele>
        <time>2025-07-16T14:22:36Z</time>
      </trkpt>
      <trkpt lat="46.21555" lon="4.67267">
        <ele>306.4</ele>
        <time>2025-07-16T14:22:37Z</time>
      </trkpt>
      <trkpt lat="46.21557" lon="4.67273">
        <ele>306.3</ele>
        <time>2025-07-16T14:22:38Z</time>
      </trkpt>
      <trkpt lat="46.21563" lon="4.67297">
        <ele>305.6</ele>
        <time>2025-07-16T14:22:42Z</time>
      </trkpt>
      <trkpt lat="46.21568" lon="4.67316">
        <ele>305</ele>
        <time>2025-07-16T14:22:45Z</time>
      </trkpt>
      <trkpt lat="46.21572" lon="4.67329">
        <ele>304.6</ele>
        <time>2025-07-16T14:22:47Z</time>
      </trkpt>
      <trkpt lat="46.21581" lon="4.67353">
        <ele>303.9</ele>
        <time>2025-07-16T14:22:52Z</time>
      </trkpt>
      <trkpt lat="46.21598" lon="4.67377">
        <ele>302.8</ele>
        <time>2025-07-16T14:22:57Z</time>
      </trkpt>
      <trkpt lat="46.21613" lon="4.67397">
        <ele>301.5</ele>
        <time>2025-07-16T14:23:01Z</time>
      </trkpt>
      <trkpt lat="46.21617" lon="4.67402">
        <ele>301.1</ele>
        <time>2025-07-16T14:23:02Z</time>
      </trkpt>
      <trkpt lat="46.21646" lon="4.67441">
        <ele>298.2</ele>
        <time>2025-07-16T14:23:08Z</time>
      </trkpt>
      <trkpt lat="46.21661" lon="4.67458">
        <ele>297.2</ele>
        <time>2025-07-16T14:23:11Z</time>
      </trkpt>
      <trkpt lat="46.21672" lon="4.67465">
        <ele>296.8</ele>
        <time>2025-07-16T14:23:13Z</time>
      </trkpt>
      <trkpt lat="46.21678" lon="4.67469">
        <ele>296.5</ele>
        <time>2025-07-16T14:23:14Z</time>
      </trkpt>
      <trkpt lat="46.21708" lon="4.67488">
        <ele>296.1</ele>
        <time>2025-07-16T14:23:20Z</time>
      </trkpt>
      <trkpt lat="46.21718" lon="4.67493">
        <ele>296</ele>
        <time>2025-07-16T14:23:22Z</time>
      </trkpt>
      <trkpt lat="46.21738" lon="4.67506">
        <ele>296</ele>
        <time>2025-07-16T14:23:27Z</time>
      </trkpt>
      <trkpt lat="46.21758" lon="4.67518">
        <ele>295.8</ele>
        <time>2025-07-16T14:23:33Z</time>
      </trkpt>
      <trkpt lat="46.21784" lon="4.67528">
        <ele>295</ele>
        <time>2025-07-16T14:23:40Z</time>
      </trkpt>
      <trkpt lat="46.21805" lon="4.67537">
        <ele>294.3</ele>
        <time>2025-07-16T14:23:45Z</time>
      </trkpt>
      <trkpt lat="46.21828" lon="4.67544">
        <ele>294</ele>
        <time>2025-07-16T14:23:51Z</time>
      </trkpt>
      <trkpt lat="46.21844" lon="4.67545">
        <ele>293.5</ele>
        <time>2025-07-16T14:23:56Z</time>
      </trkpt>
      <trkpt lat="46.21843" lon="4.67545">
        <ele>293.5</ele>
        <time>2025-07-16T14:23:59Z</time>
      </trkpt>
      <trkpt lat="46.21842" lon="4.67544">
        <ele>293.4</ele>
        <time>2025-07-16T14:24:00Z</time>
      </trkpt>
      <trkpt lat="46.21832" lon="4.67541">
        <ele>293.2</ele>
        <time>2025-07-16T14:24:03Z</time>
      </trkpt>
      <trkpt lat="46.21832" lon="4.67541">
        <ele>293.2</ele>
        <time>2025-07-16T14:24:15Z</time>
      </trkpt>
      <trkpt lat="46.21832" lon="4.6754">
        <ele>293.2</ele>
        <time>2025-07-16T14:24:25Z</time>
      </trkpt>
      <trkpt lat="46.21832" lon="4.6754">
        <ele>293.2</ele>
        <time>2025-07-16T14:24:38Z</time>
      </trkpt>
      <trkpt lat="46.21832" lon="4.6754">
        <ele>293.2</ele>
        <time>2025-07-16T14:24:55Z</time>
      </trkpt>
      <trkpt lat="46.21832" lon="4.6754">
        <ele>293.2</ele>
        <time>2025-07-16T14:25:07Z</time>
      </trkpt>
      <trkpt lat="46.21832" lon="4.6754">
        <ele>293.2</ele>
        <time>2025-07-16T14:25:18Z</time>
      </trkpt>
      <trkpt lat="46.21831" lon="4.67542">
        <ele>293.1</ele>
        <time>2025-07-16T14:25:27Z</time>
      </trkpt>
      <trkpt lat="46.21826" lon="4.67543">
        <ele>293</ele>
        <time>2025-07-16T14:25:31Z</time>
      </trkpt>
      <trkpt lat="46.21834" lon="4.67544">
        <ele>292.8</ele>
        <time>2025-07-16T14:25:33Z</time>
      </trkpt>
      <trkpt lat="46.21849" lon="4.67546">
        <ele>292.5</ele>
        <time>2025-07-16T14:25:38Z</time>
      </trkpt>
      <trkpt lat="46.21863" lon="4.67547">
        <ele>292.3</ele>
        <time>2025-07-16T14:25:42Z</time>
      </trkpt>
      <trkpt lat="46.21872" lon="4.67557">
        <ele>292.2</ele>
        <time>2025-07-16T14:25:44Z</time>
      </trkpt>
      <trkpt lat="46.21878" lon="4.67569">
        <ele>292.1</ele>
        <time>2025-07-16T14:25:46Z</time>
      </trkpt>
      <trkpt lat="46.21883" lon="4.67593">
        <ele>291.9</ele>
        <time>2025-07-16T14:25:50Z</time>
      </trkpt>
      <trkpt lat="46.21884" lon="4.67635">
        <ele>291.5</ele>
        <time>2025-07-16T14:25:57Z</time>
      </trkpt>
      <trkpt lat="46.21884" lon="4.67662">
        <ele>291.3</ele>
        <time>2025-07-16T14:26:01Z</time>
      </trkpt>
      <trkpt lat="46.21884" lon="4.67682">
        <ele>291.1</ele>
        <time>2025-07-16T14:26:04Z</time>
      </trkpt>
      <trkpt lat="46.21885" lon="4.67695">
        <ele>291</ele>
        <time>2025-07-16T14:26:06Z</time>
      </trkpt>
      <trkpt lat="46.21888" lon="4.67721">
        <ele>290.6</ele>
        <time>2025-07-16T14:26:10Z</time>
      </trkpt>
      <trkpt lat="46.21888" lon="4.67727">
        <ele>290.5</ele>
        <time>2025-07-16T14:26:11Z</time>
      </trkpt>
      <trkpt lat="46.21889" lon="4.67741">
        <ele>290.2</ele>
        <time>2025-07-16T14:26:13Z</time>
      </trkpt>
      <trkpt lat="46.21896" lon="4.67769">
        <ele>289.6</ele>
        <time>2025-07-16T14:26:17Z</time>
      </trkpt>
      <trkpt lat="46.21912" lon="4.67821">
        <ele>288.6</ele>
        <time>2025-07-16T14:26:24Z</time>
      </trkpt>
      <trkpt lat="46.21919" lon="4.67842">
        <ele>288.2</ele>
        <time>2025-07-16T14:26:27Z</time>
      </trkpt>
      <trkpt lat="46.21924" lon="4.67855">
        <ele>288</ele>
        <time>2025-07-16T14:26:29Z</time>
      </trkpt>
      <trkpt lat="46.21939" lon="4.67895">
        <ele>287.6</ele>
        <time>2025-07-16T14:26:35Z</time>
      </trkpt>
      <trkpt lat="46.21956" lon="4.67939">
        <ele>287.3</ele>
        <time>2025-07-16T14:26:42Z</time>
      </trkpt>
      <trkpt lat="46.21969" lon="4.67962">
        <ele>287.1</ele>
        <time>2025-07-16T14:26:46Z</time>
      </trkpt>
      <trkpt lat="46.21975" lon="4.67973">
        <ele>287</ele>
        <time>2025-07-16T14:26:48Z</time>
      </trkpt>
      <trkpt lat="46.22001" lon="4.68015">
        <ele>286.6</ele>
        <time>2025-07-16T14:26:56Z</time>
      </trkpt>
      <trkpt lat="46.22023" lon="4.68048">
        <ele>286.2</ele>
        <time>2025-07-16T14:27:04Z</time>
      </trkpt>
      <trkpt lat="46.22027" lon="4.68052">
        <ele>286.1</ele>
        <time>2025-07-16T14:27:05Z</time>
      </trkpt>
      <trkpt lat="46.22046" lon="4.68072">
        <ele>285.6</ele>
        <time>2025-07-16T14:27:10Z</time>
      </trkpt>
      <trkpt lat="46.22066" lon="4.68089">
        <ele>285.1</ele>
        <time>2025-07-16T14:27:15Z</time>
      </trkpt>
      <trkpt lat="46.22082" lon="4.68101">
        <ele>284.7</ele>
        <time>2025-07-16T14:27:19Z</time>
      </trkpt>
      <trkpt lat="46.22086" lon="4.68105">
        <ele>284.6</ele>
        <time>2025-07-16T14:27:20Z</time>
      </trkpt>
      <trkpt lat="46.2209" lon="4.68108">
        <ele>284.5</ele>
        <time>2025-07-16T14:27:21Z</time>
      </trkpt>
      <trkpt lat="46.22106" lon="4.68121">
        <ele>284.1</ele>
        <time>2025-07-16T14:27:25Z</time>
      </trkpt>
      <trkpt lat="46.22118" lon="4.68131">
        <ele>283.7</ele>
        <time>2025-07-16T14:27:28Z</time>
      </trkpt>
      <trkpt lat="46.22127" lon="4.68138">
        <ele>283.5</ele>
        <time>2025-07-16T14:27:30Z</time>
      </trkpt>
      <trkpt lat="46.22154" lon="4.68172">
        <ele>282.5</ele>
        <time>2025-07-16T14:27:37Z</time>
      </trkpt>
      <trkpt lat="46.22179" lon="4.68214">
        <ele>281.3</ele>
        <time>2025-07-16T14:27:44Z</time>
      </trkpt>
      <trkpt lat="46.2221" lon="4.68264">
        <ele>279.9</ele>
        <time>2025-07-16T14:27:52Z</time>
      </trkpt>
      <trkpt lat="46.22234" lon="4.68295">
        <ele>279.5</ele>
        <time>2025-07-16T14:27:58Z</time>
      </trkpt>
      <trkpt lat="46.22256" lon="4.68324">
        <ele>279.2</ele>
        <time>2025-07-16T14:28:04Z</time>
      </trkpt>
      <trkpt lat="46.22274" lon="4.68357">
        <ele>279.1</ele>
        <time>2025-07-16T14:28:10Z</time>
      </trkpt>
      <trkpt lat="46.22277" lon="4.68363">
        <ele>279.1</ele>
        <time>2025-07-16T14:28:11Z</time>
      </trkpt>
      <trkpt lat="46.22293" lon="4.68407">
        <ele>279</ele>
        <time>2025-07-16T14:28:18Z</time>
      </trkpt>
      <trkpt lat="46.22311" lon="4.68445">
        <ele>278.9</ele>
        <time>2025-07-16T14:28:25Z</time>
      </trkpt>
      <trkpt lat="46.22318" lon="4.68455">
        <ele>278.8</ele>
        <time>2025-07-16T14:28:27Z</time>
      </trkpt>
      <trkpt lat="46.22332" lon="4.68475">
        <ele>278.8</ele>
        <time>2025-07-16T14:28:31Z</time>
      </trkpt>
      <trkpt lat="46.2235" lon="4.68497">
        <ele>278.8</ele>
        <time>2025-07-16T14:28:36Z</time>
      </trkpt>
      <trkpt lat="46.22377" lon="4.68529">
        <ele>278.4</ele>
        <time>2025-07-16T14:28:43Z</time>
      </trkpt>
      <trkpt lat="46.2238" lon="4.68533">
        <ele>278.2</ele>
        <time>2025-07-16T14:28:45Z</time>
      </trkpt>
      <trkpt lat="46.2239" lon="4.68545">
        <ele>277.8</ele>
        <time>2025-07-16T14:28:48Z</time>
      </trkpt>
      <trkpt lat="46.22405" lon="4.68567">
        <ele>277</ele>
        <time>2025-07-16T14:28:53Z</time>
      </trkpt>
      <trkpt lat="46.22418" lon="4.68595">
        <ele>276</ele>
        <time>2025-07-16T14:28:58Z</time>
      </trkpt>
      <trkpt lat="46.2242" lon="4.686">
        <ele>275.7</ele>
        <time>2025-07-16T14:28:59Z</time>
      </trkpt>
      <trkpt lat="46.2243" lon="4.68622">
        <ele>274.9</ele>
        <time>2025-07-16T14:29:03Z</time>
      </trkpt>
      <trkpt lat="46.22432" lon="4.68628">
        <ele>274.6</ele>
        <time>2025-07-16T14:29:04Z</time>
      </trkpt>
      <trkpt lat="46.22444" lon="4.68662">
        <ele>273.4</ele>
        <time>2025-07-16T14:29:09Z</time>
      </trkpt>
      <trkpt lat="46.22446" lon="4.68668">
        <ele>273.2</ele>
        <time>2025-07-16T14:29:10Z</time>
      </trkpt>
      <trkpt lat="46.22456" lon="4.68697">
        <ele>272.4</ele>
        <time>2025-07-16T14:29:14Z</time>
      </trkpt>
      <trkpt lat="46.22459" lon="4.68706">
        <ele>272.2</ele>
        <time>2025-07-16T14:29:15Z</time>
      </trkpt>
      <trkpt lat="46.22474" lon="4.68749">
        <ele>271.2</ele>
        <time>2025-07-16T14:29:21Z</time>
      </trkpt>
      <trkpt lat="46.22476" lon="4.68756">
        <ele>271.1</ele>
        <time>2025-07-16T14:29:22Z</time>
      </trkpt>
      <trkpt lat="46.22488" lon="4.68789">
        <ele>270.5</ele>
        <time>2025-07-16T14:29:27Z</time>
      </trkpt>
      <trkpt lat="46.22509" lon="4.68838">
        <ele>269.7</ele>
        <time>2025-07-16T14:29:35Z</time>
      </trkpt>
      <trkpt lat="46.22518" lon="4.68869">
        <ele>269.3</ele>
        <time>2025-07-16T14:29:40Z</time>
      </trkpt>
      <trkpt lat="46.2252" lon="4.68875">
        <ele>269.2</ele>
        <time>2025-07-16T14:29:41Z</time>
      </trkpt>
      <trkpt lat="46.22522" lon="4.68881">
        <ele>269.1</ele>
        <time>2025-07-16T14:29:42Z</time>
      </trkpt>
      <trkpt lat="46.22531" lon="4.68913">
        <ele>268.4</ele>
        <time>2025-07-16T14:29:47Z</time>
      </trkpt>
      <trkpt lat="46.22535" lon="4.68927">
        <ele>268.1</ele>
        <time>2025-07-16T14:29:49Z</time>
      </trkpt>
      <trkpt lat="46.22546" lon="4.68953">
        <ele>267.5</ele>
        <time>2025-07-16T14:29:53Z</time>
      </trkpt>
      <trkpt lat="46.22566" lon="4.68998">
        <ele>266.4</ele>
        <time>2025-07-16T14:30:00Z</time>
      </trkpt>
      <trkpt lat="46.22581" lon="4.69029">
        <ele>265.4</ele>
        <time>2025-07-16T14:30:05Z</time>
      </trkpt>
      <trkpt lat="46.22585" lon="4.69035">
        <ele>265.3</ele>
        <time>2025-07-16T14:30:06Z</time>
      </trkpt>
      <trkpt lat="46.22617" lon="4.69073">
        <ele>264.5</ele>
        <time>2025-07-16T14:30:13Z</time>
      </trkpt>
      <trkpt lat="46.22637" lon="4.69109">
        <ele>263.9</ele>
        <time>2025-07-16T14:30:19Z</time>
      </trkpt>
      <trkpt lat="46.2266" lon="4.69146">
        <ele>263.4</ele>
        <time>2025-07-16T14:30:26Z</time>
      </trkpt>
      <trkpt lat="46.22667" lon="4.69155">
        <ele>263.3</ele>
        <time>2025-07-16T14:30:28Z</time>
      </trkpt>
      <trkpt lat="46.22679" lon="4.69167">
        <ele>263.1</ele>
        <time>2025-07-16T14:30:31Z</time>
      </trkpt>
      <trkpt lat="46.22702" lon="4.69192">
        <ele>262.7</ele>
        <time>2025-07-16T14:30:37Z</time>
      </trkpt>
      <trkpt lat="46.22725" lon="4.69216">
        <ele>262.5</ele>
        <time>2025-07-16T14:30:43Z</time>
      </trkpt>
      <trkpt lat="46.22737" lon="4.69229">
        <ele>262.3</ele>
        <time>2025-07-16T14:30:46Z</time>
      </trkpt>
      <trkpt lat="46.22744" lon="4.69237">
        <ele>262.2</ele>
        <time>2025-07-16T14:30:48Z</time>
      </trkpt>
      <trkpt lat="46.22748" lon="4.69241">
        <ele>262.2</ele>
        <time>2025-07-16T14:30:49Z</time>
      </trkpt>
      <trkpt lat="46.22765" lon="4.69274">
        <ele>261.8</ele>
        <time>2025-07-16T14:30:55Z</time>
      </trkpt>
      <trkpt lat="46.22771" lon="4.69301">
        <ele>261.7</ele>
        <time>2025-07-16T14:30:59Z</time>
      </trkpt>
      <trkpt lat="46.22773" lon="4.69313">
        <ele>261.6</ele>
        <time>2025-07-16T14:31:01Z</time>
      </trkpt>
      <trkpt lat="46.22782" lon="4.69355">
        <ele>261.2</ele>
        <time>2025-07-16T14:31:08Z</time>
      </trkpt>
      <trkpt lat="46.22783" lon="4.69361">
        <ele>261.1</ele>
        <time>2025-07-16T14:31:09Z</time>
      </trkpt>
      <trkpt lat="46.22788" lon="4.69387">
        <ele>260.7</ele>
        <time>2025-07-16T14:31:13Z</time>
      </trkpt>
      <trkpt lat="46.22794" lon="4.6941">
        <ele>260.4</ele>
        <time>2025-07-16T14:31:17Z</time>
      </trkpt>
      <trkpt lat="46.22798" lon="4.69423">
        <ele>260.1</ele>
        <time>2025-07-16T14:31:19Z</time>
      </trkpt>
      <trkpt lat="46.228" lon="4.6943">
        <ele>259.9</ele>
        <time>2025-07-16T14:31:20Z</time>
      </trkpt>
      <trkpt lat="46.22808" lon="4.69456">
        <ele>259.2</ele>
        <time>2025-07-16T14:31:24Z</time>
      </trkpt>
      <trkpt lat="46.2282" lon="4.69507">
        <ele>257.4</ele>
        <time>2025-07-16T14:31:31Z</time>
      </trkpt>
      <trkpt lat="46.22831" lon="4.69557">
        <ele>255.8</ele>
        <time>2025-07-16T14:31:38Z</time>
      </trkpt>
      <trkpt lat="46.22845" lon="4.69614">
        <ele>254.1</ele>
        <time>2025-07-16T14:31:46Z</time>
      </trkpt>
      <trkpt lat="46.22855" lon="4.69658">
        <ele>253.1</ele>
        <time>2025-07-16T14:31:52Z</time>
      </trkpt>
      <trkpt lat="46.22862" lon="4.69694">
        <ele>252.4</ele>
        <time>2025-07-16T14:31:57Z</time>
      </trkpt>
      <trkpt lat="46.22865" lon="4.69709">
        <ele>252.2</ele>
        <time>2025-07-16T14:31:59Z</time>
      </trkpt>
      <trkpt lat="46.22866" lon="4.69717">
        <ele>252.1</ele>
        <time>2025-07-16T14:32:00Z</time>
      </trkpt>
      <trkpt lat="46.22872" lon="4.69747">
        <ele>251.7</ele>
        <time>2025-07-16T14:32:04Z</time>
      </trkpt>
      <trkpt lat="46.22876" lon="4.69774">
        <ele>251.3</ele>
        <time>2025-07-16T14:32:08Z</time>
      </trkpt>
      <trkpt lat="46.22879" lon="4.69788">
        <ele>251.1</ele>
        <time>2025-07-16T14:32:10Z</time>
      </trkpt>
      <trkpt lat="46.22888" lon="4.69832">
        <ele>250.6</ele>
        <time>2025-07-16T14:32:16Z</time>
      </trkpt>
      <trkpt lat="46.22891" lon="4.69838">
        <ele>250.6</ele>
        <time>2025-07-16T14:32:17Z</time>
      </trkpt>
      <trkpt lat="46.22894" lon="4.69844">
        <ele>250.5</ele>
        <time>2025-07-16T14:32:18Z</time>
      </trkpt>
      <trkpt lat="46.22899" lon="4.69857">
        <ele>250.4</ele>
        <time>2025-07-16T14:32:20Z</time>
      </trkpt>
      <trkpt lat="46.22907" lon="4.69864">
        <ele>250.3</ele>
        <time>2025-07-16T14:32:22Z</time>
      </trkpt>
      <trkpt lat="46.2292" lon="4.69872">
        <ele>250.3</ele>
        <time>2025-07-16T14:32:25Z</time>
      </trkpt>
      <trkpt lat="46.22928" lon="4.69876">
        <ele>250.3</ele>
        <time>2025-07-16T14:32:27Z</time>
      </trkpt>
      <trkpt lat="46.22942" lon="4.69884">
        <ele>250.4</ele>
        <time>2025-07-16T14:32:31Z</time>
      </trkpt>
      <trkpt lat="46.22944" lon="4.69885">
        <ele>250.4</ele>
        <time>2025-07-16T14:32:32Z</time>
      </trkpt>
      <trkpt lat="46.22945" lon="4.69894">
        <ele>250.4</ele>
        <time>2025-07-16T14:32:35Z</time>
      </trkpt>
      <trkpt lat="46.22944" lon="4.699">
        <ele>250.4</ele>
        <time>2025-07-16T14:32:37Z</time>
      </trkpt>
      <trkpt lat="46.2294" lon="4.69914">
        <ele>250.5</ele>
        <time>2025-07-16T14:32:39Z</time>
      </trkpt>
      <trkpt lat="46.22945" lon="4.69924">
        <ele>250.4</ele>
        <time>2025-07-16T14:32:41Z</time>
      </trkpt>
      <trkpt lat="46.22961" lon="4.69925">
        <ele>249.5</ele>
        <time>2025-07-16T14:32:47Z</time>
      </trkpt>
      <trkpt lat="46.22973" lon="4.6994">
        <ele>249.5</ele>
        <time>2025-07-16T14:32:52Z</time>
      </trkpt>
      <trkpt lat="46.22985" lon="4.69954">
        <ele>249.3</ele>
        <time>2025-07-16T14:32:56Z</time>
      </trkpt>
      <trkpt lat="46.22997" lon="4.69962">
        <ele>249.2</ele>
        <time>2025-07-16T14:32:59Z</time>
      </trkpt>
      <trkpt lat="46.23025" lon="4.69983">
        <ele>249</ele>
        <time>2025-07-16T14:33:06Z</time>
      </trkpt>
      <trkpt lat="46.23034" lon="4.69992">
        <ele>248.9</ele>
        <time>2025-07-16T14:33:08Z</time>
      </trkpt>
      <trkpt lat="46.2304" lon="4.70011">
        <ele>248.8</ele>
        <time>2025-07-16T14:33:11Z</time>
      </trkpt>
      <trkpt lat="46.23047" lon="4.70031">
        <ele>248.6</ele>
        <time>2025-07-16T14:33:13Z</time>
      </trkpt>
      <trkpt lat="46.23056" lon="4.70058">
        <ele>248.4</ele>
        <time>2025-07-16T14:33:18Z</time>
      </trkpt>
      <trkpt lat="46.23067" lon="4.70092">
        <ele>248.2</ele>
        <time>2025-07-16T14:33:23Z</time>
      </trkpt>
      <trkpt lat="46.2307" lon="4.70107">
        <ele>248.1</ele>
        <time>2025-07-16T14:33:25Z</time>
      </trkpt>
      <trkpt lat="46.23086" lon="4.70172">
        <ele>247.9</ele>
        <time>2025-07-16T14:33:34Z</time>
      </trkpt>
      <trkpt lat="46.23104" lon="4.70245">
        <ele>247.8</ele>
        <time>2025-07-16T14:33:44Z</time>
      </trkpt>
      <trkpt lat="46.23117" lon="4.70296">
        <ele>247.6</ele>
        <time>2025-07-16T14:33:51Z</time>
      </trkpt>
      <trkpt lat="46.23133" lon="4.70355">
        <ele>247.3</ele>
        <time>2025-07-16T14:33:59Z</time>
      </trkpt>
      <trkpt lat="46.23141" lon="4.70386">
        <ele>247.4</ele>
        <time>2025-07-16T14:34:02Z</time>
      </trkpt>
      <trkpt lat="46.23145" lon="4.70402">
        <ele>247.6</ele>
        <time>2025-07-16T14:34:05Z</time>
      </trkpt>
      <trkpt lat="46.23161" lon="4.70462">
        <ele>248.6</ele>
        <time>2025-07-16T14:34:12Z</time>
      </trkpt>
      <trkpt lat="46.23174" lon="4.70511">
        <ele>249.3</ele>
        <time>2025-07-16T14:34:20Z</time>
      </trkpt>
      <trkpt lat="46.23186" lon="4.70557">
        <ele>250.1</ele>
        <time>2025-07-16T14:34:26Z</time>
      </trkpt>
      <trkpt lat="46.23194" lon="4.70589">
        <ele>250.5</ele>
        <time>2025-07-16T14:34:31Z</time>
      </trkpt>
      <trkpt lat="46.23195" lon="4.70603">
        <ele>250.6</ele>
        <time>2025-07-16T14:34:33Z</time>
      </trkpt>
      <trkpt lat="46.232" lon="4.70651">
        <ele>250.9</ele>
        <time>2025-07-16T14:34:41Z</time>
      </trkpt>
      <trkpt lat="46.23204" lon="4.70693">
        <ele>251</ele>
        <time>2025-07-16T14:34:48Z</time>
      </trkpt>
      <trkpt lat="46.23208" lon="4.70728">
        <ele>250.8</ele>
        <time>2025-07-16T14:34:55Z</time>
      </trkpt>
      <trkpt lat="46.23211" lon="4.70779">
        <ele>249.8</ele>
        <time>2025-07-16T14:35:02Z</time>
      </trkpt>
      <trkpt lat="46.23215" lon="4.70823">
        <ele>248.6</ele>
        <time>2025-07-16T14:35:09Z</time>
      </trkpt>
      <trkpt lat="46.23218" lon="4.70866">
        <ele>247.3</ele>
        <time>2025-07-16T14:35:16Z</time>
      </trkpt>
      <trkpt lat="46.23222" lon="4.70918">
        <ele>245.8</ele>
        <time>2025-07-16T14:35:24Z</time>
      </trkpt>
      <trkpt lat="46.23223" lon="4.70935">
        <ele>245.5</ele>
        <time>2025-07-16T14:35:28Z</time>
      </trkpt>
      <trkpt lat="46.23223" lon="4.70935">
        <ele>245.5</ele>
        <time>2025-07-16T14:35:34Z</time>
      </trkpt>
      <trkpt lat="46.23223" lon="4.70935">
        <ele>245.5</ele>
        <time>2025-07-16T14:35:52Z</time>
      </trkpt>
      <trkpt lat="46.23223" lon="4.70935">
        <ele>245.5</ele>
        <time>2025-07-16T14:36:01Z</time>
      </trkpt>
      <trkpt lat="46.23223" lon="4.70935">
        <ele>245.5</ele>
        <time>2025-07-16T14:36:11Z</time>
      </trkpt>
      <trkpt lat="46.23223" lon="4.7094">
        <ele>245.4</ele>
        <time>2025-07-16T14:36:22Z</time>
      </trkpt>
      <trkpt lat="46.23224" lon="4.70954">
        <ele>245.3</ele>
        <time>2025-07-16T14:36:27Z</time>
      </trkpt>
      <trkpt lat="46.23225" lon="4.70988">
        <ele>245.1</ele>
        <time>2025-07-16T14:36:33Z</time>
      </trkpt>
      <trkpt lat="46.23229" lon="4.70999">
        <ele>245</ele>
        <time>2025-07-16T14:36:36Z</time>
      </trkpt>
      <trkpt lat="46.2324" lon="4.71014">
        <ele>245</ele>
        <time>2025-07-16T14:36:38Z</time>
      </trkpt>
      <trkpt lat="46.23245" lon="4.71026">
        <ele>245.2</ele>
        <time>2025-07-16T14:36:40Z</time>
      </trkpt>
      <trkpt lat="46.23245" lon="4.71033">
        <ele>245.3</ele>
        <time>2025-07-16T14:36:41Z</time>
      </trkpt>
      <trkpt lat="46.23245" lon="4.71033">
        <ele>245.3</ele>
        <time>2025-07-16T14:36:42Z</time>
      </trkpt>
      <trkpt lat="46.23246" lon="4.71046">
        <ele>245.7</ele>
        <time>2025-07-16T14:36:46Z</time>
      </trkpt>
      <trkpt lat="46.23246" lon="4.71046">
        <ele>245.7</ele>
        <time>2025-07-16T14:36:53Z</time>
      </trkpt>
      <trkpt lat="46.23239" lon="4.71127">
        <ele>249.5</ele>
        <time>2025-07-16T14:36:59Z</time>
      </trkpt>
      <trkpt lat="46.23238" lon="4.71137">
        <ele>250</ele>
        <time>2025-07-16T14:37:01Z</time>
      </trkpt>
      <trkpt lat="46.23235" lon="4.71168">
        <ele>251.3</ele>
        <time>2025-07-16T14:37:07Z</time>
      </trkpt>
      <trkpt lat="46.23232" lon="4.71205">
        <ele>252.6</ele>
        <time>2025-07-16T14:37:14Z</time>
      </trkpt>
      <trkpt lat="46.23232" lon="4.71236">
        <ele>253.4</ele>
        <time>2025-07-16T14:37:21Z</time>
      </trkpt>
      <trkpt lat="46.23233" lon="4.71266">
        <ele>254.1</ele>
        <time>2025-07-16T14:37:28Z</time>
      </trkpt>
      <trkpt lat="46.23238" lon="4.71301">
        <ele>254.8</ele>
        <time>2025-07-16T14:37:35Z</time>
      </trkpt>
      <trkpt lat="46.2325" lon="4.71339">
        <ele>255.4</ele>
        <time>2025-07-16T14:37:43Z</time>
      </trkpt>
      <trkpt lat="46.23267" lon="4.71374">
        <ele>255.8</ele>
        <time>2025-07-16T14:37:51Z</time>
      </trkpt>
      <trkpt lat="46.23281" lon="4.71395">
        <ele>256</ele>
        <time>2025-07-16T14:37:56Z</time>
      </trkpt>
      <trkpt lat="46.23285" lon="4.71399">
        <ele>256</ele>
        <time>2025-07-16T14:37:57Z</time>
      </trkpt>
      <trkpt lat="46.23306" lon="4.71419">
        <ele>256.6</ele>
        <time>2025-07-16T14:38:03Z</time>
      </trkpt>
      <trkpt lat="46.23322" lon="4.71435">
        <ele>257.4</ele>
        <time>2025-07-16T14:38:08Z</time>
      </trkpt>
      <trkpt lat="46.23335" lon="4.71447">
        <ele>258.2</ele>
        <time>2025-07-16T14:38:13Z</time>
      </trkpt>
      <trkpt lat="46.23339" lon="4.71452">
        <ele>258.5</ele>
        <time>2025-07-16T14:38:18Z</time>
      </trkpt>
      <trkpt lat="46.23343" lon="4.71456">
        <ele>258.7</ele>
        <time>2025-07-16T14:38:22Z</time>
      </trkpt>
      <trkpt lat="46.23344" lon="4.71459">
        <ele>258.7</ele>
        <time>2025-07-16T14:38:23Z</time>
      </trkpt>
      <trkpt lat="46.23355" lon="4.71476">
        <ele>259</ele>
        <time>2025-07-16T14:38:28Z</time>
      </trkpt>
      <trkpt lat="46.23369" lon="4.71493">
        <ele>259.4</ele>
        <time>2025-07-16T14:38:33Z</time>
      </trkpt>
      <trkpt lat="46.23382" lon="4.71506">
        <ele>259.9</ele>
        <time>2025-07-16T14:38:37Z</time>
      </trkpt>
      <trkpt lat="46.234" lon="4.71524">
        <ele>260.8</ele>
        <time>2025-07-16T14:38:43Z</time>
      </trkpt>
      <trkpt lat="46.23411" lon="4.71535">
        <ele>261.3</ele>
        <time>2025-07-16T14:38:47Z</time>
      </trkpt>
      <trkpt lat="46.23422" lon="4.71543">
        <ele>261.8</ele>
        <time>2025-07-16T14:38:52Z</time>
      </trkpt>
      <trkpt lat="46.23426" lon="4.7154">
        <ele>261.9</ele>
        <time>2025-07-16T14:38:53Z</time>
      </trkpt>
      <trkpt lat="46.23432" lon="4.71535">
        <ele>262</ele>
        <time>2025-07-16T14:38:56Z</time>
      </trkpt>
      <trkpt lat="46.23434" lon="4.71533">
        <ele>262.1</ele>
        <time>2025-07-16T14:39:00Z</time>
      </trkpt>
      <trkpt lat="46.23436" lon="4.71531">
        <ele>262.2</ele>
        <time>2025-07-16T14:39:05Z</time>
      </trkpt>
      <trkpt lat="46.23436" lon="4.71531">
        <ele>262.2</ele>
        <time>2025-07-16T14:39:14Z</time>
      </trkpt>
      <trkpt lat="46.23436" lon="4.71531">
        <ele>262.2</ele>
        <time>2025-07-16T14:39:34Z</time>
      </trkpt>
      <trkpt lat="46.23436" lon="4.71531">
        <ele>262.2</ele>
        <time>2025-07-16T14:39:46Z</time>
      </trkpt>
      <trkpt lat="46.23436" lon="4.71531">
        <ele>262.2</ele>
        <time>2025-07-16T14:40:02Z</time>
      </trkpt>
      <trkpt lat="46.23436" lon="4.71531">
        <ele>262.2</ele>
        <time>2025-07-16T14:40:18Z</time>
      </trkpt>
      <trkpt lat="46.23436" lon="4.71531">
        <ele>262.2</ele>
        <time>2025-07-16T14:40:34Z</time>
      </trkpt>
      <trkpt lat="46.23436" lon="4.71531">
        <ele>262.2</ele>
        <time>2025-07-16T14:40:52Z</time>
      </trkpt>
      <trkpt lat="46.23436" lon="4.71531">
        <ele>262.2</ele>
        <time>2025-07-16T14:41:06Z</time>
      </trkpt>
      <trkpt lat="46.23437" lon="4.7153">
        <ele>262.2</ele>
        <time>2025-07-16T14:41:11Z</time>
      </trkpt>
      <trkpt lat="46.23446" lon="4.71536">
        <ele>262.5</ele>
        <time>2025-07-16T14:41:16Z</time>
      </trkpt>
      <trkpt lat="46.23459" lon="4.71545">
        <ele>262.8</ele>
        <time>2025-07-16T14:41:22Z</time>
      </trkpt>
      <trkpt lat="46.23476" lon="4.71566">
        <ele>263.4</ele>
        <time>2025-07-16T14:41:28Z</time>
      </trkpt>
      <trkpt lat="46.23486" lon="4.71591">
        <ele>263.9</ele>
        <time>2025-07-16T14:41:34Z</time>
      </trkpt>
      <trkpt lat="46.23491" lon="4.71605">
        <ele>264.2</ele>
        <time>2025-07-16T14:41:37Z</time>
      </trkpt>
      <trkpt lat="46.23498" lon="4.71623">
        <ele>264.6</ele>
        <time>2025-07-16T14:41:40Z</time>
      </trkpt>
      <trkpt lat="46.23516" lon="4.7167">
        <ele>265.4</ele>
        <time>2025-07-16T14:41:48Z</time>
      </trkpt>
      <trkpt lat="46.23532" lon="4.71712">
        <ele>265.8</ele>
        <time>2025-07-16T14:41:55Z</time>
      </trkpt>
      <trkpt lat="46.23548" lon="4.71754">
        <ele>266.1</ele>
        <time>2025-07-16T14:42:02Z</time>
      </trkpt>
      <trkpt lat="46.23566" lon="4.71802">
        <ele>266.6</ele>
        <time>2025-07-16T14:42:10Z</time>
      </trkpt>
      <trkpt lat="46.23584" lon="4.71843">
        <ele>266.8</ele>
        <time>2025-07-16T14:42:18Z</time>
      </trkpt>
      <trkpt lat="46.23596" lon="4.71862">
        <ele>267</ele>
        <time>2025-07-16T14:42:22Z</time>
      </trkpt>
      <trkpt lat="46.23607" lon="4.71871">
        <ele>267.1</ele>
        <time>2025-07-16T14:42:25Z</time>
      </trkpt>
      <trkpt lat="46.23616" lon="4.71874">
        <ele>267.2</ele>
        <time>2025-07-16T14:42:30Z</time>
      </trkpt>
      <trkpt lat="46.23616" lon="4.71874">
        <ele>267.2</ele>
        <time>2025-07-16T14:42:37Z</time>
      </trkpt>
      <trkpt lat="46.23616" lon="4.71874">
        <ele>267.2</ele>
        <time>2025-07-16T14:42:52Z</time>
      </trkpt>
      <trkpt lat="46.23616" lon="4.71874">
        <ele>267.2</ele>
        <time>2025-07-16T14:43:02Z</time>
      </trkpt>
      <trkpt lat="46.23623" lon="4.71875">
        <ele>267.3</ele>
        <time>2025-07-16T14:43:05Z</time>
      </trkpt>
      <trkpt lat="46.23625" lon="4.71876">
        <ele>267.4</ele>
        <time>2025-07-16T14:43:06Z</time>
      </trkpt>
      <trkpt lat="46.23639" lon="4.71879">
        <ele>268.1</ele>
        <time>2025-07-16T14:43:11Z</time>
      </trkpt>
      <trkpt lat="46.23661" lon="4.71884">
        <ele>269.7</ele>
        <time>2025-07-16T14:43:19Z</time>
      </trkpt>
      <trkpt lat="46.2368" lon="4.71884">
        <ele>271.3</ele>
        <time>2025-07-16T14:43:25Z</time>
      </trkpt>
      <trkpt lat="46.237" lon="4.71884">
        <ele>273.2</ele>
        <time>2025-07-16T14:43:32Z</time>
      </trkpt>
      <trkpt lat="46.2372" lon="4.71883">
        <ele>275.2</ele>
        <time>2025-07-16T14:43:38Z</time>
      </trkpt>
      <trkpt lat="46.23738" lon="4.71883">
        <ele>276.9</ele>
        <time>2025-07-16T14:43:45Z</time>
      </trkpt>
      <trkpt lat="46.23754" lon="4.71883">
        <ele>278.4</ele>
        <time>2025-07-16T14:43:52Z</time>
      </trkpt>
      <trkpt lat="46.23768" lon="4.71882">
        <ele>279.2</ele>
        <time>2025-07-16T14:43:59Z</time>
      </trkpt>
      <trkpt lat="46.23779" lon="4.71882">
        <ele>280.1</ele>
        <time>2025-07-16T14:44:05Z</time>
      </trkpt>
      <trkpt lat="46.23779" lon="4.71882">
        <ele>280.1</ele>
        <time>2025-07-16T14:44:10Z</time>
      </trkpt>
      <trkpt lat="46.23779" lon="4.71882">
        <ele>280.1</ele>
        <time>2025-07-16T14:44:21Z</time>
      </trkpt>
      <trkpt lat="46.23779" lon="4.71882">
        <ele>280.1</ele>
        <time>2025-07-16T14:44:29Z</time>
      </trkpt>
      <trkpt lat="46.23779" lon="4.71882">
        <ele>280.1</ele>
        <time>2025-07-16T14:44:38Z</time>
      </trkpt>
      <trkpt lat="46.23788" lon="4.71884">
        <ele>280.9</ele>
        <time>2025-07-16T14:44:44Z</time>
      </trkpt>
      <trkpt lat="46.23794" lon="4.71886">
        <ele>281.5</ele>
        <time>2025-07-16T14:44:47Z</time>
      </trkpt>
      <trkpt lat="46.23798" lon="4.71887">
        <ele>281.9</ele>
        <time>2025-07-16T14:44:49Z</time>
      </trkpt>
      <trkpt lat="46.23811" lon="4.71891">
        <ele>283.2</ele>
        <time>2025-07-16T14:44:55Z</time>
      </trkpt>
      <trkpt lat="46.23825" lon="4.71896">
        <ele>284.5</ele>
        <time>2025-07-16T14:45:01Z</time>
      </trkpt>
      <trkpt lat="46.2384" lon="4.71904">
        <ele>285.9</ele>
        <time>2025-07-16T14:45:08Z</time>
      </trkpt>
      <trkpt lat="46.2385" lon="4.7191">
        <ele>286.8</ele>
        <time>2025-07-16T14:45:13Z</time>
      </trkpt>
      <trkpt lat="46.23865" lon="4.71924">
        <ele>288</ele>
        <time>2025-07-16T14:45:20Z</time>
      </trkpt>
      <trkpt lat="46.23883" lon="4.71942">
        <ele>289.4</ele>
        <time>2025-07-16T14:45:27Z</time>
      </trkpt>
      <trkpt lat="46.23896" lon="4.71956">
        <ele>290.3</ele>
        <time>2025-07-16T14:45:32Z</time>
      </trkpt>
      <trkpt lat="46.2391" lon="4.7197">
        <ele>291.3</ele>
        <time>2025-07-16T14:45:37Z</time>
      </trkpt>
      <trkpt lat="46.23926" lon="4.71986">
        <ele>292.6</ele>
        <time>2025-07-16T14:45:43Z</time>
      </trkpt>
      <trkpt lat="46.23941" lon="4.72002">
        <ele>293.7</ele>
        <time>2025-07-16T14:45:49Z</time>
      </trkpt>
      <trkpt lat="46.23952" lon="4.72013">
        <ele>294.6</ele>
        <time>2025-07-16T14:45:55Z</time>
      </trkpt>
      <trkpt lat="46.23965" lon="4.72026">
        <ele>295.5</ele>
        <time>2025-07-16T14:46:02Z</time>
      </trkpt>
      <trkpt lat="46.23979" lon="4.72041">
        <ele>296.4</ele>
        <time>2025-07-16T14:46:08Z</time>
      </trkpt>
      <trkpt lat="46.23992" lon="4.72054">
        <ele>297.2</ele>
        <time>2025-07-16T14:46:14Z</time>
      </trkpt>
      <trkpt lat="46.2401" lon="4.72067">
        <ele>298.4</ele>
        <time>2025-07-16T14:46:21Z</time>
      </trkpt>
      <trkpt lat="46.24023" lon="4.72067">
        <ele>299.2</ele>
        <time>2025-07-16T14:46:28Z</time>
      </trkpt>
      <trkpt lat="46.24025" lon="4.72067">
        <ele>299.4</ele>
        <time>2025-07-16T14:46:34Z</time>
      </trkpt>
      <trkpt lat="46.24027" lon="4.72073">
        <ele>299.3</ele>
        <time>2025-07-16T14:46:38Z</time>
      </trkpt>
      <trkpt lat="46.24027" lon="4.72073">
        <ele>299.3</ele>
        <time>2025-07-16T14:46:39Z</time>
      </trkpt>
      <trkpt lat="46.24033" lon="4.72098">
        <ele>298.7</ele>
        <time>2025-07-16T14:46:44Z</time>
      </trkpt>
      <trkpt lat="46.24043" lon="4.72135">
        <ele>297.4</ele>
        <time>2025-07-16T14:46:50Z</time>
      </trkpt>
      <trkpt lat="46.24061" lon="4.7219">
        <ele>295</ele>
        <time>2025-07-16T14:46:58Z</time>
      </trkpt>
      <trkpt lat="46.24081" lon="4.72236">
        <ele>292.9</ele>
        <time>2025-07-16T14:47:05Z</time>
      </trkpt>
      <trkpt lat="46.24101" lon="4.72271">
        <ele>291.2</ele>
        <time>2025-07-16T14:47:11Z</time>
      </trkpt>
      <trkpt lat="46.24125" lon="4.72314">
        <ele>289.6</ele>
        <time>2025-07-16T14:47:18Z</time>
      </trkpt>
      <trkpt lat="46.2415" lon="4.72359">
        <ele>288.1</ele>
        <time>2025-07-16T14:47:25Z</time>
      </trkpt>
      <trkpt lat="46.2417" lon="4.72393">
        <ele>287.2</ele>
        <time>2025-07-16T14:47:31Z</time>
      </trkpt>
      <trkpt lat="46.24194" lon="4.72437">
        <ele>286.2</ele>
        <time>2025-07-16T14:47:39Z</time>
      </trkpt>
      <trkpt lat="46.24213" lon="4.72487">
        <ele>285</ele>
        <time>2025-07-16T14:47:47Z</time>
      </trkpt>
      <trkpt lat="46.24226" lon="4.72533">
        <ele>283.8</ele>
        <time>2025-07-16T14:47:54Z</time>
      </trkpt>
      <trkpt lat="46.24234" lon="4.72561">
        <ele>283.2</ele>
        <time>2025-07-16T14:47:58Z</time>
      </trkpt>
      <trkpt lat="46.24238" lon="4.72575">
        <ele>283</ele>
        <time>2025-07-16T14:48:00Z</time>
      </trkpt>
      <trkpt lat="46.24244" lon="4.72595">
        <ele>282.7</ele>
        <time>2025-07-16T14:48:03Z</time>
      </trkpt>
      <trkpt lat="46.2425" lon="4.72615">
        <ele>282.4</ele>
        <time>2025-07-16T14:48:06Z</time>
      </trkpt>
      <trkpt lat="46.24252" lon="4.72622">
        <ele>282.4</ele>
        <time>2025-07-16T14:48:07Z</time>
      </trkpt>
      <trkpt lat="46.2427" lon="4.72665">
        <ele>281.9</ele>
        <time>2025-07-16T14:48:14Z</time>
      </trkpt>
      <trkpt lat="46.24273" lon="4.72671">
        <ele>281.8</ele>
        <time>2025-07-16T14:48:15Z</time>
      </trkpt>
      <trkpt lat="46.24281" lon="4.72689">
        <ele>281.6</ele>
        <time>2025-07-16T14:48:18Z</time>
      </trkpt>
      <trkpt lat="46.24287" lon="4.72701">
        <ele>281.6</ele>
        <time>2025-07-16T14:48:20Z</time>
      </trkpt>
      <trkpt lat="46.24291" lon="4.72713">
        <ele>281.5</ele>
        <time>2025-07-16T14:48:22Z</time>
      </trkpt>
      <trkpt lat="46.24293" lon="4.72719">
        <ele>281.5</ele>
        <time>2025-07-16T14:48:23Z</time>
      </trkpt>
      <trkpt lat="46.24293" lon="4.72726">
        <ele>281.4</ele>
        <time>2025-07-16T14:48:24Z</time>
      </trkpt>
      <trkpt lat="46.24292" lon="4.72753">
        <ele>281.3</ele>
        <time>2025-07-16T14:48:28Z</time>
      </trkpt>
      <trkpt lat="46.24296" lon="4.72771">
        <ele>281.3</ele>
        <time>2025-07-16T14:48:31Z</time>
      </trkpt>
      <trkpt lat="46.24299" lon="4.72783">
        <ele>281.2</ele>
        <time>2025-07-16T14:48:33Z</time>
      </trkpt>
      <trkpt lat="46.24308" lon="4.72796">
        <ele>281.3</ele>
        <time>2025-07-16T14:48:36Z</time>
      </trkpt>
      <trkpt lat="46.24312" lon="4.72801">
        <ele>281.4</ele>
        <time>2025-07-16T14:48:37Z</time>
      </trkpt>
      <trkpt lat="46.2433" lon="4.72825">
        <ele>281.8</ele>
        <time>2025-07-16T14:48:43Z</time>
      </trkpt>
      <trkpt lat="46.2435" lon="4.7285">
        <ele>282.5</ele>
        <time>2025-07-16T14:48:49Z</time>
      </trkpt>
      <trkpt lat="46.24359" lon="4.72862">
        <ele>283</ele>
        <time>2025-07-16T14:48:52Z</time>
      </trkpt>
      <trkpt lat="46.24365" lon="4.7287">
        <ele>283.3</ele>
        <time>2025-07-16T14:48:54Z</time>
      </trkpt>
      <trkpt lat="46.24382" lon="4.72898">
        <ele>284.2</ele>
        <time>2025-07-16T14:49:00Z</time>
      </trkpt>
      <trkpt lat="46.24395" lon="4.72925">
        <ele>285</ele>
        <time>2025-07-16T14:49:06Z</time>
      </trkpt>
      <trkpt lat="46.24403" lon="4.72941">
        <ele>285.5</ele>
        <time>2025-07-16T14:49:09Z</time>
      </trkpt>
      <trkpt lat="46.24408" lon="4.72951">
        <ele>285.7</ele>
        <time>2025-07-16T14:49:11Z</time>
      </trkpt>
      <trkpt lat="46.24416" lon="4.72964">
        <ele>285.9</ele>
        <time>2025-07-16T14:49:14Z</time>
      </trkpt>
      <trkpt lat="46.24426" lon="4.72979">
        <ele>286.2</ele>
        <time>2025-07-16T14:49:17Z</time>
      </trkpt>
      <trkpt lat="46.24442" lon="4.72996">
        <ele>286.7</ele>
        <time>2025-07-16T14:49:22Z</time>
      </trkpt>
      <trkpt lat="46.24464" lon="4.73006">
        <ele>287.5</ele>
        <time>2025-07-16T14:49:27Z</time>
      </trkpt>
      <trkpt lat="46.24484" lon="4.73011">
        <ele>288.3</ele>
        <time>2025-07-16T14:49:32Z</time>
      </trkpt>
      <trkpt lat="46.24486" lon="4.73011">
        <ele>288.4</ele>
        <time>2025-07-16T14:49:36Z</time>
      </trkpt>
      <trkpt lat="46.24486" lon="4.73011">
        <ele>288.4</ele>
        <time>2025-07-16T14:49:50Z</time>
      </trkpt>
      <trkpt lat="46.24486" lon="4.73011">
        <ele>288.4</ele>
        <time>2025-07-16T14:50:09Z</time>
      </trkpt>
      <trkpt lat="46.24486" lon="4.73011">
        <ele>288.4</ele>
        <time>2025-07-16T14:50:22Z</time>
      </trkpt>
      <trkpt lat="46.24496" lon="4.73014">
        <ele>288.8</ele>
        <time>2025-07-16T14:50:28Z</time>
      </trkpt>
      <trkpt lat="46.24513" lon="4.7302">
        <ele>289.6</ele>
        <time>2025-07-16T14:50:35Z</time>
      </trkpt>
      <trkpt lat="46.24531" lon="4.73022">
        <ele>290.3</ele>
        <time>2025-07-16T14:50:41Z</time>
      </trkpt>
      <trkpt lat="46.24549" lon="4.73024">
        <ele>291.5</ele>
        <time>2025-07-16T14:50:47Z</time>
      </trkpt>
      <trkpt lat="46.24573" lon="4.73026">
        <ele>293</ele>
        <time>2025-07-16T14:50:55Z</time>
      </trkpt>
      <trkpt lat="46.24598" lon="4.73029">
        <ele>294.6</ele>
        <time>2025-07-16T14:51:03Z</time>
      </trkpt>
      <trkpt lat="46.24618" lon="4.73031">
        <ele>295.8</ele>
        <time>2025-07-16T14:51:10Z</time>
      </trkpt>
      <trkpt lat="46.24636" lon="4.73033">
        <ele>297</ele>
        <time>2025-07-16T14:51:17Z</time>
      </trkpt>
      <trkpt lat="46.24655" lon="4.73035">
        <ele>298.2</ele>
        <time>2025-07-16T14:51:24Z</time>
      </trkpt>
      <trkpt lat="46.24668" lon="4.73043">
        <ele>299</ele>
        <time>2025-07-16T14:51:30Z</time>
      </trkpt>
      <trkpt lat="46.24683" lon="4.73057">
        <ele>299.9</ele>
        <time>2025-07-16T14:51:37Z</time>
      </trkpt>
      <trkpt lat="46.24696" lon="4.73071">
        <ele>300.7</ele>
        <time>2025-07-16T14:51:43Z</time>
      </trkpt>
      <trkpt lat="46.2471" lon="4.73086">
        <ele>301.4</ele>
        <time>2025-07-16T14:51:49Z</time>
      </trkpt>
      <trkpt lat="46.24726" lon="4.73103">
        <ele>302.1</ele>
        <time>2025-07-16T14:51:56Z</time>
      </trkpt>
      <trkpt lat="46.24745" lon="4.73123">
        <ele>302.4</ele>
        <time>2025-07-16T14:52:04Z</time>
      </trkpt>
      <trkpt lat="46.24759" lon="4.73138">
        <ele>302.3</ele>
        <time>2025-07-16T14:52:09Z</time>
      </trkpt>
      <trkpt lat="46.24782" lon="4.73162">
        <ele>301.7</ele>
        <time>2025-07-16T14:52:16Z</time>
      </trkpt>
      <trkpt lat="46.24812" lon="4.73194">
        <ele>299.6</ele>
        <time>2025-07-16T14:52:25Z</time>
      </trkpt>
      <trkpt lat="46.24837" lon="4.73213">
        <ele>297.5</ele>
        <time>2025-07-16T14:52:32Z</time>
      </trkpt>
      <trkpt lat="46.24849" lon="4.73213">
        <ele>296.6</ele>
        <time>2025-07-16T14:52:36Z</time>
      </trkpt>
      <trkpt lat="46.24864" lon="4.73193">
        <ele>295.3</ele>
        <time>2025-07-16T14:52:42Z</time>
      </trkpt>
      <trkpt lat="46.24873" lon="4.73157">
        <ele>293.6</ele>
        <time>2025-07-16T14:52:48Z</time>
      </trkpt>
      <trkpt lat="46.24888" lon="4.73103">
        <ele>291.1</ele>
        <time>2025-07-16T14:52:57Z</time>
      </trkpt>
      <trkpt lat="46.24895" lon="4.73089">
        <ele>290.3</ele>
        <time>2025-07-16T14:53:00Z</time>
      </trkpt>
      <trkpt lat="46.24903" lon="4.7308">
        <ele>289.7</ele>
        <time>2025-07-16T14:53:02Z</time>
      </trkpt>
      <trkpt lat="46.24912" lon="4.73074">
        <ele>288.9</ele>
        <time>2025-07-16T14:53:04Z</time>
      </trkpt>
      <trkpt lat="46.24927" lon="4.73066">
        <ele>287.9</ele>
        <time>2025-07-16T14:53:07Z</time>
      </trkpt>
      <trkpt lat="46.24969" lon="4.73058">
        <ele>285.4</ele>
        <time>2025-07-16T14:53:15Z</time>
      </trkpt>
      <trkpt lat="46.24995" lon="4.73052">
        <ele>283.8</ele>
        <time>2025-07-16T14:53:21Z</time>
      </trkpt>
      <trkpt lat="46.25017" lon="4.73048">
        <ele>283</ele>
        <time>2025-07-16T14:53:26Z</time>
      </trkpt>
      <trkpt lat="46.25052" lon="4.73061">
        <ele>281</ele>
        <time>2025-07-16T14:53:34Z</time>
      </trkpt>
      <trkpt lat="46.25082" lon="4.73073">
        <ele>279.1</ele>
        <time>2025-07-16T14:53:41Z</time>
      </trkpt>
      <trkpt lat="46.2509" lon="4.73078">
        <ele>278.5</ele>
        <time>2025-07-16T14:53:43Z</time>
      </trkpt>
      <trkpt lat="46.25099" lon="4.73089">
        <ele>277.7</ele>
        <time>2025-07-16T14:53:46Z</time>
      </trkpt>
      <trkpt lat="46.25101" lon="4.73095">
        <ele>277.5</ele>
        <time>2025-07-16T14:53:47Z</time>
      </trkpt>
      <trkpt lat="46.25109" lon="4.7312">
        <ele>276.2</ele>
        <time>2025-07-16T14:53:51Z</time>
      </trkpt>
      <trkpt lat="46.2512" lon="4.73181">
        <ele>273.5</ele>
        <time>2025-07-16T14:54:00Z</time>
      </trkpt>
      <trkpt lat="46.25124" lon="4.73232">
        <ele>271</ele>
        <time>2025-07-16T14:54:08Z</time>
      </trkpt>
      <trkpt lat="46.25124" lon="4.73288">
        <ele>268.3</ele>
        <time>2025-07-16T14:54:17Z</time>
      </trkpt>
      <trkpt lat="46.25136" lon="4.7332">
        <ele>266.8</ele>
        <time>2025-07-16T14:54:23Z</time>
      </trkpt>
      <trkpt lat="46.25156" lon="4.73351">
        <ele>265.2</ele>
        <time>2025-07-16T14:54:30Z</time>
      </trkpt>
      <trkpt lat="46.25167" lon="4.73369">
        <ele>264.5</ele>
        <time>2025-07-16T14:54:34Z</time>
      </trkpt>
      <trkpt lat="46.25171" lon="4.73385">
        <ele>264.1</ele>
        <time>2025-07-16T14:54:36Z</time>
      </trkpt>
      <trkpt lat="46.25168" lon="4.73417">
        <ele>263.5</ele>
        <time>2025-07-16T14:54:41Z</time>
      </trkpt>
      <trkpt lat="46.25164" lon="4.73467">
        <ele>262.1</ele>
        <time>2025-07-16T14:54:49Z</time>
      </trkpt>
      <trkpt lat="46.25161" lon="4.73512">
        <ele>260.5</ele>
        <time>2025-07-16T14:54:56Z</time>
      </trkpt>
      <trkpt lat="46.25165" lon="4.7356">
        <ele>258.6</ele>
        <time>2025-07-16T14:55:03Z</time>
      </trkpt>
      <trkpt lat="46.25169" lon="4.73585">
        <ele>257.5</ele>
        <time>2025-07-16T14:55:07Z</time>
      </trkpt>
      <trkpt lat="46.25171" lon="4.73598">
        <ele>256.9</ele>
        <time>2025-07-16T14:55:09Z</time>
      </trkpt>
      <trkpt lat="46.25193" lon="4.7365">
        <ele>254.3</ele>
        <time>2025-07-16T14:55:18Z</time>
      </trkpt>
      <trkpt lat="46.25209" lon="4.7369">
        <ele>252.6</ele>
        <time>2025-07-16T14:55:25Z</time>
      </trkpt>
      <trkpt lat="46.25223" lon="4.73734">
        <ele>250.3</ele>
        <time>2025-07-16T14:55:32Z</time>
      </trkpt>
      <trkpt lat="46.25239" lon="4.73786">
        <ele>247.8</ele>
        <time>2025-07-16T14:55:40Z</time>
      </trkpt>
      <trkpt lat="46.25253" lon="4.73827">
        <ele>245.8</ele>
        <time>2025-07-16T14:55:47Z</time>
      </trkpt>
      <trkpt lat="46.25259" lon="4.73845">
        <ele>244.8</ele>
        <time>2025-07-16T14:55:50Z</time>
      </trkpt>
      <trkpt lat="46.25266" lon="4.73869">
        <ele>243.5</ele>
        <time>2025-07-16T14:55:54Z</time>
      </trkpt>
      <trkpt lat="46.25274" lon="4.73893">
        <ele>242.1</ele>
        <time>2025-07-16T14:55:58Z</time>
      </trkpt>
      <trkpt lat="46.25281" lon="4.73913">
        <ele>241</ele>
        <time>2025-07-16T14:56:01Z</time>
      </trkpt>
      <trkpt lat="46.25292" lon="4.73961">
        <ele>238.8</ele>
        <time>2025-07-16T14:56:08Z</time>
      </trkpt>
      <trkpt lat="46.25294" lon="4.73976">
        <ele>238.2</ele>
        <time>2025-07-16T14:56:10Z</time>
      </trkpt>
      <trkpt lat="46.25296" lon="4.74005">
        <ele>237.3</ele>
        <time>2025-07-16T14:56:14Z</time>
      </trkpt>
      <trkpt lat="46.25298" lon="4.74055">
        <ele>236.3</ele>
        <time>2025-07-16T14:56:21Z</time>
      </trkpt>
      <trkpt lat="46.25303" lon="4.74118">
        <ele>235.4</ele>
        <time>2025-07-16T14:56:30Z</time>
      </trkpt>
      <trkpt lat="46.25305" lon="4.74124">
        <ele>235.2</ele>
        <time>2025-07-16T14:56:31Z</time>
      </trkpt>
      <trkpt lat="46.25311" lon="4.74135">
        <ele>235</ele>
        <time>2025-07-16T14:56:33Z</time>
      </trkpt>
      <trkpt lat="46.25314" lon="4.74141">
        <ele>234.8</ele>
        <time>2025-07-16T14:56:34Z</time>
      </trkpt>
      <trkpt lat="46.25321" lon="4.7415">
        <ele>234.6</ele>
        <time>2025-07-16T14:56:36Z</time>
      </trkpt>
      <trkpt lat="46.25329" lon="4.74158">
        <ele>234.3</ele>
        <time>2025-07-16T14:56:38Z</time>
      </trkpt>
      <trkpt lat="46.25357" lon="4.74188">
        <ele>233.3</ele>
        <time>2025-07-16T14:56:45Z</time>
      </trkpt>
      <trkpt lat="46.25365" lon="4.74195">
        <ele>233</ele>
        <time>2025-07-16T14:56:47Z</time>
      </trkpt>
      <trkpt lat="46.2538" lon="4.74209">
        <ele>232.6</ele>
        <time>2025-07-16T14:56:51Z</time>
      </trkpt>
      <trkpt lat="46.25391" lon="4.74219">
        <ele>232.4</ele>
        <time>2025-07-16T14:56:54Z</time>
      </trkpt>
      <trkpt lat="46.25401" lon="4.74228">
        <ele>232.1</ele>
        <time>2025-07-16T14:56:56Z</time>
      </trkpt>
      <trkpt lat="46.25424" lon="4.74239">
        <ele>231.9</ele>
        <time>2025-07-16T14:57:01Z</time>
      </trkpt>
      <trkpt lat="46.25429" lon="4.7424">
        <ele>231.9</ele>
        <time>2025-07-16T14:57:02Z</time>
      </trkpt>
      <trkpt lat="46.25445" lon="4.74248">
        <ele>231.8</ele>
        <time>2025-07-16T14:57:06Z</time>
      </trkpt>
      <trkpt lat="46.25458" lon="4.74258">
        <ele>231.7</ele>
        <time>2025-07-16T14:57:11Z</time>
      </trkpt>
      <trkpt lat="46.25457" lon="4.74267">
        <ele>231.7</ele>
        <time>2025-07-16T14:57:13Z</time>
      </trkpt>
      <trkpt lat="46.25454" lon="4.74274">
        <ele>231.6</ele>
        <time>2025-07-16T14:57:15Z</time>
      </trkpt>
      <trkpt lat="46.25456" lon="4.74307">
        <ele>232</ele>
        <time>2025-07-16T14:57:20Z</time>
      </trkpt>
      <trkpt lat="46.25457" lon="4.74311">
        <ele>232</ele>
        <time>2025-07-16T14:57:23Z</time>
      </trkpt>
      <trkpt lat="46.25457" lon="4.74311">
        <ele>232</ele>
        <time>2025-07-16T14:57:35Z</time>
      </trkpt>
      <trkpt lat="46.25457" lon="4.74311">
        <ele>232</ele>
        <time>2025-07-16T14:57:50Z</time>
      </trkpt>
      <trkpt lat="46.25457" lon="4.74311">
        <ele>232</ele>
        <time>2025-07-16T14:57:58Z</time>
      </trkpt>
      <trkpt lat="46.25457" lon="4.74313">
        <ele>232</ele>
        <time>2025-07-16T14:58:00Z</time>
      </trkpt>
      <trkpt lat="46.25461" lon="4.74306">
        <ele>231.9</ele>
        <time>2025-07-16T14:58:03Z</time>
      </trkpt>
      <trkpt lat="46.25454" lon="4.74276">
        <ele>231.5</ele>
        <time>2025-07-16T14:58:08Z</time>
      </trkpt>
      <trkpt lat="46.2546" lon="4.74262">
        <ele>231.7</ele>
        <time>2025-07-16T14:58:11Z</time>
      </trkpt>
      <trkpt lat="46.25468" lon="4.74265">
        <ele>232</ele>
        <time>2025-07-16T14:58:12Z</time>
      </trkpt>
      <trkpt lat="46.25477" lon="4.74272">
        <ele>232.3</ele>
        <time>2025-07-16T14:58:15Z</time>
      </trkpt>
      <trkpt lat="46.25492" lon="4.74282">
        <ele>233.3</ele>
        <time>2025-07-16T14:58:20Z</time>
      </trkpt>
      <trkpt lat="46.25498" lon="4.74287">
        <ele>234</ele>
        <time>2025-07-16T14:58:25Z</time>
      </trkpt>
      <trkpt lat="46.25504" lon="4.74293">
        <ele>234.7</ele>
        <time>2025-07-16T14:58:31Z</time>
      </trkpt>
      <trkpt lat="46.2551" lon="4.74302">
        <ele>235.8</ele>
        <time>2025-07-16T14:58:37Z</time>
      </trkpt>
      <trkpt lat="46.25511" lon="4.74304">
        <ele>236.1</ele>
        <time>2025-07-16T14:58:38Z</time>
      </trkpt>
      <trkpt lat="46.25513" lon="4.74318">
        <ele>237.4</ele>
        <time>2025-07-16T14:58:45Z</time>
      </trkpt>
      <trkpt lat="46.25515" lon="4.74333">
        <ele>238.8</ele>
        <time>2025-07-16T14:58:53Z</time>
      </trkpt>
      <trkpt lat="46.25518" lon="4.74347">
        <ele>240</ele>
        <time>2025-07-16T14:59:01Z</time>
      </trkpt>
      <trkpt lat="46.2552" lon="4.74361">
        <ele>241.2</ele>
        <time>2025-07-16T14:59:09Z</time>
      </trkpt>
      <trkpt lat="46.25524" lon="4.74374">
        <ele>242.3</ele>
        <time>2025-07-16T14:59:17Z</time>
      </trkpt>
      <trkpt lat="46.25527" lon="4.7439">
        <ele>243.6</ele>
        <time>2025-07-16T14:59:25Z</time>
      </trkpt>
      <trkpt lat="46.25529" lon="4.744">
        <ele>244.3</ele>
        <time>2025-07-16T14:59:31Z</time>
      </trkpt>
      <trkpt lat="46.25533" lon="4.74413">
        <ele>245.3</ele>
        <time>2025-07-16T14:59:39Z</time>
      </trkpt>
      <trkpt lat="46.25533" lon="4.74413">
        <ele>245.3</ele>
        <time>2025-07-16T14:59:45Z</time>
      </trkpt>
      <trkpt lat="46.25533" lon="4.74413">
        <ele>245.3</ele>
        <time>2025-07-16T14:59:52Z</time>
      </trkpt>
      <trkpt lat="46.25538" lon="4.74423">
        <ele>246</ele>
        <time>2025-07-16T14:59:58Z</time>
      </trkpt>
      <trkpt lat="46.25546" lon="4.74438">
        <ele>247</ele>
        <time>2025-07-16T15:00:03Z</time>
      </trkpt>
      <trkpt lat="46.25556" lon="4.74458">
        <ele>248.2</ele>
        <time>2025-07-16T15:00:09Z</time>
      </trkpt>
      <trkpt lat="46.25569" lon="4.74483">
        <ele>249.8</ele>
        <time>2025-07-16T15:00:16Z</time>
      </trkpt>
      <trkpt lat="46.25581" lon="4.74506">
        <ele>251</ele>
        <time>2025-07-16T15:00:23Z</time>
      </trkpt>
      <trkpt lat="46.25591" lon="4.74527">
        <ele>251.9</ele>
        <time>2025-07-16T15:00:29Z</time>
      </trkpt>
      <trkpt lat="46.25599" lon="4.74544">
        <ele>252.8</ele>
        <time>2025-07-16T15:00:35Z</time>
      </trkpt>
      <trkpt lat="46.25606" lon="4.74558">
        <ele>253.6</ele>
        <time>2025-07-16T15:00:40Z</time>
      </trkpt>
      <trkpt lat="46.25616" lon="4.74579">
        <ele>254.6</ele>
        <time>2025-07-16T15:00:47Z</time>
      </trkpt>
      <trkpt lat="46.25626" lon="4.746">
        <ele>255.4</ele>
        <time>2025-07-16T15:00:54Z</time>
      </trkpt>
      <trkpt lat="46.25638" lon="4.74626">
        <ele>256.1</ele>
        <time>2025-07-16T15:01:02Z</time>
      </trkpt>
      <trkpt lat="46.25655" lon="4.7466">
        <ele>256.7</ele>
        <time>2025-07-16T15:01:11Z</time>
      </trkpt>
      <trkpt lat="46.25669" lon="4.74692">
        <ele>256.7</ele>
        <time>2025-07-16T15:01:18Z</time>
      </trkpt>
      <trkpt lat="46.25688" lon="4.74732">
        <ele>256.9</ele>
        <time>2025-07-16T15:01:26Z</time>
      </trkpt>
      <trkpt lat="46.25703" lon="4.74763">
        <ele>257.1</ele>
        <time>2025-07-16T15:01:32Z</time>
      </trkpt>
      <trkpt lat="46.25719" lon="4.74798">
        <ele>257.5</ele>
        <time>2025-07-16T15:01:39Z</time>
      </trkpt>
      <trkpt lat="46.25735" lon="4.74833">
        <ele>257.5</ele>
        <time>2025-07-16T15:01:47Z</time>
      </trkpt>
      <trkpt lat="46.25755" lon="4.74876">
        <ele>256</ele>
        <time>2025-07-16T15:01:56Z</time>
      </trkpt>
      <trkpt lat="46.2577" lon="4.74908">
        <ele>254.2</ele>
        <time>2025-07-16T15:02:03Z</time>
      </trkpt>
      <trkpt lat="46.25786" lon="4.74944">
        <ele>251.7</ele>
        <time>2025-07-16T15:02:10Z</time>
      </trkpt>
      <trkpt lat="46.25802" lon="4.74979">
        <ele>249.8</ele>
        <time>2025-07-16T15:02:16Z</time>
      </trkpt>
      <trkpt lat="46.25816" lon="4.75009">
        <ele>248.8</ele>
        <time>2025-07-16T15:02:21Z</time>
      </trkpt>
      <trkpt lat="46.25819" lon="4.75015">
        <ele>248.7</ele>
        <time>2025-07-16T15:02:22Z</time>
      </trkpt>
      <trkpt lat="46.25839" lon="4.75059">
        <ele>247.9</ele>
        <time>2025-07-16T15:02:29Z</time>
      </trkpt>
      <trkpt lat="46.25852" lon="4.75086">
        <ele>247.8</ele>
        <time>2025-07-16T15:02:33Z</time>
      </trkpt>
      <trkpt lat="46.25856" lon="4.75101">
        <ele>247.9</ele>
        <time>2025-07-16T15:02:35Z</time>
      </trkpt>
      <trkpt lat="46.25858" lon="4.75109">
        <ele>247.9</ele>
        <time>2025-07-16T15:02:36Z</time>
      </trkpt>
      <trkpt lat="46.25865" lon="4.7514">
        <ele>248.1</ele>
        <time>2025-07-16T15:02:40Z</time>
      </trkpt>
      <trkpt lat="46.2587" lon="4.75163">
        <ele>248.3</ele>
        <time>2025-07-16T15:02:43Z</time>
      </trkpt>
      <trkpt lat="46.25882" lon="4.75198">
        <ele>249.1</ele>
        <time>2025-07-16T15:02:48Z</time>
      </trkpt>
      <trkpt lat="46.25888" lon="4.75212">
        <ele>249.4</ele>
        <time>2025-07-16T15:02:50Z</time>
      </trkpt>
      <trkpt lat="46.25897" lon="4.75231">
        <ele>249.9</ele>
        <time>2025-07-16T15:02:53Z</time>
      </trkpt>
      <trkpt lat="46.259" lon="4.75237">
        <ele>250.2</ele>
        <time>2025-07-16T15:02:54Z</time>
      </trkpt>
      <trkpt lat="46.25915" lon="4.75264">
        <ele>251.4</ele>
        <time>2025-07-16T15:02:59Z</time>
      </trkpt>
      <trkpt lat="46.25927" lon="4.75286">
        <ele>252.5</ele>
        <time>2025-07-16T15:03:04Z</time>
      </trkpt>
      <trkpt lat="46.25939" lon="4.75307">
        <ele>253.4</ele>
        <time>2025-07-16T15:03:10Z</time>
      </trkpt>
      <trkpt lat="46.25957" lon="4.75337">
        <ele>254</ele>
        <time>2025-07-16T15:03:19Z</time>
      </trkpt>
      <trkpt lat="46.25972" lon="4.75362">
        <ele>253.4</ele>
        <time>2025-07-16T15:03:27Z</time>
      </trkpt>
      <trkpt lat="46.25984" lon="4.7538">
        <ele>252.2</ele>
        <time>2025-07-16T15:03:32Z</time>
      </trkpt>
      <trkpt lat="46.26003" lon="4.75409">
        <ele>250.1</ele>
        <time>2025-07-16T15:03:39Z</time>
      </trkpt>
      <trkpt lat="46.26024" lon="4.7544">
        <ele>248.3</ele>
        <time>2025-07-16T15:03:46Z</time>
      </trkpt>
      <trkpt lat="46.26027" lon="4.75445">
        <ele>248</ele>
        <time>2025-07-16T15:03:47Z</time>
      </trkpt>
      <trkpt lat="46.26043" lon="4.75475">
        <ele>246.6</ele>
        <time>2025-07-16T15:03:53Z</time>
      </trkpt>
      <trkpt lat="46.26057" lon="4.75512">
        <ele>245.7</ele>
        <time>2025-07-16T15:03:59Z</time>
      </trkpt>
      <trkpt lat="46.26059" lon="4.75518">
        <ele>245.6</ele>
        <time>2025-07-16T15:04:00Z</time>
      </trkpt>
      <trkpt lat="46.26067" lon="4.75543">
        <ele>245.4</ele>
        <time>2025-07-16T15:04:04Z</time>
      </trkpt>
      <trkpt lat="46.26068" lon="4.75549">
        <ele>245.4</ele>
        <time>2025-07-16T15:04:05Z</time>
      </trkpt>
      <trkpt lat="46.26072" lon="4.75568">
        <ele>245.5</ele>
        <time>2025-07-16T15:04:08Z</time>
      </trkpt>
      <trkpt lat="46.26073" lon="4.75575">
        <ele>245.6</ele>
        <time>2025-07-16T15:04:09Z</time>
      </trkpt>
      <trkpt lat="46.26076" lon="4.75589">
        <ele>245.7</ele>
        <time>2025-07-16T15:04:11Z</time>
      </trkpt>
      <trkpt lat="46.26083" lon="4.75602">
        <ele>246.3</ele>
        <time>2025-07-16T15:04:13Z</time>
      </trkpt>
      <trkpt lat="46.26087" lon="4.75608">
        <ele>246.5</ele>
        <time>2025-07-16T15:04:14Z</time>
      </trkpt>
      <trkpt lat="46.26098" lon="4.75626">
        <ele>247.6</ele>
        <time>2025-07-16T15:04:18Z</time>
      </trkpt>
      <trkpt lat="46.2611" lon="4.75647">
        <ele>249.2</ele>
        <time>2025-07-16T15:04:24Z</time>
      </trkpt>
      <trkpt lat="46.26111" lon="4.7565">
        <ele>249.4</ele>
        <time>2025-07-16T15:04:27Z</time>
      </trkpt>
      <trkpt lat="46.26113" lon="4.75654">
        <ele>249.8</ele>
        <time>2025-07-16T15:04:32Z</time>
      </trkpt>
      <trkpt lat="46.26118" lon="4.75666">
        <ele>250.7</ele>
        <time>2025-07-16T15:04:39Z</time>
      </trkpt>
      <trkpt lat="46.26123" lon="4.75677">
        <ele>251.7</ele>
        <time>2025-07-16T15:04:46Z</time>
      </trkpt>
      <trkpt lat="46.26132" lon="4.75683">
        <ele>252.6</ele>
        <time>2025-07-16T15:04:54Z</time>
      </trkpt>
      <trkpt lat="46.26136" lon="4.75686">
        <ele>253</ele>
        <time>2025-07-16T15:05:00Z</time>
      </trkpt>
      <trkpt lat="46.26137" lon="4.75687">
        <ele>253.1</ele>
        <time>2025-07-16T15:05:05Z</time>
      </trkpt>
      <trkpt lat="46.26138" lon="4.75687">
        <ele>253.2</ele>
        <time>2025-07-16T15:05:06Z</time>
      </trkpt>
      <trkpt lat="46.26144" lon="4.75691">
        <ele>253.8</ele>
        <time>2025-07-16T15:05:10Z</time>
      </trkpt>
      <trkpt lat="46.26156" lon="4.75698">
        <ele>254.8</ele>
        <time>2025-07-16T15:05:16Z</time>
      </trkpt>
      <trkpt lat="46.26171" lon="4.757">
        <ele>255.9</ele>
        <time>2025-07-16T15:05:22Z</time>
      </trkpt>
      <trkpt lat="46.2619" lon="4.75704">
        <ele>256.8</ele>
        <time>2025-07-16T15:05:29Z</time>
      </trkpt>
      <trkpt lat="46.26204" lon="4.75709">
        <ele>257.5</ele>
        <time>2025-07-16T15:05:34Z</time>
      </trkpt>
      <trkpt lat="46.26209" lon="4.75727">
        <ele>258.8</ele>
        <time>2025-07-16T15:05:39Z</time>
      </trkpt>
      <trkpt lat="46.26209" lon="4.75729">
        <ele>259</ele>
        <time>2025-07-16T15:05:43Z</time>
      </trkpt>
      <trkpt lat="46.26211" lon="4.75735">
        <ele>259.4</ele>
        <time>2025-07-16T15:05:48Z</time>
      </trkpt>
      <trkpt lat="46.26213" lon="4.7575">
        <ele>260.4</ele>
        <time>2025-07-16T15:05:56Z</time>
      </trkpt>
      <trkpt lat="46.26214" lon="4.75762">
        <ele>261.4</ele>
        <time>2025-07-16T15:06:03Z</time>
      </trkpt>
      <trkpt lat="46.26216" lon="4.75779">
        <ele>262.7</ele>
        <time>2025-07-16T15:06:11Z</time>
      </trkpt>
      <trkpt lat="46.26217" lon="4.7579">
        <ele>263.8</ele>
        <time>2025-07-16T15:06:18Z</time>
      </trkpt>
      <trkpt lat="46.26217" lon="4.75796">
        <ele>264.2</ele>
        <time>2025-07-16T15:06:21Z</time>
      </trkpt>
      <trkpt lat="46.26218" lon="4.75802">
        <ele>264.8</ele>
        <time>2025-07-16T15:06:25Z</time>
      </trkpt>
      <trkpt lat="46.26219" lon="4.75817">
        <ele>266.1</ele>
        <time>2025-07-16T15:06:33Z</time>
      </trkpt>
      <trkpt lat="46.26221" lon="4.7583">
        <ele>267.2</ele>
        <time>2025-07-16T15:06:41Z</time>
      </trkpt>
      <trkpt lat="46.26221" lon="4.75832">
        <ele>267.4</ele>
        <time>2025-07-16T15:06:42Z</time>
      </trkpt>
      <trkpt lat="46.26222" lon="4.75846">
        <ele>268.6</ele>
        <time>2025-07-16T15:06:49Z</time>
      </trkpt>
      <trkpt lat="46.26223" lon="4.75858">
        <ele>269.5</ele>
        <time>2025-07-16T15:06:56Z</time>
      </trkpt>
      <trkpt lat="46.26224" lon="4.75868">
        <ele>270.3</ele>
        <time>2025-07-16T15:07:01Z</time>
      </trkpt>
      <trkpt lat="46.26225" lon="4.75872">
        <ele>270.5</ele>
        <time>2025-07-16T15:07:03Z</time>
      </trkpt>
      <trkpt lat="46.26226" lon="4.75885">
        <ele>271.5</ele>
        <time>2025-07-16T15:07:11Z</time>
      </trkpt>
      <trkpt lat="46.26226" lon="4.75905">
        <ele>272.7</ele>
        <time>2025-07-16T15:07:21Z</time>
      </trkpt>
      <trkpt lat="46.26225" lon="4.75913">
        <ele>273.1</ele>
        <time>2025-07-16T15:07:27Z</time>
      </trkpt>
      <trkpt lat="46.26225" lon="4.75914">
        <ele>273.2</ele>
        <time>2025-07-16T15:07:28Z</time>
      </trkpt>
      <trkpt lat="46.26232" lon="4.75934">
        <ele>273.9</ele>
        <time>2025-07-16T15:07:33Z</time>
      </trkpt>
      <trkpt lat="46.26235" lon="4.75935">
        <ele>273.9</ele>
        <time>2025-07-16T15:07:39Z</time>
      </trkpt>
      <trkpt lat="46.26235" lon="4.75935">
        <ele>273.9</ele>
        <time>2025-07-16T15:07:48Z</time>
      </trkpt>
      <trkpt lat="46.26235" lon="4.75935">
        <ele>273.9</ele>
        <time>2025-07-16T15:08:00Z</time>
      </trkpt>
      <trkpt lat="46.26235" lon="4.75935">
        <ele>273.9</ele>
        <time>2025-07-16T15:08:09Z</time>
      </trkpt>
      <trkpt lat="46.26235" lon="4.75935">
        <ele>273.9</ele>
        <time>2025-07-16T15:08:20Z</time>
      </trkpt>
      <trkpt lat="46.26235" lon="4.75935">
        <ele>273.9</ele>
        <time>2025-07-16T15:08:29Z</time>
      </trkpt>
      <trkpt lat="46.26235" lon="4.75935">
        <ele>273.9</ele>
        <time>2025-07-16T15:08:36Z</time>
      </trkpt>
      <trkpt lat="46.26235" lon="4.75935">
        <ele>273.9</ele>
        <time>2025-07-16T15:08:48Z</time>
      </trkpt>
      <trkpt lat="46.26235" lon="4.75935">
        <ele>273.9</ele>
        <time>2025-07-16T15:08:58Z</time>
      </trkpt>
      <trkpt lat="46.26235" lon="4.75935">
        <ele>273.9</ele>
        <time>2025-07-16T15:09:07Z</time>
      </trkpt>
      <trkpt lat="46.26235" lon="4.75935">
        <ele>273.9</ele>
        <time>2025-07-16T15:09:20Z</time>
      </trkpt>
      <trkpt lat="46.26235" lon="4.75935">
        <ele>273.9</ele>
        <time>2025-07-16T15:09:33Z</time>
      </trkpt>
      <trkpt lat="46.26235" lon="4.75935">
        <ele>273.9</ele>
        <time>2025-07-16T15:09:46Z</time>
      </trkpt>
      <trkpt lat="46.26235" lon="4.75935">
        <ele>273.9</ele>
        <time>2025-07-16T15:10:02Z</time>
      </trkpt>
      <trkpt lat="46.26235" lon="4.75935">
        <ele>273.9</ele>
        <time>2025-07-16T15:10:19Z</time>
      </trkpt>
      <trkpt lat="46.26235" lon="4.75935">
        <ele>273.9</ele>
        <time>2025-07-16T15:10:39Z</time>
      </trkpt>
      <trkpt lat="46.26235" lon="4.75935">
        <ele>273.9</ele>
        <time>2025-07-16T15:10:52Z</time>
      </trkpt>
      <trkpt lat="46.26235" lon="4.75935">
        <ele>273.9</ele>
        <time>2025-07-16T15:11:03Z</time>
      </trkpt>
      <trkpt lat="46.26235" lon="4.75935">
        <ele>273.9</ele>
        <time>2025-07-16T15:11:15Z</time>
      </trkpt>
      <trkpt lat="46.26235" lon="4.75935">
        <ele>273.9</ele>
        <time>2025-07-16T15:11:27Z</time>
      </trkpt>
      <trkpt lat="46.26235" lon="4.75935">
        <ele>273.9</ele>
        <time>2025-07-16T15:11:41Z</time>
      </trkpt>
      <trkpt lat="46.26235" lon="4.75935">
        <ele>273.9</ele>
        <time>2025-07-16T15:11:59Z</time>
      </trkpt>
      <trkpt lat="46.26235" lon="4.75935">
        <ele>273.9</ele>
        <time>2025-07-16T15:12:11Z</time>
      </trkpt>
      <trkpt lat="46.26235" lon="4.75935">
        <ele>273.9</ele>
        <time>2025-07-16T15:12:15Z</time>
      </trkpt>
      <trkpt lat="46.26235" lon="4.75935">
        <ele>273.9</ele>
        <time>2025-07-16T15:12:19Z</time>
      </trkpt>
      <trkpt lat="46.26235" lon="4.75935">
        <ele>273.9</ele>
        <time>2025-07-16T15:12:25Z</time>
      </trkpt>
      <trkpt lat="46.26235" lon="4.75935">
        <ele>273.9</ele>
        <time>2025-07-16T15:12:38Z</time>
      </trkpt>
      <trkpt lat="46.26235" lon="4.75935">
        <ele>273.9</ele>
        <time>2025-07-16T15:12:55Z</time>
      </trkpt>
      <trkpt lat="46.26235" lon="4.75935">
        <ele>273.9</ele>
        <time>2025-07-16T15:13:11Z</time>
      </trkpt>
      <trkpt lat="46.26235" lon="4.75935">
        <ele>273.9</ele>
        <time>2025-07-16T15:13:22Z</time>
      </trkpt>
      <trkpt lat="46.26235" lon="4.75935">
        <ele>273.9</ele>
        <time>2025-07-16T15:13:31Z</time>
      </trkpt>
      <trkpt lat="46.26235" lon="4.75935">
        <ele>273.9</ele>
        <time>2025-07-16T15:13:39Z</time>
      </trkpt>
      <trkpt lat="46.26235" lon="4.75935">
        <ele>273.9</ele>
        <time>2025-07-16T15:13:50Z</time>
      </trkpt>
      <trkpt lat="46.26235" lon="4.75935">
        <ele>273.9</ele>
        <time>2025-07-16T15:14:01Z</time>
      </trkpt>
      <trkpt lat="46.26235" lon="4.75935">
        <ele>273.9</ele>
        <time>2025-07-16T15:14:11Z</time>
      </trkpt>
      <trkpt lat="46.26235" lon="4.75935">
        <ele>273.9</ele>
        <time>2025-07-16T15:14:23Z</time>
      </trkpt>
      <trkpt lat="46.26235" lon="4.75935">
        <ele>273.9</ele>
        <time>2025-07-16T15:14:32Z</time>
      </trkpt>
      <trkpt lat="46.26235" lon="4.75935">
        <ele>273.9</ele>
        <time>2025-07-16T15:14:40Z</time>
      </trkpt>
      <trkpt lat="46.26235" lon="4.75935">
        <ele>273.9</ele>
        <time>2025-07-16T15:14:46Z</time>
      </trkpt>
      <trkpt lat="46.26235" lon="4.75935">
        <ele>273.9</ele>
        <time>2025-07-16T15:14:54Z</time>
      </trkpt>
      <trkpt lat="46.26235" lon="4.75935">
        <ele>273.9</ele>
        <time>2025-07-16T15:15:11Z</time>
      </trkpt>
      <trkpt lat="46.26235" lon="4.75935">
        <ele>273.9</ele>
        <time>2025-07-16T15:15:25Z</time>
      </trkpt>
      <trkpt lat="46.26235" lon="4.75935">
        <ele>273.9</ele>
        <time>2025-07-16T15:15:36Z</time>
      </trkpt>
      <trkpt lat="46.26235" lon="4.75935">
        <ele>273.9</ele>
        <time>2025-07-16T15:15:43Z</time>
      </trkpt>
      <trkpt lat="46.26235" lon="4.75935">
        <ele>273.9</ele>
        <time>2025-07-16T15:15:52Z</time>
      </trkpt>
      <trkpt lat="46.26235" lon="4.75935">
        <ele>273.9</ele>
        <time>2025-07-16T15:16:00Z</time>
      </trkpt>
      <trkpt lat="46.26235" lon="4.75935">
        <ele>273.9</ele>
        <time>2025-07-16T15:16:13Z</time>
      </trkpt>
      <trkpt lat="46.26235" lon="4.75935">
        <ele>273.9</ele>
        <time>2025-07-16T15:16:24Z</time>
      </trkpt>
      <trkpt lat="46.26247" lon="4.75939">
        <ele>273.7</ele>
        <time>2025-07-16T15:16:30Z</time>
      </trkpt>
      <trkpt lat="46.26268" lon="4.75962">
        <ele>274.2</ele>
        <time>2025-07-16T15:16:38Z</time>
      </trkpt>
      <trkpt lat="46.26285" lon="4.7599">
        <ele>274.5</ele>
        <time>2025-07-16T15:16:46Z</time>
      </trkpt>
      <trkpt lat="46.26311" lon="4.7602">
        <ele>274.9</ele>
        <time>2025-07-16T15:16:55Z</time>
      </trkpt>
      <trkpt lat="46.26342" lon="4.76047">
        <ele>275.1</ele>
        <time>2025-07-16T15:17:03Z</time>
      </trkpt>
      <trkpt lat="46.26374" lon="4.76075">
        <ele>275.2</ele>
        <time>2025-07-16T15:17:11Z</time>
      </trkpt>
      <trkpt lat="46.26397" lon="4.76096">
        <ele>275.1</ele>
        <time>2025-07-16T15:17:17Z</time>
      </trkpt>
      <trkpt lat="46.2642" lon="4.76116">
        <ele>274.8</ele>
        <time>2025-07-16T15:17:23Z</time>
      </trkpt>
      <trkpt lat="46.2643" lon="4.76129">
        <ele>274.6</ele>
        <time>2025-07-16T15:17:26Z</time>
      </trkpt>
      <trkpt lat="46.26458" lon="4.76165">
        <ele>274</ele>
        <time>2025-07-16T15:17:34Z</time>
      </trkpt>
      <trkpt lat="46.26485" lon="4.76203">
        <ele>273.2</ele>
        <time>2025-07-16T15:17:42Z</time>
      </trkpt>
      <trkpt lat="46.26511" lon="4.76238">
        <ele>272.7</ele>
        <time>2025-07-16T15:17:49Z</time>
      </trkpt>
      <trkpt lat="46.26548" lon="4.76287">
        <ele>271.9</ele>
        <time>2025-07-16T15:17:59Z</time>
      </trkpt>
      <trkpt lat="46.26575" lon="4.76305">
        <ele>271.7</ele>
        <time>2025-07-16T15:18:05Z</time>
      </trkpt>
      <trkpt lat="46.2661" lon="4.76325">
        <ele>271.7</ele>
        <time>2025-07-16T15:18:13Z</time>
      </trkpt>
      <trkpt lat="46.26633" lon="4.76334">
        <ele>271.7</ele>
        <time>2025-07-16T15:18:18Z</time>
      </trkpt>
      <trkpt lat="46.26642" lon="4.76338">
        <ele>271.6</ele>
        <time>2025-07-16T15:18:20Z</time>
      </trkpt>
      <trkpt lat="46.26678" lon="4.76353">
        <ele>271.4</ele>
        <time>2025-07-16T15:18:28Z</time>
      </trkpt>
      <trkpt lat="46.26723" lon="4.76371">
        <ele>271.1</ele>
        <time>2025-07-16T15:18:38Z</time>
      </trkpt>
      <trkpt lat="46.2675" lon="4.76389">
        <ele>270.6</ele>
        <time>2025-07-16T15:18:45Z</time>
      </trkpt>
      <trkpt lat="46.26774" lon="4.76403">
        <ele>269.7</ele>
        <time>2025-07-16T15:18:52Z</time>
      </trkpt>
      <trkpt lat="46.26805" lon="4.76419">
        <ele>267.7</ele>
        <time>2025-07-16T15:19:01Z</time>
      </trkpt>
      <trkpt lat="46.26831" lon="4.76429">
        <ele>265.8</ele>
        <time>2025-07-16T15:19:09Z</time>
      </trkpt>
      <trkpt lat="46.26857" lon="4.76441">
        <ele>263.8</ele>
        <time>2025-07-16T15:19:17Z</time>
      </trkpt>
      <trkpt lat="46.26887" lon="4.76459">
        <ele>261.2</ele>
        <time>2025-07-16T15:19:26Z</time>
      </trkpt>
      <trkpt lat="46.26913" lon="4.76474">
        <ele>258.2</ele>
        <time>2025-07-16T15:19:34Z</time>
      </trkpt>
      <trkpt lat="46.26933" lon="4.76474">
        <ele>256</ele>
        <time>2025-07-16T15:19:40Z</time>
      </trkpt>
      <trkpt lat="46.26955" lon="4.76471">
        <ele>253.6</ele>
        <time>2025-07-16T15:19:46Z</time>
      </trkpt>
      <trkpt lat="46.26977" lon="4.76468">
        <ele>251.9</ele>
        <time>2025-07-16T15:19:53Z</time>
      </trkpt>
      <trkpt lat="46.26997" lon="4.76466">
        <ele>249.8</ele>
        <time>2025-07-16T15:20:00Z</time>
      </trkpt>
      <trkpt lat="46.27013" lon="4.76466">
        <ele>248</ele>
        <time>2025-07-16T15:20:06Z</time>
      </trkpt>
      <trkpt lat="46.27032" lon="4.76471">
        <ele>245.7</ele>
        <time>2025-07-16T15:20:14Z</time>
      </trkpt>
      <trkpt lat="46.27044" lon="4.76478">
        <ele>243.9</ele>
        <time>2025-07-16T15:20:21Z</time>
      </trkpt>
      <trkpt lat="46.27056" lon="4.76491">
        <ele>241.9</ele>
        <time>2025-07-16T15:20:28Z</time>
      </trkpt>
      <trkpt lat="46.27061" lon="4.76507">
        <ele>240.4</ele>
        <time>2025-07-16T15:20:33Z</time>
      </trkpt>
      <trkpt lat="46.2707" lon="4.76537">
        <ele>238.1</ele>
        <time>2025-07-16T15:20:40Z</time>
      </trkpt>
      <trkpt lat="46.27082" lon="4.76573">
        <ele>235.7</ele>
        <time>2025-07-16T15:20:48Z</time>
      </trkpt>
      <trkpt lat="46.27099" lon="4.76594">
        <ele>233.9</ele>
        <time>2025-07-16T15:20:54Z</time>
      </trkpt>
      <trkpt lat="46.27118" lon="4.76609">
        <ele>232.3</ele>
        <time>2025-07-16T15:21:02Z</time>
      </trkpt>
      <trkpt lat="46.27122" lon="4.76612">
        <ele>232</ele>
        <time>2025-07-16T15:21:04Z</time>
      </trkpt>
      <trkpt lat="46.27123" lon="4.76623">
        <ele>231.4</ele>
        <time>2025-07-16T15:21:06Z</time>
      </trkpt>
      <trkpt lat="46.27128" lon="4.76665">
        <ele>229.8</ele>
        <time>2025-07-16T15:21:12Z</time>
      </trkpt>
      <trkpt lat="46.27133" lon="4.76711">
        <ele>228.5</ele>
        <time>2025-07-16T15:21:19Z</time>
      </trkpt>
      <trkpt lat="46.27137" lon="4.76748">
        <ele>227.3</ele>
        <time>2025-07-16T15:21:26Z</time>
      </trkpt>
      <trkpt lat="46.2714" lon="4.76774">
        <ele>226</ele>
        <time>2025-07-16T15:21:32Z</time>
      </trkpt>
      <trkpt lat="46.27144" lon="4.76809">
        <ele>223.7</ele>
        <time>2025-07-16T15:21:39Z</time>
      </trkpt>
      <trkpt lat="46.27149" lon="4.76831">
        <ele>222.3</ele>
        <time>2025-07-16T15:21:45Z</time>
      </trkpt>
      <trkpt lat="46.27162" lon="4.76839">
        <ele>221.4</ele>
        <time>2025-07-16T15:21:49Z</time>
      </trkpt>
      <trkpt lat="46.27188" lon="4.76835">
        <ele>220.2</ele>
        <time>2025-07-16T15:21:55Z</time>
      </trkpt>
      <trkpt lat="46.27213" lon="4.76836">
        <ele>219.5</ele>
        <time>2025-07-16T15:22:00Z</time>
      </trkpt>
      <trkpt lat="46.2722" lon="4.76838">
        <ele>219.4</ele>
        <time>2025-07-16T15:22:01Z</time>
      </trkpt>
      <trkpt lat="46.27235" lon="4.76854">
        <ele>219.2</ele>
        <time>2025-07-16T15:22:05Z</time>
      </trkpt>
      <trkpt lat="46.27238" lon="4.76858">
        <ele>219.2</ele>
        <time>2025-07-16T15:22:06Z</time>
      </trkpt>
      <trkpt lat="46.27257" lon="4.76877">
        <ele>219.4</ele>
        <time>2025-07-16T15:22:12Z</time>
      </trkpt>
      <trkpt lat="46.27265" lon="4.76884">
        <ele>219.4</ele>
        <time>2025-07-16T15:22:17Z</time>
      </trkpt>
      <trkpt lat="46.27265" lon="4.76884">
        <ele>219.4</ele>
        <time>2025-07-16T15:22:23Z</time>
      </trkpt>
      <trkpt lat="46.27265" lon="4.76884">
        <ele>219.4</ele>
        <time>2025-07-16T15:22:33Z</time>
      </trkpt>
      <trkpt lat="46.27265" lon="4.76884">
        <ele>219.4</ele>
        <time>2025-07-16T15:22:47Z</time>
      </trkpt>
      <trkpt lat="46.27265" lon="4.76884">
        <ele>219.4</ele>
        <time>2025-07-16T15:23:02Z</time>
      </trkpt>
      <trkpt lat="46.27265" lon="4.76884">
        <ele>219.4</ele>
        <time>2025-07-16T15:23:14Z</time>
      </trkpt>
      <trkpt lat="46.27265" lon="4.76884">
        <ele>219.4</ele>
        <time>2025-07-16T15:23:24Z</time>
      </trkpt>
      <trkpt lat="46.27276" lon="4.76893">
        <ele>219.6</ele>
        <time>2025-07-16T15:23:31Z</time>
      </trkpt>
      <trkpt lat="46.27295" lon="4.76908">
        <ele>219.8</ele>
        <time>2025-07-16T15:23:37Z</time>
      </trkpt>
      <trkpt lat="46.27314" lon="4.76923">
        <ele>220</ele>
        <time>2025-07-16T15:23:42Z</time>
      </trkpt>
      <trkpt lat="46.27325" lon="4.76931">
        <ele>220.1</ele>
        <time>2025-07-16T15:23:45Z</time>
      </trkpt>
      <trkpt lat="46.27362" lon="4.7696">
        <ele>220.4</ele>
        <time>2025-07-16T15:23:55Z</time>
      </trkpt>
      <trkpt lat="46.27388" lon="4.76982">
        <ele>220.2</ele>
        <time>2025-07-16T15:24:02Z</time>
      </trkpt>
      <trkpt lat="46.27428" lon="4.77016">
        <ele>219.2</ele>
        <time>2025-07-16T15:24:12Z</time>
      </trkpt>
      <trkpt lat="46.27462" lon="4.77044">
        <ele>218.4</ele>
        <time>2025-07-16T15:24:20Z</time>
      </trkpt>
      <trkpt lat="46.27495" lon="4.77066">
        <ele>218.1</ele>
        <time>2025-07-16T15:24:27Z</time>
      </trkpt>
      <trkpt lat="46.27529" lon="4.77072">
        <ele>218.2</ele>
        <time>2025-07-16T15:24:34Z</time>
      </trkpt>
      <trkpt lat="46.27538" lon="4.7707">
        <ele>218.2</ele>
        <time>2025-07-16T15:24:36Z</time>
      </trkpt>
      <trkpt lat="46.27547" lon="4.77067">
        <ele>218.2</ele>
        <time>2025-07-16T15:24:38Z</time>
      </trkpt>
      <trkpt lat="46.27552" lon="4.77065">
        <ele>218.2</ele>
        <time>2025-07-16T15:24:39Z</time>
      </trkpt>
      <trkpt lat="46.27583" lon="4.7704">
        <ele>218.4</ele>
        <time>2025-07-16T15:24:46Z</time>
      </trkpt>
      <trkpt lat="46.27617" lon="4.77011">
        <ele>218.4</ele>
        <time>2025-07-16T15:24:55Z</time>
      </trkpt>
      <trkpt lat="46.27625" lon="4.77005">
        <ele>218.2</ele>
        <time>2025-07-16T15:24:57Z</time>
      </trkpt>
      <trkpt lat="46.27644" lon="4.76993">
        <ele>217.8</ele>
        <time>2025-07-16T15:25:02Z</time>
      </trkpt>
      <trkpt lat="46.27664" lon="4.76986">
        <ele>217.2</ele>
        <time>2025-07-16T15:25:07Z</time>
      </trkpt>
      <trkpt lat="46.27672" lon="4.76984">
        <ele>216.9</ele>
        <time>2025-07-16T15:25:09Z</time>
      </trkpt>
      <trkpt lat="46.27704" lon="4.76977">
        <ele>215.9</ele>
        <time>2025-07-16T15:25:16Z</time>
      </trkpt>
      <trkpt lat="46.27712" lon="4.76975">
        <ele>215.7</ele>
        <time>2025-07-16T15:25:18Z</time>
      </trkpt>
      <trkpt lat="46.27747" lon="4.76965">
        <ele>214.7</ele>
        <time>2025-07-16T15:25:26Z</time>
      </trkpt>
      <trkpt lat="46.27763" lon="4.76956">
        <ele>214.3</ele>
        <time>2025-07-16T15:25:30Z</time>
      </trkpt>
      <trkpt lat="46.27772" lon="4.7695">
        <ele>214.2</ele>
        <time>2025-07-16T15:25:32Z</time>
      </trkpt>
      <trkpt lat="46.27779" lon="4.76933">
        <ele>214.2</ele>
        <time>2025-07-16T15:25:35Z</time>
      </trkpt>
      <trkpt lat="46.27785" lon="4.76916">
        <ele>214.2</ele>
        <time>2025-07-16T15:25:38Z</time>
      </trkpt>
      <trkpt lat="46.27785" lon="4.76893">
        <ele>214.4</ele>
        <time>2025-07-16T15:25:43Z</time>
      </trkpt>
      <trkpt lat="46.27793" lon="4.76886">
        <ele>213.9</ele>
        <time>2025-07-16T15:25:44Z</time>
      </trkpt>
      <trkpt lat="46.278" lon="4.76886">
        <ele>213.5</ele>
        <time>2025-07-16T15:25:46Z</time>
      </trkpt>
      <trkpt lat="46.27829" lon="4.76886">
        <ele>212.3</ele>
        <time>2025-07-16T15:25:53Z</time>
      </trkpt>
      <trkpt lat="46.27846" lon="4.76886">
        <ele>211.9</ele>
        <time>2025-07-16T15:25:58Z</time>
      </trkpt>
      <trkpt lat="46.27849" lon="4.76896">
        <ele>211.6</ele>
        <time>2025-07-16T15:26:01Z</time>
      </trkpt>
      <trkpt lat="46.27851" lon="4.76904">
        <ele>211.4</ele>
        <time>2025-07-16T15:26:03Z</time>
      </trkpt>
      <trkpt lat="46.27858" lon="4.76941">
        <ele>210.3</ele>
        <time>2025-07-16T15:26:09Z</time>
      </trkpt>
      <trkpt lat="46.27862" lon="4.76959">
        <ele>209.8</ele>
        <time>2025-07-16T15:26:12Z</time>
      </trkpt>
      <trkpt lat="46.27864" lon="4.76972">
        <ele>209.6</ele>
        <time>2025-07-16T15:26:15Z</time>
      </trkpt>
      <trkpt lat="46.27864" lon="4.76972">
        <ele>209.6</ele>
        <time>2025-07-16T15:26:19Z</time>
      </trkpt>
      <trkpt lat="46.27864" lon="4.76972">
        <ele>209.6</ele>
        <time>2025-07-16T15:26:27Z</time>
      </trkpt>
      <trkpt lat="46.27868" lon="4.7699">
        <ele>209.3</ele>
        <time>2025-07-16T15:26:34Z</time>
      </trkpt>
      <trkpt lat="46.27871" lon="4.77006">
        <ele>209.2</ele>
        <time>2025-07-16T15:26:39Z</time>
      </trkpt>
      <trkpt lat="46.27876" lon="4.77031">
        <ele>208.9</ele>
        <time>2025-07-16T15:26:44Z</time>
      </trkpt>
      <trkpt lat="46.27879" lon="4.77036">
        <ele>208.9</ele>
        <time>2025-07-16T15:26:47Z</time>
      </trkpt>
      <trkpt lat="46.2788" lon="4.77036">
        <ele>208.9</ele>
        <time>2025-07-16T15:26:48Z</time>
      </trkpt>
      <trkpt lat="46.2788" lon="4.77036">
        <ele>208.9</ele>
        <time>2025-07-16T15:26:54Z</time>
      </trkpt>
      <trkpt lat="46.2788" lon="4.77036">
        <ele>208.9</ele>
        <time>2025-07-16T15:27:06Z</time>
      </trkpt>
      <trkpt lat="46.2788" lon="4.77036">
        <ele>208.9</ele>
        <time>2025-07-16T15:27:17Z</time>
      </trkpt>
      <trkpt lat="46.2788" lon="4.77036">
        <ele>208.9</ele>
        <time>2025-07-16T15:27:27Z</time>
      </trkpt>
      <trkpt lat="46.2788" lon="4.77036">
        <ele>208.9</ele>
        <time>2025-07-16T15:27:34Z</time>
      </trkpt>
      <trkpt lat="46.27883" lon="4.77036">
        <ele>208.8</ele>
        <time>2025-07-16T15:27:42Z</time>
      </trkpt>
      <trkpt lat="46.27878" lon="4.77046">
        <ele>208.8</ele>
        <time>2025-07-16T15:27:45Z</time>
      </trkpt>
      <trkpt lat="46.27879" lon="4.77057">
        <ele>208.7</ele>
        <time>2025-07-16T15:27:48Z</time>
      </trkpt>
      <trkpt lat="46.27882" lon="4.77096">
        <ele>208.2</ele>
        <time>2025-07-16T15:27:55Z</time>
      </trkpt>
      <trkpt lat="46.27883" lon="4.77153">
        <ele>207.4</ele>
        <time>2025-07-16T15:28:05Z</time>
      </trkpt>
      <trkpt lat="46.27881" lon="4.77194">
        <ele>206.5</ele>
        <time>2025-07-16T15:28:12Z</time>
      </trkpt>
      <trkpt lat="46.27871" lon="4.77255">
        <ele>205.1</ele>
        <time>2025-07-16T15:28:22Z</time>
      </trkpt>
      <trkpt lat="46.27862" lon="4.77306">
        <ele>203.7</ele>
        <time>2025-07-16T15:28:32Z</time>
      </trkpt>
      <trkpt lat="46.2786" lon="4.77314">
        <ele>203.5</ele>
        <time>2025-07-16T15:28:35Z</time>
      </trkpt>
      <trkpt lat="46.27862" lon="4.77316">
        <ele>203.4</ele>
        <time>2025-07-16T15:28:37Z</time>
      </trkpt>
      <trkpt lat="46.27876" lon="4.7732">
        <ele>202.8</ele>
        <time>2025-07-16T15:28:41Z</time>
      </trkpt>
      <trkpt lat="46.27909" lon="4.7733">
        <ele>201.6</ele>
        <time>2025-07-16T15:28:49Z</time>
      </trkpt>
      <trkpt lat="46.27946" lon="4.77341">
        <ele>200.8</ele>
        <time>2025-07-16T15:28:58Z</time>
      </trkpt>
      <trkpt lat="46.27986" lon="4.77353">
        <ele>199.7</ele>
        <time>2025-07-16T15:29:08Z</time>
      </trkpt>
      <trkpt lat="46.28028" lon="4.77366">
        <ele>198.5</ele>
        <time>2025-07-16T15:29:18Z</time>
      </trkpt>
      <trkpt lat="46.28037" lon="4.77369">
        <ele>198.4</ele>
        <time>2025-07-16T15:29:20Z</time>
      </trkpt>
      <trkpt lat="46.28045" lon="4.77381">
        <ele>198.2</ele>
        <time>2025-07-16T15:29:23Z</time>
      </trkpt>
      <trkpt lat="46.28048" lon="4.77386">
        <ele>198.1</ele>
        <time>2025-07-16T15:29:24Z</time>
      </trkpt>
      <trkpt lat="46.28051" lon="4.77391">
        <ele>198.1</ele>
        <time>2025-07-16T15:29:25Z</time>
      </trkpt>
      <trkpt lat="46.28061" lon="4.77421">
        <ele>197.7</ele>
        <time>2025-07-16T15:29:30Z</time>
      </trkpt>
      <trkpt lat="46.2808" lon="4.77478">
        <ele>196.7</ele>
        <time>2025-07-16T15:29:40Z</time>
      </trkpt>
      <trkpt lat="46.28099" lon="4.77536">
        <ele>195.3</ele>
        <time>2025-07-16T15:29:50Z</time>
      </trkpt>
      <trkpt lat="46.28117" lon="4.77591">
        <ele>194.5</ele>
        <time>2025-07-16T15:29:59Z</time>
      </trkpt>
      <trkpt lat="46.28127" lon="4.77622">
        <ele>194.4</ele>
        <time>2025-07-16T15:30:06Z</time>
      </trkpt>
      <trkpt lat="46.28128" lon="4.77627">
        <ele>194.4</ele>
        <time>2025-07-16T15:30:11Z</time>
      </trkpt>
      <trkpt lat="46.2813" lon="4.77633">
        <ele>194.3</ele>
        <time>2025-07-16T15:30:19Z</time>
      </trkpt>
      <trkpt lat="46.28139" lon="4.7763">
        <ele>194.3</ele>
        <time>2025-07-16T15:30:23Z</time>
      </trkpt>
      <trkpt lat="46.28168" lon="4.77623">
        <ele>193.9</ele>
        <time>2025-07-16T15:30:30Z</time>
      </trkpt>
      <trkpt lat="46.28213" lon="4.77618">
        <ele>192.7</ele>
        <time>2025-07-16T15:30:40Z</time>
      </trkpt>
      <trkpt lat="46.28253" lon="4.77615">
        <ele>190.5</ele>
        <time>2025-07-16T15:30:49Z</time>
      </trkpt>
      <trkpt lat="46.28296" lon="4.77612">
        <ele>188.3</ele>
        <time>2025-07-16T15:30:58Z</time>
      </trkpt>
      <trkpt lat="46.28343" lon="4.77608">
        <ele>186.7</ele>
        <time>2025-07-16T15:31:07Z</time>
      </trkpt>
      <trkpt lat="46.28356" lon="4.77607">
        <ele>186.5</ele>
        <time>2025-07-16T15:31:10Z</time>
      </trkpt>
      <trkpt lat="46.28362" lon="4.77625">
        <ele>186.3</ele>
        <time>2025-07-16T15:31:12Z</time>
      </trkpt>
      <trkpt lat="46.28368" lon="4.77634">
        <ele>186.2</ele>
        <time>2025-07-16T15:31:14Z</time>
      </trkpt>
      <trkpt lat="46.28374" lon="4.7764">
        <ele>185.9</ele>
        <time>2025-07-16T15:31:15Z</time>
      </trkpt>
      <trkpt lat="46.28375" lon="4.77685">
        <ele>184.8</ele>
        <time>2025-07-16T15:31:20Z</time>
      </trkpt>
      <trkpt lat="46.28376" lon="4.77758">
        <ele>184</ele>
        <time>2025-07-16T15:31:28Z</time>
      </trkpt>
      <trkpt lat="46.28376" lon="4.77803">
        <ele>183.7</ele>
        <time>2025-07-16T15:31:33Z</time>
      </trkpt>
      <trkpt lat="46.28377" lon="4.77861">
        <ele>183.3</ele>
        <time>2025-07-16T15:31:39Z</time>
      </trkpt>
      <trkpt lat="46.2838" lon="4.77907">
        <ele>183</ele>
        <time>2025-07-16T15:31:44Z</time>
      </trkpt>
      <trkpt lat="46.28384" lon="4.77924">
        <ele>182.8</ele>
        <time>2025-07-16T15:31:46Z</time>
      </trkpt>
      <trkpt lat="46.28403" lon="4.77974">
        <ele>182.1</ele>
        <time>2025-07-16T15:31:52Z</time>
      </trkpt>
      <trkpt lat="46.28426" lon="4.78018">
        <ele>181.5</ele>
        <time>2025-07-16T15:31:58Z</time>
      </trkpt>
      <trkpt lat="46.2844" lon="4.78042">
        <ele>181.4</ele>
        <time>2025-07-16T15:32:02Z</time>
      </trkpt>
      <trkpt lat="46.28444" lon="4.78048">
        <ele>181.4</ele>
        <time>2025-07-16T15:32:03Z</time>
      </trkpt>
      <trkpt lat="46.28463" lon="4.78084">
        <ele>181.5</ele>
        <time>2025-07-16T15:32:09Z</time>
      </trkpt>
      <trkpt lat="46.28468" lon="4.78097">
        <ele>181.6</ele>
        <time>2025-07-16T15:32:11Z</time>
      </trkpt>
      <trkpt lat="46.28473" lon="4.78112">
        <ele>181.7</ele>
        <time>2025-07-16T15:32:13Z</time>
      </trkpt>
      <trkpt lat="46.28474" lon="4.78135">
        <ele>181.7</ele>
        <time>2025-07-16T15:32:16Z</time>
      </trkpt>
      <trkpt lat="46.28472" lon="4.78143">
        <ele>181.7</ele>
        <time>2025-07-16T15:32:17Z</time>
      </trkpt>
      <trkpt lat="46.28473" lon="4.78159">
        <ele>181.7</ele>
        <time>2025-07-16T15:32:18Z</time>
      </trkpt>
      <trkpt lat="46.28483" lon="4.7817">
        <ele>181.8</ele>
        <time>2025-07-16T15:32:20Z</time>
      </trkpt>
      <trkpt lat="46.28491" lon="4.78171">
        <ele>181.9</ele>
        <time>2025-07-16T15:32:22Z</time>
      </trkpt>
      <trkpt lat="46.28495" lon="4.78167">
        <ele>182.1</ele>
        <time>2025-07-16T15:32:23Z</time>
      </trkpt>
      <trkpt lat="46.28505" lon="4.78164">
        <ele>182.4</ele>
        <time>2025-07-16T15:32:25Z</time>
      </trkpt>
      <trkpt lat="46.28515" lon="4.78166">
        <ele>182.8</ele>
        <time>2025-07-16T15:32:27Z</time>
      </trkpt>
      <trkpt lat="46.28519" lon="4.78169">
        <ele>182.9</ele>
        <time>2025-07-16T15:32:28Z</time>
      </trkpt>
      <trkpt lat="46.28527" lon="4.78174">
        <ele>183.1</ele>
        <time>2025-07-16T15:32:30Z</time>
      </trkpt>
      <trkpt lat="46.28543" lon="4.7819">
        <ele>183.8</ele>
        <time>2025-07-16T15:32:34Z</time>
      </trkpt>
      <trkpt lat="46.28577" lon="4.78226">
        <ele>185.3</ele>
        <time>2025-07-16T15:32:42Z</time>
      </trkpt>
      <trkpt lat="46.28612" lon="4.7826">
        <ele>186</ele>
        <time>2025-07-16T15:32:50Z</time>
      </trkpt>
      <trkpt lat="46.28657" lon="4.78301">
        <ele>186.3</ele>
        <time>2025-07-16T15:33:00Z</time>
      </trkpt>
      <trkpt lat="46.28694" lon="4.78333">
        <ele>185.9</ele>
        <time>2025-07-16T15:33:08Z</time>
      </trkpt>
      <trkpt lat="46.28732" lon="4.7836">
        <ele>185.3</ele>
        <time>2025-07-16T15:33:15Z</time>
      </trkpt>
      <trkpt lat="46.28768" lon="4.78383">
        <ele>185</ele>
        <time>2025-07-16T15:33:21Z</time>
      </trkpt>
      <trkpt lat="46.28785" lon="4.78399">
        <ele>185</ele>
        <time>2025-07-16T15:33:25Z</time>
      </trkpt>
      <trkpt lat="46.28792" lon="4.7842">
        <ele>185.1</ele>
        <time>2025-07-16T15:33:27Z</time>
      </trkpt>
      <trkpt lat="46.2881" lon="4.78427">
        <ele>185.1</ele>
        <time>2025-07-16T15:33:29Z</time>
      </trkpt>
      <trkpt lat="46.28821" lon="4.78418">
        <ele>185.1</ele>
        <time>2025-07-16T15:33:30Z</time>
      </trkpt>
      <trkpt lat="46.28829" lon="4.7841">
        <ele>185.2</ele>
        <time>2025-07-16T15:33:32Z</time>
      </trkpt>
      <trkpt lat="46.28844" lon="4.78402">
        <ele>185.4</ele>
        <time>2025-07-16T15:33:35Z</time>
      </trkpt>
      <trkpt lat="46.28896" lon="4.78405">
        <ele>186.8</ele>
        <time>2025-07-16T15:33:44Z</time>
      </trkpt>
      <trkpt lat="46.28941" lon="4.78408">
        <ele>188.3</ele>
        <time>2025-07-16T15:33:53Z</time>
      </trkpt>
      <trkpt lat="46.28981" lon="4.78411">
        <ele>189.6</ele>
        <time>2025-07-16T15:34:01Z</time>
      </trkpt>
      <trkpt lat="46.28999" lon="4.78412">
        <ele>190.2</ele>
        <time>2025-07-16T15:34:05Z</time>
      </trkpt>
      <trkpt lat="46.29008" lon="4.78413">
        <ele>190.5</ele>
        <time>2025-07-16T15:34:07Z</time>
      </trkpt>
      <trkpt lat="46.29028" lon="4.78438">
        <ele>191.4</ele>
        <time>2025-07-16T15:34:12Z</time>
      </trkpt>
      <trkpt lat="46.29036" lon="4.78445">
        <ele>191.7</ele>
        <time>2025-07-16T15:34:14Z</time>
      </trkpt>
      <trkpt lat="46.29046" lon="4.78447">
        <ele>192</ele>
        <time>2025-07-16T15:34:16Z</time>
      </trkpt>
      <trkpt lat="46.29049" lon="4.78445">
        <ele>192.1</ele>
        <time>2025-07-16T15:34:17Z</time>
      </trkpt>
      <trkpt lat="46.29061" lon="4.7843">
        <ele>192.4</ele>
        <time>2025-07-16T15:34:20Z</time>
      </trkpt>
      <trkpt lat="46.29063" lon="4.78425">
        <ele>192.5</ele>
        <time>2025-07-16T15:34:21Z</time>
      </trkpt>
      <trkpt lat="46.29077" lon="4.78416">
        <ele>193.1</ele>
        <time>2025-07-16T15:34:24Z</time>
      </trkpt>
      <trkpt lat="46.29091" lon="4.78419">
        <ele>193.6</ele>
        <time>2025-07-16T15:34:27Z</time>
      </trkpt>
      <trkpt lat="46.29095" lon="4.78419">
        <ele>193.8</ele>
        <time>2025-07-16T15:34:28Z</time>
      </trkpt>
      <trkpt lat="46.29117" lon="4.7842">
        <ele>195.1</ele>
        <time>2025-07-16T15:34:34Z</time>
      </trkpt>
      <trkpt lat="46.29142" lon="4.78422">
        <ele>196.6</ele>
        <time>2025-07-16T15:34:42Z</time>
      </trkpt>
      <trkpt lat="46.2916" lon="4.78428">
        <ele>197.6</ele>
        <time>2025-07-16T15:34:48Z</time>
      </trkpt>
      <trkpt lat="46.29163" lon="4.78439">
        <ele>198</ele>
        <time>2025-07-16T15:34:50Z</time>
      </trkpt>
      <trkpt lat="46.29162" lon="4.78441">
        <ele>198</ele>
        <time>2025-07-16T15:34:51Z</time>
      </trkpt>
      <trkpt lat="46.29158" lon="4.78452">
        <ele>198.2</ele>
        <time>2025-07-16T15:34:55Z</time>
      </trkpt>
      <trkpt lat="46.29146" lon="4.78479">
        <ele>198.6</ele>
        <time>2025-07-16T15:35:01Z</time>
      </trkpt>
      <trkpt lat="46.29133" lon="4.78509">
        <ele>199.2</ele>
        <time>2025-07-16T15:35:08Z</time>
      </trkpt>
      <trkpt lat="46.29128" lon="4.78522">
        <ele>199.5</ele>
        <time>2025-07-16T15:35:12Z</time>
      </trkpt>
      <trkpt lat="46.29128" lon="4.78522">
        <ele>199.5</ele>
        <time>2025-07-16T15:35:22Z</time>
      </trkpt>
      <trkpt lat="46.29126" lon="4.78527">
        <ele>199.6</ele>
        <time>2025-07-16T15:35:29Z</time>
      </trkpt>
      <trkpt lat="46.29118" lon="4.78544">
        <ele>199.9</ele>
        <time>2025-07-16T15:35:34Z</time>
      </trkpt>
      <trkpt lat="46.29105" lon="4.78575">
        <ele>200.5</ele>
        <time>2025-07-16T15:35:41Z</time>
      </trkpt>
      <trkpt lat="46.29089" lon="4.78618">
        <ele>201.3</ele>
        <time>2025-07-16T15:35:49Z</time>
      </trkpt>
      <trkpt lat="46.2908" lon="4.78652">
        <ele>201.9</ele>
        <time>2025-07-16T15:35:55Z</time>
      </trkpt>
      <trkpt lat="46.29068" lon="4.78706">
        <ele>202.7</ele>
        <time>2025-07-16T15:36:04Z</time>
      </trkpt>
      <trkpt lat="46.29063" lon="4.78746">
        <ele>203.4</ele>
        <time>2025-07-16T15:36:11Z</time>
      </trkpt>
      <trkpt lat="46.2906" lon="4.78762">
        <ele>203.7</ele>
        <time>2025-07-16T15:36:15Z</time>
      </trkpt>
      <trkpt lat="46.29056" lon="4.78787">
        <ele>204.1</ele>
        <time>2025-07-16T15:36:21Z</time>
      </trkpt>
      <trkpt lat="46.29053" lon="4.78808">
        <ele>204.4</ele>
        <time>2025-07-16T15:36:26Z</time>
      </trkpt>
      <trkpt lat="46.29044" lon="4.78854">
        <ele>205.2</ele>
        <time>2025-07-16T15:36:33Z</time>
      </trkpt>
      <trkpt lat="46.29036" lon="4.78899">
        <ele>205.9</ele>
        <time>2025-07-16T15:36:40Z</time>
      </trkpt>
      <trkpt lat="46.29033" lon="4.78917">
        <ele>206.2</ele>
        <time>2025-07-16T15:36:44Z</time>
      </trkpt>
      <trkpt lat="46.29028" lon="4.78939">
        <ele>206.4</ele>
        <time>2025-07-16T15:36:49Z</time>
      </trkpt>
      <trkpt lat="46.29021" lon="4.78969">
        <ele>206.6</ele>
        <time>2025-07-16T15:36:55Z</time>
      </trkpt>
      <trkpt lat="46.29018" lon="4.78981">
        <ele>206.6</ele>
        <time>2025-07-16T15:36:58Z</time>
      </trkpt>
      <trkpt lat="46.29015" lon="4.78982">
        <ele>206.6</ele>
        <time>2025-07-16T15:36:59Z</time>
      </trkpt>
      <trkpt lat="46.2901" lon="4.78987">
        <ele>206.6</ele>
        <time>2025-07-16T15:37:01Z</time>
      </trkpt>
      <trkpt lat="46.29008" lon="4.78995">
        <ele>206.6</ele>
        <time>2025-07-16T15:37:03Z</time>
      </trkpt>
      <trkpt lat="46.29002" lon="4.79031">
        <ele>206.4</ele>
        <time>2025-07-16T15:37:09Z</time>
      </trkpt>
      <trkpt lat="46.28993" lon="4.7908">
        <ele>206.2</ele>
        <time>2025-07-16T15:37:16Z</time>
      </trkpt>
      <trkpt lat="46.28992" lon="4.79087">
        <ele>206.2</ele>
        <time>2025-07-16T15:37:17Z</time>
      </trkpt>
      <trkpt lat="46.28986" lon="4.79116">
        <ele>206.1</ele>
        <time>2025-07-16T15:37:22Z</time>
      </trkpt>
      <trkpt lat="46.29" lon="4.79121">
        <ele>206.3</ele>
        <time>2025-07-16T15:37:24Z</time>
      </trkpt>
      <trkpt lat="46.29003" lon="4.79123">
        <ele>206.4</ele>
        <time>2025-07-16T15:37:25Z</time>
      </trkpt>
      <trkpt lat="46.29007" lon="4.79126">
        <ele>206.6</ele>
        <time>2025-07-16T15:37:26Z</time>
      </trkpt>
      <trkpt lat="46.29022" lon="4.79127">
        <ele>207.2</ele>
        <time>2025-07-16T15:37:30Z</time>
      </trkpt>
      <trkpt lat="46.29045" lon="4.79129">
        <ele>208.2</ele>
        <time>2025-07-16T15:37:36Z</time>
      </trkpt>
      <trkpt lat="46.29071" lon="4.79131">
        <ele>209.1</ele>
        <time>2025-07-16T15:37:43Z</time>
      </trkpt>
      <trkpt lat="46.291" lon="4.79133">
        <ele>209.9</ele>
        <time>2025-07-16T15:37:50Z</time>
      </trkpt>
      <trkpt lat="46.29134" lon="4.79137">
        <ele>210.8</ele>
        <time>2025-07-16T15:37:58Z</time>
      </trkpt>
      <trkpt lat="46.29161" lon="4.79141">
        <ele>211.7</ele>
        <time>2025-07-16T15:38:05Z</time>
      </trkpt>
      <trkpt lat="46.29201" lon="4.79147">
        <ele>212.9</ele>
        <time>2025-07-16T15:38:14Z</time>
      </trkpt>
      <trkpt lat="46.29227" lon="4.79151">
        <ele>213.6</ele>
        <time>2025-07-16T15:38:21Z</time>
      </trkpt>
      <trkpt lat="46.29252" lon="4.79155">
        <ele>214.1</ele>
        <time>2025-07-16T15:38:28Z</time>
      </trkpt>
      <trkpt lat="46.29275" lon="4.79159">
        <ele>214.5</ele>
        <time>2025-07-16T15:38:35Z</time>
      </trkpt>
      <trkpt lat="46.29289" lon="4.79161">
        <ele>214.6</ele>
        <time>2025-07-16T15:38:41Z</time>
      </trkpt>
      <trkpt lat="46.29299" lon="4.79163">
        <ele>214.6</ele>
        <time>2025-07-16T15:38:46Z</time>
      </trkpt>
      <trkpt lat="46.29315" lon="4.79166">
        <ele>214.5</ele>
        <time>2025-07-16T15:38:51Z</time>
      </trkpt>
      <trkpt lat="46.29356" lon="4.79172">
        <ele>214.1</ele>
        <time>2025-07-16T15:38:57Z</time>
      </trkpt>
      <trkpt lat="46.29408" lon="4.79181">
        <ele>214</ele>
        <time>2025-07-16T15:39:03Z</time>
      </trkpt>
      <trkpt lat="46.2945" lon="4.79187">
        <ele>214.2</ele>
        <time>2025-07-16T15:39:10Z</time>
      </trkpt>
      <trkpt lat="46.29495" lon="4.79196">
        <ele>214.8</ele>
        <time>2025-07-16T15:39:17Z</time>
      </trkpt>
      <trkpt lat="46.29549" lon="4.79209">
        <ele>215.9</ele>
        <time>2025-07-16T15:39:26Z</time>
      </trkpt>
      <trkpt lat="46.29585" lon="4.79217">
        <ele>216.9</ele>
        <time>2025-07-16T15:39:33Z</time>
      </trkpt>
      <trkpt lat="46.29625" lon="4.79226">
        <ele>217.8</ele>
        <time>2025-07-16T15:39:42Z</time>
      </trkpt>
      <trkpt lat="46.29658" lon="4.79234">
        <ele>218.6</ele>
        <time>2025-07-16T15:39:49Z</time>
      </trkpt>
      <trkpt lat="46.29689" lon="4.79241">
        <ele>219.4</ele>
        <time>2025-07-16T15:39:56Z</time>
      </trkpt>
      <trkpt lat="46.29706" lon="4.79245">
        <ele>220</ele>
        <time>2025-07-16T15:40:01Z</time>
      </trkpt>
      <trkpt lat="46.29708" lon="4.79245">
        <ele>220.1</ele>
        <time>2025-07-16T15:40:05Z</time>
      </trkpt>
      <trkpt lat="46.29708" lon="4.79245">
        <ele>220.1</ele>
        <time>2025-07-16T15:40:10Z</time>
      </trkpt>
      <trkpt lat="46.29714" lon="4.7925">
        <ele>220.3</ele>
        <time>2025-07-16T15:40:44Z</time>
      </trkpt>
      <trkpt lat="46.29714" lon="4.7925">
        <ele>220.4</ele>
        <time>2025-07-16T15:40:45Z</time>
      </trkpt>
      <trkpt lat="46.29715" lon="4.7925">
        <ele>220.4</ele>
        <time>2025-07-16T15:40:47Z</time>
      </trkpt>
      <trkpt lat="46.29715" lon="4.79249">
        <ele>220.4</ele>
        <time>2025-07-16T15:40:48Z</time>
      </trkpt>
      <trkpt lat="46.29715" lon="4.79249">
        <ele>220.4</ele>
        <time>2025-07-16T15:40:49Z</time>
      </trkpt>
      <trkpt lat="46.29714" lon="4.79251">
        <ele>220.4</ele>
        <time>2025-07-16T15:40:50Z</time>
      </trkpt>
      <trkpt lat="46.29714" lon="4.7925">
        <ele>220.5</ele>
        <time>2025-07-16T15:40:52Z</time>
      </trkpt>
      <trkpt lat="46.29714" lon="4.7925">
        <ele>220.5</ele>
        <time>2025-07-16T15:40:53Z</time>
      </trkpt>
      <trkpt lat="46.29715" lon="4.7925">
        <ele>220.5</ele>
        <time>2025-07-16T15:40:54Z</time>
      </trkpt>
      <trkpt lat="46.29715" lon="4.79249">
        <ele>220.5</ele>
        <time>2025-07-16T15:40:55Z</time>
      </trkpt>
      <trkpt lat="46.29716" lon="4.7925">
        <ele>220.5</ele>
        <time>2025-07-16T15:40:56Z</time>
      </trkpt>
      <trkpt lat="46.29717" lon="4.7925">
        <ele>220.6</ele>
        <time>2025-07-16T15:40:57Z</time>
      </trkpt>
      <trkpt lat="46.29719" lon="4.79251">
        <ele>220.7</ele>
        <time>2025-07-16T15:40:58Z</time>
      </trkpt>
      <trkpt lat="46.29722" lon="4.79252">
        <ele>220.7</ele>
        <time>2025-07-16T15:40:59Z</time>
      </trkpt>
      <trkpt lat="46.29725" lon="4.79252">
        <ele>220.8</ele>
        <time>2025-07-16T15:41:00Z</time>
      </trkpt>
      <trkpt lat="46.29728" lon="4.79253">
        <ele>220.9</ele>
        <time>2025-07-16T15:41:01Z</time>
      </trkpt>
      <trkpt lat="46.2973" lon="4.79253">
        <ele>221</ele>
        <time>2025-07-16T15:41:02Z</time>
      </trkpt>
      <trkpt lat="46.29733" lon="4.79254">
        <ele>221.1</ele>
        <time>2025-07-16T15:41:03Z</time>
      </trkpt>
      <trkpt lat="46.29736" lon="4.79255">
        <ele>221.2</ele>
        <time>2025-07-16T15:41:04Z</time>
      </trkpt>
      <trkpt lat="46.29738" lon="4.79256">
        <ele>221.3</ele>
        <time>2025-07-16T15:41:05Z</time>
      </trkpt>
      <trkpt lat="46.29741" lon="4.79256">
        <ele>221.3</ele>
        <time>2025-07-16T15:41:06Z</time>
      </trkpt>
      <trkpt lat="46.29744" lon="4.79257">
        <ele>221.4</ele>
        <time>2025-07-16T15:41:07Z</time>
      </trkpt>
      <trkpt lat="46.29748" lon="4.79257">
        <ele>221.5</ele>
        <time>2025-07-16T15:41:08Z</time>
      </trkpt>
      <trkpt lat="46.29752" lon="4.79257">
        <ele>221.6</ele>
        <time>2025-07-16T15:41:09Z</time>
      </trkpt>
      <trkpt lat="46.29755" lon="4.79258">
        <ele>221.7</ele>
        <time>2025-07-16T15:41:10Z</time>
      </trkpt>
      <trkpt lat="46.29758" lon="4.79258">
        <ele>221.7</ele>
        <time>2025-07-16T15:41:11Z</time>
      </trkpt>
      <trkpt lat="46.29762" lon="4.79259">
        <ele>221.8</ele>
        <time>2025-07-16T15:41:12Z</time>
      </trkpt>
      <trkpt lat="46.29765" lon="4.79259">
        <ele>221.8</ele>
        <time>2025-07-16T15:41:13Z</time>
      </trkpt>
      <trkpt lat="46.29769" lon="4.79259">
        <ele>221.9</ele>
        <time>2025-07-16T15:41:14Z</time>
      </trkpt>
      <trkpt lat="46.29773" lon="4.7926">
        <ele>221.9</ele>
        <time>2025-07-16T15:41:15Z</time>
      </trkpt>
      <trkpt lat="46.29776" lon="4.7926">
        <ele>222</ele>
        <time>2025-07-16T15:41:16Z</time>
      </trkpt>
      <trkpt lat="46.2978" lon="4.79261">
        <ele>222</ele>
        <time>2025-07-16T15:41:17Z</time>
      </trkpt>
      <trkpt lat="46.29785" lon="4.79262">
        <ele>222</ele>
        <time>2025-07-16T15:41:18Z</time>
      </trkpt>
      <trkpt lat="46.29789" lon="4.79263">
        <ele>222</ele>
        <time>2025-07-16T15:41:19Z</time>
      </trkpt>
      <trkpt lat="46.29793" lon="4.79263">
        <ele>222</ele>
        <time>2025-07-16T15:41:20Z</time>
      </trkpt>
      <trkpt lat="46.29798" lon="4.79264">
        <ele>222</ele>
        <time>2025-07-16T15:41:21Z</time>
      </trkpt>
      <trkpt lat="46.29802" lon="4.79264">
        <ele>221.9</ele>
        <time>2025-07-16T15:41:22Z</time>
      </trkpt>
      <trkpt lat="46.29806" lon="4.79265">
        <ele>221.9</ele>
        <time>2025-07-16T15:41:23Z</time>
      </trkpt>
      <trkpt lat="46.29811" lon="4.79266">
        <ele>221.9</ele>
        <time>2025-07-16T15:41:24Z</time>
      </trkpt>
      <trkpt lat="46.29816" lon="4.79266">
        <ele>221.9</ele>
        <time>2025-07-16T15:41:25Z</time>
      </trkpt>
      <trkpt lat="46.29821" lon="4.79266">
        <ele>221.9</ele>
        <time>2025-07-16T15:41:26Z</time>
      </trkpt>
      <trkpt lat="46.29826" lon="4.79267">
        <ele>221.9</ele>
        <time>2025-07-16T15:41:27Z</time>
      </trkpt>
      <trkpt lat="46.29831" lon="4.79269">
        <ele>221.9</ele>
        <time>2025-07-16T15:41:28Z</time>
      </trkpt>
      <trkpt lat="46.29836" lon="4.79269">
        <ele>221.9</ele>
        <time>2025-07-16T15:41:29Z</time>
      </trkpt>
      <trkpt lat="46.29841" lon="4.7927">
        <ele>221.9</ele>
        <time>2025-07-16T15:41:30Z</time>
      </trkpt>
      <trkpt lat="46.29845" lon="4.79271">
        <ele>221.9</ele>
        <time>2025-07-16T15:41:31Z</time>
      </trkpt>
      <trkpt lat="46.29849" lon="4.79271">
        <ele>222</ele>
        <time>2025-07-16T15:41:32Z</time>
      </trkpt>
      <trkpt lat="46.29854" lon="4.79272">
        <ele>222</ele>
        <time>2025-07-16T15:41:33Z</time>
      </trkpt>
      <trkpt lat="46.29858" lon="4.79273">
        <ele>222</ele>
        <time>2025-07-16T15:41:34Z</time>
      </trkpt>
      <trkpt lat="46.29862" lon="4.79273">
        <ele>222.1</ele>
        <time>2025-07-16T15:41:35Z</time>
      </trkpt>
      <trkpt lat="46.29866" lon="4.79274">
        <ele>222.1</ele>
        <time>2025-07-16T15:41:36Z</time>
      </trkpt>
      <trkpt lat="46.29871" lon="4.79274">
        <ele>222.1</ele>
        <time>2025-07-16T15:41:37Z</time>
      </trkpt>
      <trkpt lat="46.29875" lon="4.79275">
        <ele>222.1</ele>
        <time>2025-07-16T15:41:38Z</time>
      </trkpt>
      <trkpt lat="46.2988" lon="4.79276">
        <ele>222.1</ele>
        <time>2025-07-16T15:41:39Z</time>
      </trkpt>
      <trkpt lat="46.29884" lon="4.79277">
        <ele>222.1</ele>
        <time>2025-07-16T15:41:40Z</time>
      </trkpt>
      <trkpt lat="46.29889" lon="4.79278">
        <ele>222</ele>
        <time>2025-07-16T15:41:41Z</time>
      </trkpt>
      <trkpt lat="46.29894" lon="4.79278">
        <ele>222</ele>
        <time>2025-07-16T15:41:42Z</time>
      </trkpt>
      <trkpt lat="46.29898" lon="4.79279">
        <ele>222</ele>
        <time>2025-07-16T15:41:43Z</time>
      </trkpt>
      <trkpt lat="46.29903" lon="4.7928">
        <ele>221.9</ele>
        <time>2025-07-16T15:41:44Z</time>
      </trkpt>
      <trkpt lat="46.29908" lon="4.79281">
        <ele>221.9</ele>
        <time>2025-07-16T15:41:45Z</time>
      </trkpt>
      <trkpt lat="46.29914" lon="4.79282">
        <ele>221.9</ele>
        <time>2025-07-16T15:41:46Z</time>
      </trkpt>
      <trkpt lat="46.29919" lon="4.79284">
        <ele>221.9</ele>
        <time>2025-07-16T15:41:47Z</time>
      </trkpt>
      <trkpt lat="46.29924" lon="4.79285">
        <ele>221.9</ele>
        <time>2025-07-16T15:41:48Z</time>
      </trkpt>
      <trkpt lat="46.2993" lon="4.79286">
        <ele>221.9</ele>
        <time>2025-07-16T15:41:49Z</time>
      </trkpt>
      <trkpt lat="46.29935" lon="4.79287">
        <ele>221.9</ele>
        <time>2025-07-16T15:41:50Z</time>
      </trkpt>
      <trkpt lat="46.2994" lon="4.79288">
        <ele>222</ele>
        <time>2025-07-16T15:41:51Z</time>
      </trkpt>
      <trkpt lat="46.29945" lon="4.79289">
        <ele>222</ele>
        <time>2025-07-16T15:41:52Z</time>
      </trkpt>
      <trkpt lat="46.2995" lon="4.7929">
        <ele>222</ele>
        <time>2025-07-16T15:41:53Z</time>
      </trkpt>
      <trkpt lat="46.29956" lon="4.79292">
        <ele>222</ele>
        <time>2025-07-16T15:41:54Z</time>
      </trkpt>
      <trkpt lat="46.2996" lon="4.79293">
        <ele>222</ele>
        <time>2025-07-16T15:41:55Z</time>
      </trkpt>
      <trkpt lat="46.29966" lon="4.79295">
        <ele>222</ele>
        <time>2025-07-16T15:41:56Z</time>
      </trkpt>
      <trkpt lat="46.29971" lon="4.79296">
        <ele>222</ele>
        <time>2025-07-16T15:41:57Z</time>
      </trkpt>
      <trkpt lat="46.29977" lon="4.79298">
        <ele>222.1</ele>
        <time>2025-07-16T15:41:58Z</time>
      </trkpt>
      <trkpt lat="46.29982" lon="4.79299">
        <ele>222.1</ele>
        <time>2025-07-16T15:41:59Z</time>
      </trkpt>
      <trkpt lat="46.29988" lon="4.793">
        <ele>222.1</ele>
        <time>2025-07-16T15:42:00Z</time>
      </trkpt>
      <trkpt lat="46.29993" lon="4.79302">
        <ele>222.2</ele>
        <time>2025-07-16T15:42:01Z</time>
      </trkpt>
      <trkpt lat="46.29998" lon="4.79303">
        <ele>222.2</ele>
        <time>2025-07-16T15:42:02Z</time>
      </trkpt>
      <trkpt lat="46.30003" lon="4.79305">
        <ele>222.2</ele>
        <time>2025-07-16T15:42:03Z</time>
      </trkpt>
      <trkpt lat="46.30009" lon="4.79307">
        <ele>222.2</ele>
        <time>2025-07-16T15:42:04Z</time>
      </trkpt>
      <trkpt lat="46.30014" lon="4.79308">
        <ele>222.3</ele>
        <time>2025-07-16T15:42:05Z</time>
      </trkpt>
      <trkpt lat="46.30019" lon="4.7931">
        <ele>222.3</ele>
        <time>2025-07-16T15:42:06Z</time>
      </trkpt>
      <trkpt lat="46.30025" lon="4.79312">
        <ele>222.3</ele>
        <time>2025-07-16T15:42:07Z</time>
      </trkpt>
      <trkpt lat="46.3003" lon="4.79313">
        <ele>222.3</ele>
        <time>2025-07-16T15:42:08Z</time>
      </trkpt>
      <trkpt lat="46.30035" lon="4.79315">
        <ele>222.3</ele>
        <time>2025-07-16T15:42:09Z</time>
      </trkpt>
      <trkpt lat="46.30041" lon="4.79316">
        <ele>222.3</ele>
        <time>2025-07-16T15:42:10Z</time>
      </trkpt>
      <trkpt lat="46.30046" lon="4.79317">
        <ele>222.4</ele>
        <time>2025-07-16T15:42:11Z</time>
      </trkpt>
      <trkpt lat="46.30051" lon="4.79318">
        <ele>222.4</ele>
        <time>2025-07-16T15:42:12Z</time>
      </trkpt>
      <trkpt lat="46.30056" lon="4.79319">
        <ele>222.4</ele>
        <time>2025-07-16T15:42:13Z</time>
      </trkpt>
      <trkpt lat="46.30061" lon="4.7932">
        <ele>222.5</ele>
        <time>2025-07-16T15:42:14Z</time>
      </trkpt>
      <trkpt lat="46.30066" lon="4.79321">
        <ele>222.5</ele>
        <time>2025-07-16T15:42:15Z</time>
      </trkpt>
      <trkpt lat="46.30071" lon="4.79323">
        <ele>222.6</ele>
        <time>2025-07-16T15:42:16Z</time>
      </trkpt>
      <trkpt lat="46.30076" lon="4.79325">
        <ele>222.6</ele>
        <time>2025-07-16T15:42:17Z</time>
      </trkpt>
      <trkpt lat="46.30081" lon="4.79326">
        <ele>222.7</ele>
        <time>2025-07-16T15:42:18Z</time>
      </trkpt>
      <trkpt lat="46.30085" lon="4.79327">
        <ele>222.7</ele>
        <time>2025-07-16T15:42:19Z</time>
      </trkpt>
      <trkpt lat="46.30089" lon="4.79327">
        <ele>222.7</ele>
        <time>2025-07-16T15:42:20Z</time>
      </trkpt>
      <trkpt lat="46.30094" lon="4.79328">
        <ele>222.8</ele>
        <time>2025-07-16T15:42:21Z</time>
      </trkpt>
      <trkpt lat="46.30098" lon="4.79329">
        <ele>222.8</ele>
        <time>2025-07-16T15:42:22Z</time>
      </trkpt>
      <trkpt lat="46.30103" lon="4.79331">
        <ele>222.9</ele>
        <time>2025-07-16T15:42:23Z</time>
      </trkpt>
      <trkpt lat="46.30107" lon="4.79332">
        <ele>222.9</ele>
        <time>2025-07-16T15:42:24Z</time>
      </trkpt>
      <trkpt lat="46.30111" lon="4.79333">
        <ele>223</ele>
        <time>2025-07-16T15:42:25Z</time>
      </trkpt>
      <trkpt lat="46.30116" lon="4.79334">
        <ele>223</ele>
        <time>2025-07-16T15:42:26Z</time>
      </trkpt>
      <trkpt lat="46.3012" lon="4.79335">
        <ele>223.1</ele>
        <time>2025-07-16T15:42:27Z</time>
      </trkpt>
      <trkpt lat="46.30124" lon="4.79336">
        <ele>223.1</ele>
        <time>2025-07-16T15:42:28Z</time>
      </trkpt>
      <trkpt lat="46.30129" lon="4.79337">
        <ele>223.2</ele>
        <time>2025-07-16T15:42:29Z</time>
      </trkpt>
      <trkpt lat="46.30134" lon="4.79339">
        <ele>223.3</ele>
        <time>2025-07-16T15:42:30Z</time>
      </trkpt>
      <trkpt lat="46.30138" lon="4.7934">
        <ele>223.3</ele>
        <time>2025-07-16T15:42:31Z</time>
      </trkpt>
      <trkpt lat="46.30142" lon="4.79341">
        <ele>223.4</ele>
        <time>2025-07-16T15:42:32Z</time>
      </trkpt>
      <trkpt lat="46.30146" lon="4.79341">
        <ele>223.5</ele>
        <time>2025-07-16T15:42:33Z</time>
      </trkpt>
      <trkpt lat="46.3015" lon="4.79342">
        <ele>223.5</ele>
        <time>2025-07-16T15:42:34Z</time>
      </trkpt>
      <trkpt lat="46.30154" lon="4.79343">
        <ele>223.6</ele>
        <time>2025-07-16T15:42:35Z</time>
      </trkpt>
      <trkpt lat="46.30158" lon="4.79344">
        <ele>223.7</ele>
        <time>2025-07-16T15:42:36Z</time>
      </trkpt>
      <trkpt lat="46.30162" lon="4.79345">
        <ele>223.7</ele>
        <time>2025-07-16T15:42:37Z</time>
      </trkpt>
      <trkpt lat="46.30166" lon="4.79346">
        <ele>223.7</ele>
        <time>2025-07-16T15:42:38Z</time>
      </trkpt>
      <trkpt lat="46.30169" lon="4.79347">
        <ele>223.8</ele>
        <time>2025-07-16T15:42:39Z</time>
      </trkpt>
      <trkpt lat="46.30173" lon="4.79347">
        <ele>223.8</ele>
        <time>2025-07-16T15:42:40Z</time>
      </trkpt>
      <trkpt lat="46.30177" lon="4.79348">
        <ele>223.8</ele>
        <time>2025-07-16T15:42:41Z</time>
      </trkpt>
      <trkpt lat="46.30181" lon="4.79348">
        <ele>223.8</ele>
        <time>2025-07-16T15:42:42Z</time>
      </trkpt>
      <trkpt lat="46.30184" lon="4.79349">
        <ele>223.7</ele>
        <time>2025-07-16T15:42:43Z</time>
      </trkpt>
      <trkpt lat="46.30187" lon="4.79351">
        <ele>223.6</ele>
        <time>2025-07-16T15:42:44Z</time>
      </trkpt>
      <trkpt lat="46.3019" lon="4.79354">
        <ele>223.6</ele>
        <time>2025-07-16T15:42:45Z</time>
      </trkpt>
      <trkpt lat="46.30192" lon="4.79359">
        <ele>223.4</ele>
        <time>2025-07-16T15:42:46Z</time>
      </trkpt>
      <trkpt lat="46.30194" lon="4.79364">
        <ele>223.3</ele>
        <time>2025-07-16T15:42:47Z</time>
      </trkpt>
      <trkpt lat="46.30196" lon="4.7937">
        <ele>223.1</ele>
        <time>2025-07-16T15:42:48Z</time>
      </trkpt>
      <trkpt lat="46.30198" lon="4.79376">
        <ele>222.9</ele>
        <time>2025-07-16T15:42:49Z</time>
      </trkpt>
      <trkpt lat="46.302" lon="4.79382">
        <ele>222.7</ele>
        <time>2025-07-16T15:42:50Z</time>
      </trkpt>
      <trkpt lat="46.30203" lon="4.79387">
        <ele>222.4</ele>
        <time>2025-07-16T15:42:51Z</time>
      </trkpt>
      <trkpt lat="46.30206" lon="4.79392">
        <ele>222.2</ele>
        <time>2025-07-16T15:42:52Z</time>
      </trkpt>
      <trkpt lat="46.30208" lon="4.79397">
        <ele>222</ele>
        <time>2025-07-16T15:42:53Z</time>
      </trkpt>
      <trkpt lat="46.30211" lon="4.79402">
        <ele>221.8</ele>
        <time>2025-07-16T15:42:54Z</time>
      </trkpt>
      <trkpt lat="46.30213" lon="4.79406">
        <ele>221.6</ele>
        <time>2025-07-16T15:42:55Z</time>
      </trkpt>
      <trkpt lat="46.30216" lon="4.79411">
        <ele>221.4</ele>
        <time>2025-07-16T15:42:56Z</time>
      </trkpt>
      <trkpt lat="46.30218" lon="4.79416">
        <ele>221.1</ele>
        <time>2025-07-16T15:42:57Z</time>
      </trkpt>
      <trkpt lat="46.3022" lon="4.79422">
        <ele>220.9</ele>
        <time>2025-07-16T15:42:58Z</time>
      </trkpt>
      <trkpt lat="46.30223" lon="4.79426">
        <ele>220.6</ele>
        <time>2025-07-16T15:42:59Z</time>
      </trkpt>
      <trkpt lat="46.30225" lon="4.79431">
        <ele>220.3</ele>
        <time>2025-07-16T15:43:00Z</time>
      </trkpt>
      <trkpt lat="46.30227" lon="4.79436">
        <ele>220.1</ele>
        <time>2025-07-16T15:43:01Z</time>
      </trkpt>
      <trkpt lat="46.30229" lon="4.79441">
        <ele>219.8</ele>
        <time>2025-07-16T15:43:02Z</time>
      </trkpt>
      <trkpt lat="46.30232" lon="4.79446">
        <ele>219.6</ele>
        <time>2025-07-16T15:43:03Z</time>
      </trkpt>
      <trkpt lat="46.30234" lon="4.79451">
        <ele>219.4</ele>
        <time>2025-07-16T15:43:04Z</time>
      </trkpt>
      <trkpt lat="46.30235" lon="4.79456">
        <ele>219.2</ele>
        <time>2025-07-16T15:43:05Z</time>
      </trkpt>
      <trkpt lat="46.30236" lon="4.79461">
        <ele>219.1</ele>
        <time>2025-07-16T15:43:06Z</time>
      </trkpt>
      <trkpt lat="46.30237" lon="4.79467">
        <ele>219</ele>
        <time>2025-07-16T15:43:07Z</time>
      </trkpt>
      <trkpt lat="46.30236" lon="4.79472">
        <ele>218.9</ele>
        <time>2025-07-16T15:43:08Z</time>
      </trkpt>
      <trkpt lat="46.30234" lon="4.79478">
        <ele>218.9</ele>
        <time>2025-07-16T15:43:09Z</time>
      </trkpt>
      <trkpt lat="46.30232" lon="4.79484">
        <ele>218.9</ele>
        <time>2025-07-16T15:43:10Z</time>
      </trkpt>
      <trkpt lat="46.30231" lon="4.79491">
        <ele>218.7</ele>
        <time>2025-07-16T15:43:11Z</time>
      </trkpt>
      <trkpt lat="46.30231" lon="4.79497">
        <ele>218.7</ele>
        <time>2025-07-16T15:43:12Z</time>
      </trkpt>
      <trkpt lat="46.30231" lon="4.79504">
        <ele>218.6</ele>
        <time>2025-07-16T15:43:13Z</time>
      </trkpt>
      <trkpt lat="46.30232" lon="4.79509">
        <ele>218.6</ele>
        <time>2025-07-16T15:43:14Z</time>
      </trkpt>
      <trkpt lat="46.30234" lon="4.79515">
        <ele>218.5</ele>
        <time>2025-07-16T15:43:15Z</time>
      </trkpt>
      <trkpt lat="46.30236" lon="4.7952">
        <ele>218.5</ele>
        <time>2025-07-16T15:43:16Z</time>
      </trkpt>
      <trkpt lat="46.30239" lon="4.79525">
        <ele>218.5</ele>
        <time>2025-07-16T15:43:17Z</time>
      </trkpt>
      <trkpt lat="46.30243" lon="4.79529">
        <ele>218.4</ele>
        <time>2025-07-16T15:43:18Z</time>
      </trkpt>
      <trkpt lat="46.30247" lon="4.79532">
        <ele>218.4</ele>
        <time>2025-07-16T15:43:19Z</time>
      </trkpt>
      <trkpt lat="46.30251" lon="4.79536">
        <ele>218.4</ele>
        <time>2025-07-16T15:43:20Z</time>
      </trkpt>
      <trkpt lat="46.30256" lon="4.7954">
        <ele>218.3</ele>
        <time>2025-07-16T15:43:21Z</time>
      </trkpt>
      <trkpt lat="46.3026" lon="4.79545">
        <ele>218.3</ele>
        <time>2025-07-16T15:43:22Z</time>
      </trkpt>
      <trkpt lat="46.30263" lon="4.79551">
        <ele>218.3</ele>
        <time>2025-07-16T15:43:23Z</time>
      </trkpt>
      <trkpt lat="46.30266" lon="4.79558">
        <ele>218.2</ele>
        <time>2025-07-16T15:43:24Z</time>
      </trkpt>
      <trkpt lat="46.30268" lon="4.79565">
        <ele>218.2</ele>
        <time>2025-07-16T15:43:25Z</time>
      </trkpt>
      <trkpt lat="46.30271" lon="4.79572">
        <ele>218.2</ele>
        <time>2025-07-16T15:43:26Z</time>
      </trkpt>
      <trkpt lat="46.30273" lon="4.7958">
        <ele>218.1</ele>
        <time>2025-07-16T15:43:27Z</time>
      </trkpt>
      <trkpt lat="46.30275" lon="4.79587">
        <ele>218.1</ele>
        <time>2025-07-16T15:43:28Z</time>
      </trkpt>
      <trkpt lat="46.30277" lon="4.79594">
        <ele>218</ele>
        <time>2025-07-16T15:43:29Z</time>
      </trkpt>
      <trkpt lat="46.30279" lon="4.796">
        <ele>218</ele>
        <time>2025-07-16T15:43:30Z</time>
      </trkpt>
      <trkpt lat="46.30282" lon="4.79607">
        <ele>217.9</ele>
        <time>2025-07-16T15:43:31Z</time>
      </trkpt>
      <trkpt lat="46.30284" lon="4.79613">
        <ele>217.9</ele>
        <time>2025-07-16T15:43:32Z</time>
      </trkpt>
      <trkpt lat="46.30287" lon="4.7962">
        <ele>217.8</ele>
        <time>2025-07-16T15:43:33Z</time>
      </trkpt>
      <trkpt lat="46.30288" lon="4.79626">
        <ele>217.8</ele>
        <time>2025-07-16T15:43:34Z</time>
      </trkpt>
      <trkpt lat="46.30289" lon="4.79631">
        <ele>217.7</ele>
        <time>2025-07-16T15:43:35Z</time>
      </trkpt>
      <trkpt lat="46.3029" lon="4.79638">
        <ele>217.8</ele>
        <time>2025-07-16T15:43:36Z</time>
      </trkpt>
      <trkpt lat="46.30292" lon="4.79643">
        <ele>217.8</ele>
        <time>2025-07-16T15:43:37Z</time>
      </trkpt>
      <trkpt lat="46.30294" lon="4.79647">
        <ele>217.7</ele>
        <time>2025-07-16T15:43:38Z</time>
      </trkpt>
      <trkpt lat="46.30296" lon="4.79652">
        <ele>217.7</ele>
        <time>2025-07-16T15:43:39Z</time>
      </trkpt>
      <trkpt lat="46.303" lon="4.79659">
        <ele>217.6</ele>
        <time>2025-07-16T15:43:40Z</time>
      </trkpt>
      <trkpt lat="46.30301" lon="4.79666">
        <ele>217.5</ele>
        <time>2025-07-16T15:43:41Z</time>
      </trkpt>
      <trkpt lat="46.30303" lon="4.79673">
        <ele>217.5</ele>
        <time>2025-07-16T15:43:42Z</time>
      </trkpt>
      <trkpt lat="46.30305" lon="4.7968">
        <ele>217.4</ele>
        <time>2025-07-16T15:43:43Z</time>
      </trkpt>
      <trkpt lat="46.30308" lon="4.79688">
        <ele>217.4</ele>
        <time>2025-07-16T15:43:44Z</time>
      </trkpt>
      <trkpt lat="46.30311" lon="4.79696">
        <ele>217.3</ele>
        <time>2025-07-16T15:43:45Z</time>
      </trkpt>
      <trkpt lat="46.30314" lon="4.79704">
        <ele>217.2</ele>
        <time>2025-07-16T15:43:46Z</time>
      </trkpt>
      <trkpt lat="46.30316" lon="4.79712">
        <ele>217.2</ele>
        <time>2025-07-16T15:43:47Z</time>
      </trkpt>
      <trkpt lat="46.30319" lon="4.7972">
        <ele>217.1</ele>
        <time>2025-07-16T15:43:48Z</time>
      </trkpt>
      <trkpt lat="46.30321" lon="4.79727">
        <ele>217.1</ele>
        <time>2025-07-16T15:43:49Z</time>
      </trkpt>
      <trkpt lat="46.30324" lon="4.79734">
        <ele>217</ele>
        <time>2025-07-16T15:43:50Z</time>
      </trkpt>
      <trkpt lat="46.30327" lon="4.79741">
        <ele>216.9</ele>
        <time>2025-07-16T15:43:51Z</time>
      </trkpt>
      <trkpt lat="46.3033" lon="4.79747">
        <ele>216.9</ele>
        <time>2025-07-16T15:43:52Z</time>
      </trkpt>
      <trkpt lat="46.30332" lon="4.79754">
        <ele>216.8</ele>
        <time>2025-07-16T15:43:53Z</time>
      </trkpt>
      <trkpt lat="46.30335" lon="4.7976">
        <ele>216.8</ele>
        <time>2025-07-16T15:43:54Z</time>
      </trkpt>
      <trkpt lat="46.30339" lon="4.79767">
        <ele>216.7</ele>
        <time>2025-07-16T15:43:55Z</time>
      </trkpt>
      <trkpt lat="46.30343" lon="4.79775">
        <ele>216.6</ele>
        <time>2025-07-16T15:43:56Z</time>
      </trkpt>
      <trkpt lat="46.30346" lon="4.79782">
        <ele>216.5</ele>
        <time>2025-07-16T15:43:57Z</time>
      </trkpt>
      <trkpt lat="46.30349" lon="4.79789">
        <ele>216.4</ele>
        <time>2025-07-16T15:43:58Z</time>
      </trkpt>
      <trkpt lat="46.30352" lon="4.79796">
        <ele>216.4</ele>
        <time>2025-07-16T15:43:59Z</time>
      </trkpt>
      <trkpt lat="46.30354" lon="4.79803">
        <ele>216.3</ele>
        <time>2025-07-16T15:44:00Z</time>
      </trkpt>
      <trkpt lat="46.30356" lon="4.7981">
        <ele>216.2</ele>
        <time>2025-07-16T15:44:01Z</time>
      </trkpt>
      <trkpt lat="46.30358" lon="4.79816">
        <ele>216.2</ele>
        <time>2025-07-16T15:44:02Z</time>
      </trkpt>
      <trkpt lat="46.30361" lon="4.79823">
        <ele>216.1</ele>
        <time>2025-07-16T15:44:03Z</time>
      </trkpt>
      <trkpt lat="46.30364" lon="4.7983">
        <ele>216</ele>
        <time>2025-07-16T15:44:04Z</time>
      </trkpt>
      <trkpt lat="46.30366" lon="4.79838">
        <ele>215.9</ele>
        <time>2025-07-16T15:44:05Z</time>
      </trkpt>
      <trkpt lat="46.30369" lon="4.79845">
        <ele>215.7</ele>
        <time>2025-07-16T15:44:06Z</time>
      </trkpt>
      <trkpt lat="46.30372" lon="4.79854">
        <ele>215.6</ele>
        <time>2025-07-16T15:44:07Z</time>
      </trkpt>
      <trkpt lat="46.30374" lon="4.79861">
        <ele>215.5</ele>
        <time>2025-07-16T15:44:08Z</time>
      </trkpt>
      <trkpt lat="46.30376" lon="4.79868">
        <ele>215.4</ele>
        <time>2025-07-16T15:44:09Z</time>
      </trkpt>
      <trkpt lat="46.30378" lon="4.79875">
        <ele>215.4</ele>
        <time>2025-07-16T15:44:10Z</time>
      </trkpt>
      <trkpt lat="46.30379" lon="4.79882">
        <ele>215.3</ele>
        <time>2025-07-16T15:44:11Z</time>
      </trkpt>
      <trkpt lat="46.30382" lon="4.7989">
        <ele>215.2</ele>
        <time>2025-07-16T15:44:12Z</time>
      </trkpt>
      <trkpt lat="46.30384" lon="4.79898">
        <ele>215.2</ele>
        <time>2025-07-16T15:44:13Z</time>
      </trkpt>
      <trkpt lat="46.30387" lon="4.79906">
        <ele>215.1</ele>
        <time>2025-07-16T15:44:14Z</time>
      </trkpt>
      <trkpt lat="46.3039" lon="4.79913">
        <ele>215.1</ele>
        <time>2025-07-16T15:44:15Z</time>
      </trkpt>
      <trkpt lat="46.30393" lon="4.79921">
        <ele>215.1</ele>
        <time>2025-07-16T15:44:16Z</time>
      </trkpt>
      <trkpt lat="46.30395" lon="4.79929">
        <ele>215</ele>
        <time>2025-07-16T15:44:17Z</time>
      </trkpt>
      <trkpt lat="46.30396" lon="4.79937">
        <ele>215</ele>
        <time>2025-07-16T15:44:18Z</time>
      </trkpt>
      <trkpt lat="46.30398" lon="4.79945">
        <ele>215</ele>
        <time>2025-07-16T15:44:19Z</time>
      </trkpt>
      <trkpt lat="46.304" lon="4.79953">
        <ele>214.9</ele>
        <time>2025-07-16T15:44:20Z</time>
      </trkpt>
      <trkpt lat="46.30401" lon="4.79962">
        <ele>214.9</ele>
        <time>2025-07-16T15:44:21Z</time>
      </trkpt>
      <trkpt lat="46.30402" lon="4.79971">
        <ele>214.9</ele>
        <time>2025-07-16T15:44:22Z</time>
      </trkpt>
      <trkpt lat="46.30403" lon="4.79979">
        <ele>214.9</ele>
        <time>2025-07-16T15:44:23Z</time>
      </trkpt>
      <trkpt lat="46.30404" lon="4.79986">
        <ele>214.8</ele>
        <time>2025-07-16T15:44:24Z</time>
      </trkpt>
      <trkpt lat="46.30405" lon="4.79994">
        <ele>214.8</ele>
        <time>2025-07-16T15:44:25Z</time>
      </trkpt>
      <trkpt lat="46.30406" lon="4.80002">
        <ele>214.8</ele>
        <time>2025-07-16T15:44:26Z</time>
      </trkpt>
      <trkpt lat="46.30407" lon="4.8001">
        <ele>214.8</ele>
        <time>2025-07-16T15:44:27Z</time>
      </trkpt>
      <trkpt lat="46.30408" lon="4.80017">
        <ele>214.7</ele>
        <time>2025-07-16T15:44:28Z</time>
      </trkpt>
      <trkpt lat="46.3041" lon="4.80025">
        <ele>214.7</ele>
        <time>2025-07-16T15:44:29Z</time>
      </trkpt>
      <trkpt lat="46.30411" lon="4.80032">
        <ele>214.6</ele>
        <time>2025-07-16T15:44:30Z</time>
      </trkpt>
      <trkpt lat="46.30412" lon="4.80039">
        <ele>214.5</ele>
        <time>2025-07-16T15:44:31Z</time>
      </trkpt>
      <trkpt lat="46.30413" lon="4.80046">
        <ele>214.4</ele>
        <time>2025-07-16T15:44:32Z</time>
      </trkpt>
      <trkpt lat="46.30414" lon="4.80053">
        <ele>214.3</ele>
        <time>2025-07-16T15:44:33Z</time>
      </trkpt>
      <trkpt lat="46.30415" lon="4.80059">
        <ele>214.1</ele>
        <time>2025-07-16T15:44:34Z</time>
      </trkpt>
      <trkpt lat="46.30416" lon="4.80067">
        <ele>214</ele>
        <time>2025-07-16T15:44:35Z</time>
      </trkpt>
      <trkpt lat="46.30416" lon="4.80074">
        <ele>213.8</ele>
        <time>2025-07-16T15:44:36Z</time>
      </trkpt>
      <trkpt lat="46.30417" lon="4.80081">
        <ele>213.6</ele>
        <time>2025-07-16T15:44:37Z</time>
      </trkpt>
      <trkpt lat="46.30418" lon="4.80087">
        <ele>213.4</ele>
        <time>2025-07-16T15:44:38Z</time>
      </trkpt>
      <trkpt lat="46.3042" lon="4.80094">
        <ele>213.2</ele>
        <time>2025-07-16T15:44:39Z</time>
      </trkpt>
      <trkpt lat="46.30422" lon="4.80101">
        <ele>213</ele>
        <time>2025-07-16T15:44:40Z</time>
      </trkpt>
      <trkpt lat="46.30424" lon="4.80106">
        <ele>212.7</ele>
        <time>2025-07-16T15:44:41Z</time>
      </trkpt>
      <trkpt lat="46.30426" lon="4.80112">
        <ele>212.5</ele>
        <time>2025-07-16T15:44:42Z</time>
      </trkpt>
      <trkpt lat="46.30428" lon="4.80119">
        <ele>212.2</ele>
        <time>2025-07-16T15:44:43Z</time>
      </trkpt>
      <trkpt lat="46.3043" lon="4.80125">
        <ele>211.9</ele>
        <time>2025-07-16T15:44:44Z</time>
      </trkpt>
      <trkpt lat="46.30433" lon="4.80132">
        <ele>211.5</ele>
        <time>2025-07-16T15:44:45Z</time>
      </trkpt>
      <trkpt lat="46.30436" lon="4.80139">
        <ele>211.2</ele>
        <time>2025-07-16T15:44:46Z</time>
      </trkpt>
      <trkpt lat="46.30439" lon="4.80147">
        <ele>210.8</ele>
        <time>2025-07-16T15:44:47Z</time>
      </trkpt>
      <trkpt lat="46.30443" lon="4.80154">
        <ele>210.5</ele>
        <time>2025-07-16T15:44:48Z</time>
      </trkpt>
      <trkpt lat="46.30447" lon="4.80163">
        <ele>210.1</ele>
        <time>2025-07-16T15:44:49Z</time>
      </trkpt>
      <trkpt lat="46.30451" lon="4.80171">
        <ele>209.8</ele>
        <time>2025-07-16T15:44:50Z</time>
      </trkpt>
      <trkpt lat="46.30455" lon="4.80179">
        <ele>209.5</ele>
        <time>2025-07-16T15:44:51Z</time>
      </trkpt>
      <trkpt lat="46.30459" lon="4.80187">
        <ele>209.3</ele>
        <time>2025-07-16T15:44:52Z</time>
      </trkpt>
      <trkpt lat="46.30462" lon="4.80194">
        <ele>209.1</ele>
        <time>2025-07-16T15:44:53Z</time>
      </trkpt>
      <trkpt lat="46.30465" lon="4.80202">
        <ele>208.9</ele>
        <time>2025-07-16T15:44:54Z</time>
      </trkpt>
      <trkpt lat="46.30467" lon="4.8021">
        <ele>208.8</ele>
        <time>2025-07-16T15:44:55Z</time>
      </trkpt>
      <trkpt lat="46.30469" lon="4.80218">
        <ele>208.7</ele>
        <time>2025-07-16T15:44:56Z</time>
      </trkpt>
      <trkpt lat="46.30469" lon="4.80227">
        <ele>208.6</ele>
        <time>2025-07-16T15:44:57Z</time>
      </trkpt>
      <trkpt lat="46.30469" lon="4.80235">
        <ele>208.5</ele>
        <time>2025-07-16T15:44:58Z</time>
      </trkpt>
      <trkpt lat="46.30469" lon="4.80242">
        <ele>208.5</ele>
        <time>2025-07-16T15:44:59Z</time>
      </trkpt>
      <trkpt lat="46.30469" lon="4.80249">
        <ele>208.4</ele>
        <time>2025-07-16T15:45:00Z</time>
      </trkpt>
      <trkpt lat="46.3047" lon="4.80255">
        <ele>208.4</ele>
        <time>2025-07-16T15:45:01Z</time>
      </trkpt>
      <trkpt lat="46.3047" lon="4.80258">
        <ele>208.3</ele>
        <time>2025-07-16T15:45:02Z</time>
      </trkpt>
      <trkpt lat="46.30471" lon="4.8026">
        <ele>208.3</ele>
        <time>2025-07-16T15:45:03Z</time>
      </trkpt>
      <trkpt lat="46.30473" lon="4.80262">
        <ele>208.3</ele>
        <time>2025-07-16T15:45:04Z</time>
      </trkpt>
      <trkpt lat="46.30475" lon="4.80265">
        <ele>208.2</ele>
        <time>2025-07-16T15:45:05Z</time>
      </trkpt>
      <trkpt lat="46.30477" lon="4.80267">
        <ele>208.1</ele>
        <time>2025-07-16T15:45:06Z</time>
      </trkpt>
      <trkpt lat="46.3048" lon="4.80271">
        <ele>208.1</ele>
        <time>2025-07-16T15:45:07Z</time>
      </trkpt>
      <trkpt lat="46.30483" lon="4.80275">
        <ele>208.2</ele>
        <time>2025-07-16T15:45:08Z</time>
      </trkpt>
      <trkpt lat="46.30486" lon="4.80277">
        <ele>208.2</ele>
        <time>2025-07-16T15:45:09Z</time>
      </trkpt>
      <trkpt lat="46.30489" lon="4.80277">
        <ele>208.3</ele>
        <time>2025-07-16T15:45:10Z</time>
      </trkpt>
      <trkpt lat="46.30492" lon="4.80277">
        <ele>208.3</ele>
        <time>2025-07-16T15:45:11Z</time>
      </trkpt>
      <trkpt lat="46.30496" lon="4.80277">
        <ele>208.4</ele>
        <time>2025-07-16T15:45:12Z</time>
      </trkpt>
      <trkpt lat="46.30499" lon="4.80277">
        <ele>208.4</ele>
        <time>2025-07-16T15:45:13Z</time>
      </trkpt>
      <trkpt lat="46.30502" lon="4.80277">
        <ele>208.5</ele>
        <time>2025-07-16T15:45:14Z</time>
      </trkpt>
      <trkpt lat="46.30505" lon="4.80277">
        <ele>208.5</ele>
        <time>2025-07-16T15:45:15Z</time>
      </trkpt>
      <trkpt lat="46.30507" lon="4.80276">
        <ele>208.6</ele>
        <time>2025-07-16T15:45:16Z</time>
      </trkpt>
      <trkpt lat="46.30508" lon="4.80273">
        <ele>208.7</ele>
        <time>2025-07-16T15:45:17Z</time>
      </trkpt>
      <trkpt lat="46.3051" lon="4.80271">
        <ele>208.8</ele>
        <time>2025-07-16T15:45:18Z</time>
      </trkpt>
      <trkpt lat="46.30513" lon="4.80267">
        <ele>208.8</ele>
        <time>2025-07-16T15:45:19Z</time>
      </trkpt>
      <trkpt lat="46.30515" lon="4.80266">
        <ele>208.8</ele>
        <time>2025-07-16T15:45:20Z</time>
      </trkpt>
      <trkpt lat="46.30518" lon="4.80266">
        <ele>208.8</ele>
        <time>2025-07-16T15:45:21Z</time>
      </trkpt>
      <trkpt lat="46.30521" lon="4.80269">
        <ele>208.8</ele>
        <time>2025-07-16T15:45:22Z</time>
      </trkpt>
      <trkpt lat="46.30523" lon="4.80274">
        <ele>208.9</ele>
        <time>2025-07-16T15:45:23Z</time>
      </trkpt>
      <trkpt lat="46.30525" lon="4.8028">
        <ele>208.9</ele>
        <time>2025-07-16T15:45:24Z</time>
      </trkpt>
      <trkpt lat="46.30528" lon="4.80285">
        <ele>208.9</ele>
        <time>2025-07-16T15:45:25Z</time>
      </trkpt>
      <trkpt lat="46.3053" lon="4.8029">
        <ele>209</ele>
        <time>2025-07-16T15:45:26Z</time>
      </trkpt>
      <trkpt lat="46.30532" lon="4.80295">
        <ele>209</ele>
        <time>2025-07-16T15:45:27Z</time>
      </trkpt>
      <trkpt lat="46.30535" lon="4.80301">
        <ele>209</ele>
        <time>2025-07-16T15:45:28Z</time>
      </trkpt>
      <trkpt lat="46.30537" lon="4.80306">
        <ele>209.1</ele>
        <time>2025-07-16T15:45:29Z</time>
      </trkpt>
      <trkpt lat="46.30538" lon="4.80312">
        <ele>209.1</ele>
        <time>2025-07-16T15:45:30Z</time>
      </trkpt>
      <trkpt lat="46.30539" lon="4.80315">
        <ele>209.2</ele>
        <time>2025-07-16T15:45:31Z</time>
      </trkpt>
      <trkpt lat="46.3054" lon="4.80318">
        <ele>209.3</ele>
        <time>2025-07-16T15:45:32Z</time>
      </trkpt>
      <trkpt lat="46.30542" lon="4.80322">
        <ele>209.4</ele>
        <time>2025-07-16T15:45:33Z</time>
      </trkpt>
      <trkpt lat="46.30545" lon="4.80325">
        <ele>209.6</ele>
        <time>2025-07-16T15:45:34Z</time>
      </trkpt>
      <trkpt lat="46.30547" lon="4.80328">
        <ele>209.8</ele>
        <time>2025-07-16T15:45:35Z</time>
      </trkpt>
      <trkpt lat="46.30549" lon="4.80333">
        <ele>209.9</ele>
        <time>2025-07-16T15:45:36Z</time>
      </trkpt>
      <trkpt lat="46.30551" lon="4.80337">
        <ele>210.1</ele>
        <time>2025-07-16T15:45:37Z</time>
      </trkpt>
      <trkpt lat="46.30553" lon="4.80342">
        <ele>210.3</ele>
        <time>2025-07-16T15:45:38Z</time>
      </trkpt>
      <trkpt lat="46.30556" lon="4.80347">
        <ele>210.4</ele>
        <time>2025-07-16T15:45:39Z</time>
      </trkpt>
      <trkpt lat="46.30559" lon="4.80351">
        <ele>210.6</ele>
        <time>2025-07-16T15:45:40Z</time>
      </trkpt>
      <trkpt lat="46.30561" lon="4.80355">
        <ele>210.7</ele>
        <time>2025-07-16T15:45:41Z</time>
      </trkpt>
      <trkpt lat="46.30563" lon="4.8036">
        <ele>210.8</ele>
        <time>2025-07-16T15:45:42Z</time>
      </trkpt>
      <trkpt lat="46.30566" lon="4.80364">
        <ele>210.9</ele>
        <time>2025-07-16T15:45:43Z</time>
      </trkpt>
      <trkpt lat="46.30568" lon="4.80369">
        <ele>210.9</ele>
        <time>2025-07-16T15:45:44Z</time>
      </trkpt>
      <trkpt lat="46.30572" lon="4.80374">
        <ele>210.9</ele>
        <time>2025-07-16T15:45:45Z</time>
      </trkpt>
      <trkpt lat="46.30576" lon="4.80379">
        <ele>210.9</ele>
        <time>2025-07-16T15:45:46Z</time>
      </trkpt>
      <trkpt lat="46.30581" lon="4.80383">
        <ele>210.9</ele>
        <time>2025-07-16T15:45:47Z</time>
      </trkpt>
      <trkpt lat="46.30586" lon="4.80388">
        <ele>210.8</ele>
        <time>2025-07-16T15:45:48Z</time>
      </trkpt>
      <trkpt lat="46.30591" lon="4.80393">
        <ele>210.8</ele>
        <time>2025-07-16T15:45:49Z</time>
      </trkpt>
      <trkpt lat="46.30597" lon="4.80397">
        <ele>210.7</ele>
        <time>2025-07-16T15:45:50Z</time>
      </trkpt>
      <trkpt lat="46.30602" lon="4.80402">
        <ele>210.6</ele>
        <time>2025-07-16T15:45:51Z</time>
      </trkpt>
      <trkpt lat="46.30607" lon="4.80407">
        <ele>210.6</ele>
        <time>2025-07-16T15:45:52Z</time>
      </trkpt>
      <trkpt lat="46.30612" lon="4.80412">
        <ele>210.6</ele>
        <time>2025-07-16T15:45:53Z</time>
      </trkpt>
      <trkpt lat="46.30618" lon="4.80416">
        <ele>210.5</ele>
        <time>2025-07-16T15:45:54Z</time>
      </trkpt>
      <trkpt lat="46.30623" lon="4.80419">
        <ele>210.5</ele>
        <time>2025-07-16T15:45:55Z</time>
      </trkpt>
      <trkpt lat="46.30629" lon="4.80423">
        <ele>210.5</ele>
        <time>2025-07-16T15:45:56Z</time>
      </trkpt>
      <trkpt lat="46.30634" lon="4.80427">
        <ele>210.5</ele>
        <time>2025-07-16T15:45:57Z</time>
      </trkpt>
      <trkpt lat="46.3064" lon="4.8043">
        <ele>210.5</ele>
        <time>2025-07-16T15:45:58Z</time>
      </trkpt>
      <trkpt lat="46.30645" lon="4.80435">
        <ele>210.5</ele>
        <time>2025-07-16T15:45:59Z</time>
      </trkpt>
      <trkpt lat="46.3065" lon="4.80439">
        <ele>210.6</ele>
        <time>2025-07-16T15:46:00Z</time>
      </trkpt>
      <trkpt lat="46.30656" lon="4.80442">
        <ele>210.6</ele>
        <time>2025-07-16T15:46:01Z</time>
      </trkpt>
      <trkpt lat="46.30661" lon="4.80445">
        <ele>210.7</ele>
        <time>2025-07-16T15:46:02Z</time>
      </trkpt>
      <trkpt lat="46.30667" lon="4.80448">
        <ele>210.8</ele>
        <time>2025-07-16T15:46:03Z</time>
      </trkpt>
      <trkpt lat="46.30671" lon="4.8045">
        <ele>210.9</ele>
        <time>2025-07-16T15:46:04Z</time>
      </trkpt>
      <trkpt lat="46.30676" lon="4.80453">
        <ele>211</ele>
        <time>2025-07-16T15:46:05Z</time>
      </trkpt>
      <trkpt lat="46.3068" lon="4.80456">
        <ele>211.1</ele>
        <time>2025-07-16T15:46:06Z</time>
      </trkpt>
      <trkpt lat="46.30684" lon="4.80459">
        <ele>211.2</ele>
        <time>2025-07-16T15:46:07Z</time>
      </trkpt>
      <trkpt lat="46.30689" lon="4.80462">
        <ele>211.4</ele>
        <time>2025-07-16T15:46:08Z</time>
      </trkpt>
      <trkpt lat="46.30693" lon="4.80466">
        <ele>211.5</ele>
        <time>2025-07-16T15:46:09Z</time>
      </trkpt>
      <trkpt lat="46.30697" lon="4.80468">
        <ele>211.6</ele>
        <time>2025-07-16T15:46:10Z</time>
      </trkpt>
      <trkpt lat="46.30701" lon="4.8047">
        <ele>211.7</ele>
        <time>2025-07-16T15:46:11Z</time>
      </trkpt>
      <trkpt lat="46.30705" lon="4.80472">
        <ele>211.8</ele>
        <time>2025-07-16T15:46:12Z</time>
      </trkpt>
      <trkpt lat="46.30709" lon="4.80474">
        <ele>211.9</ele>
        <time>2025-07-16T15:46:13Z</time>
      </trkpt>
      <trkpt lat="46.30712" lon="4.80476">
        <ele>212</ele>
        <time>2025-07-16T15:46:14Z</time>
      </trkpt>
      <trkpt lat="46.30717" lon="4.80477">
        <ele>212.1</ele>
        <time>2025-07-16T15:46:15Z</time>
      </trkpt>
      <trkpt lat="46.3072" lon="4.80479">
        <ele>212.1</ele>
        <time>2025-07-16T15:46:16Z</time>
      </trkpt>
      <trkpt lat="46.30723" lon="4.80481">
        <ele>212.2</ele>
        <time>2025-07-16T15:46:17Z</time>
      </trkpt>
      <trkpt lat="46.30726" lon="4.80484">
        <ele>212.3</ele>
        <time>2025-07-16T15:46:18Z</time>
      </trkpt>
      <trkpt lat="46.30729" lon="4.80485">
        <ele>212.3</ele>
        <time>2025-07-16T15:46:19Z</time>
      </trkpt>
      <trkpt lat="46.30732" lon="4.80486">
        <ele>212.4</ele>
        <time>2025-07-16T15:46:20Z</time>
      </trkpt>
      <trkpt lat="46.30736" lon="4.80488">
        <ele>212.5</ele>
        <time>2025-07-16T15:46:21Z</time>
      </trkpt>
      <trkpt lat="46.30739" lon="4.8049">
        <ele>212.6</ele>
        <time>2025-07-16T15:46:22Z</time>
      </trkpt>
      <trkpt lat="46.30743" lon="4.80493">
        <ele>212.7</ele>
        <time>2025-07-16T15:46:23Z</time>
      </trkpt>
      <trkpt lat="46.30746" lon="4.80495">
        <ele>212.8</ele>
        <time>2025-07-16T15:46:24Z</time>
      </trkpt>
      <trkpt lat="46.30749" lon="4.80497">
        <ele>212.9</ele>
        <time>2025-07-16T15:46:25Z</time>
      </trkpt>
      <trkpt lat="46.30752" lon="4.80499">
        <ele>213</ele>
        <time>2025-07-16T15:46:26Z</time>
      </trkpt>
      <trkpt lat="46.30756" lon="4.80502">
        <ele>213.1</ele>
        <time>2025-07-16T15:46:27Z</time>
      </trkpt>
      <trkpt lat="46.30758" lon="4.80504">
        <ele>213.2</ele>
        <time>2025-07-16T15:46:28Z</time>
      </trkpt>
      <trkpt lat="46.30762" lon="4.80506">
        <ele>213.3</ele>
        <time>2025-07-16T15:46:29Z</time>
      </trkpt>
      <trkpt lat="46.30766" lon="4.80508">
        <ele>213.4</ele>
        <time>2025-07-16T15:46:30Z</time>
      </trkpt>
      <trkpt lat="46.3077" lon="4.8051">
        <ele>213.5</ele>
        <time>2025-07-16T15:46:31Z</time>
      </trkpt>
      <trkpt lat="46.30774" lon="4.80513">
        <ele>213.6</ele>
        <time>2025-07-16T15:46:32Z</time>
      </trkpt>
      <trkpt lat="46.30778" lon="4.80514">
        <ele>213.8</ele>
        <time>2025-07-16T15:46:33Z</time>
      </trkpt>
      <trkpt lat="46.30781" lon="4.80516">
        <ele>213.9</ele>
        <time>2025-07-16T15:46:34Z</time>
      </trkpt>
      <trkpt lat="46.30786" lon="4.80518">
        <ele>214</ele>
        <time>2025-07-16T15:46:35Z</time>
      </trkpt>
      <trkpt lat="46.3079" lon="4.8052">
        <ele>214.1</ele>
        <time>2025-07-16T15:46:36Z</time>
      </trkpt>
      <trkpt lat="46.30794" lon="4.80522">
        <ele>214.1</ele>
        <time>2025-07-16T15:46:37Z</time>
      </trkpt>
      <trkpt lat="46.30798" lon="4.80524">
        <ele>214.2</ele>
        <time>2025-07-16T15:46:38Z</time>
      </trkpt>
      <trkpt lat="46.30802" lon="4.80527">
        <ele>214.3</ele>
        <time>2025-07-16T15:46:39Z</time>
      </trkpt>
      <trkpt lat="46.30807" lon="4.80529">
        <ele>214.3</ele>
        <time>2025-07-16T15:46:40Z</time>
      </trkpt>
      <trkpt lat="46.30812" lon="4.80531">
        <ele>214.4</ele>
        <time>2025-07-16T15:46:41Z</time>
      </trkpt>
      <trkpt lat="46.30815" lon="4.80534">
        <ele>214.5</ele>
        <time>2025-07-16T15:46:42Z</time>
      </trkpt>
      <trkpt lat="46.30819" lon="4.80537">
        <ele>214.5</ele>
        <time>2025-07-16T15:46:43Z</time>
      </trkpt>
      <trkpt lat="46.30823" lon="4.80539">
        <ele>214.6</ele>
        <time>2025-07-16T15:46:44Z</time>
      </trkpt>
      <trkpt lat="46.30827" lon="4.80541">
        <ele>214.6</ele>
        <time>2025-07-16T15:46:45Z</time>
      </trkpt>
      <trkpt lat="46.30831" lon="4.80544">
        <ele>214.7</ele>
        <time>2025-07-16T15:46:46Z</time>
      </trkpt>
      <trkpt lat="46.30835" lon="4.80546">
        <ele>214.8</ele>
        <time>2025-07-16T15:46:47Z</time>
      </trkpt>
      <trkpt lat="46.30839" lon="4.80548">
        <ele>214.9</ele>
        <time>2025-07-16T15:46:48Z</time>
      </trkpt>
      <trkpt lat="46.30842" lon="4.8055">
        <ele>214.9</ele>
        <time>2025-07-16T15:46:49Z</time>
      </trkpt>
      <trkpt lat="46.30846" lon="4.80553">
        <ele>215.1</ele>
        <time>2025-07-16T15:46:50Z</time>
      </trkpt>
      <trkpt lat="46.30849" lon="4.80555">
        <ele>215.1</ele>
        <time>2025-07-16T15:46:51Z</time>
      </trkpt>
      <trkpt lat="46.30852" lon="4.80557">
        <ele>215.2</ele>
        <time>2025-07-16T15:46:52Z</time>
      </trkpt>
      <trkpt lat="46.30855" lon="4.8056">
        <ele>215.3</ele>
        <time>2025-07-16T15:46:53Z</time>
      </trkpt>
      <trkpt lat="46.30858" lon="4.80562">
        <ele>215.4</ele>
        <time>2025-07-16T15:46:54Z</time>
      </trkpt>
      <trkpt lat="46.30861" lon="4.80564">
        <ele>215.5</ele>
        <time>2025-07-16T15:46:55Z</time>
      </trkpt>
      <trkpt lat="46.30864" lon="4.80566">
        <ele>215.6</ele>
        <time>2025-07-16T15:46:56Z</time>
      </trkpt>
      <trkpt lat="46.30867" lon="4.80567">
        <ele>215.7</ele>
        <time>2025-07-16T15:46:57Z</time>
      </trkpt>
      <trkpt lat="46.3087" lon="4.80568">
        <ele>215.8</ele>
        <time>2025-07-16T15:46:58Z</time>
      </trkpt>
      <trkpt lat="46.30872" lon="4.80569">
        <ele>215.9</ele>
        <time>2025-07-16T15:46:59Z</time>
      </trkpt>
      <trkpt lat="46.30875" lon="4.80569">
        <ele>216</ele>
        <time>2025-07-16T15:47:00Z</time>
      </trkpt>
      <trkpt lat="46.30877" lon="4.8057">
        <ele>216.1</ele>
        <time>2025-07-16T15:47:01Z</time>
      </trkpt>
      <trkpt lat="46.3088" lon="4.80569">
        <ele>216.1</ele>
        <time>2025-07-16T15:47:02Z</time>
      </trkpt>
      <trkpt lat="46.30882" lon="4.80567">
        <ele>216.2</ele>
        <time>2025-07-16T15:47:03Z</time>
      </trkpt>
      <trkpt lat="46.30885" lon="4.80564">
        <ele>216.3</ele>
        <time>2025-07-16T15:47:04Z</time>
      </trkpt>
      <trkpt lat="46.30888" lon="4.80561">
        <ele>216.4</ele>
        <time>2025-07-16T15:47:05Z</time>
      </trkpt>
      <trkpt lat="46.3089" lon="4.80558">
        <ele>216.5</ele>
        <time>2025-07-16T15:47:06Z</time>
      </trkpt>
      <trkpt lat="46.30893" lon="4.80555">
        <ele>216.6</ele>
        <time>2025-07-16T15:47:07Z</time>
      </trkpt>
      <trkpt lat="46.30895" lon="4.80552">
        <ele>216.7</ele>
        <time>2025-07-16T15:47:08Z</time>
      </trkpt>
      <trkpt lat="46.30898" lon="4.80551">
        <ele>216.7</ele>
        <time>2025-07-16T15:47:09Z</time>
      </trkpt>
      <trkpt lat="46.30899" lon="4.80548">
        <ele>216.8</ele>
        <time>2025-07-16T15:47:10Z</time>
      </trkpt>
      <trkpt lat="46.30901" lon="4.80545">
        <ele>216.9</ele>
        <time>2025-07-16T15:47:11Z</time>
      </trkpt>
      <trkpt lat="46.30902" lon="4.80543">
        <ele>216.9</ele>
        <time>2025-07-16T15:47:12Z</time>
      </trkpt>
      <trkpt lat="46.30903" lon="4.80543">
        <ele>217</ele>
        <time>2025-07-16T15:47:13Z</time>
      </trkpt>
      <trkpt lat="46.30904" lon="4.80543">
        <ele>217.1</ele>
        <time>2025-07-16T15:47:14Z</time>
      </trkpt>
      <trkpt lat="46.30906" lon="4.80543">
        <ele>217.1</ele>
        <time>2025-07-16T15:47:15Z</time>
      </trkpt>
      <trkpt lat="46.30908" lon="4.80543">
        <ele>217.1</ele>
        <time>2025-07-16T15:47:16Z</time>
      </trkpt>
      <trkpt lat="46.3091" lon="4.80544">
        <ele>217.1</ele>
        <time>2025-07-16T15:47:17Z</time>
      </trkpt>
      <trkpt lat="46.30912" lon="4.80547">
        <ele>217.1</ele>
        <time>2025-07-16T15:47:18Z</time>
      </trkpt>
      <trkpt lat="46.30912" lon="4.80551">
        <ele>217.1</ele>
        <time>2025-07-16T15:47:19Z</time>
      </trkpt>
      <trkpt lat="46.30912" lon="4.80555">
        <ele>217</ele>
        <time>2025-07-16T15:47:20Z</time>
      </trkpt>
      <trkpt lat="46.30913" lon="4.8056">
        <ele>217</ele>
        <time>2025-07-16T15:47:21Z</time>
      </trkpt>
      <trkpt lat="46.30914" lon="4.80564">
        <ele>217</ele>
        <time>2025-07-16T15:47:22Z</time>
      </trkpt>
      <trkpt lat="46.30915" lon="4.80567">
        <ele>217</ele>
        <time>2025-07-16T15:47:23Z</time>
      </trkpt>
      <trkpt lat="46.30916" lon="4.80571">
        <ele>217</ele>
        <time>2025-07-16T15:47:24Z</time>
      </trkpt>
      <trkpt lat="46.30918" lon="4.80573">
        <ele>217</ele>
        <time>2025-07-16T15:47:25Z</time>
      </trkpt>
      <trkpt lat="46.30919" lon="4.80576">
        <ele>217</ele>
        <time>2025-07-16T15:47:26Z</time>
      </trkpt>
      <trkpt lat="46.30921" lon="4.80578">
        <ele>217</ele>
        <time>2025-07-16T15:47:27Z</time>
      </trkpt>
      <trkpt lat="46.30921" lon="4.80581">
        <ele>216.9</ele>
        <time>2025-07-16T15:47:28Z</time>
      </trkpt>
      <trkpt lat="46.30921" lon="4.80584">
        <ele>216.9</ele>
        <time>2025-07-16T15:47:29Z</time>
      </trkpt>
      <trkpt lat="46.30922" lon="4.80589">
        <ele>216.9</ele>
        <time>2025-07-16T15:47:30Z</time>
      </trkpt>
      <trkpt lat="46.30924" lon="4.80592">
        <ele>216.9</ele>
        <time>2025-07-16T15:47:31Z</time>
      </trkpt>
      <trkpt lat="46.30926" lon="4.80594">
        <ele>217</ele>
        <time>2025-07-16T15:47:32Z</time>
      </trkpt>
      <trkpt lat="46.3093" lon="4.80593">
        <ele>217</ele>
        <time>2025-07-16T15:47:33Z</time>
      </trkpt>
      <trkpt lat="46.30935" lon="4.80594">
        <ele>217</ele>
        <time>2025-07-16T15:47:34Z</time>
      </trkpt>
      <trkpt lat="46.3094" lon="4.80594">
        <ele>217.1</ele>
        <time>2025-07-16T15:47:35Z</time>
      </trkpt>
      <trkpt lat="46.30944" lon="4.80595">
        <ele>217.2</ele>
        <time>2025-07-16T15:47:36Z</time>
      </trkpt>
      <trkpt lat="46.30948" lon="4.80596">
        <ele>217.2</ele>
        <time>2025-07-16T15:47:37Z</time>
      </trkpt>
      <trkpt lat="46.30951" lon="4.80596">
        <ele>217.3</ele>
        <time>2025-07-16T15:47:38Z</time>
      </trkpt>
      <trkpt lat="46.30955" lon="4.80598">
        <ele>217.3</ele>
        <time>2025-07-16T15:47:39Z</time>
      </trkpt>
      <trkpt lat="46.30959" lon="4.80599">
        <ele>217.3</ele>
        <time>2025-07-16T15:47:40Z</time>
      </trkpt>
      <trkpt lat="46.30962" lon="4.80601">
        <ele>217.4</ele>
        <time>2025-07-16T15:47:41Z</time>
      </trkpt>
      <trkpt lat="46.30966" lon="4.80602">
        <ele>217.4</ele>
        <time>2025-07-16T15:47:42Z</time>
      </trkpt>
      <trkpt lat="46.3097" lon="4.80603">
        <ele>217.4</ele>
        <time>2025-07-16T15:47:43Z</time>
      </trkpt>
      <trkpt lat="46.30973" lon="4.80604">
        <ele>217.4</ele>
        <time>2025-07-16T15:47:44Z</time>
      </trkpt>
      <trkpt lat="46.30976" lon="4.80607">
        <ele>217.4</ele>
        <time>2025-07-16T15:47:45Z</time>
      </trkpt>
      <trkpt lat="46.30977" lon="4.8061">
        <ele>217.5</ele>
        <time>2025-07-16T15:47:46Z</time>
      </trkpt>
      <trkpt lat="46.30979" lon="4.80612">
        <ele>217.4</ele>
        <time>2025-07-16T15:47:47Z</time>
      </trkpt>
      <trkpt lat="46.30981" lon="4.80614">
        <ele>217.4</ele>
        <time>2025-07-16T15:47:48Z</time>
      </trkpt>
      <trkpt lat="46.30984" lon="4.80615">
        <ele>217.4</ele>
        <time>2025-07-16T15:47:49Z</time>
      </trkpt>
      <trkpt lat="46.30988" lon="4.80615">
        <ele>217.4</ele>
        <time>2025-07-16T15:47:50Z</time>
      </trkpt>
      <trkpt lat="46.30992" lon="4.80615">
        <ele>217.4</ele>
        <time>2025-07-16T15:47:51Z</time>
      </trkpt>
      <trkpt lat="46.30996" lon="4.80615">
        <ele>217.4</ele>
        <time>2025-07-16T15:47:52Z</time>
      </trkpt>
      <trkpt lat="46.31001" lon="4.80615">
        <ele>217.4</ele>
        <time>2025-07-16T15:47:53Z</time>
      </trkpt>
      <trkpt lat="46.31006" lon="4.80615">
        <ele>217.4</ele>
        <time>2025-07-16T15:47:54Z</time>
      </trkpt>
      <trkpt lat="46.31011" lon="4.80615">
        <ele>217.4</ele>
        <time>2025-07-16T15:47:55Z</time>
      </trkpt>
      <trkpt lat="46.31015" lon="4.80615">
        <ele>217.4</ele>
        <time>2025-07-16T15:47:56Z</time>
      </trkpt>
      <trkpt lat="46.3102" lon="4.80618">
        <ele>217.4</ele>
        <time>2025-07-16T15:47:57Z</time>
      </trkpt>
      <trkpt lat="46.31026" lon="4.80619">
        <ele>217.4</ele>
        <time>2025-07-16T15:47:58Z</time>
      </trkpt>
      <trkpt lat="46.31032" lon="4.80619">
        <ele>217.5</ele>
        <time>2025-07-16T15:47:59Z</time>
      </trkpt>
      <trkpt lat="46.31038" lon="4.80619">
        <ele>217.5</ele>
        <time>2025-07-16T15:48:00Z</time>
      </trkpt>
      <trkpt lat="46.31043" lon="4.80621">
        <ele>217.6</ele>
        <time>2025-07-16T15:48:01Z</time>
      </trkpt>
      <trkpt lat="46.31048" lon="4.80623">
        <ele>217.6</ele>
        <time>2025-07-16T15:48:02Z</time>
      </trkpt>
      <trkpt lat="46.31052" lon="4.80624">
        <ele>217.7</ele>
        <time>2025-07-16T15:48:03Z</time>
      </trkpt>
      <trkpt lat="46.31056" lon="4.80626">
        <ele>217.7</ele>
        <time>2025-07-16T15:48:04Z</time>
      </trkpt>
      <trkpt lat="46.3106" lon="4.80627">
        <ele>217.7</ele>
        <time>2025-07-16T15:48:05Z</time>
      </trkpt>
      <trkpt lat="46.31064" lon="4.80628">
        <ele>217.8</ele>
        <time>2025-07-16T15:48:06Z</time>
      </trkpt>
      <trkpt lat="46.31068" lon="4.8063">
        <ele>217.8</ele>
        <time>2025-07-16T15:48:07Z</time>
      </trkpt>
      <trkpt lat="46.31073" lon="4.80631">
        <ele>217.9</ele>
        <time>2025-07-16T15:48:08Z</time>
      </trkpt>
      <trkpt lat="46.31077" lon="4.80631">
        <ele>217.9</ele>
        <time>2025-07-16T15:48:09Z</time>
      </trkpt>
      <trkpt lat="46.31081" lon="4.80631">
        <ele>217.9</ele>
        <time>2025-07-16T15:48:10Z</time>
      </trkpt>
      <trkpt lat="46.31085" lon="4.80631">
        <ele>217.9</ele>
        <time>2025-07-16T15:48:11Z</time>
      </trkpt>
      <trkpt lat="46.3109" lon="4.80631">
        <ele>217.9</ele>
        <time>2025-07-16T15:48:12Z</time>
      </trkpt>
      <trkpt lat="46.31095" lon="4.80631">
        <ele>218</ele>
        <time>2025-07-16T15:48:13Z</time>
      </trkpt>
      <trkpt lat="46.311" lon="4.80631">
        <ele>218</ele>
        <time>2025-07-16T15:48:14Z</time>
      </trkpt>
      <trkpt lat="46.31106" lon="4.80632">
        <ele>218</ele>
        <time>2025-07-16T15:48:15Z</time>
      </trkpt>
      <trkpt lat="46.31111" lon="4.80632">
        <ele>218.1</ele>
        <time>2025-07-16T15:48:16Z</time>
      </trkpt>
      <trkpt lat="46.31115" lon="4.80632">
        <ele>218.2</ele>
        <time>2025-07-16T15:48:17Z</time>
      </trkpt>
      <trkpt lat="46.31119" lon="4.80633">
        <ele>218.2</ele>
        <time>2025-07-16T15:48:18Z</time>
      </trkpt>
      <trkpt lat="46.31123" lon="4.80634">
        <ele>218.3</ele>
        <time>2025-07-16T15:48:19Z</time>
      </trkpt>
      <trkpt lat="46.31128" lon="4.80635">
        <ele>218.3</ele>
        <time>2025-07-16T15:48:20Z</time>
      </trkpt>
      <trkpt lat="46.31131" lon="4.80636">
        <ele>218.4</ele>
        <time>2025-07-16T15:48:21Z</time>
      </trkpt>
      <trkpt lat="46.31136" lon="4.80635">
        <ele>218.5</ele>
        <time>2025-07-16T15:48:22Z</time>
      </trkpt>
      <trkpt lat="46.3114" lon="4.80636">
        <ele>218.5</ele>
        <time>2025-07-16T15:48:23Z</time>
      </trkpt>
      <trkpt lat="46.31144" lon="4.80637">
        <ele>218.5</ele>
        <time>2025-07-16T15:48:24Z</time>
      </trkpt>
      <trkpt lat="46.31146" lon="4.80637">
        <ele>218.6</ele>
        <time>2025-07-16T15:48:25Z</time>
      </trkpt>
      <trkpt lat="46.3115" lon="4.80638">
        <ele>218.6</ele>
        <time>2025-07-16T15:48:26Z</time>
      </trkpt>
      <trkpt lat="46.31153" lon="4.80639">
        <ele>218.6</ele>
        <time>2025-07-16T15:48:27Z</time>
      </trkpt>
      <trkpt lat="46.31156" lon="4.80639">
        <ele>218.7</ele>
        <time>2025-07-16T15:48:28Z</time>
      </trkpt>
      <trkpt lat="46.3116" lon="4.80639">
        <ele>218.7</ele>
        <time>2025-07-16T15:48:29Z</time>
      </trkpt>
      <trkpt lat="46.31164" lon="4.80638">
        <ele>218.8</ele>
        <time>2025-07-16T15:48:30Z</time>
      </trkpt>
      <trkpt lat="46.31168" lon="4.80638">
        <ele>218.9</ele>
        <time>2025-07-16T15:48:31Z</time>
      </trkpt>
      <trkpt lat="46.31172" lon="4.80639">
        <ele>218.9</ele>
        <time>2025-07-16T15:48:32Z</time>
      </trkpt>
      <trkpt lat="46.31176" lon="4.8064">
        <ele>219</ele>
        <time>2025-07-16T15:48:33Z</time>
      </trkpt>
      <trkpt lat="46.31181" lon="4.80642">
        <ele>219.1</ele>
        <time>2025-07-16T15:48:34Z</time>
      </trkpt>
      <trkpt lat="46.31185" lon="4.80644">
        <ele>219.1</ele>
        <time>2025-07-16T15:48:35Z</time>
      </trkpt>
      <trkpt lat="46.31189" lon="4.80646">
        <ele>219.2</ele>
        <time>2025-07-16T15:48:36Z</time>
      </trkpt>
      <trkpt lat="46.31194" lon="4.80648">
        <ele>219.3</ele>
        <time>2025-07-16T15:48:37Z</time>
      </trkpt>
      <trkpt lat="46.31196" lon="4.80651">
        <ele>219.3</ele>
        <time>2025-07-16T15:48:38Z</time>
      </trkpt>
      <trkpt lat="46.31196" lon="4.80656">
        <ele>219.4</ele>
        <time>2025-07-16T15:48:39Z</time>
      </trkpt>
      <trkpt lat="46.31196" lon="4.80662">
        <ele>219.4</ele>
        <time>2025-07-16T15:48:40Z</time>
      </trkpt>
      <trkpt lat="46.31196" lon="4.80669">
        <ele>219.4</ele>
        <time>2025-07-16T15:48:41Z</time>
      </trkpt>
      <trkpt lat="46.31196" lon="4.80676">
        <ele>219.4</ele>
        <time>2025-07-16T15:48:42Z</time>
      </trkpt>
      <trkpt lat="46.31195" lon="4.80683">
        <ele>219.4</ele>
        <time>2025-07-16T15:48:43Z</time>
      </trkpt>
      <trkpt lat="46.31194" lon="4.8069">
        <ele>219.4</ele>
        <time>2025-07-16T15:48:44Z</time>
      </trkpt>
      <trkpt lat="46.31193" lon="4.80698">
        <ele>219.4</ele>
        <time>2025-07-16T15:48:45Z</time>
      </trkpt>
      <trkpt lat="46.31192" lon="4.80705">
        <ele>219.4</ele>
        <time>2025-07-16T15:48:46Z</time>
      </trkpt>
      <trkpt lat="46.31191" lon="4.80712">
        <ele>219.4</ele>
        <time>2025-07-16T15:48:47Z</time>
      </trkpt>
      <trkpt lat="46.3119" lon="4.80721">
        <ele>219.4</ele>
        <time>2025-07-16T15:48:48Z</time>
      </trkpt>
      <trkpt lat="46.3119" lon="4.80728">
        <ele>219.4</ele>
        <time>2025-07-16T15:48:49Z</time>
      </trkpt>
      <trkpt lat="46.31189" lon="4.80735">
        <ele>219.4</ele>
        <time>2025-07-16T15:48:50Z</time>
      </trkpt>
      <trkpt lat="46.31189" lon="4.80744">
        <ele>219.4</ele>
        <time>2025-07-16T15:48:51Z</time>
      </trkpt>
      <trkpt lat="46.31189" lon="4.80752">
        <ele>219.4</ele>
        <time>2025-07-16T15:48:52Z</time>
      </trkpt>
      <trkpt lat="46.31188" lon="4.8076">
        <ele>219.4</ele>
        <time>2025-07-16T15:48:53Z</time>
      </trkpt>
      <trkpt lat="46.31188" lon="4.80769">
        <ele>219.3</ele>
        <time>2025-07-16T15:48:54Z</time>
      </trkpt>
      <trkpt lat="46.31187" lon="4.80776">
        <ele>219.3</ele>
        <time>2025-07-16T15:48:55Z</time>
      </trkpt>
      <trkpt lat="46.31185" lon="4.80785">
        <ele>219.3</ele>
        <time>2025-07-16T15:48:56Z</time>
      </trkpt>
      <trkpt lat="46.31184" lon="4.80793">
        <ele>219.3</ele>
        <time>2025-07-16T15:48:57Z</time>
      </trkpt>
      <trkpt lat="46.31183" lon="4.80801">
        <ele>219.3</ele>
        <time>2025-07-16T15:48:58Z</time>
      </trkpt>
      <trkpt lat="46.31181" lon="4.80809">
        <ele>219.3</ele>
        <time>2025-07-16T15:48:59Z</time>
      </trkpt>
      <trkpt lat="46.3118" lon="4.80817">
        <ele>219.3</ele>
        <time>2025-07-16T15:49:00Z</time>
      </trkpt>
      <trkpt lat="46.31178" lon="4.80826">
        <ele>219.3</ele>
        <time>2025-07-16T15:49:01Z</time>
      </trkpt>
      <trkpt lat="46.31177" lon="4.80834">
        <ele>219.2</ele>
        <time>2025-07-16T15:49:02Z</time>
      </trkpt>
      <trkpt lat="46.31177" lon="4.80843">
        <ele>219.2</ele>
        <time>2025-07-16T15:49:03Z</time>
      </trkpt>
      <trkpt lat="46.31176" lon="4.80851">
        <ele>219.2</ele>
        <time>2025-07-16T15:49:04Z</time>
      </trkpt>
      <trkpt lat="46.31176" lon="4.80859">
        <ele>219.2</ele>
        <time>2025-07-16T15:49:05Z</time>
      </trkpt>
      <trkpt lat="46.31175" lon="4.80867">
        <ele>219.2</ele>
        <time>2025-07-16T15:49:06Z</time>
      </trkpt>
      <trkpt lat="46.31174" lon="4.80875">
        <ele>219.2</ele>
        <time>2025-07-16T15:49:07Z</time>
      </trkpt>
      <trkpt lat="46.31172" lon="4.80884">
        <ele>219.2</ele>
        <time>2025-07-16T15:49:08Z</time>
      </trkpt>
      <trkpt lat="46.3117" lon="4.80891">
        <ele>219.2</ele>
        <time>2025-07-16T15:49:09Z</time>
      </trkpt>
      <trkpt lat="46.31168" lon="4.80899">
        <ele>219.2</ele>
        <time>2025-07-16T15:49:10Z</time>
      </trkpt>
      <trkpt lat="46.31166" lon="4.80907">
        <ele>219.2</ele>
        <time>2025-07-16T15:49:11Z</time>
      </trkpt>
      <trkpt lat="46.31165" lon="4.80915">
        <ele>219.2</ele>
        <time>2025-07-16T15:49:12Z</time>
      </trkpt>
      <trkpt lat="46.31163" lon="4.80923">
        <ele>219.2</ele>
        <time>2025-07-16T15:49:13Z</time>
      </trkpt>
      <trkpt lat="46.31161" lon="4.80931">
        <ele>219.2</ele>
        <time>2025-07-16T15:49:14Z</time>
      </trkpt>
      <trkpt lat="46.31159" lon="4.80939">
        <ele>219.2</ele>
        <time>2025-07-16T15:49:15Z</time>
      </trkpt>
      <trkpt lat="46.31157" lon="4.80946">
        <ele>219.3</ele>
        <time>2025-07-16T15:49:16Z</time>
      </trkpt>
      <trkpt lat="46.31155" lon="4.80953">
        <ele>219.3</ele>
        <time>2025-07-16T15:49:17Z</time>
      </trkpt>
      <trkpt lat="46.31154" lon="4.8096">
        <ele>219.3</ele>
        <time>2025-07-16T15:49:18Z</time>
      </trkpt>
      <trkpt lat="46.31153" lon="4.80968">
        <ele>219.4</ele>
        <time>2025-07-16T15:49:19Z</time>
      </trkpt>
      <trkpt lat="46.3115" lon="4.80974">
        <ele>219.5</ele>
        <time>2025-07-16T15:49:20Z</time>
      </trkpt>
      <trkpt lat="46.31147" lon="4.8098">
        <ele>219.5</ele>
        <time>2025-07-16T15:49:21Z</time>
      </trkpt>
      <trkpt lat="46.31145" lon="4.80985">
        <ele>219.6</ele>
        <time>2025-07-16T15:49:22Z</time>
      </trkpt>
      <trkpt lat="46.31143" lon="4.8099">
        <ele>219.7</ele>
        <time>2025-07-16T15:49:23Z</time>
      </trkpt>
      <trkpt lat="46.31141" lon="4.80995">
        <ele>219.8</ele>
        <time>2025-07-16T15:49:24Z</time>
      </trkpt>
      <trkpt lat="46.31138" lon="4.80998">
        <ele>219.8</ele>
        <time>2025-07-16T15:49:25Z</time>
      </trkpt>
      <trkpt lat="46.31135" lon="4.81">
        <ele>219.9</ele>
        <time>2025-07-16T15:49:26Z</time>
      </trkpt>
      <trkpt lat="46.31133" lon="4.81003">
        <ele>220</ele>
        <time>2025-07-16T15:49:27Z</time>
      </trkpt>
      <trkpt lat="46.31131" lon="4.81007">
        <ele>220</ele>
        <time>2025-07-16T15:49:28Z</time>
      </trkpt>
      <trkpt lat="46.31129" lon="4.81012">
        <ele>220</ele>
        <time>2025-07-16T15:49:29Z</time>
      </trkpt>
      <trkpt lat="46.31128" lon="4.81017">
        <ele>220</ele>
        <time>2025-07-16T15:49:30Z</time>
      </trkpt>
      <trkpt lat="46.31128" lon="4.81021">
        <ele>220</ele>
        <time>2025-07-16T15:49:31Z</time>
      </trkpt>
      <trkpt lat="46.31128" lon="4.81025">
        <ele>220</ele>
        <time>2025-07-16T15:49:32Z</time>
      </trkpt>
      <trkpt lat="46.31129" lon="4.8103">
        <ele>220</ele>
        <time>2025-07-16T15:49:33Z</time>
      </trkpt>
      <trkpt lat="46.31129" lon="4.81034">
        <ele>220</ele>
        <time>2025-07-16T15:49:34Z</time>
      </trkpt>
      <trkpt lat="46.31129" lon="4.81038">
        <ele>220</ele>
        <time>2025-07-16T15:49:35Z</time>
      </trkpt>
      <trkpt lat="46.31129" lon="4.81042">
        <ele>220</ele>
        <time>2025-07-16T15:49:36Z</time>
      </trkpt>
      <trkpt lat="46.31131" lon="4.81045">
        <ele>220</ele>
        <time>2025-07-16T15:49:37Z</time>
      </trkpt>
      <trkpt lat="46.31134" lon="4.81048">
        <ele>220.1</ele>
        <time>2025-07-16T15:49:38Z</time>
      </trkpt>
      <trkpt lat="46.31137" lon="4.81049">
        <ele>220.1</ele>
        <time>2025-07-16T15:49:39Z</time>
      </trkpt>
      <trkpt lat="46.3114" lon="4.81049">
        <ele>220.1</ele>
        <time>2025-07-16T15:49:40Z</time>
      </trkpt>
      <trkpt lat="46.31143" lon="4.81046">
        <ele>220.2</ele>
        <time>2025-07-16T15:49:41Z</time>
      </trkpt>
      <trkpt lat="46.31146" lon="4.81043">
        <ele>220.2</ele>
        <time>2025-07-16T15:49:42Z</time>
      </trkpt>
      <trkpt lat="46.31149" lon="4.81041">
        <ele>220.2</ele>
        <time>2025-07-16T15:49:43Z</time>
      </trkpt>
      <trkpt lat="46.31152" lon="4.81039">
        <ele>220.3</ele>
        <time>2025-07-16T15:49:44Z</time>
      </trkpt>
      <trkpt lat="46.31155" lon="4.81036">
        <ele>220.3</ele>
        <time>2025-07-16T15:49:45Z</time>
      </trkpt>
      <trkpt lat="46.31158" lon="4.81034">
        <ele>220.4</ele>
        <time>2025-07-16T15:49:46Z</time>
      </trkpt>
      <trkpt lat="46.31162" lon="4.81032">
        <ele>220.4</ele>
        <time>2025-07-16T15:49:47Z</time>
      </trkpt>
      <trkpt lat="46.31166" lon="4.81031">
        <ele>220.5</ele>
        <time>2025-07-16T15:49:48Z</time>
      </trkpt>
      <trkpt lat="46.3117" lon="4.8103">
        <ele>220.5</ele>
        <time>2025-07-16T15:49:49Z</time>
      </trkpt>
      <trkpt lat="46.31174" lon="4.8103">
        <ele>220.6</ele>
        <time>2025-07-16T15:49:50Z</time>
      </trkpt>
      <trkpt lat="46.31177" lon="4.8103">
        <ele>220.7</ele>
        <time>2025-07-16T15:49:51Z</time>
      </trkpt>
      <trkpt lat="46.31182" lon="4.8103">
        <ele>220.7</ele>
        <time>2025-07-16T15:49:52Z</time>
      </trkpt>
      <trkpt lat="46.31185" lon="4.81031">
        <ele>220.8</ele>
        <time>2025-07-16T15:49:53Z</time>
      </trkpt>
      <trkpt lat="46.31188" lon="4.81033">
        <ele>220.9</ele>
        <time>2025-07-16T15:49:54Z</time>
      </trkpt>
      <trkpt lat="46.31191" lon="4.81034">
        <ele>220.9</ele>
        <time>2025-07-16T15:49:55Z</time>
      </trkpt>
      <trkpt lat="46.31194" lon="4.81036">
        <ele>221</ele>
        <time>2025-07-16T15:49:56Z</time>
      </trkpt>
      <trkpt lat="46.31197" lon="4.81036">
        <ele>221</ele>
        <time>2025-07-16T15:49:57Z</time>
      </trkpt>
      <trkpt lat="46.31201" lon="4.81038">
        <ele>221.1</ele>
        <time>2025-07-16T15:49:58Z</time>
      </trkpt>
      <trkpt lat="46.31204" lon="4.81039">
        <ele>221.2</ele>
        <time>2025-07-16T15:49:59Z</time>
      </trkpt>
      <trkpt lat="46.31207" lon="4.8104">
        <ele>221.2</ele>
        <time>2025-07-16T15:50:00Z</time>
      </trkpt>
      <trkpt lat="46.31211" lon="4.81042">
        <ele>221.3</ele>
        <time>2025-07-16T15:50:01Z</time>
      </trkpt>
      <trkpt lat="46.31216" lon="4.81043">
        <ele>221.4</ele>
        <time>2025-07-16T15:50:02Z</time>
      </trkpt>
      <trkpt lat="46.3122" lon="4.81044">
        <ele>221.4</ele>
        <time>2025-07-16T15:50:03Z</time>
      </trkpt>
      <trkpt lat="46.31224" lon="4.81045">
        <ele>221.5</ele>
        <time>2025-07-16T15:50:04Z</time>
      </trkpt>
      <trkpt lat="46.31228" lon="4.81045">
        <ele>221.6</ele>
        <time>2025-07-16T15:50:05Z</time>
      </trkpt>
      <trkpt lat="46.31233" lon="4.81046">
        <ele>221.7</ele>
        <time>2025-07-16T15:50:06Z</time>
      </trkpt>
      <trkpt lat="46.31237" lon="4.81048">
        <ele>221.8</ele>
        <time>2025-07-16T15:50:07Z</time>
      </trkpt>
      <trkpt lat="46.3124" lon="4.81049">
        <ele>221.8</ele>
        <time>2025-07-16T15:50:08Z</time>
      </trkpt>
      <trkpt lat="46.31244" lon="4.8105">
        <ele>221.9</ele>
        <time>2025-07-16T15:50:09Z</time>
      </trkpt>
      <trkpt lat="46.31248" lon="4.81051">
        <ele>221.9</ele>
        <time>2025-07-16T15:50:10Z</time>
      </trkpt>
      <trkpt lat="46.31252" lon="4.81051">
        <ele>221.9</ele>
        <time>2025-07-16T15:50:11Z</time>
      </trkpt>
      <trkpt lat="46.31256" lon="4.81052">
        <ele>221.9</ele>
        <time>2025-07-16T15:50:12Z</time>
      </trkpt>
      <trkpt lat="46.31261" lon="4.81054">
        <ele>222</ele>
        <time>2025-07-16T15:50:13Z</time>
      </trkpt>
      <trkpt lat="46.31266" lon="4.81055">
        <ele>222</ele>
        <time>2025-07-16T15:50:14Z</time>
      </trkpt>
      <trkpt lat="46.3127" lon="4.81057">
        <ele>221.9</ele>
        <time>2025-07-16T15:50:15Z</time>
      </trkpt>
      <trkpt lat="46.31275" lon="4.81058">
        <ele>221.9</ele>
        <time>2025-07-16T15:50:16Z</time>
      </trkpt>
      <trkpt lat="46.3128" lon="4.81059">
        <ele>221.9</ele>
        <time>2025-07-16T15:50:17Z</time>
      </trkpt>
      <trkpt lat="46.31284" lon="4.81061">
        <ele>221.9</ele>
        <time>2025-07-16T15:50:18Z</time>
      </trkpt>
      <trkpt lat="46.31289" lon="4.81063">
        <ele>221.9</ele>
        <time>2025-07-16T15:50:19Z</time>
      </trkpt>
      <trkpt lat="46.31293" lon="4.81066">
        <ele>221.9</ele>
        <time>2025-07-16T15:50:20Z</time>
      </trkpt>
      <trkpt lat="46.31298" lon="4.81069">
        <ele>221.9</ele>
        <time>2025-07-16T15:50:21Z</time>
      </trkpt>
      <trkpt lat="46.31301" lon="4.81072">
        <ele>221.9</ele>
        <time>2025-07-16T15:50:22Z</time>
      </trkpt>
      <trkpt lat="46.31305" lon="4.81075">
        <ele>221.9</ele>
        <time>2025-07-16T15:50:23Z</time>
      </trkpt>
      <trkpt lat="46.31309" lon="4.81078">
        <ele>221.9</ele>
        <time>2025-07-16T15:50:24Z</time>
      </trkpt>
      <trkpt lat="46.31315" lon="4.81081">
        <ele>221.9</ele>
        <time>2025-07-16T15:50:25Z</time>
      </trkpt>
      <trkpt lat="46.31321" lon="4.81083">
        <ele>221.9</ele>
        <time>2025-07-16T15:50:26Z</time>
      </trkpt>
      <trkpt lat="46.31326" lon="4.81085">
        <ele>221.9</ele>
        <time>2025-07-16T15:50:27Z</time>
      </trkpt>
      <trkpt lat="46.3133" lon="4.81088">
        <ele>221.9</ele>
        <time>2025-07-16T15:50:28Z</time>
      </trkpt>
      <trkpt lat="46.31335" lon="4.81091">
        <ele>221.9</ele>
        <time>2025-07-16T15:50:29Z</time>
      </trkpt>
      <trkpt lat="46.3134" lon="4.81094">
        <ele>221.8</ele>
        <time>2025-07-16T15:50:30Z</time>
      </trkpt>
      <trkpt lat="46.31344" lon="4.81096">
        <ele>221.8</ele>
        <time>2025-07-16T15:50:31Z</time>
      </trkpt>
      <trkpt lat="46.31348" lon="4.81098">
        <ele>221.8</ele>
        <time>2025-07-16T15:50:32Z</time>
      </trkpt>
      <trkpt lat="46.31352" lon="4.81099">
        <ele>221.8</ele>
        <time>2025-07-16T15:50:33Z</time>
      </trkpt>
      <trkpt lat="46.31356" lon="4.81103">
        <ele>221.8</ele>
        <time>2025-07-16T15:50:34Z</time>
      </trkpt>
      <trkpt lat="46.31359" lon="4.81108">
        <ele>221.8</ele>
        <time>2025-07-16T15:50:35Z</time>
      </trkpt>
      <trkpt lat="46.31361" lon="4.81115">
        <ele>221.8</ele>
        <time>2025-07-16T15:50:36Z</time>
      </trkpt>
      <trkpt lat="46.31362" lon="4.81122">
        <ele>221.7</ele>
        <time>2025-07-16T15:50:37Z</time>
      </trkpt>
      <trkpt lat="46.31363" lon="4.81129">
        <ele>221.7</ele>
        <time>2025-07-16T15:50:38Z</time>
      </trkpt>
      <trkpt lat="46.31363" lon="4.81135">
        <ele>221.6</ele>
        <time>2025-07-16T15:50:39Z</time>
      </trkpt>
      <trkpt lat="46.31364" lon="4.81141">
        <ele>221.6</ele>
        <time>2025-07-16T15:50:40Z</time>
      </trkpt>
      <trkpt lat="46.31364" lon="4.81148">
        <ele>221.5</ele>
        <time>2025-07-16T15:50:41Z</time>
      </trkpt>
      <trkpt lat="46.31363" lon="4.81154">
        <ele>221.5</ele>
        <time>2025-07-16T15:50:42Z</time>
      </trkpt>
      <trkpt lat="46.31361" lon="4.81161">
        <ele>221.4</ele>
        <time>2025-07-16T15:50:43Z</time>
      </trkpt>
      <trkpt lat="46.31359" lon="4.81168">
        <ele>221.4</ele>
        <time>2025-07-16T15:50:44Z</time>
      </trkpt>
      <trkpt lat="46.31357" lon="4.81176">
        <ele>221.3</ele>
        <time>2025-07-16T15:50:45Z</time>
      </trkpt>
      <trkpt lat="46.31354" lon="4.81184">
        <ele>221.3</ele>
        <time>2025-07-16T15:50:46Z</time>
      </trkpt>
      <trkpt lat="46.31352" lon="4.81192">
        <ele>221.3</ele>
        <time>2025-07-16T15:50:47Z</time>
      </trkpt>
      <trkpt lat="46.3135" lon="4.81201">
        <ele>221.2</ele>
        <time>2025-07-16T15:50:48Z</time>
      </trkpt>
      <trkpt lat="46.31347" lon="4.81209">
        <ele>221.2</ele>
        <time>2025-07-16T15:50:49Z</time>
      </trkpt>
      <trkpt lat="46.31345" lon="4.81217">
        <ele>221.1</ele>
        <time>2025-07-16T15:50:50Z</time>
      </trkpt>
      <trkpt lat="46.31343" lon="4.81225">
        <ele>221.1</ele>
        <time>2025-07-16T15:50:51Z</time>
      </trkpt>
      <trkpt lat="46.31341" lon="4.81233">
        <ele>221.1</ele>
        <time>2025-07-16T15:50:52Z</time>
      </trkpt>
      <trkpt lat="46.31339" lon="4.81241">
        <ele>221.1</ele>
        <time>2025-07-16T15:50:53Z</time>
      </trkpt>
      <trkpt lat="46.31338" lon="4.81249">
        <ele>221.1</ele>
        <time>2025-07-16T15:50:54Z</time>
      </trkpt>
      <trkpt lat="46.31335" lon="4.81257">
        <ele>221</ele>
        <time>2025-07-16T15:50:55Z</time>
      </trkpt>
      <trkpt lat="46.31333" lon="4.81265">
        <ele>221</ele>
        <time>2025-07-16T15:50:56Z</time>
      </trkpt>
      <trkpt lat="46.31331" lon="4.81272">
        <ele>221</ele>
        <time>2025-07-16T15:50:57Z</time>
      </trkpt>
      <trkpt lat="46.3133" lon="4.8128">
        <ele>221</ele>
        <time>2025-07-16T15:50:58Z</time>
      </trkpt>
      <trkpt lat="46.31328" lon="4.81289">
        <ele>221</ele>
        <time>2025-07-16T15:50:59Z</time>
      </trkpt>
      <trkpt lat="46.31326" lon="4.81296">
        <ele>220.9</ele>
        <time>2025-07-16T15:51:00Z</time>
      </trkpt>
      <trkpt lat="46.31324" lon="4.81303">
        <ele>220.9</ele>
        <time>2025-07-16T15:51:01Z</time>
      </trkpt>
      <trkpt lat="46.31322" lon="4.8131">
        <ele>220.8</ele>
        <time>2025-07-16T15:51:02Z</time>
      </trkpt>
      <trkpt lat="46.3132" lon="4.81318">
        <ele>220.8</ele>
        <time>2025-07-16T15:51:03Z</time>
      </trkpt>
      <trkpt lat="46.31318" lon="4.81326">
        <ele>220.7</ele>
        <time>2025-07-16T15:51:04Z</time>
      </trkpt>
      <trkpt lat="46.31315" lon="4.81334">
        <ele>220.7</ele>
        <time>2025-07-16T15:51:05Z</time>
      </trkpt>
      <trkpt lat="46.31314" lon="4.81343">
        <ele>220.6</ele>
        <time>2025-07-16T15:51:06Z</time>
      </trkpt>
      <trkpt lat="46.31311" lon="4.81351">
        <ele>220.6</ele>
        <time>2025-07-16T15:51:07Z</time>
      </trkpt>
      <trkpt lat="46.31309" lon="4.81358">
        <ele>220.6</ele>
        <time>2025-07-16T15:51:08Z</time>
      </trkpt>
      <trkpt lat="46.31308" lon="4.81367">
        <ele>220.5</ele>
        <time>2025-07-16T15:51:09Z</time>
      </trkpt>
      <trkpt lat="46.31305" lon="4.81375">
        <ele>220.5</ele>
        <time>2025-07-16T15:51:10Z</time>
      </trkpt>
      <trkpt lat="46.31303" lon="4.81382">
        <ele>220.4</ele>
        <time>2025-07-16T15:51:11Z</time>
      </trkpt>
      <trkpt lat="46.31301" lon="4.8139">
        <ele>220.4</ele>
        <time>2025-07-16T15:51:12Z</time>
      </trkpt>
      <trkpt lat="46.31298" lon="4.81397">
        <ele>220.3</ele>
        <time>2025-07-16T15:51:13Z</time>
      </trkpt>
      <trkpt lat="46.31297" lon="4.81405">
        <ele>220.3</ele>
        <time>2025-07-16T15:51:14Z</time>
      </trkpt>
      <trkpt lat="46.31295" lon="4.81414">
        <ele>220.3</ele>
        <time>2025-07-16T15:51:15Z</time>
      </trkpt>
      <trkpt lat="46.31293" lon="4.81421">
        <ele>220.2</ele>
        <time>2025-07-16T15:51:16Z</time>
      </trkpt>
      <trkpt lat="46.31291" lon="4.81428">
        <ele>220.2</ele>
        <time>2025-07-16T15:51:17Z</time>
      </trkpt>
      <trkpt lat="46.31289" lon="4.81435">
        <ele>220.1</ele>
        <time>2025-07-16T15:51:18Z</time>
      </trkpt>
      <trkpt lat="46.31287" lon="4.81442">
        <ele>220.1</ele>
        <time>2025-07-16T15:51:19Z</time>
      </trkpt>
      <trkpt lat="46.31285" lon="4.8145">
        <ele>220.1</ele>
        <time>2025-07-16T15:51:20Z</time>
      </trkpt>
      <trkpt lat="46.31283" lon="4.81456">
        <ele>220.1</ele>
        <time>2025-07-16T15:51:21Z</time>
      </trkpt>
      <trkpt lat="46.3128" lon="4.81463">
        <ele>220.1</ele>
        <time>2025-07-16T15:51:22Z</time>
      </trkpt>
      <trkpt lat="46.31276" lon="4.81469">
        <ele>220.1</ele>
        <time>2025-07-16T15:51:23Z</time>
      </trkpt>
      <trkpt lat="46.31273" lon="4.81474">
        <ele>220.2</ele>
        <time>2025-07-16T15:51:24Z</time>
      </trkpt>
      <trkpt lat="46.31269" lon="4.8148">
        <ele>220.2</ele>
        <time>2025-07-16T15:51:25Z</time>
      </trkpt>
      <trkpt lat="46.31267" lon="4.81486">
        <ele>220.2</ele>
        <time>2025-07-16T15:51:26Z</time>
      </trkpt>
      <trkpt lat="46.31266" lon="4.81493">
        <ele>220.2</ele>
        <time>2025-07-16T15:51:27Z</time>
      </trkpt>
      <trkpt lat="46.31266" lon="4.815">
        <ele>220.2</ele>
        <time>2025-07-16T15:51:28Z</time>
      </trkpt>
      <trkpt lat="46.31267" lon="4.81507">
        <ele>220.2</ele>
        <time>2025-07-16T15:51:29Z</time>
      </trkpt>
      <trkpt lat="46.31266" lon="4.81515">
        <ele>220.2</ele>
        <time>2025-07-16T15:51:30Z</time>
      </trkpt>
      <trkpt lat="46.31264" lon="4.81522">
        <ele>220.2</ele>
        <time>2025-07-16T15:51:31Z</time>
      </trkpt>
      <trkpt lat="46.31262" lon="4.8153">
        <ele>220.2</ele>
        <time>2025-07-16T15:51:32Z</time>
      </trkpt>
      <trkpt lat="46.3126" lon="4.81537">
        <ele>220.1</ele>
        <time>2025-07-16T15:51:33Z</time>
      </trkpt>
      <trkpt lat="46.31259" lon="4.81544">
        <ele>220.1</ele>
        <time>2025-07-16T15:51:34Z</time>
      </trkpt>
      <trkpt lat="46.31257" lon="4.81552">
        <ele>220</ele>
        <time>2025-07-16T15:51:35Z</time>
      </trkpt>
      <trkpt lat="46.31255" lon="4.81559">
        <ele>219.9</ele>
        <time>2025-07-16T15:51:36Z</time>
      </trkpt>
      <trkpt lat="46.31253" lon="4.81567">
        <ele>219.9</ele>
        <time>2025-07-16T15:51:37Z</time>
      </trkpt>
      <trkpt lat="46.31252" lon="4.81575">
        <ele>219.8</ele>
        <time>2025-07-16T15:51:38Z</time>
      </trkpt>
      <trkpt lat="46.3125" lon="4.81582">
        <ele>219.8</ele>
        <time>2025-07-16T15:51:39Z</time>
      </trkpt>
      <trkpt lat="46.31248" lon="4.81587">
        <ele>219.7</ele>
        <time>2025-07-16T15:51:40Z</time>
      </trkpt>
      <trkpt lat="46.31247" lon="4.81593">
        <ele>219.6</ele>
        <time>2025-07-16T15:51:41Z</time>
      </trkpt>
      <trkpt lat="46.31245" lon="4.81598">
        <ele>219.6</ele>
        <time>2025-07-16T15:51:42Z</time>
      </trkpt>
      <trkpt lat="46.31244" lon="4.81605">
        <ele>219.5</ele>
        <time>2025-07-16T15:51:43Z</time>
      </trkpt>
      <trkpt lat="46.31242" lon="4.81611">
        <ele>219.4</ele>
        <time>2025-07-16T15:51:44Z</time>
      </trkpt>
      <trkpt lat="46.3124" lon="4.81617">
        <ele>219.3</ele>
        <time>2025-07-16T15:51:45Z</time>
      </trkpt>
      <trkpt lat="46.31239" lon="4.81624">
        <ele>219.2</ele>
        <time>2025-07-16T15:51:46Z</time>
      </trkpt>
      <trkpt lat="46.31237" lon="4.8163">
        <ele>219</ele>
        <time>2025-07-16T15:51:47Z</time>
      </trkpt>
      <trkpt lat="46.31235" lon="4.81636">
        <ele>218.9</ele>
        <time>2025-07-16T15:51:48Z</time>
      </trkpt>
      <trkpt lat="46.31234" lon="4.81641">
        <ele>218.8</ele>
        <time>2025-07-16T15:51:49Z</time>
      </trkpt>
      <trkpt lat="46.31232" lon="4.81648">
        <ele>218.6</ele>
        <time>2025-07-16T15:51:50Z</time>
      </trkpt>
      <trkpt lat="46.3123" lon="4.81654">
        <ele>218.5</ele>
        <time>2025-07-16T15:51:51Z</time>
      </trkpt>
      <trkpt lat="46.31228" lon="4.81662">
        <ele>218.3</ele>
        <time>2025-07-16T15:51:52Z</time>
      </trkpt>
      <trkpt lat="46.31226" lon="4.81668">
        <ele>218.1</ele>
        <time>2025-07-16T15:51:53Z</time>
      </trkpt>
      <trkpt lat="46.31224" lon="4.81675">
        <ele>217.9</ele>
        <time>2025-07-16T15:51:54Z</time>
      </trkpt>
      <trkpt lat="46.31223" lon="4.81682">
        <ele>217.7</ele>
        <time>2025-07-16T15:51:55Z</time>
      </trkpt>
      <trkpt lat="46.31221" lon="4.81688">
        <ele>217.4</ele>
        <time>2025-07-16T15:51:56Z</time>
      </trkpt>
      <trkpt lat="46.31219" lon="4.81695">
        <ele>217.2</ele>
        <time>2025-07-16T15:51:57Z</time>
      </trkpt>
      <trkpt lat="46.31217" lon="4.81701">
        <ele>217</ele>
        <time>2025-07-16T15:51:58Z</time>
      </trkpt>
      <trkpt lat="46.31216" lon="4.81707">
        <ele>216.7</ele>
        <time>2025-07-16T15:51:59Z</time>
      </trkpt>
      <trkpt lat="46.31214" lon="4.81713">
        <ele>216.5</ele>
        <time>2025-07-16T15:52:00Z</time>
      </trkpt>
      <trkpt lat="46.31213" lon="4.81719">
        <ele>216.2</ele>
        <time>2025-07-16T15:52:01Z</time>
      </trkpt>
      <trkpt lat="46.31211" lon="4.81725">
        <ele>216</ele>
        <time>2025-07-16T15:52:02Z</time>
      </trkpt>
      <trkpt lat="46.3121" lon="4.81731">
        <ele>215.7</ele>
        <time>2025-07-16T15:52:03Z</time>
      </trkpt>
      <trkpt lat="46.31208" lon="4.81738">
        <ele>215.5</ele>
        <time>2025-07-16T15:52:04Z</time>
      </trkpt>
      <trkpt lat="46.31207" lon="4.81744">
        <ele>215.2</ele>
        <time>2025-07-16T15:52:05Z</time>
      </trkpt>
      <trkpt lat="46.31206" lon="4.8175">
        <ele>214.9</ele>
        <time>2025-07-16T15:52:06Z</time>
      </trkpt>
      <trkpt lat="46.31204" lon="4.81757">
        <ele>214.6</ele>
        <time>2025-07-16T15:52:07Z</time>
      </trkpt>
      <trkpt lat="46.31203" lon="4.81765">
        <ele>214.3</ele>
        <time>2025-07-16T15:52:08Z</time>
      </trkpt>
      <trkpt lat="46.31201" lon="4.81771">
        <ele>214</ele>
        <time>2025-07-16T15:52:09Z</time>
      </trkpt>
      <trkpt lat="46.31199" lon="4.81778">
        <ele>213.7</ele>
        <time>2025-07-16T15:52:10Z</time>
      </trkpt>
      <trkpt lat="46.31197" lon="4.81786">
        <ele>213.3</ele>
        <time>2025-07-16T15:52:11Z</time>
      </trkpt>
      <trkpt lat="46.31195" lon="4.81793">
        <ele>213</ele>
        <time>2025-07-16T15:52:12Z</time>
      </trkpt>
      <trkpt lat="46.31193" lon="4.818">
        <ele>212.7</ele>
        <time>2025-07-16T15:52:13Z</time>
      </trkpt>
      <trkpt lat="46.31191" lon="4.81806">
        <ele>212.4</ele>
        <time>2025-07-16T15:52:14Z</time>
      </trkpt>
      <trkpt lat="46.31189" lon="4.81812">
        <ele>212.1</ele>
        <time>2025-07-16T15:52:15Z</time>
      </trkpt>
      <trkpt lat="46.31187" lon="4.81818">
        <ele>211.8</ele>
        <time>2025-07-16T15:52:16Z</time>
      </trkpt>
      <trkpt lat="46.31185" lon="4.81825">
        <ele>211.5</ele>
        <time>2025-07-16T15:52:17Z</time>
      </trkpt>
      <trkpt lat="46.31183" lon="4.81832">
        <ele>211.2</ele>
        <time>2025-07-16T15:52:18Z</time>
      </trkpt>
      <trkpt lat="46.31182" lon="4.81839">
        <ele>210.9</ele>
        <time>2025-07-16T15:52:19Z</time>
      </trkpt>
      <trkpt lat="46.3118" lon="4.81846">
        <ele>210.6</ele>
        <time>2025-07-16T15:52:20Z</time>
      </trkpt>
      <trkpt lat="46.31178" lon="4.81853">
        <ele>210.3</ele>
        <time>2025-07-16T15:52:21Z</time>
      </trkpt>
      <trkpt lat="46.31176" lon="4.8186">
        <ele>210.2</ele>
        <time>2025-07-16T15:52:22Z</time>
      </trkpt>
      <trkpt lat="46.31174" lon="4.81867">
        <ele>210.1</ele>
        <time>2025-07-16T15:52:23Z</time>
      </trkpt>
      <trkpt lat="46.31172" lon="4.81873">
        <ele>209.8</ele>
        <time>2025-07-16T15:52:24Z</time>
      </trkpt>
      <trkpt lat="46.3117" lon="4.8188">
        <ele>209.6</ele>
        <time>2025-07-16T15:52:25Z</time>
      </trkpt>
      <trkpt lat="46.31168" lon="4.81887">
        <ele>209.3</ele>
        <time>2025-07-16T15:52:26Z</time>
      </trkpt>
      <trkpt lat="46.31166" lon="4.81894">
        <ele>209.1</ele>
        <time>2025-07-16T15:52:27Z</time>
      </trkpt>
      <trkpt lat="46.31165" lon="4.81901">
        <ele>208.8</ele>
        <time>2025-07-16T15:52:28Z</time>
      </trkpt>
      <trkpt lat="46.31163" lon="4.81909">
        <ele>208.6</ele>
        <time>2025-07-16T15:52:29Z</time>
      </trkpt>
      <trkpt lat="46.31162" lon="4.81917">
        <ele>208.3</ele>
        <time>2025-07-16T15:52:30Z</time>
      </trkpt>
      <trkpt lat="46.31162" lon="4.81925">
        <ele>208.1</ele>
        <time>2025-07-16T15:52:31Z</time>
      </trkpt>
      <trkpt lat="46.3116" lon="4.81932">
        <ele>207.9</ele>
        <time>2025-07-16T15:52:32Z</time>
      </trkpt>
      <trkpt lat="46.3116" lon="4.8194">
        <ele>207.7</ele>
        <time>2025-07-16T15:52:33Z</time>
      </trkpt>
      <trkpt lat="46.31159" lon="4.81948">
        <ele>207.6</ele>
        <time>2025-07-16T15:52:34Z</time>
      </trkpt>
      <trkpt lat="46.31159" lon="4.81956">
        <ele>207.4</ele>
        <time>2025-07-16T15:52:35Z</time>
      </trkpt>
      <trkpt lat="46.31159" lon="4.81963">
        <ele>207.3</ele>
        <time>2025-07-16T15:52:36Z</time>
      </trkpt>
      <trkpt lat="46.31158" lon="4.8197">
        <ele>207.2</ele>
        <time>2025-07-16T15:52:37Z</time>
      </trkpt>
      <trkpt lat="46.31158" lon="4.81977">
        <ele>207.1</ele>
        <time>2025-07-16T15:52:38Z</time>
      </trkpt>
      <trkpt lat="46.31158" lon="4.81984">
        <ele>207</ele>
        <time>2025-07-16T15:52:39Z</time>
      </trkpt>
      <trkpt lat="46.31158" lon="4.81992">
        <ele>206.8</ele>
        <time>2025-07-16T15:52:40Z</time>
      </trkpt>
      <trkpt lat="46.31158" lon="4.82">
        <ele>206.7</ele>
        <time>2025-07-16T15:52:41Z</time>
      </trkpt>
      <trkpt lat="46.31158" lon="4.82006">
        <ele>206.7</ele>
        <time>2025-07-16T15:52:42Z</time>
      </trkpt>
      <trkpt lat="46.31158" lon="4.82012">
        <ele>206.6</ele>
        <time>2025-07-16T15:52:43Z</time>
      </trkpt>
      <trkpt lat="46.31157" lon="4.82015">
        <ele>206.5</ele>
        <time>2025-07-16T15:52:44Z</time>
      </trkpt>
      <trkpt lat="46.31156" lon="4.82019">
        <ele>206.5</ele>
        <time>2025-07-16T15:52:45Z</time>
      </trkpt>
      <trkpt lat="46.31154" lon="4.82023">
        <ele>206.4</ele>
        <time>2025-07-16T15:52:46Z</time>
      </trkpt>
      <trkpt lat="46.31151" lon="4.82028">
        <ele>206.4</ele>
        <time>2025-07-16T15:52:47Z</time>
      </trkpt>
      <trkpt lat="46.31149" lon="4.82033">
        <ele>206.3</ele>
        <time>2025-07-16T15:52:48Z</time>
      </trkpt>
      <trkpt lat="46.31149" lon="4.82039">
        <ele>206.3</ele>
        <time>2025-07-16T15:52:49Z</time>
      </trkpt>
      <trkpt lat="46.3115" lon="4.82044">
        <ele>206.3</ele>
        <time>2025-07-16T15:52:50Z</time>
      </trkpt>
      <trkpt lat="46.31151" lon="4.82048">
        <ele>206.3</ele>
        <time>2025-07-16T15:52:51Z</time>
      </trkpt>
      <trkpt lat="46.31153" lon="4.82051">
        <ele>206.3</ele>
        <time>2025-07-16T15:52:52Z</time>
      </trkpt>
      <trkpt lat="46.31156" lon="4.82052">
        <ele>206.3</ele>
        <time>2025-07-16T15:52:53Z</time>
      </trkpt>
      <trkpt lat="46.3116" lon="4.82052">
        <ele>206.3</ele>
        <time>2025-07-16T15:52:54Z</time>
      </trkpt>
      <trkpt lat="46.31163" lon="4.82053">
        <ele>206.3</ele>
        <time>2025-07-16T15:52:55Z</time>
      </trkpt>
      <trkpt lat="46.31168" lon="4.82053">
        <ele>206.3</ele>
        <time>2025-07-16T15:52:56Z</time>
      </trkpt>
      <trkpt lat="46.31173" lon="4.82054">
        <ele>206.2</ele>
        <time>2025-07-16T15:52:57Z</time>
      </trkpt>
      <trkpt lat="46.31178" lon="4.82054">
        <ele>206.2</ele>
        <time>2025-07-16T15:52:58Z</time>
      </trkpt>
      <trkpt lat="46.31182" lon="4.82055">
        <ele>206.2</ele>
        <time>2025-07-16T15:52:59Z</time>
      </trkpt>
      <trkpt lat="46.31186" lon="4.82055">
        <ele>206.2</ele>
        <time>2025-07-16T15:53:00Z</time>
      </trkpt>
      <trkpt lat="46.31191" lon="4.82056">
        <ele>206.2</ele>
        <time>2025-07-16T15:53:01Z</time>
      </trkpt>
      <trkpt lat="46.31195" lon="4.82056">
        <ele>206.2</ele>
        <time>2025-07-16T15:53:02Z</time>
      </trkpt>
      <trkpt lat="46.31199" lon="4.82056">
        <ele>206.2</ele>
        <time>2025-07-16T15:53:03Z</time>
      </trkpt>
      <trkpt lat="46.31201" lon="4.82058">
        <ele>206.2</ele>
        <time>2025-07-16T15:53:04Z</time>
      </trkpt>
      <trkpt lat="46.31203" lon="4.82061">
        <ele>206.2</ele>
        <time>2025-07-16T15:53:05Z</time>
      </trkpt>
      <trkpt lat="46.31204" lon="4.82064">
        <ele>206.1</ele>
        <time>2025-07-16T15:53:06Z</time>
      </trkpt>
      <trkpt lat="46.31203" lon="4.82068">
        <ele>205.9</ele>
        <time>2025-07-16T15:53:07Z</time>
      </trkpt>
      <trkpt lat="46.31203" lon="4.82073">
        <ele>205.7</ele>
        <time>2025-07-16T15:53:08Z</time>
      </trkpt>
      <trkpt lat="46.31203" lon="4.82077">
        <ele>205.4</ele>
        <time>2025-07-16T15:53:09Z</time>
      </trkpt>
      <trkpt lat="46.31203" lon="4.82081">
        <ele>205.2</ele>
        <time>2025-07-16T15:53:10Z</time>
      </trkpt>
      <trkpt lat="46.31204" lon="4.82085">
        <ele>205</ele>
        <time>2025-07-16T15:53:11Z</time>
      </trkpt>
      <trkpt lat="46.31204" lon="4.82089">
        <ele>204.8</ele>
        <time>2025-07-16T15:53:12Z</time>
      </trkpt>
      <trkpt lat="46.31203" lon="4.82092">
        <ele>204.6</ele>
        <time>2025-07-16T15:53:13Z</time>
      </trkpt>
      <trkpt lat="46.31203" lon="4.82097">
        <ele>204.3</ele>
        <time>2025-07-16T15:53:14Z</time>
      </trkpt>
      <trkpt lat="46.31202" lon="4.82102">
        <ele>204</ele>
        <time>2025-07-16T15:53:15Z</time>
      </trkpt>
      <trkpt lat="46.31202" lon="4.82107">
        <ele>203.8</ele>
        <time>2025-07-16T15:53:16Z</time>
      </trkpt>
      <trkpt lat="46.31202" lon="4.82112">
        <ele>203.5</ele>
        <time>2025-07-16T15:53:17Z</time>
      </trkpt>
      <trkpt lat="46.31201" lon="4.82119">
        <ele>203.1</ele>
        <time>2025-07-16T15:53:18Z</time>
      </trkpt>
      <trkpt lat="46.312" lon="4.82126">
        <ele>202.9</ele>
        <time>2025-07-16T15:53:19Z</time>
      </trkpt>
      <trkpt lat="46.31199" lon="4.82136">
        <ele>202.8</ele>
        <time>2025-07-16T15:53:20Z</time>
      </trkpt>
      <trkpt lat="46.312" lon="4.82144">
        <ele>202.7</ele>
        <time>2025-07-16T15:53:21Z</time>
      </trkpt>
      <trkpt lat="46.31201" lon="4.82152">
        <ele>202.7</ele>
        <time>2025-07-16T15:53:22Z</time>
      </trkpt>
      <trkpt lat="46.31202" lon="4.82162">
        <ele>202.9</ele>
        <time>2025-07-16T15:53:23Z</time>
      </trkpt>
      <trkpt lat="46.31203" lon="4.82171">
        <ele>203.4</ele>
        <time>2025-07-16T15:53:24Z</time>
      </trkpt>
      <trkpt lat="46.31203" lon="4.82178">
        <ele>203.8</ele>
        <time>2025-07-16T15:53:25Z</time>
      </trkpt>
      <trkpt lat="46.31204" lon="4.82184">
        <ele>204.3</ele>
        <time>2025-07-16T15:53:26Z</time>
      </trkpt>
      <trkpt lat="46.31206" lon="4.82189">
        <ele>204.8</ele>
        <time>2025-07-16T15:53:27Z</time>
      </trkpt>
      <trkpt lat="46.31208" lon="4.82193">
        <ele>205.2</ele>
        <time>2025-07-16T15:53:28Z</time>
      </trkpt>
      <trkpt lat="46.31208" lon="4.82197">
        <ele>205.5</ele>
        <time>2025-07-16T15:53:29Z</time>
      </trkpt>
      <trkpt lat="46.31209" lon="4.822">
        <ele>205.9</ele>
        <time>2025-07-16T15:53:30Z</time>
      </trkpt>
      <trkpt lat="46.31209" lon="4.82203">
        <ele>206.2</ele>
        <time>2025-07-16T15:53:31Z</time>
      </trkpt>
      <trkpt lat="46.31208" lon="4.82207">
        <ele>206.5</ele>
        <time>2025-07-16T15:53:32Z</time>
      </trkpt>
      <trkpt lat="46.31208" lon="4.82209">
        <ele>206.7</ele>
        <time>2025-07-16T15:53:33Z</time>
      </trkpt>
      <trkpt lat="46.31208" lon="4.8221">
        <ele>206.9</ele>
        <time>2025-07-16T15:53:34Z</time>
      </trkpt>
      <trkpt lat="46.31206" lon="4.82213">
        <ele>206.9</ele>
        <time>2025-07-16T15:53:35Z</time>
      </trkpt>
      <trkpt lat="46.31204" lon="4.82214">
        <ele>206.8</ele>
        <time>2025-07-16T15:53:36Z</time>
      </trkpt>
      <trkpt lat="46.31202" lon="4.82215">
        <ele>206.8</ele>
        <time>2025-07-16T15:53:37Z</time>
      </trkpt>
      <trkpt lat="46.31198" lon="4.82217">
        <ele>206.8</ele>
        <time>2025-07-16T15:53:38Z</time>
      </trkpt>
      <trkpt lat="46.31195" lon="4.82218">
        <ele>206.7</ele>
        <time>2025-07-16T15:53:39Z</time>
      </trkpt>
      <trkpt lat="46.31191" lon="4.8222">
        <ele>206.7</ele>
        <time>2025-07-16T15:53:40Z</time>
      </trkpt>
      <trkpt lat="46.31187" lon="4.82221">
        <ele>206.7</ele>
        <time>2025-07-16T15:53:41Z</time>
      </trkpt>
      <trkpt lat="46.31183" lon="4.82222">
        <ele>206.6</ele>
        <time>2025-07-16T15:53:42Z</time>
      </trkpt>
      <trkpt lat="46.31179" lon="4.82222">
        <ele>206.6</ele>
        <time>2025-07-16T15:53:43Z</time>
      </trkpt>
      <trkpt lat="46.31175" lon="4.82223">
        <ele>206.6</ele>
        <time>2025-07-16T15:53:44Z</time>
      </trkpt>
      <trkpt lat="46.31171" lon="4.82224">
        <ele>206.6</ele>
        <time>2025-07-16T15:53:45Z</time>
      </trkpt>
      <trkpt lat="46.31166" lon="4.82226">
        <ele>206.5</ele>
        <time>2025-07-16T15:53:46Z</time>
      </trkpt>
      <trkpt lat="46.31161" lon="4.82227">
        <ele>206.5</ele>
        <time>2025-07-16T15:53:47Z</time>
      </trkpt>
      <trkpt lat="46.31156" lon="4.82228">
        <ele>206.4</ele>
        <time>2025-07-16T15:53:48Z</time>
      </trkpt>
      <trkpt lat="46.31151" lon="4.8223">
        <ele>206.4</ele>
        <time>2025-07-16T15:53:49Z</time>
      </trkpt>
      <trkpt lat="46.31146" lon="4.82232">
        <ele>206.3</ele>
        <time>2025-07-16T15:53:50Z</time>
      </trkpt>
      <trkpt lat="46.31141" lon="4.82235">
        <ele>206.2</ele>
        <time>2025-07-16T15:53:51Z</time>
      </trkpt>
      <trkpt lat="46.31137" lon="4.82238">
        <ele>206.2</ele>
        <time>2025-07-16T15:53:52Z</time>
      </trkpt>
      <trkpt lat="46.31133" lon="4.82241">
        <ele>206.1</ele>
        <time>2025-07-16T15:53:53Z</time>
      </trkpt>
      <trkpt lat="46.31128" lon="4.82244">
        <ele>206</ele>
        <time>2025-07-16T15:53:54Z</time>
      </trkpt>
      <trkpt lat="46.31124" lon="4.82249">
        <ele>206</ele>
        <time>2025-07-16T15:53:55Z</time>
      </trkpt>
      <trkpt lat="46.31121" lon="4.82253">
        <ele>205.9</ele>
        <time>2025-07-16T15:53:56Z</time>
      </trkpt>
      <trkpt lat="46.31117" lon="4.82257">
        <ele>205.8</ele>
        <time>2025-07-16T15:53:57Z</time>
      </trkpt>
      <trkpt lat="46.31114" lon="4.82262">
        <ele>205.7</ele>
        <time>2025-07-16T15:53:58Z</time>
      </trkpt>
      <trkpt lat="46.3111" lon="4.82266">
        <ele>205.7</ele>
        <time>2025-07-16T15:53:59Z</time>
      </trkpt>
      <trkpt lat="46.31107" lon="4.82271">
        <ele>205.6</ele>
        <time>2025-07-16T15:54:00Z</time>
      </trkpt>
      <trkpt lat="46.31103" lon="4.82275">
        <ele>205.5</ele>
        <time>2025-07-16T15:54:01Z</time>
      </trkpt>
      <trkpt lat="46.311" lon="4.82278">
        <ele>205.4</ele>
        <time>2025-07-16T15:54:02Z</time>
      </trkpt>
      <trkpt lat="46.31096" lon="4.82282">
        <ele>205.4</ele>
        <time>2025-07-16T15:54:03Z</time>
      </trkpt>
      <trkpt lat="46.31092" lon="4.82287">
        <ele>205.3</ele>
        <time>2025-07-16T15:54:04Z</time>
      </trkpt>
      <trkpt lat="46.31089" lon="4.82292">
        <ele>205.1</ele>
        <time>2025-07-16T15:54:05Z</time>
      </trkpt>
      <trkpt lat="46.31085" lon="4.82295">
        <ele>205.1</ele>
        <time>2025-07-16T15:54:06Z</time>
      </trkpt>
      <trkpt lat="46.3108" lon="4.82299">
        <ele>204.9</ele>
        <time>2025-07-16T15:54:07Z</time>
      </trkpt>
      <trkpt lat="46.31077" lon="4.82302">
        <ele>204.8</ele>
        <time>2025-07-16T15:54:08Z</time>
      </trkpt>
      <trkpt lat="46.31073" lon="4.82306">
        <ele>204.7</ele>
        <time>2025-07-16T15:54:09Z</time>
      </trkpt>
      <trkpt lat="46.3107" lon="4.82307">
        <ele>204.7</ele>
        <time>2025-07-16T15:54:10Z</time>
      </trkpt>
      <trkpt lat="46.31068" lon="4.8231">
        <ele>204.6</ele>
        <time>2025-07-16T15:54:11Z</time>
      </trkpt>
      <trkpt lat="46.31066" lon="4.82311">
        <ele>204.6</ele>
        <time>2025-07-16T15:54:12Z</time>
      </trkpt>
      <trkpt lat="46.31066" lon="4.82313">
        <ele>204.6</ele>
        <time>2025-07-16T15:54:13Z</time>
      </trkpt>
      <trkpt lat="46.31065" lon="4.82314">
        <ele>204.5</ele>
        <time>2025-07-16T15:54:14Z</time>
      </trkpt>
      <trkpt lat="46.31063" lon="4.82316">
        <ele>204.5</ele>
        <time>2025-07-16T15:54:15Z</time>
      </trkpt>
      <trkpt lat="46.31061" lon="4.82318">
        <ele>204.4</ele>
        <time>2025-07-16T15:54:16Z</time>
      </trkpt>
      <trkpt lat="46.31059" lon="4.82321">
        <ele>204.4</ele>
        <time>2025-07-16T15:54:17Z</time>
      </trkpt>
      <trkpt lat="46.31056" lon="4.82325">
        <ele>204.3</ele>
        <time>2025-07-16T15:54:18Z</time>
      </trkpt>
      <trkpt lat="46.31053" lon="4.82328">
        <ele>204.2</ele>
        <time>2025-07-16T15:54:19Z</time>
      </trkpt>
      <trkpt lat="46.3105" lon="4.82331">
        <ele>204.2</ele>
        <time>2025-07-16T15:54:20Z</time>
      </trkpt>
      <trkpt lat="46.31046" lon="4.82334">
        <ele>204.1</ele>
        <time>2025-07-16T15:54:21Z</time>
      </trkpt>
      <trkpt lat="46.31043" lon="4.82337">
        <ele>204</ele>
        <time>2025-07-16T15:54:22Z</time>
      </trkpt>
      <trkpt lat="46.3104" lon="4.82341">
        <ele>204</ele>
        <time>2025-07-16T15:54:23Z</time>
      </trkpt>
      <trkpt lat="46.31036" lon="4.82345">
        <ele>203.9</ele>
        <time>2025-07-16T15:54:24Z</time>
      </trkpt>
      <trkpt lat="46.31033" lon="4.82351">
        <ele>203.8</ele>
        <time>2025-07-16T15:54:25Z</time>
      </trkpt>
      <trkpt lat="46.31029" lon="4.82355">
        <ele>203.7</ele>
        <time>2025-07-16T15:54:26Z</time>
      </trkpt>
      <trkpt lat="46.31025" lon="4.8236">
        <ele>203.6</ele>
        <time>2025-07-16T15:54:27Z</time>
      </trkpt>
      <trkpt lat="46.31021" lon="4.82364">
        <ele>203.6</ele>
        <time>2025-07-16T15:54:28Z</time>
      </trkpt>
      <trkpt lat="46.31017" lon="4.82368">
        <ele>203.5</ele>
        <time>2025-07-16T15:54:29Z</time>
      </trkpt>
      <trkpt lat="46.31012" lon="4.82372">
        <ele>203.4</ele>
        <time>2025-07-16T15:54:30Z</time>
      </trkpt>
      <trkpt lat="46.31008" lon="4.82376">
        <ele>203.3</ele>
        <time>2025-07-16T15:54:31Z</time>
      </trkpt>
      <trkpt lat="46.31004" lon="4.82379">
        <ele>203.2</ele>
        <time>2025-07-16T15:54:32Z</time>
      </trkpt>
      <trkpt lat="46.31" lon="4.82383">
        <ele>203.1</ele>
        <time>2025-07-16T15:54:33Z</time>
      </trkpt>
      <trkpt lat="46.30997" lon="4.82386">
        <ele>203</ele>
        <time>2025-07-16T15:54:34Z</time>
      </trkpt>
      <trkpt lat="46.30994" lon="4.8239">
        <ele>203</ele>
        <time>2025-07-16T15:54:35Z</time>
      </trkpt>
      <trkpt lat="46.30991" lon="4.82394">
        <ele>202.9</ele>
        <time>2025-07-16T15:54:36Z</time>
      </trkpt>
      <trkpt lat="46.30988" lon="4.82398">
        <ele>202.9</ele>
        <time>2025-07-16T15:54:37Z</time>
      </trkpt>
      <trkpt lat="46.30984" lon="4.82402">
        <ele>202.8</ele>
        <time>2025-07-16T15:54:38Z</time>
      </trkpt>
      <trkpt lat="46.3098" lon="4.82405">
        <ele>202.7</ele>
        <time>2025-07-16T15:54:39Z</time>
      </trkpt>
      <trkpt lat="46.30976" lon="4.82409">
        <ele>202.7</ele>
        <time>2025-07-16T15:54:40Z</time>
      </trkpt>
      <trkpt lat="46.30973" lon="4.82413">
        <ele>202.6</ele>
        <time>2025-07-16T15:54:41Z</time>
      </trkpt>
      <trkpt lat="46.3097" lon="4.82416">
        <ele>202.5</ele>
        <time>2025-07-16T15:54:42Z</time>
      </trkpt>
      <trkpt lat="46.30966" lon="4.82421">
        <ele>202.4</ele>
        <time>2025-07-16T15:54:43Z</time>
      </trkpt>
      <trkpt lat="46.30962" lon="4.82426">
        <ele>202.4</ele>
        <time>2025-07-16T15:54:44Z</time>
      </trkpt>
      <trkpt lat="46.30959" lon="4.8243">
        <ele>202.3</ele>
        <time>2025-07-16T15:54:45Z</time>
      </trkpt>
      <trkpt lat="46.30957" lon="4.82434">
        <ele>202.2</ele>
        <time>2025-07-16T15:54:46Z</time>
      </trkpt>
      <trkpt lat="46.30953" lon="4.82438">
        <ele>202.1</ele>
        <time>2025-07-16T15:54:47Z</time>
      </trkpt>
      <trkpt lat="46.3095" lon="4.82443">
        <ele>202.1</ele>
        <time>2025-07-16T15:54:48Z</time>
      </trkpt>
      <trkpt lat="46.30948" lon="4.82447">
        <ele>202.1</ele>
        <time>2025-07-16T15:54:49Z</time>
      </trkpt>
      <trkpt lat="46.30945" lon="4.8245">
        <ele>202.1</ele>
        <time>2025-07-16T15:54:50Z</time>
      </trkpt>
      <trkpt lat="46.30942" lon="4.82452">
        <ele>202.1</ele>
        <time>2025-07-16T15:54:51Z</time>
      </trkpt>
      <trkpt lat="46.30941" lon="4.82455">
        <ele>202.1</ele>
        <time>2025-07-16T15:54:52Z</time>
      </trkpt>
      <trkpt lat="46.30939" lon="4.8246">
        <ele>202.2</ele>
        <time>2025-07-16T15:54:53Z</time>
      </trkpt>
      <trkpt lat="46.30939" lon="4.82466">
        <ele>202.3</ele>
        <time>2025-07-16T15:54:54Z</time>
      </trkpt>
      <trkpt lat="46.3094" lon="4.82472">
        <ele>202.4</ele>
        <time>2025-07-16T15:54:55Z</time>
      </trkpt>
      <trkpt lat="46.3094" lon="4.82479">
        <ele>202.4</ele>
        <time>2025-07-16T15:54:56Z</time>
      </trkpt>
      <trkpt lat="46.3094" lon="4.82485">
        <ele>202.5</ele>
        <time>2025-07-16T15:54:57Z</time>
      </trkpt>
      <trkpt lat="46.30938" lon="4.82491">
        <ele>202.6</ele>
        <time>2025-07-16T15:54:58Z</time>
      </trkpt>
      <trkpt lat="46.30935" lon="4.82496">
        <ele>202.6</ele>
        <time>2025-07-16T15:54:59Z</time>
      </trkpt>
      <trkpt lat="46.30932" lon="4.82501">
        <ele>202.7</ele>
        <time>2025-07-16T15:55:00Z</time>
      </trkpt>
      <trkpt lat="46.30932" lon="4.82507">
        <ele>202.8</ele>
        <time>2025-07-16T15:55:01Z</time>
      </trkpt>
      <trkpt lat="46.30929" lon="4.82512">
        <ele>202.8</ele>
        <time>2025-07-16T15:55:02Z</time>
      </trkpt>
      <trkpt lat="46.30927" lon="4.82517">
        <ele>202.9</ele>
        <time>2025-07-16T15:55:03Z</time>
      </trkpt>
      <trkpt lat="46.30925" lon="4.82522">
        <ele>202.9</ele>
        <time>2025-07-16T15:55:04Z</time>
      </trkpt>
      <trkpt lat="46.30922" lon="4.82527">
        <ele>203</ele>
        <time>2025-07-16T15:55:05Z</time>
      </trkpt>
      <trkpt lat="46.30921" lon="4.82531">
        <ele>203</ele>
        <time>2025-07-16T15:55:06Z</time>
      </trkpt>
      <trkpt lat="46.30919" lon="4.82535">
        <ele>203</ele>
        <time>2025-07-16T15:55:07Z</time>
      </trkpt>
      <trkpt lat="46.30917" lon="4.8254">
        <ele>203</ele>
        <time>2025-07-16T15:55:08Z</time>
      </trkpt>
      <trkpt lat="46.30914" lon="4.82545">
        <ele>203</ele>
        <time>2025-07-16T15:55:09Z</time>
      </trkpt>
      <trkpt lat="46.30912" lon="4.8255">
        <ele>202.9</ele>
        <time>2025-07-16T15:55:10Z</time>
      </trkpt>
      <trkpt lat="46.3091" lon="4.82556">
        <ele>202.8</ele>
        <time>2025-07-16T15:55:11Z</time>
      </trkpt>
      <trkpt lat="46.30907" lon="4.82562">
        <ele>202.7</ele>
        <time>2025-07-16T15:55:12Z</time>
      </trkpt>
      <trkpt lat="46.30904" lon="4.82567">
        <ele>202.6</ele>
        <time>2025-07-16T15:55:13Z</time>
      </trkpt>
      <trkpt lat="46.30902" lon="4.82573">
        <ele>202.5</ele>
        <time>2025-07-16T15:55:14Z</time>
      </trkpt>
      <trkpt lat="46.30902" lon="4.8258">
        <ele>202.4</ele>
        <time>2025-07-16T15:55:15Z</time>
      </trkpt>
      <trkpt lat="46.30904" lon="4.82587">
        <ele>202.4</ele>
        <time>2025-07-16T15:55:16Z</time>
      </trkpt>
      <trkpt lat="46.30906" lon="4.82594">
        <ele>202.5</ele>
        <time>2025-07-16T15:55:17Z</time>
      </trkpt>
      <trkpt lat="46.3091" lon="4.826">
        <ele>202.5</ele>
        <time>2025-07-16T15:55:18Z</time>
      </trkpt>
      <trkpt lat="46.30914" lon="4.82605">
        <ele>202.6</ele>
        <time>2025-07-16T15:55:19Z</time>
      </trkpt>
      <trkpt lat="46.30919" lon="4.82612">
        <ele>202.7</ele>
        <time>2025-07-16T15:55:20Z</time>
      </trkpt>
      <trkpt lat="46.30923" lon="4.82618">
        <ele>202.7</ele>
        <time>2025-07-16T15:55:21Z</time>
      </trkpt>
      <trkpt lat="46.30927" lon="4.82623">
        <ele>202.8</ele>
        <time>2025-07-16T15:55:22Z</time>
      </trkpt>
      <trkpt lat="46.30931" lon="4.82629">
        <ele>202.8</ele>
        <time>2025-07-16T15:55:23Z</time>
      </trkpt>
      <trkpt lat="46.30934" lon="4.82633">
        <ele>202.8</ele>
        <time>2025-07-16T15:55:24Z</time>
      </trkpt>
      <trkpt lat="46.30937" lon="4.82638">
        <ele>202.8</ele>
        <time>2025-07-16T15:55:25Z</time>
      </trkpt>
      <trkpt lat="46.30941" lon="4.82643">
        <ele>202.8</ele>
        <time>2025-07-16T15:55:26Z</time>
      </trkpt>
      <trkpt lat="46.30945" lon="4.82647">
        <ele>202.8</ele>
        <time>2025-07-16T15:55:27Z</time>
      </trkpt>
      <trkpt lat="46.30949" lon="4.82652">
        <ele>202.8</ele>
        <time>2025-07-16T15:55:28Z</time>
      </trkpt>
      <trkpt lat="46.30953" lon="4.82657">
        <ele>202.7</ele>
        <time>2025-07-16T15:55:29Z</time>
      </trkpt>
      <trkpt lat="46.30957" lon="4.82661">
        <ele>202.7</ele>
        <time>2025-07-16T15:55:30Z</time>
      </trkpt>
      <trkpt lat="46.3096" lon="4.82666">
        <ele>202.7</ele>
        <time>2025-07-16T15:55:31Z</time>
      </trkpt>
      <trkpt lat="46.30963" lon="4.82669">
        <ele>202.7</ele>
        <time>2025-07-16T15:55:32Z</time>
      </trkpt>
      <trkpt lat="46.30966" lon="4.82674">
        <ele>202.6</ele>
        <time>2025-07-16T15:55:33Z</time>
      </trkpt>
      <trkpt lat="46.30969" lon="4.82677">
        <ele>202.6</ele>
        <time>2025-07-16T15:55:34Z</time>
      </trkpt>
      <trkpt lat="46.30972" lon="4.82681">
        <ele>202.6</ele>
        <time>2025-07-16T15:55:35Z</time>
      </trkpt>
      <trkpt lat="46.30974" lon="4.82686">
        <ele>202.7</ele>
        <time>2025-07-16T15:55:36Z</time>
      </trkpt>
      <trkpt lat="46.30974" lon="4.8269">
        <ele>202.7</ele>
        <time>2025-07-16T15:55:37Z</time>
      </trkpt>
      <trkpt lat="46.30973" lon="4.82694">
        <ele>203.3</ele>
        <time>2025-07-16T15:55:38Z</time>
      </trkpt>
      <trkpt lat="46.3097" lon="4.82696">
        <ele>203</ele>
        <time>2025-07-16T15:55:39Z</time>
      </trkpt>
      <trkpt lat="46.30967" lon="4.827">
        <ele>202.7</ele>
        <time>2025-07-16T15:55:40Z</time>
      </trkpt>
      <trkpt lat="46.30964" lon="4.82705">
        <ele>202.4</ele>
        <time>2025-07-16T15:55:41Z</time>
      </trkpt>
      <trkpt lat="46.30961" lon="4.82709">
        <ele>202.1</ele>
        <time>2025-07-16T15:55:42Z</time>
      </trkpt>
      <trkpt lat="46.30957" lon="4.82713">
        <ele>201.7</ele>
        <time>2025-07-16T15:55:43Z</time>
      </trkpt>
      <trkpt lat="46.30953" lon="4.82717">
        <ele>201.4</ele>
        <time>2025-07-16T15:55:44Z</time>
      </trkpt>
      <trkpt lat="46.3095" lon="4.82721">
        <ele>201.1</ele>
        <time>2025-07-16T15:55:45Z</time>
      </trkpt>
      <trkpt lat="46.30947" lon="4.82725">
        <ele>200.8</ele>
        <time>2025-07-16T15:55:46Z</time>
      </trkpt>
      <trkpt lat="46.30944" lon="4.82729">
        <ele>200.5</ele>
        <time>2025-07-16T15:55:47Z</time>
      </trkpt>
      <trkpt lat="46.30941" lon="4.82732">
        <ele>200.3</ele>
        <time>2025-07-16T15:55:48Z</time>
      </trkpt>
      <trkpt lat="46.30938" lon="4.82736">
        <ele>200</ele>
        <time>2025-07-16T15:55:49Z</time>
      </trkpt>
      <trkpt lat="46.30935" lon="4.82739">
        <ele>199.9</ele>
        <time>2025-07-16T15:55:50Z</time>
      </trkpt>
      <trkpt lat="46.30932" lon="4.82743">
        <ele>199.9</ele>
        <time>2025-07-16T15:55:51Z</time>
      </trkpt>
      <trkpt lat="46.30929" lon="4.82746">
        <ele>199.8</ele>
        <time>2025-07-16T15:55:52Z</time>
      </trkpt>
      <trkpt lat="46.30927" lon="4.82748">
        <ele>199.7</ele>
        <time>2025-07-16T15:55:53Z</time>
      </trkpt>
      <trkpt lat="46.30924" lon="4.82749">
        <ele>199.6</ele>
        <time>2025-07-16T15:55:54Z</time>
      </trkpt>
      <trkpt lat="46.30921" lon="4.8275">
        <ele>199.5</ele>
        <time>2025-07-16T15:55:55Z</time>
      </trkpt>
      <trkpt lat="46.30919" lon="4.8275">
        <ele>199.4</ele>
        <time>2025-07-16T15:55:56Z</time>
      </trkpt>
      <trkpt lat="46.30917" lon="4.8275">
        <ele>199.4</ele>
        <time>2025-07-16T15:55:57Z</time>
      </trkpt>
      <trkpt lat="46.30915" lon="4.82748">
        <ele>199.3</ele>
        <time>2025-07-16T15:55:58Z</time>
      </trkpt>
      <trkpt lat="46.30915" lon="4.82747">
        <ele>199.3</ele>
        <time>2025-07-16T15:55:59Z</time>
      </trkpt>
      <trkpt lat="46.30915" lon="4.82746">
        <ele>199.3</ele>
        <time>2025-07-16T15:56:00Z</time>
      </trkpt>
      <trkpt lat="46.30914" lon="4.82745">
        <ele>199.3</ele>
        <time>2025-07-16T15:56:01Z</time>
      </trkpt>
      <trkpt lat="46.30914" lon="4.82744">
        <ele>199.2</ele>
        <time>2025-07-16T15:56:02Z</time>
      </trkpt>
      <trkpt lat="46.30914" lon="4.82743">
        <ele>199.2</ele>
        <time>2025-07-16T15:56:03Z</time>
      </trkpt>
      <trkpt lat="46.30913" lon="4.82742">
        <ele>199.2</ele>
        <time>2025-07-16T15:56:04Z</time>
      </trkpt>
      <trkpt lat="46.30913" lon="4.82741">
        <ele>199.2</ele>
        <time>2025-07-16T15:56:05Z</time>
      </trkpt>
      <trkpt lat="46.30913" lon="4.8274">
        <ele>199.1</ele>
        <time>2025-07-16T15:56:06Z</time>
      </trkpt>
      <trkpt lat="46.30912" lon="4.82739">
        <ele>199.1</ele>
        <time>2025-07-16T15:56:07Z</time>
      </trkpt>
      <trkpt lat="46.30912" lon="4.82738">
        <ele>199.1</ele>
        <time>2025-07-16T15:56:08Z</time>
      </trkpt>
      <trkpt lat="46.30912" lon="4.82737">
        <ele>199.1</ele>
        <time>2025-07-16T15:56:09Z</time>
      </trkpt>
      <trkpt lat="46.30911" lon="4.82736">
        <ele>199</ele>
        <time>2025-07-16T15:56:10Z</time>
      </trkpt>
      <trkpt lat="46.3091" lon="4.82735">
        <ele>199</ele>
        <time>2025-07-16T15:56:11Z</time>
      </trkpt>
      <trkpt lat="46.30909" lon="4.82734">
        <ele>198.9</ele>
        <time>2025-07-16T15:56:12Z</time>
      </trkpt>
      <trkpt lat="46.30909" lon="4.82733">
        <ele>198.9</ele>
        <time>2025-07-16T15:56:13Z</time>
      </trkpt>
      <trkpt lat="46.3091" lon="4.82732">
        <ele>198.9</ele>
        <time>2025-07-16T15:56:14Z</time>
      </trkpt>
      <trkpt lat="46.3091" lon="4.82732">
        <ele>198.9</ele>
        <time>2025-07-16T15:56:15Z</time>
      </trkpt>
      <trkpt lat="46.3091" lon="4.82732">
        <ele>198.9</ele>
        <time>2025-07-16T15:56:16Z</time>
      </trkpt>
      <trkpt lat="46.3091" lon="4.82732">
        <ele>198.9</ele>
        <time>2025-07-16T15:56:17Z</time>
      </trkpt>
      <trkpt lat="46.3091" lon="4.82732">
        <ele>198.9</ele>
        <time>2025-07-16T15:56:18Z</time>
      </trkpt>
      <trkpt lat="46.3091" lon="4.82732">
        <ele>198.9</ele>
        <time>2025-07-16T15:56:19Z</time>
      </trkpt>
      <trkpt lat="46.3091" lon="4.82732">
        <ele>198.9</ele>
        <time>2025-07-16T15:56:20Z</time>
      </trkpt>
      <trkpt lat="46.3091" lon="4.82732">
        <ele>198.9</ele>
        <time>2025-07-16T15:56:21Z</time>
      </trkpt>
      <trkpt lat="46.3091" lon="4.82732">
        <ele>198.9</ele>
        <time>2025-07-16T15:56:22Z</time>
      </trkpt>
      <trkpt lat="46.3091" lon="4.82732">
        <ele>198.9</ele>
        <time>2025-07-16T15:56:23Z</time>
      </trkpt>
      <trkpt lat="46.3091" lon="4.82732">
        <ele>198.9</ele>
        <time>2025-07-16T15:56:24Z</time>
      </trkpt>
      <trkpt lat="46.3091" lon="4.82732">
        <ele>198.9</ele>
        <time>2025-07-16T15:56:25Z</time>
      </trkpt>
      <trkpt lat="46.3091" lon="4.82732">
        <ele>198.9</ele>
        <time>2025-07-16T15:56:26Z</time>
      </trkpt>
      <trkpt lat="46.3091" lon="4.82732">
        <ele>198.9</ele>
        <time>2025-07-16T15:56:27Z</time>
      </trkpt>
      <trkpt lat="46.3091" lon="4.82732">
        <ele>198.9</ele>
        <time>2025-07-16T15:56:28Z</time>
      </trkpt>
      <trkpt lat="46.3091" lon="4.82732">
        <ele>198.9</ele>
        <time>2025-07-16T15:56:29Z</time>
      </trkpt>
      <trkpt lat="46.3091" lon="4.82732">
        <ele>198.9</ele>
        <time>2025-07-16T15:56:30Z</time>
      </trkpt>
      <trkpt lat="46.3091" lon="4.82732">
        <ele>198.9</ele>
        <time>2025-07-16T15:56:31Z</time>
      </trkpt>
      <trkpt lat="46.3091" lon="4.82732">
        <ele>198.9</ele>
        <time>2025-07-16T15:56:32Z</time>
      </trkpt>
      <trkpt lat="46.3091" lon="4.82732">
        <ele>198.9</ele>
        <time>2025-07-16T15:56:33Z</time>
      </trkpt>
      <trkpt lat="46.3091" lon="4.82732">
        <ele>198.9</ele>
        <time>2025-07-16T15:56:34Z</time>
      </trkpt>
      <trkpt lat="46.3091" lon="4.82732">
        <ele>198.9</ele>
        <time>2025-07-16T15:56:35Z</time>
      </trkpt>
      <trkpt lat="46.3091" lon="4.82732">
        <ele>198.9</ele>
        <time>2025-07-16T15:56:36Z</time>
      </trkpt>
      <trkpt lat="46.3091" lon="4.82732">
        <ele>198.9</ele>
        <time>2025-07-16T15:56:37Z</time>
      </trkpt>
      <trkpt lat="46.3091" lon="4.82732">
        <ele>198.9</ele>
        <time>2025-07-16T15:56:38Z</time>
      </trkpt>
    </trkseg>
  </trk>
</gpx>